<?xml version='1.0' encoding='UTF-8'?><gpx version="1.1" creator="JPX - https://github.com/jenetics/jpx" xmlns="http://www.topografix.com/GPX/1/1"><trk><trkseg><trkpt lat="45.7877024" lon="9.9796787"><ele>336.0</ele><time>2026-04-25T13:53:10.321Z</time></trkpt><trkpt lat="45.7877171" lon="9.9795848"><ele>336.0</ele><time>2026-04-25T13:53:19.45Z</time></trkpt><trkpt lat="45.7877267" lon="9.9794935"><ele>336.0</ele><time>2026-04-25T13:53:29.322Z</time></trkpt><trkpt lat="45.7876674" lon="9.9794479"><ele>336.0</ele><time>2026-04-25T13:53:40.306Z</time></trkpt><trkpt lat="45.7876456" lon="9.9795401"><ele>336.0</ele><time>2026-04-25T13:53:49.439Z</time></trkpt><trkpt lat="45.7876904" lon="9.9796515"><ele>336.0</ele><time>2026-04-25T13:53:54.322Z</time></trkpt><trkpt lat="45.7877408" lon="9.9797353"><ele>336.0</ele><time>2026-04-25T13:53:57.842Z</time></trkpt><trkpt lat="45.7877857" lon="9.979804"><ele>336.0</ele><time>2026-04-25T13:54:02.321Z</time></trkpt><trkpt lat="45.7877865" lon="9.9796955"><ele>336.0</ele><time>2026-04-25T13:55:11.424Z</time></trkpt><trkpt lat="45.7878293" lon="9.9796235"><ele>336.0</ele><time>2026-04-25T13:55:16.829Z</time></trkpt><trkpt lat="45.7878154" lon="9.979718"><ele>336.0</ele><time>2026-04-25T14:14:34.321Z</time></trkpt><trkpt lat="45.7877575" lon="9.9797641"><ele>336.0</ele><time>2026-04-25T14:16:43.321Z</time></trkpt><trkpt lat="45.7876911" lon="9.9798016"><ele>336.0</ele><time>2026-04-25T14:16:49.248Z</time></trkpt><trkpt lat="45.7876403" lon="9.9798602"><ele>336.0</ele><time>2026-04-25T14:16:54.32Z</time></trkpt><trkpt lat="45.7875736" lon="9.9798823"><ele>336.3333333333333</ele><time>2026-04-25T14:17:02.31Z</time></trkpt><trkpt lat="45.7875162" lon="9.9798156"><ele>336.6666666666667</ele><time>2026-04-25T14:17:09.321Z</time></trkpt><trkpt lat="45.7875138" lon="9.9797176"><ele>337.0</ele><time>2026-04-25T14:18:02.321Z</time></trkpt><trkpt lat="45.787487" lon="9.9798209"><ele>337.33333333333337</ele><time>2026-04-25T14:19:20.321Z</time></trkpt><trkpt lat="45.7875114" lon="9.9799404"><ele>337.6666666666667</ele><time>2026-04-25T14:19:22.321Z</time></trkpt><trkpt lat="45.7875444" lon="9.9800479"><ele>338.0</ele><time>2026-04-25T14:19:24.321Z</time></trkpt><trkpt lat="45.787576" lon="9.9802004"><ele>338.0</ele><time>2026-04-25T14:19:26.321Z</time></trkpt><trkpt lat="45.7875933" lon="9.9802902"><ele>338.0</ele><time>2026-04-25T14:19:27.321Z</time></trkpt><trkpt lat="45.7876113" lon="9.980378"><ele>338.0</ele><time>2026-04-25T14:19:28.321Z</time></trkpt><trkpt lat="45.7876556" lon="9.9805374"><ele>338.0</ele><time>2026-04-25T14:19:30.321Z</time></trkpt><trkpt lat="45.787697" lon="9.9806942"><ele>338.0</ele><time>2026-04-25T14:19:32.321Z</time></trkpt><trkpt lat="45.787751" lon="9.9808445"><ele>338.2857142857143</ele><time>2026-04-25T14:19:34.321Z</time></trkpt><trkpt lat="45.7877893" lon="9.9809186"><ele>338.57142857142856</ele><time>2026-04-25T14:19:35.321Z</time></trkpt><trkpt lat="45.7878335" lon="9.980996"><ele>338.8571428571429</ele><time>2026-04-25T14:19:36.321Z</time></trkpt><trkpt lat="45.7878737" lon="9.9810824"><ele>339.1428571428571</ele><time>2026-04-25T14:19:37.321Z</time></trkpt><trkpt lat="45.7879236" lon="9.9811631"><ele>339.4285714285714</ele><time>2026-04-25T14:19:38.32Z</time></trkpt><trkpt lat="45.7879797" lon="9.9812321"><ele>339.7142857142857</ele><time>2026-04-25T14:19:39.321Z</time></trkpt><trkpt lat="45.7880392" lon="9.981301"><ele>340.0</ele><time>2026-04-25T14:19:40.321Z</time></trkpt><trkpt lat="45.7880666" lon="9.9813885"><ele>340.0</ele><time>2026-04-25T14:19:41.321Z</time></trkpt><trkpt lat="45.7880481" lon="9.9814842"><ele>340.0</ele><time>2026-04-25T14:19:42.32Z</time></trkpt><trkpt lat="45.7879884" lon="9.9815721"><ele>340.0</ele><time>2026-04-25T14:19:43.321Z</time></trkpt><trkpt lat="45.7879168" lon="9.9816384"><ele>340.0</ele><time>2026-04-25T14:19:44.321Z</time></trkpt><trkpt lat="45.7878147" lon="9.9816907"><ele>340.0</ele><time>2026-04-25T14:19:45.322Z</time></trkpt><trkpt lat="45.787702" lon="9.9817466"><ele>339.75</ele><time>2026-04-25T14:19:46.32Z</time></trkpt><trkpt lat="45.7875767" lon="9.9818081"><ele>339.5</ele><time>2026-04-25T14:19:47.321Z</time></trkpt><trkpt lat="45.7874437" lon="9.9818747"><ele>339.25</ele><time>2026-04-25T14:19:48.321Z</time></trkpt><trkpt lat="45.7873035" lon="9.9819448"><ele>339.0</ele><time>2026-04-25T14:19:49.321Z</time></trkpt><trkpt lat="45.7871542" lon="9.982017"><ele>339.0</ele><time>2026-04-25T14:19:50.321Z</time></trkpt><trkpt lat="45.7870047" lon="9.9820948"><ele>339.0</ele><time>2026-04-25T14:19:51.321Z</time></trkpt><trkpt lat="45.7868515" lon="9.9821806"><ele>339.0</ele><time>2026-04-25T14:19:52.32Z</time></trkpt><trkpt lat="45.7866978" lon="9.9822667"><ele>339.0</ele><time>2026-04-25T14:19:53.321Z</time></trkpt><trkpt lat="45.7865435" lon="9.9823537"><ele>339.0</ele><time>2026-04-25T14:19:54.32Z</time></trkpt><trkpt lat="45.7863885" lon="9.9824455"><ele>339.0</ele><time>2026-04-25T14:19:55.32Z</time></trkpt><trkpt lat="45.7862336" lon="9.982549"><ele>339.0</ele><time>2026-04-25T14:19:56.321Z</time></trkpt><trkpt lat="45.7860798" lon="9.9826521"><ele>339.0</ele><time>2026-04-25T14:19:57.321Z</time></trkpt><trkpt lat="45.7859257" lon="9.9827527"><ele>339.0</ele><time>2026-04-25T14:19:58.321Z</time></trkpt><trkpt lat="45.7857717" lon="9.9828396"><ele>340.3333333333333</ele><time>2026-04-25T14:19:59.321Z</time></trkpt><trkpt lat="45.7856201" lon="9.9828987"><ele>341.66666666666663</ele><time>2026-04-25T14:20:00.321Z</time></trkpt><trkpt lat="45.7854719" lon="9.9829336"><ele>343.0</ele><time>2026-04-25T14:20:01.32Z</time></trkpt><trkpt lat="45.7853252" lon="9.9829454"><ele>343.0</ele><time>2026-04-25T14:20:02.32Z</time></trkpt><trkpt lat="45.7851834" lon="9.9829229"><ele>343.0</ele><time>2026-04-25T14:20:03.321Z</time></trkpt><trkpt lat="45.7850467" lon="9.9828859"><ele>343.0</ele><time>2026-04-25T14:20:04.32Z</time></trkpt><trkpt lat="45.7849122" lon="9.9828503"><ele>343.0</ele><time>2026-04-25T14:20:05.321Z</time></trkpt><trkpt lat="45.7847749" lon="9.9828276"><ele>344.25</ele><time>2026-04-25T14:20:06.321Z</time></trkpt><trkpt lat="45.7846371" lon="9.9828092"><ele>345.5</ele><time>2026-04-25T14:20:07.321Z</time></trkpt><trkpt lat="45.7844974" lon="9.9828023"><ele>346.75</ele><time>2026-04-25T14:20:08.321Z</time></trkpt><trkpt lat="45.7843573" lon="9.9828032"><ele>348.0</ele><time>2026-04-25T14:20:09.321Z</time></trkpt><trkpt lat="45.7842161" lon="9.9828074"><ele>349.75</ele><time>2026-04-25T14:20:10.321Z</time></trkpt><trkpt lat="45.7840762" lon="9.9828175"><ele>351.5</ele><time>2026-04-25T14:20:11.321Z</time></trkpt><trkpt lat="45.7839376" lon="9.9828365"><ele>353.25</ele><time>2026-04-25T14:20:12.32Z</time></trkpt><trkpt lat="45.7838015" lon="9.982865"><ele>355.0</ele><time>2026-04-25T14:20:13.321Z</time></trkpt><trkpt lat="45.7836675" lon="9.9828953"><ele>355.0</ele><time>2026-04-25T14:20:14.321Z</time></trkpt><trkpt lat="45.7835461" lon="9.9829207"><ele>355.0</ele><time>2026-04-25T14:20:15.321Z</time></trkpt><trkpt lat="45.7834366" lon="9.9829394"><ele>355.0</ele><time>2026-04-25T14:20:16.321Z</time></trkpt><trkpt lat="45.7833353" lon="9.9829558"><ele>355.0</ele><time>2026-04-25T14:20:17.321Z</time></trkpt><trkpt lat="45.783249" lon="9.9829715"><ele>355.0</ele><time>2026-04-25T14:20:18.321Z</time></trkpt><trkpt lat="45.783178" lon="9.982983"><ele>355.8333333333333</ele><time>2026-04-25T14:20:19.32Z</time></trkpt><trkpt lat="45.7831149" lon="9.9829916"><ele>356.66666666666663</ele><time>2026-04-25T14:20:20.321Z</time></trkpt><trkpt lat="45.7830217" lon="9.9830659"><ele>357.5</ele><time>2026-04-25T14:20:22.32Z</time></trkpt><trkpt lat="45.7830274" lon="9.9831714"><ele>358.3333333333333</ele><time>2026-04-25T14:20:23.321Z</time></trkpt><trkpt lat="45.783034" lon="9.9832795"><ele>359.1666666666667</ele><time>2026-04-25T14:20:24.32Z</time></trkpt><trkpt lat="45.7830469" lon="9.9833944"><ele>360.0</ele><time>2026-04-25T14:20:25.321Z</time></trkpt><trkpt lat="45.7830638" lon="9.9834991"><ele>360.0</ele><time>2026-04-25T14:20:26.321Z</time></trkpt><trkpt lat="45.783093" lon="9.9836421"><ele>360.0</ele><time>2026-04-25T14:20:28.32Z</time></trkpt><trkpt lat="45.7831089" lon="9.9837411"><ele>360.0</ele><time>2026-04-25T14:20:31.321Z</time></trkpt><trkpt lat="45.783132" lon="9.9838256"><ele>360.0</ele><time>2026-04-25T14:20:33.32Z</time></trkpt><trkpt lat="45.7831608" lon="9.9839654"><ele>360.0</ele><time>2026-04-25T14:20:35.32Z</time></trkpt><trkpt lat="45.7831841" lon="9.9840574"><ele>360.0</ele><time>2026-04-25T14:20:36.32Z</time></trkpt><trkpt lat="45.7832068" lon="9.9841496"><ele>359.2</ele><time>2026-04-25T14:20:37.321Z</time></trkpt><trkpt lat="45.7832346" lon="9.9842633"><ele>358.4</ele><time>2026-04-25T14:20:38.32Z</time></trkpt><trkpt lat="45.7832785" lon="9.9843922"><ele>357.6</ele><time>2026-04-25T14:20:39.319Z</time></trkpt><trkpt lat="45.7833306" lon="9.9845168"><ele>356.8</ele><time>2026-04-25T14:20:40.32Z</time></trkpt><trkpt lat="45.7833813" lon="9.9846595"><ele>356.0</ele><time>2026-04-25T14:20:41.321Z</time></trkpt><trkpt lat="45.7834323" lon="9.9847854"><ele>356.0</ele><time>2026-04-25T14:20:42.321Z</time></trkpt><trkpt lat="45.7834804" lon="9.9849111"><ele>356.0</ele><time>2026-04-25T14:20:43.321Z</time></trkpt><trkpt lat="45.7835223" lon="9.9850443"><ele>356.0</ele><time>2026-04-25T14:20:44.32Z</time></trkpt><trkpt lat="45.7835594" lon="9.9851818"><ele>356.0</ele><time>2026-04-25T14:20:45.319Z</time></trkpt><trkpt lat="45.7835826" lon="9.9853194"><ele>356.0</ele><time>2026-04-25T14:20:46.321Z</time></trkpt><trkpt lat="45.7835919" lon="9.9854685"><ele>354.20000000000005</ele><time>2026-04-25T14:20:47.32Z</time></trkpt><trkpt lat="45.7835992" lon="9.9856187"><ele>352.40000000000003</ele><time>2026-04-25T14:20:48.32Z</time></trkpt><trkpt lat="45.7836096" lon="9.9857733"><ele>350.6</ele><time>2026-04-25T14:20:49.321Z</time></trkpt><trkpt lat="45.7836232" lon="9.9859252"><ele>348.8</ele><time>2026-04-25T14:20:50.32Z</time></trkpt><trkpt lat="45.7836486" lon="9.9860785"><ele>347.0</ele><time>2026-04-25T14:20:51.322Z</time></trkpt><trkpt lat="45.7836797" lon="9.9862258"><ele>346.20000000000005</ele><time>2026-04-25T14:20:52.321Z</time></trkpt><trkpt lat="45.783717" lon="9.9863697"><ele>345.4</ele><time>2026-04-25T14:20:53.321Z</time></trkpt><trkpt lat="45.7837617" lon="9.986515"><ele>344.6</ele><time>2026-04-25T14:20:54.32Z</time></trkpt><trkpt lat="45.7838059" lon="9.9866526"><ele>343.79999999999995</ele><time>2026-04-25T14:20:55.321Z</time></trkpt><trkpt lat="45.7838511" lon="9.9868008"><ele>343.0</ele><time>2026-04-25T14:20:56.321Z</time></trkpt><trkpt lat="45.7838927" lon="9.9869543"><ele>343.0</ele><time>2026-04-25T14:20:57.32Z</time></trkpt><trkpt lat="45.7839294" lon="9.9871093"><ele>343.0</ele><time>2026-04-25T14:20:58.321Z</time></trkpt><trkpt lat="45.7839648" lon="9.9872563"><ele>343.0</ele><time>2026-04-25T14:20:59.319Z</time></trkpt><trkpt lat="45.7840092" lon="9.9874003"><ele>343.0</ele><time>2026-04-25T14:21:00.321Z</time></trkpt><trkpt lat="45.7840637" lon="9.9875388"><ele>343.0</ele><time>2026-04-25T14:21:01.32Z</time></trkpt><trkpt lat="45.7841298" lon="9.9876764"><ele>343.0</ele><time>2026-04-25T14:21:02.321Z</time></trkpt><trkpt lat="45.7841999" lon="9.987805"><ele>343.0</ele><time>2026-04-25T14:21:03.322Z</time></trkpt><trkpt lat="45.7842749" lon="9.987931"><ele>343.0</ele><time>2026-04-25T14:21:04.32Z</time></trkpt><trkpt lat="45.784345" lon="9.9880674"><ele>343.0</ele><time>2026-04-25T14:21:05.32Z</time></trkpt><trkpt lat="45.7844017" lon="9.9882147"><ele>342.0</ele><time>2026-04-25T14:21:06.321Z</time></trkpt><trkpt lat="45.7844428" lon="9.9883637"><ele>341.0</ele><time>2026-04-25T14:21:07.32Z</time></trkpt><trkpt lat="45.7844641" lon="9.9885187"><ele>340.0</ele><time>2026-04-25T14:21:08.321Z</time></trkpt><trkpt lat="45.7844753" lon="9.9886792"><ele>339.0</ele><time>2026-04-25T14:21:09.321Z</time></trkpt><trkpt lat="45.7844901" lon="9.9888395"><ele>338.0</ele><time>2026-04-25T14:21:10.32Z</time></trkpt><trkpt lat="45.7845117" lon="9.989002"><ele>338.0</ele><time>2026-04-25T14:21:11.32Z</time></trkpt><trkpt lat="45.7845332" lon="9.9891637"><ele>338.0</ele><time>2026-04-25T14:21:12.321Z</time></trkpt><trkpt lat="45.7845507" lon="9.9893331"><ele>338.0</ele><time>2026-04-25T14:21:13.319Z</time></trkpt><trkpt lat="45.7845706" lon="9.9894903"><ele>338.0</ele><time>2026-04-25T14:21:14.321Z</time></trkpt><trkpt lat="45.7845882" lon="9.9896459"><ele>338.5</ele><time>2026-04-25T14:21:15.32Z</time></trkpt><trkpt lat="45.784619" lon="9.9898058"><ele>339.0</ele><time>2026-04-25T14:21:16.32Z</time></trkpt><trkpt lat="45.7846607" lon="9.9899531"><ele>339.5</ele><time>2026-04-25T14:21:17.32Z</time></trkpt><trkpt lat="45.7847097" lon="9.9900985"><ele>340.0</ele><time>2026-04-25T14:21:18.32Z</time></trkpt><trkpt lat="45.7847576" lon="9.9902441"><ele>340.8</ele><time>2026-04-25T14:21:19.321Z</time></trkpt><trkpt lat="45.7848054" lon="9.9903806"><ele>341.6</ele><time>2026-04-25T14:21:20.32Z</time></trkpt><trkpt lat="45.7848484" lon="9.9905185"><ele>342.4</ele><time>2026-04-25T14:21:21.321Z</time></trkpt><trkpt lat="45.7848922" lon="9.9906545"><ele>343.2</ele><time>2026-04-25T14:21:22.32Z</time></trkpt><trkpt lat="45.7849472" lon="9.9907813"><ele>344.0</ele><time>2026-04-25T14:21:23.321Z</time></trkpt><trkpt lat="45.7850074" lon="9.9909041"><ele>343.79999999999995</ele><time>2026-04-25T14:21:24.321Z</time></trkpt><trkpt lat="45.7850667" lon="9.9910302"><ele>343.59999999999997</ele><time>2026-04-25T14:21:25.32Z</time></trkpt><trkpt lat="45.7851215" lon="9.9911589"><ele>343.4</ele><time>2026-04-25T14:21:26.321Z</time></trkpt><trkpt lat="45.7851738" lon="9.9912842"><ele>343.2</ele><time>2026-04-25T14:21:27.32Z</time></trkpt><trkpt lat="45.7852232" lon="9.9914082"><ele>343.0</ele><time>2026-04-25T14:21:28.32Z</time></trkpt><trkpt lat="45.7852734" lon="9.9915274"><ele>343.0</ele><time>2026-04-25T14:21:29.32Z</time></trkpt><trkpt lat="45.7853227" lon="9.9916401"><ele>343.0</ele><time>2026-04-25T14:21:30.32Z</time></trkpt><trkpt lat="45.7853743" lon="9.9917607"><ele>343.0</ele><time>2026-04-25T14:21:31.321Z</time></trkpt><trkpt lat="45.7854326" lon="9.9918892"><ele>343.0</ele><time>2026-04-25T14:21:32.321Z</time></trkpt><trkpt lat="45.785489" lon="9.992015"><ele>343.0</ele><time>2026-04-25T14:21:33.321Z</time></trkpt><trkpt lat="45.7855401" lon="9.9921517"><ele>343.2</ele><time>2026-04-25T14:21:34.321Z</time></trkpt><trkpt lat="45.7855839" lon="9.9922944"><ele>343.4</ele><time>2026-04-25T14:21:35.32Z</time></trkpt><trkpt lat="45.785617" lon="9.9924218"><ele>343.59999999999997</ele><time>2026-04-25T14:21:36.321Z</time></trkpt><trkpt lat="45.7856478" lon="9.9925482"><ele>343.79999999999995</ele><time>2026-04-25T14:21:37.319Z</time></trkpt><trkpt lat="45.7856862" lon="9.9926662"><ele>344.0</ele><time>2026-04-25T14:21:38.32Z</time></trkpt><trkpt lat="45.7857487" lon="9.9927882"><ele>344.0</ele><time>2026-04-25T14:21:39.32Z</time></trkpt><trkpt lat="45.7858126" lon="9.9929025"><ele>344.0</ele><time>2026-04-25T14:21:40.321Z</time></trkpt><trkpt lat="45.7858817" lon="9.9930088"><ele>344.0</ele><time>2026-04-25T14:21:41.32Z</time></trkpt><trkpt lat="45.7859464" lon="9.9931111"><ele>344.0</ele><time>2026-04-25T14:21:42.32Z</time></trkpt><trkpt lat="45.7860098" lon="9.9932119"><ele>344.0</ele><time>2026-04-25T14:21:43.32Z</time></trkpt><trkpt lat="45.7860786" lon="9.9933187"><ele>344.4</ele><time>2026-04-25T14:21:44.321Z</time></trkpt><trkpt lat="45.7861408" lon="9.9934387"><ele>344.79999999999995</ele><time>2026-04-25T14:21:45.32Z</time></trkpt><trkpt lat="45.7861816" lon="9.9935838"><ele>345.20000000000005</ele><time>2026-04-25T14:21:46.321Z</time></trkpt><trkpt lat="45.7862135" lon="9.9937175"><ele>345.6</ele><time>2026-04-25T14:21:47.321Z</time></trkpt><trkpt lat="45.78624" lon="9.9938447"><ele>346.0</ele><time>2026-04-25T14:21:48.321Z</time></trkpt><trkpt lat="45.7862738" lon="9.9939884"><ele>346.0</ele><time>2026-04-25T14:21:49.32Z</time></trkpt><trkpt lat="45.7863154" lon="9.9941375"><ele>346.0</ele><time>2026-04-25T14:21:50.322Z</time></trkpt><trkpt lat="45.7863559" lon="9.9942826"><ele>346.0</ele><time>2026-04-25T14:21:51.321Z</time></trkpt><trkpt lat="45.7863894" lon="9.9944149"><ele>346.0</ele><time>2026-04-25T14:21:52.32Z</time></trkpt><trkpt lat="45.7864141" lon="9.9945566"><ele>346.0</ele><time>2026-04-25T14:21:53.32Z</time></trkpt><trkpt lat="45.7864374" lon="9.9946966"><ele>346.0</ele><time>2026-04-25T14:21:54.32Z</time></trkpt><trkpt lat="45.7864575" lon="9.9948361"><ele>346.0</ele><time>2026-04-25T14:21:55.32Z</time></trkpt><trkpt lat="45.7864815" lon="9.9949722"><ele>346.0</ele><time>2026-04-25T14:21:56.32Z</time></trkpt><trkpt lat="45.786501" lon="9.9950989"><ele>346.0</ele><time>2026-04-25T14:21:57.32Z</time></trkpt><trkpt lat="45.786516" lon="9.9952196"><ele>346.0</ele><time>2026-04-25T14:21:58.32Z</time></trkpt><trkpt lat="45.786513" lon="9.9953538"><ele>346.20000000000005</ele><time>2026-04-25T14:21:59.32Z</time></trkpt><trkpt lat="45.7865017" lon="9.9954946"><ele>346.40000000000003</ele><time>2026-04-25T14:22:00.321Z</time></trkpt><trkpt lat="45.7865012" lon="9.9956371"><ele>346.6</ele><time>2026-04-25T14:22:01.322Z</time></trkpt><trkpt lat="45.7864989" lon="9.9957749"><ele>346.8</ele><time>2026-04-25T14:22:02.32Z</time></trkpt><trkpt lat="45.7864993" lon="9.9959075"><ele>347.0</ele><time>2026-04-25T14:22:03.32Z</time></trkpt><trkpt lat="45.7864987" lon="9.9960359"><ele>347.0</ele><time>2026-04-25T14:22:04.32Z</time></trkpt><trkpt lat="45.7865014" lon="9.9961537"><ele>347.0</ele><time>2026-04-25T14:22:05.32Z</time></trkpt><trkpt lat="45.7864998" lon="9.9962686"><ele>347.0</ele><time>2026-04-25T14:22:06.321Z</time></trkpt><trkpt lat="45.7864934" lon="9.9963888"><ele>347.0</ele><time>2026-04-25T14:22:07.321Z</time></trkpt><trkpt lat="45.7864895" lon="9.9965051"><ele>347.0</ele><time>2026-04-25T14:22:08.32Z</time></trkpt><trkpt lat="45.7864862" lon="9.9966333"><ele>347.0</ele><time>2026-04-25T14:22:09.32Z</time></trkpt><trkpt lat="45.7864918" lon="9.9967704"><ele>346.8</ele><time>2026-04-25T14:22:10.32Z</time></trkpt><trkpt lat="45.7864898" lon="9.996903"><ele>346.6</ele><time>2026-04-25T14:22:11.32Z</time></trkpt><trkpt lat="45.7864884" lon="9.9970426"><ele>346.40000000000003</ele><time>2026-04-25T14:22:12.321Z</time></trkpt><trkpt lat="45.7864891" lon="9.9971782"><ele>346.20000000000005</ele><time>2026-04-25T14:22:13.32Z</time></trkpt><trkpt lat="45.7864884" lon="9.9972988"><ele>346.0</ele><time>2026-04-25T14:22:14.321Z</time></trkpt><trkpt lat="45.7864853" lon="9.9974192"><ele>345.8333333333333</ele><time>2026-04-25T14:22:15.319Z</time></trkpt><trkpt lat="45.7864868" lon="9.9975356"><ele>345.66666666666663</ele><time>2026-04-25T14:22:16.319Z</time></trkpt><trkpt lat="45.7864902" lon="9.9976506"><ele>345.5</ele><time>2026-04-25T14:22:17.321Z</time></trkpt><trkpt lat="45.7865072" lon="9.9977698"><ele>345.3333333333333</ele><time>2026-04-25T14:22:18.32Z</time></trkpt><trkpt lat="45.7865208" lon="9.9978889"><ele>345.1666666666667</ele><time>2026-04-25T14:22:19.321Z</time></trkpt><trkpt lat="45.7865379" lon="9.9980046"><ele>345.0</ele><time>2026-04-25T14:22:20.32Z</time></trkpt><trkpt lat="45.7865624" lon="9.9981088"><ele>345.0</ele><time>2026-04-25T14:22:21.321Z</time></trkpt><trkpt lat="45.7865804" lon="9.9982011"><ele>345.0</ele><time>2026-04-25T14:22:22.321Z</time></trkpt><trkpt lat="45.7865984" lon="9.9982951"><ele>345.0</ele><time>2026-04-25T14:22:23.32Z</time></trkpt><trkpt lat="45.7866233" lon="9.9984499"><ele>345.0</ele><time>2026-04-25T14:22:25.321Z</time></trkpt><trkpt lat="45.7866497" lon="9.9985953"><ele>345.0</ele><time>2026-04-25T14:22:27.319Z</time></trkpt><trkpt lat="45.7866823" lon="9.9987394"><ele>345.3333333333333</ele><time>2026-04-25T14:22:29.32Z</time></trkpt><trkpt lat="45.7867163" lon="9.9989149"><ele>345.6666666666667</ele><time>2026-04-25T14:22:31.319Z</time></trkpt><trkpt lat="45.7867305" lon="9.9990035"><ele>346.0</ele><time>2026-04-25T14:22:32.321Z</time></trkpt><trkpt lat="45.7867408" lon="9.9991059"><ele>346.33333333333337</ele><time>2026-04-25T14:22:33.32Z</time></trkpt><trkpt lat="45.7867555" lon="9.9992281"><ele>346.6666666666667</ele><time>2026-04-25T14:22:34.321Z</time></trkpt><trkpt lat="45.786771" lon="9.9993368"><ele>347.0</ele><time>2026-04-25T14:22:35.322Z</time></trkpt><trkpt lat="45.7867821" lon="9.9994459"><ele>347.0</ele><time>2026-04-25T14:22:36.32Z</time></trkpt><trkpt lat="45.7867959" lon="9.9995501"><ele>347.0</ele><time>2026-04-25T14:22:37.321Z</time></trkpt><trkpt lat="45.78681" lon="9.9996616"><ele>347.0</ele><time>2026-04-25T14:22:38.32Z</time></trkpt><trkpt lat="45.7868255" lon="9.9997576"><ele>347.0</ele><time>2026-04-25T14:22:39.321Z</time></trkpt><trkpt lat="45.7868354" lon="9.9998489"><ele>347.0</ele><time>2026-04-25T14:22:40.32Z</time></trkpt><trkpt lat="45.7868581" lon="9.9999991"><ele>347.0</ele><time>2026-04-25T14:22:42.32Z</time></trkpt><trkpt lat="45.7869079" lon="10.000068"><ele>347.0</ele><time>2026-04-25T14:22:44.322Z</time></trkpt><trkpt lat="45.7869873" lon="10.0001209"><ele>347.0</ele><time>2026-04-25T14:22:46.32Z</time></trkpt><trkpt lat="45.7870625" lon="10.0001648"><ele>347.0</ele><time>2026-04-25T14:22:49.32Z</time></trkpt><trkpt lat="45.7870741" lon="10.0002622"><ele>347.0</ele><time>2026-04-25T14:22:54.32Z</time></trkpt><trkpt lat="45.7870529" lon="10.0003535"><ele>347.0</ele><time>2026-04-25T14:22:56.321Z</time></trkpt><trkpt lat="45.7870177" lon="10.0005107"><ele>347.0</ele><time>2026-04-25T14:22:58.319Z</time></trkpt><trkpt lat="45.7869933" lon="10.0006106"><ele>347.0</ele><time>2026-04-25T14:22:59.32Z</time></trkpt><trkpt lat="45.7869636" lon="10.0007157"><ele>347.0</ele><time>2026-04-25T14:23:00.32Z</time></trkpt><trkpt lat="45.78694" lon="10.000832"><ele>347.0</ele><time>2026-04-25T14:23:01.321Z</time></trkpt><trkpt lat="45.7869159" lon="10.0009542"><ele>347.0</ele><time>2026-04-25T14:23:02.32Z</time></trkpt><trkpt lat="45.7868875" lon="10.0010941"><ele>347.0</ele><time>2026-04-25T14:23:03.321Z</time></trkpt><trkpt lat="45.7868726" lon="10.0012402"><ele>347.20000000000005</ele><time>2026-04-25T14:23:04.321Z</time></trkpt><trkpt lat="45.7868583" lon="10.0013905"><ele>347.4</ele><time>2026-04-25T14:23:05.32Z</time></trkpt><trkpt lat="45.786847" lon="10.0015417"><ele>347.6</ele><time>2026-04-25T14:23:06.319Z</time></trkpt><trkpt lat="45.786831" lon="10.0016956"><ele>347.79999999999995</ele><time>2026-04-25T14:23:07.32Z</time></trkpt><trkpt lat="45.7868124" lon="10.0018473"><ele>348.0</ele><time>2026-04-25T14:23:08.32Z</time></trkpt><trkpt lat="45.7867963" lon="10.0019923"><ele>347.59999999999997</ele><time>2026-04-25T14:23:09.32Z</time></trkpt><trkpt lat="45.7867827" lon="10.0021445"><ele>347.2</ele><time>2026-04-25T14:23:10.321Z</time></trkpt><trkpt lat="45.786767" lon="10.0022918"><ele>346.8</ele><time>2026-04-25T14:23:11.32Z</time></trkpt><trkpt lat="45.7867525" lon="10.0024353"><ele>346.4</ele><time>2026-04-25T14:23:12.321Z</time></trkpt><trkpt lat="45.7867412" lon="10.0025849"><ele>346.0</ele><time>2026-04-25T14:23:13.322Z</time></trkpt><trkpt lat="45.7867355" lon="10.0027313"><ele>346.0</ele><time>2026-04-25T14:23:14.32Z</time></trkpt><trkpt lat="45.7867411" lon="10.0028745"><ele>346.0</ele><time>2026-04-25T14:23:15.321Z</time></trkpt><trkpt lat="45.7867496" lon="10.0030145"><ele>346.0</ele><time>2026-04-25T14:23:16.321Z</time></trkpt><trkpt lat="45.7867632" lon="10.0031573"><ele>346.0</ele><time>2026-04-25T14:23:17.321Z</time></trkpt><trkpt lat="45.7867838" lon="10.0032981"><ele>346.0</ele><time>2026-04-25T14:23:18.32Z</time></trkpt><trkpt lat="45.7867955" lon="10.0034229"><ele>346.0</ele><time>2026-04-25T14:23:19.32Z</time></trkpt><trkpt lat="45.7868062" lon="10.0035519"><ele>346.0</ele><time>2026-04-25T14:23:20.322Z</time></trkpt><trkpt lat="45.7868151" lon="10.0036816"><ele>346.0</ele><time>2026-04-25T14:23:21.32Z</time></trkpt><trkpt lat="45.7868232" lon="10.0038078"><ele>346.0</ele><time>2026-04-25T14:23:22.32Z</time></trkpt><trkpt lat="45.7868302" lon="10.0039434"><ele>346.0</ele><time>2026-04-25T14:23:23.32Z</time></trkpt><trkpt lat="45.7868303" lon="10.0040862"><ele>346.8</ele><time>2026-04-25T14:23:24.319Z</time></trkpt><trkpt lat="45.7868307" lon="10.004249"><ele>347.6</ele><time>2026-04-25T14:23:25.32Z</time></trkpt><trkpt lat="45.7868224" lon="10.0043984"><ele>348.4</ele><time>2026-04-25T14:23:26.321Z</time></trkpt><trkpt lat="45.7868146" lon="10.0045427"><ele>349.2</ele><time>2026-04-25T14:23:27.321Z</time></trkpt><trkpt lat="45.7868075" lon="10.0046858"><ele>350.0</ele><time>2026-04-25T14:23:28.321Z</time></trkpt><trkpt lat="45.7867997" lon="10.0048261"><ele>350.0</ele><time>2026-04-25T14:23:29.321Z</time></trkpt><trkpt lat="45.7867942" lon="10.0049678"><ele>350.0</ele><time>2026-04-25T14:23:30.32Z</time></trkpt><trkpt lat="45.7867873" lon="10.005115"><ele>350.0</ele><time>2026-04-25T14:23:31.321Z</time></trkpt><trkpt lat="45.7867811" lon="10.0052552"><ele>350.0</ele><time>2026-04-25T14:23:32.321Z</time></trkpt><trkpt lat="45.7867741" lon="10.0053978"><ele>350.0</ele><time>2026-04-25T14:23:33.32Z</time></trkpt><trkpt lat="45.7867713" lon="10.0055409"><ele>350.8</ele><time>2026-04-25T14:23:34.32Z</time></trkpt><trkpt lat="45.7867767" lon="10.0056817"><ele>351.6</ele><time>2026-04-25T14:23:35.321Z</time></trkpt><trkpt lat="45.7867873" lon="10.0058231"><ele>352.4</ele><time>2026-04-25T14:23:36.32Z</time></trkpt><trkpt lat="45.7867994" lon="10.0059661"><ele>353.2</ele><time>2026-04-25T14:23:37.32Z</time></trkpt><trkpt lat="45.7868104" lon="10.0061032"><ele>354.0</ele><time>2026-04-25T14:23:38.32Z</time></trkpt><trkpt lat="45.7868305" lon="10.0062445"><ele>352.6666666666667</ele><time>2026-04-25T14:23:39.321Z</time></trkpt><trkpt lat="45.7868519" lon="10.0063787"><ele>351.3333333333333</ele><time>2026-04-25T14:23:40.32Z</time></trkpt><trkpt lat="45.7868754" lon="10.0064966"><ele>350.0</ele><time>2026-04-25T14:23:41.319Z</time></trkpt><trkpt lat="45.7868985" lon="10.0066049"><ele>348.66666666666663</ele><time>2026-04-25T14:23:42.322Z</time></trkpt><trkpt lat="45.7869218" lon="10.0066966"><ele>347.3333333333333</ele><time>2026-04-25T14:23:43.321Z</time></trkpt><trkpt lat="45.7869435" lon="10.0067854"><ele>346.0</ele><time>2026-04-25T14:23:44.32Z</time></trkpt><trkpt lat="45.7869352" lon="10.0069045"><ele>346.0</ele><time>2026-04-25T14:23:46.321Z</time></trkpt><trkpt lat="45.7869066" lon="10.0070107"><ele>346.0</ele><time>2026-04-25T14:23:48.321Z</time></trkpt><trkpt lat="45.7868845" lon="10.0071027"><ele>346.0</ele><time>2026-04-25T14:23:50.32Z</time></trkpt><trkpt lat="45.786874" lon="10.007226"><ele>346.0</ele><time>2026-04-25T14:23:52.321Z</time></trkpt><trkpt lat="45.7868604" lon="10.0073836"><ele>346.0</ele><time>2026-04-25T14:23:54.321Z</time></trkpt><trkpt lat="45.7868521" lon="10.0075341"><ele>346.5</ele><time>2026-04-25T14:23:56.32Z</time></trkpt><trkpt lat="45.7868459" lon="10.0076674"><ele>347.0</ele><time>2026-04-25T14:23:58.321Z</time></trkpt><trkpt lat="45.7868516" lon="10.0078001"><ele>347.5</ele><time>2026-04-25T14:24:00.32Z</time></trkpt><trkpt lat="45.7868503" lon="10.0079312"><ele>348.0</ele><time>2026-04-25T14:24:02.32Z</time></trkpt><trkpt lat="45.7868566" lon="10.0080505"><ele>348.5</ele><time>2026-04-25T14:24:04.32Z</time></trkpt><trkpt lat="45.7868348" lon="10.0081584"><ele>349.0</ele><time>2026-04-25T14:24:06.321Z</time></trkpt><trkpt lat="45.7868007" lon="10.0082926"><ele>351.5</ele><time>2026-04-25T14:24:08.32Z</time></trkpt><trkpt lat="45.7867494" lon="10.0084159"><ele>354.0</ele><time>2026-04-25T14:24:10.32Z</time></trkpt><trkpt lat="45.786703" lon="10.0085541"><ele>356.5</ele><time>2026-04-25T14:24:12.32Z</time></trkpt><trkpt lat="45.7866489" lon="10.0086612"><ele>359.0</ele><time>2026-04-25T14:24:14.321Z</time></trkpt><trkpt lat="45.7866598" lon="10.0087678"><ele>361.5</ele><time>2026-04-25T14:24:18.32Z</time></trkpt><trkpt lat="45.7866627" lon="10.008863"><ele>364.0</ele><time>2026-04-25T14:24:33.321Z</time></trkpt><trkpt lat="45.7866794" lon="10.0089862"><ele>364.0</ele><time>2026-04-25T14:24:37.32Z</time></trkpt><trkpt lat="45.7866421" lon="10.0090893"><ele>364.0</ele><time>2026-04-25T14:24:41.322Z</time></trkpt><trkpt lat="45.7866429" lon="10.0092152"><ele>364.0</ele><time>2026-04-25T14:24:44.32Z</time></trkpt><trkpt lat="45.7866236" lon="10.0093213"><ele>364.0</ele><time>2026-04-25T14:24:46.32Z</time></trkpt><trkpt lat="45.786584" lon="10.0094154"><ele>364.0</ele><time>2026-04-25T14:24:48.32Z</time></trkpt><trkpt lat="45.7865784" lon="10.0095089"><ele>364.0</ele><time>2026-04-25T14:24:50.472Z</time></trkpt><trkpt lat="45.7865954" lon="10.0096286"><ele>363.8333333333333</ele><time>2026-04-25T14:24:53.975Z</time></trkpt><trkpt lat="45.7866012" lon="10.009739"><ele>363.66666666666663</ele><time>2026-04-25T14:26:59.322Z</time></trkpt><trkpt lat="45.7866147" lon="10.0098647"><ele>363.5</ele><time>2026-04-25T14:27:01.319Z</time></trkpt><trkpt lat="45.7866042" lon="10.0099608"><ele>363.3333333333333</ele><time>2026-04-25T14:27:03.321Z</time></trkpt><trkpt lat="45.786574" lon="10.0100816"><ele>363.1666666666667</ele><time>2026-04-25T14:27:08.32Z</time></trkpt><trkpt lat="45.7865693" lon="10.0101922"><ele>363.0</ele><time>2026-04-25T14:27:10.32Z</time></trkpt><trkpt lat="45.7865722" lon="10.0103035"><ele>365.59999999999997</ele><time>2026-04-25T14:27:14.321Z</time></trkpt><trkpt lat="45.7865423" lon="10.0104229"><ele>368.2</ele><time>2026-04-25T14:27:17.321Z</time></trkpt><trkpt lat="45.7864652" lon="10.0104649"><ele>370.8</ele><time>2026-04-25T14:27:18.321Z</time></trkpt><trkpt lat="45.7863452" lon="10.0105164"><ele>373.4</ele><time>2026-04-25T14:27:20.321Z</time></trkpt><trkpt lat="45.7862698" lon="10.0105472"><ele>376.0</ele><time>2026-04-25T14:27:21.32Z</time></trkpt><trkpt lat="45.7861943" lon="10.0105974"><ele>376.0</ele><time>2026-04-25T14:27:22.32Z</time></trkpt><trkpt lat="45.786125" lon="10.0106563"><ele>376.0</ele><time>2026-04-25T14:27:23.321Z</time></trkpt><trkpt lat="45.7860608" lon="10.0107293"><ele>376.0</ele><time>2026-04-25T14:27:24.321Z</time></trkpt><trkpt lat="45.7860134" lon="10.0108185"><ele>376.0</ele><time>2026-04-25T14:27:25.32Z</time></trkpt><trkpt lat="45.7859711" lon="10.0109058"><ele>376.0</ele><time>2026-04-25T14:27:26.32Z</time></trkpt><trkpt lat="45.785924" lon="10.010985"><ele>376.0</ele><time>2026-04-25T14:27:27.319Z</time></trkpt><trkpt lat="45.7858866" lon="10.01107"><ele>378.0</ele><time>2026-04-25T14:27:28.32Z</time></trkpt><trkpt lat="45.785837" lon="10.011217"><ele>380.0</ele><time>2026-04-25T14:27:30.32Z</time></trkpt><trkpt lat="45.7859049" lon="10.0112289"><ele>382.0</ele><time>2026-04-25T14:27:32.321Z</time></trkpt><trkpt lat="45.7859651" lon="10.011161"><ele>384.0</ele><time>2026-04-25T14:27:34.32Z</time></trkpt><trkpt lat="45.7860226" lon="10.0110806"><ele>386.00000000000006</ele><time>2026-04-25T14:27:36.32Z</time></trkpt><trkpt lat="45.7860874" lon="10.0110732"><ele>388.0</ele><time>2026-04-25T14:27:38.321Z</time></trkpt><trkpt lat="45.7861297" lon="10.0112134"><ele>388.0</ele><time>2026-04-25T14:27:40.321Z</time></trkpt><trkpt lat="45.7861184" lon="10.0113897"><ele>388.0</ele><time>2026-04-25T14:27:42.32Z</time></trkpt><trkpt lat="45.7861269" lon="10.0114794"><ele>388.0</ele><time>2026-04-25T14:27:43.32Z</time></trkpt><trkpt lat="45.78617" lon="10.0116098"><ele>388.0</ele><time>2026-04-25T14:27:45.32Z</time></trkpt><trkpt lat="45.7862532" lon="10.0116974"><ele>388.0</ele><time>2026-04-25T14:27:47.319Z</time></trkpt><trkpt lat="45.7863537" lon="10.0117655"><ele>390.6666666666667</ele><time>2026-04-25T14:27:49.32Z</time></trkpt><trkpt lat="45.7864314" lon="10.0118638"><ele>393.33333333333337</ele><time>2026-04-25T14:27:51.32Z</time></trkpt><trkpt lat="45.7864404" lon="10.0119807"><ele>396.0</ele><time>2026-04-25T14:27:53.32Z</time></trkpt><trkpt lat="45.7864046" lon="10.0120595"><ele>398.66666666666663</ele><time>2026-04-25T14:27:55.32Z</time></trkpt><trkpt lat="45.7863631" lon="10.012128"><ele>401.3333333333333</ele><time>2026-04-25T14:27:58.32Z</time></trkpt><trkpt lat="45.7864417" lon="10.0121958"><ele>404.0</ele><time>2026-04-25T14:28:03.32Z</time></trkpt><trkpt lat="45.786513" lon="10.0122188"><ele>404.0</ele><time>2026-04-25T14:28:11.32Z</time></trkpt><trkpt lat="45.7865796" lon="10.0122211"><ele>404.0</ele><time>2026-04-25T14:28:17.319Z</time></trkpt><trkpt lat="45.7866468" lon="10.0122288"><ele>404.0</ele><time>2026-04-25T14:28:25.32Z</time></trkpt><trkpt lat="45.7867036" lon="10.0122724"><ele>404.0</ele><time>2026-04-25T14:28:29.319Z</time></trkpt><trkpt lat="45.7867354" lon="10.0123511"><ele>404.0</ele><time>2026-04-25T14:29:05.328Z</time></trkpt><trkpt lat="45.786738" lon="10.0124473"><ele>404.0</ele><time>2026-04-25T14:29:15.321Z</time></trkpt><trkpt lat="45.7867209" lon="10.0125662"><ele>404.0</ele><time>2026-04-25T14:29:18.359Z</time></trkpt><trkpt lat="45.7867233" lon="10.0126794"><ele>407.66666666666663</ele><time>2026-04-25T14:29:21.269Z</time></trkpt><trkpt lat="45.78672" lon="10.0127777"><ele>411.3333333333333</ele><time>2026-04-25T14:29:23.289Z</time></trkpt><trkpt lat="45.7867362" lon="10.0128736"><ele>415.0</ele><time>2026-04-25T14:29:28.32Z</time></trkpt><trkpt lat="45.7866669" lon="10.0129505"><ele>418.66666666666663</ele><time>2026-04-25T14:29:31.32Z</time></trkpt><trkpt lat="45.7865978" lon="10.0129959"><ele>422.3333333333333</ele><time>2026-04-25T14:29:34.272Z</time></trkpt><trkpt lat="45.7865305" lon="10.0130781"><ele>426.0</ele><time>2026-04-25T14:29:36.32Z</time></trkpt><trkpt lat="45.7864548" lon="10.0131417"><ele>426.0</ele><time>2026-04-25T14:29:38.303Z</time></trkpt><trkpt lat="45.7863717" lon="10.0132015"><ele>426.0</ele><time>2026-04-25T14:29:40.167Z</time></trkpt><trkpt lat="45.7863074" lon="10.0133161"><ele>426.0</ele><time>2026-04-25T14:29:42.328Z</time></trkpt><trkpt lat="45.7862804" lon="10.0134107"><ele>426.0</ele><time>2026-04-25T14:29:43.32Z</time></trkpt><trkpt lat="45.7862528" lon="10.0135151"><ele>426.0</ele><time>2026-04-25T14:29:44.319Z</time></trkpt><trkpt lat="45.7862149" lon="10.0136518"><ele>426.0</ele><time>2026-04-25T14:29:46.32Z</time></trkpt><trkpt lat="45.7862075" lon="10.0137442"><ele>429.8</ele><time>2026-04-25T14:29:48.32Z</time></trkpt><trkpt lat="45.7862432" lon="10.0138774"><ele>433.6</ele><time>2026-04-25T14:29:51.32Z</time></trkpt><trkpt lat="45.7862443" lon="10.013999"><ele>437.4</ele><time>2026-04-25T14:29:54.273Z</time></trkpt><trkpt lat="45.7862539" lon="10.0141429"><ele>441.2</ele><time>2026-04-25T14:29:56.32Z</time></trkpt><trkpt lat="45.7862448" lon="10.014262"><ele>445.0</ele><time>2026-04-25T14:29:59.32Z</time></trkpt><trkpt lat="45.7861248" lon="10.0145392"><ele>447.4</ele><time>2026-04-25T14:30:40.319Z</time></trkpt><trkpt lat="45.786059" lon="10.0146225"><ele>449.8</ele><time>2026-04-25T14:30:42.32Z</time></trkpt><trkpt lat="45.7859598" lon="10.0147439"><ele>452.20000000000005</ele><time>2026-04-25T14:30:45.32Z</time></trkpt><trkpt lat="45.7859008" lon="10.0148136"><ele>454.6</ele><time>2026-04-25T14:30:46.32Z</time></trkpt><trkpt lat="45.7858357" lon="10.0149234"><ele>457.0</ele><time>2026-04-25T14:30:48.321Z</time></trkpt><trkpt lat="45.7857739" lon="10.0150368"><ele>459.50000000000006</ele><time>2026-04-25T14:30:53.32Z</time></trkpt><trkpt lat="45.7858428" lon="10.015004"><ele>462.0</ele><time>2026-04-25T14:30:58.32Z</time></trkpt><trkpt lat="45.7859135" lon="10.0150364"><ele>464.5</ele><time>2026-04-25T14:31:00.32Z</time></trkpt><trkpt lat="45.7859594" lon="10.015136"><ele>467.0</ele><time>2026-04-25T14:31:02.218Z</time></trkpt><trkpt lat="45.7860068" lon="10.0152571"><ele>469.50000000000006</ele><time>2026-04-25T14:31:04.32Z</time></trkpt><trkpt lat="45.7860541" lon="10.015348"><ele>472.0</ele><time>2026-04-25T14:31:06.319Z</time></trkpt><trkpt lat="45.7861221" lon="10.0154169"><ele>474.20000000000005</ele><time>2026-04-25T14:31:08.32Z</time></trkpt><trkpt lat="45.7862083" lon="10.0155007"><ele>476.40000000000003</ele><time>2026-04-25T14:31:10.32Z</time></trkpt><trkpt lat="45.7862851" lon="10.0155995"><ele>478.59999999999997</ele><time>2026-04-25T14:31:12.32Z</time></trkpt><trkpt lat="45.7863371" lon="10.0157188"><ele>480.79999999999995</ele><time>2026-04-25T14:31:14.32Z</time></trkpt><trkpt lat="45.7863689" lon="10.0158003"><ele>483.0</ele><time>2026-04-25T14:31:15.32Z</time></trkpt><trkpt lat="45.7864141" lon="10.015949"><ele>485.4</ele><time>2026-04-25T14:31:17.32Z</time></trkpt><trkpt lat="45.7864105" lon="10.0161022"><ele>487.79999999999995</ele><time>2026-04-25T14:31:19.319Z</time></trkpt><trkpt lat="45.7863901" lon="10.0162602"><ele>490.2</ele><time>2026-04-25T14:31:21.319Z</time></trkpt><trkpt lat="45.7862633" lon="10.0163615"><ele>492.6</ele><time>2026-04-25T14:31:22.32Z</time></trkpt><trkpt lat="45.786218" lon="10.0164342"><ele>495.0</ele><time>2026-04-25T14:31:23.32Z</time></trkpt><trkpt lat="45.7862006" lon="10.0165737"><ele>497.0</ele><time>2026-04-25T14:31:25.319Z</time></trkpt><trkpt lat="45.7862267" lon="10.0167189"><ele>499.0</ele><time>2026-04-25T14:31:27.32Z</time></trkpt><trkpt lat="45.7862487" lon="10.0168683"><ele>501.0</ele><time>2026-04-25T14:31:29.32Z</time></trkpt><trkpt lat="45.7862732" lon="10.0169726"><ele>503.0</ele><time>2026-04-25T14:31:31.32Z</time></trkpt><trkpt lat="45.7863428" lon="10.0169982"><ele>505.0</ele><time>2026-04-25T14:31:33.32Z</time></trkpt><trkpt lat="45.7864206" lon="10.0170187"><ele>507.0</ele><time>2026-04-25T14:31:35.32Z</time></trkpt><trkpt lat="45.7865188" lon="10.0170006"><ele>507.0</ele><time>2026-04-25T14:31:37.32Z</time></trkpt><trkpt lat="45.7866114" lon="10.0169261"><ele>507.00000000000006</ele><time>2026-04-25T14:31:39.319Z</time></trkpt><trkpt lat="45.7867088" lon="10.0168619"><ele>507.00000000000006</ele><time>2026-04-25T14:31:41.32Z</time></trkpt><trkpt lat="45.7868034" lon="10.0168125"><ele>507.0</ele><time>2026-04-25T14:31:43.32Z</time></trkpt><trkpt lat="45.7869183" lon="10.0167919"><ele>507.0</ele><time>2026-04-25T14:31:45.32Z</time></trkpt><trkpt lat="45.7870374" lon="10.0168016"><ele>509.6</ele><time>2026-04-25T14:31:47.32Z</time></trkpt><trkpt lat="45.7871358" lon="10.0168806"><ele>512.2</ele><time>2026-04-25T14:31:49.32Z</time></trkpt><trkpt lat="45.7872413" lon="10.0170072"><ele>514.8</ele><time>2026-04-25T14:31:51.321Z</time></trkpt><trkpt lat="45.787284" lon="10.0170745"><ele>517.4</ele><time>2026-04-25T14:31:52.32Z</time></trkpt><trkpt lat="45.7873591" lon="10.017191"><ele>520.0</ele><time>2026-04-25T14:31:54.32Z</time></trkpt><trkpt lat="45.7874218" lon="10.0172587"><ele>520.0</ele><time>2026-04-25T14:31:56.319Z</time></trkpt><trkpt lat="45.7874752" lon="10.0173367"><ele>520.0</ele><time>2026-04-25T14:31:58.32Z</time></trkpt><trkpt lat="45.7874962" lon="10.0174969"><ele>520.0</ele><time>2026-04-25T14:32:00.32Z</time></trkpt><trkpt lat="45.7875016" lon="10.0175959"><ele>520.0</ele><time>2026-04-25T14:32:01.32Z</time></trkpt><trkpt lat="45.7875229" lon="10.0177194"><ele>520.0</ele><time>2026-04-25T14:32:02.32Z</time></trkpt><trkpt lat="45.787544" lon="10.0178424"><ele>520.0</ele><time>2026-04-25T14:32:03.321Z</time></trkpt><trkpt lat="45.7875806" lon="10.0179866"><ele>522.0</ele><time>2026-04-25T14:32:04.32Z</time></trkpt><trkpt lat="45.7876259" lon="10.0181134"><ele>524.0</ele><time>2026-04-25T14:32:05.32Z</time></trkpt><trkpt lat="45.7876764" lon="10.0182288"><ele>526.0</ele><time>2026-04-25T14:32:06.319Z</time></trkpt><trkpt lat="45.787734" lon="10.0183504"><ele>528.0</ele><time>2026-04-25T14:32:07.32Z</time></trkpt><trkpt lat="45.7877893" lon="10.0184981"><ele>530.0</ele><time>2026-04-25T14:32:08.319Z</time></trkpt><trkpt lat="45.7878488" lon="10.0186482"><ele>533.0</ele><time>2026-04-25T14:32:09.319Z</time></trkpt><trkpt lat="45.7879271" lon="10.0187758"><ele>536.0</ele><time>2026-04-25T14:32:10.32Z</time></trkpt><trkpt lat="45.788019" lon="10.0189083"><ele>539.0</ele><time>2026-04-25T14:32:11.32Z</time></trkpt><trkpt lat="45.7880909" lon="10.0190156"><ele>542.0</ele><time>2026-04-25T14:32:12.32Z</time></trkpt><trkpt lat="45.788175" lon="10.0191285"><ele>543.6</ele><time>2026-04-25T14:32:13.319Z</time></trkpt><trkpt lat="45.7882604" lon="10.0192183"><ele>545.2</ele><time>2026-04-25T14:32:14.32Z</time></trkpt><trkpt lat="45.7883419" lon="10.0192978"><ele>546.8</ele><time>2026-04-25T14:32:15.32Z</time></trkpt><trkpt lat="45.7884327" lon="10.0193892"><ele>548.4</ele><time>2026-04-25T14:32:16.32Z</time></trkpt><trkpt lat="45.7884903" lon="10.019483"><ele>550.0</ele><time>2026-04-25T14:32:17.319Z</time></trkpt><trkpt lat="45.7885467" lon="10.0196398"><ele>553.0</ele><time>2026-04-25T14:32:18.32Z</time></trkpt><trkpt lat="45.7885844" lon="10.019734"><ele>556.0</ele><time>2026-04-25T14:32:19.32Z</time></trkpt><trkpt lat="45.7886309" lon="10.0198722"><ele>559.0</ele><time>2026-04-25T14:32:20.319Z</time></trkpt><trkpt lat="45.7886749" lon="10.0200367"><ele>562.0</ele><time>2026-04-25T14:32:21.32Z</time></trkpt><trkpt lat="45.7887398" lon="10.020196"><ele>565.0</ele><time>2026-04-25T14:32:22.32Z</time></trkpt><trkpt lat="45.7888146" lon="10.0203468"><ele>565.0</ele><time>2026-04-25T14:32:23.319Z</time></trkpt><trkpt lat="45.7888989" lon="10.0204945"><ele>565.0</ele><time>2026-04-25T14:32:24.32Z</time></trkpt><trkpt lat="45.7889646" lon="10.0206421"><ele>565.0</ele><time>2026-04-25T14:32:25.32Z</time></trkpt><trkpt lat="45.7890438" lon="10.0207703"><ele>565.0</ele><time>2026-04-25T14:32:26.32Z</time></trkpt><trkpt lat="45.7891198" lon="10.0209255"><ele>566.25</ele><time>2026-04-25T14:32:27.32Z</time></trkpt><trkpt lat="45.7892072" lon="10.0210814"><ele>567.5</ele><time>2026-04-25T14:32:28.319Z</time></trkpt><trkpt lat="45.7892934" lon="10.0212147"><ele>568.75</ele><time>2026-04-25T14:32:29.319Z</time></trkpt><trkpt lat="45.789366" lon="10.0213302"><ele>570.0</ele><time>2026-04-25T14:32:30.32Z</time></trkpt><trkpt lat="45.7894651" lon="10.0214252"><ele>572.0</ele><time>2026-04-25T14:32:31.32Z</time></trkpt><trkpt lat="45.7895474" lon="10.0215225"><ele>574.0</ele><time>2026-04-25T14:32:32.32Z</time></trkpt><trkpt lat="45.7896292" lon="10.0216504"><ele>576.0</ele><time>2026-04-25T14:32:33.32Z</time></trkpt><trkpt lat="45.7896873" lon="10.0217422"><ele>578.0</ele><time>2026-04-25T14:32:34.319Z</time></trkpt><trkpt lat="45.7897385" lon="10.0218453"><ele>580.0</ele><time>2026-04-25T14:32:35.32Z</time></trkpt><trkpt lat="45.7897886" lon="10.021944"><ele>580.0</ele><time>2026-04-25T14:32:36.319Z</time></trkpt><trkpt lat="45.7898327" lon="10.022044"><ele>580.0</ele><time>2026-04-25T14:32:37.321Z</time></trkpt><trkpt lat="45.7898768" lon="10.0221657"><ele>580.0</ele><time>2026-04-25T14:32:38.32Z</time></trkpt><trkpt lat="45.7899131" lon="10.0222656"><ele>580.0</ele><time>2026-04-25T14:32:39.32Z</time></trkpt><trkpt lat="45.7899424" lon="10.0223817"><ele>580.0</ele><time>2026-04-25T14:32:40.32Z</time></trkpt><trkpt lat="45.7899705" lon="10.0224929"><ele>580.0</ele><time>2026-04-25T14:32:41.32Z</time></trkpt><trkpt lat="45.7899834" lon="10.0226315"><ele>580.0</ele><time>2026-04-25T14:32:42.319Z</time></trkpt><trkpt lat="45.7899805" lon="10.0227614"><ele>580.0</ele><time>2026-04-25T14:32:43.32Z</time></trkpt><trkpt lat="45.789964" lon="10.0228803"><ele>580.0</ele><time>2026-04-25T14:32:44.319Z</time></trkpt><trkpt lat="45.7899538" lon="10.0230249"><ele>580.0</ele><time>2026-04-25T14:32:45.32Z</time></trkpt><trkpt lat="45.7899427" lon="10.0231363"><ele>580.0</ele><time>2026-04-25T14:32:46.319Z</time></trkpt><trkpt lat="45.7899079" lon="10.0233381"><ele>579.8333333333334</ele><time>2026-04-25T14:32:48.32Z</time></trkpt><trkpt lat="45.7898889" lon="10.0234357"><ele>579.6666666666667</ele><time>2026-04-25T14:32:49.32Z</time></trkpt><trkpt lat="45.7898656" lon="10.0235358"><ele>579.5</ele><time>2026-04-25T14:32:50.32Z</time></trkpt><trkpt lat="45.7898543" lon="10.0236482"><ele>579.3333333333334</ele><time>2026-04-25T14:32:51.319Z</time></trkpt><trkpt lat="45.7898443" lon="10.0237684"><ele>579.1666666666666</ele><time>2026-04-25T14:32:52.32Z</time></trkpt><trkpt lat="45.7898386" lon="10.0238876"><ele>579.0</ele><time>2026-04-25T14:32:53.319Z</time></trkpt><trkpt lat="45.7898307" lon="10.0240028"><ele>579.0</ele><time>2026-04-25T14:32:54.319Z</time></trkpt><trkpt lat="45.7898115" lon="10.0241101"><ele>579.0</ele><time>2026-04-25T14:32:55.32Z</time></trkpt><trkpt lat="45.789788" lon="10.0242186"><ele>579.0</ele><time>2026-04-25T14:32:56.32Z</time></trkpt><trkpt lat="45.7897663" lon="10.0243262"><ele>579.0</ele><time>2026-04-25T14:32:57.32Z</time></trkpt><trkpt lat="45.7897479" lon="10.0244289"><ele>579.0</ele><time>2026-04-25T14:32:58.32Z</time></trkpt><trkpt lat="45.7897401" lon="10.0245432"><ele>579.0</ele><time>2026-04-25T14:32:59.32Z</time></trkpt><trkpt lat="45.789727" lon="10.0246524"><ele>579.0</ele><time>2026-04-25T14:33:00.32Z</time></trkpt><trkpt lat="45.7897182" lon="10.0247471"><ele>579.0</ele><time>2026-04-25T14:33:01.319Z</time></trkpt><trkpt lat="45.7896724" lon="10.0249063"><ele>579.0</ele><time>2026-04-25T14:33:03.319Z</time></trkpt><trkpt lat="45.7896567" lon="10.0250353"><ele>579.0</ele><time>2026-04-25T14:33:05.32Z</time></trkpt><trkpt lat="45.7896988" lon="10.0251081"><ele>579.0</ele><time>2026-04-25T14:33:06.321Z</time></trkpt><trkpt lat="45.7897342" lon="10.0252076"><ele>579.0</ele><time>2026-04-25T14:33:07.319Z</time></trkpt><trkpt lat="45.789775" lon="10.0252853"><ele>579.2</ele><time>2026-04-25T14:33:08.319Z</time></trkpt><trkpt lat="45.7897687" lon="10.025442"><ele>579.4</ele><time>2026-04-25T14:33:10.319Z</time></trkpt><trkpt lat="45.7897193" lon="10.0255322"><ele>579.6</ele><time>2026-04-25T14:33:12.32Z</time></trkpt><trkpt lat="45.7896905" lon="10.0256709"><ele>579.8</ele><time>2026-04-25T14:33:14.32Z</time></trkpt><trkpt lat="45.7896692" lon="10.0258177"><ele>580.0</ele><time>2026-04-25T14:33:16.319Z</time></trkpt><trkpt lat="45.789639" lon="10.0259318"><ele>580.5</ele><time>2026-04-25T14:33:18.319Z</time></trkpt><trkpt lat="45.7896715" lon="10.0260743"><ele>581.0</ele><time>2026-04-25T14:33:24.32Z</time></trkpt><trkpt lat="45.7897163" lon="10.026154"><ele>581.5</ele><time>2026-04-25T14:33:27.319Z</time></trkpt><trkpt lat="45.7897733" lon="10.0262397"><ele>582.0</ele><time>2026-04-25T14:33:36.32Z</time></trkpt><trkpt lat="45.7898163" lon="10.0263235"><ele>582.5</ele><time>2026-04-25T14:33:37.32Z</time></trkpt><trkpt lat="45.7898642" lon="10.0263888"><ele>583.0</ele><time>2026-04-25T14:33:38.32Z</time></trkpt><trkpt lat="45.7899257" lon="10.0264695"><ele>583.0</ele><time>2026-04-25T14:33:39.32Z</time></trkpt><trkpt lat="45.7899571" lon="10.0265621"><ele>583.0</ele><time>2026-04-25T14:33:40.32Z</time></trkpt><trkpt lat="45.7899872" lon="10.0266595"><ele>583.0</ele><time>2026-04-25T14:33:41.318Z</time></trkpt><trkpt lat="45.7900146" lon="10.0267745"><ele>583.0</ele><time>2026-04-25T14:33:42.32Z</time></trkpt><trkpt lat="45.79004" lon="10.0268808"><ele>583.0</ele><time>2026-04-25T14:33:43.321Z</time></trkpt><trkpt lat="45.7900636" lon="10.026994"><ele>583.0</ele><time>2026-04-25T14:33:44.319Z</time></trkpt><trkpt lat="45.7900776" lon="10.0271228"><ele>582.8333333333334</ele><time>2026-04-25T14:33:45.32Z</time></trkpt><trkpt lat="45.7900881" lon="10.0272314"><ele>582.6666666666667</ele><time>2026-04-25T14:33:46.319Z</time></trkpt><trkpt lat="45.7900953" lon="10.0273804"><ele>582.5</ele><time>2026-04-25T14:33:48.319Z</time></trkpt><trkpt lat="45.7901022" lon="10.0274858"><ele>582.3333333333334</ele><time>2026-04-25T14:33:50.32Z</time></trkpt><trkpt lat="45.7901017" lon="10.0276438"><ele>582.1666666666666</ele><time>2026-04-25T14:33:52.319Z</time></trkpt><trkpt lat="45.7901134" lon="10.0277454"><ele>582.0</ele><time>2026-04-25T14:33:53.32Z</time></trkpt><trkpt lat="45.7901263" lon="10.0278421"><ele>582.3333333333334</ele><time>2026-04-25T14:33:54.32Z</time></trkpt><trkpt lat="45.7901471" lon="10.0279424"><ele>582.6666666666666</ele><time>2026-04-25T14:33:55.32Z</time></trkpt><trkpt lat="45.7901673" lon="10.0280485"><ele>583.0</ele><time>2026-04-25T14:33:56.321Z</time></trkpt><trkpt lat="45.7901923" lon="10.028147"><ele>583.3333333333333</ele><time>2026-04-25T14:33:57.319Z</time></trkpt><trkpt lat="45.7902209" lon="10.0282526"><ele>583.6666666666666</ele><time>2026-04-25T14:33:58.32Z</time></trkpt><trkpt lat="45.7902716" lon="10.028342"><ele>584.0</ele><time>2026-04-25T14:33:59.318Z</time></trkpt><trkpt lat="45.7903242" lon="10.0284061"><ele>585.8333333333333</ele><time>2026-04-25T14:34:00.321Z</time></trkpt><trkpt lat="45.790396" lon="10.0284518"><ele>587.6666666666666</ele><time>2026-04-25T14:34:01.319Z</time></trkpt><trkpt lat="45.7904678" lon="10.0284911"><ele>589.5</ele><time>2026-04-25T14:34:02.32Z</time></trkpt><trkpt lat="45.7905458" lon="10.0285445"><ele>591.3333333333334</ele><time>2026-04-25T14:34:03.318Z</time></trkpt><trkpt lat="45.7906144" lon="10.0285837"><ele>593.1666666666667</ele><time>2026-04-25T14:34:04.32Z</time></trkpt><trkpt lat="45.7906725" lon="10.0286452"><ele>595.0</ele><time>2026-04-25T14:34:05.32Z</time></trkpt><trkpt lat="45.7907278" lon="10.0287088"><ele>595.0</ele><time>2026-04-25T14:34:06.32Z</time></trkpt><trkpt lat="45.7907772" lon="10.0287806"><ele>595.0</ele><time>2026-04-25T14:34:07.321Z</time></trkpt><trkpt lat="45.7908222" lon="10.0288613"><ele>595.0</ele><time>2026-04-25T14:34:08.32Z</time></trkpt><trkpt lat="45.7908659" lon="10.0289382"><ele>595.0</ele><time>2026-04-25T14:34:09.32Z</time></trkpt><trkpt lat="45.7909114" lon="10.0290192"><ele>595.0</ele><time>2026-04-25T14:34:10.32Z</time></trkpt><trkpt lat="45.7909595" lon="10.0291101"><ele>595.0</ele><time>2026-04-25T14:34:11.319Z</time></trkpt><trkpt lat="45.7910056" lon="10.0291738"><ele>595.0</ele><time>2026-04-25T14:34:12.32Z</time></trkpt><trkpt lat="45.7910723" lon="10.0291846"><ele>596.5</ele><time>2026-04-25T14:34:13.32Z</time></trkpt><trkpt lat="45.7911432" lon="10.0291866"><ele>598.0</ele><time>2026-04-25T14:34:14.32Z</time></trkpt><trkpt lat="45.7912083" lon="10.02921"><ele>599.5</ele><time>2026-04-25T14:34:15.319Z</time></trkpt><trkpt lat="45.7912704" lon="10.0292508"><ele>601.0</ele><time>2026-04-25T14:34:16.32Z</time></trkpt><trkpt lat="45.7913325" lon="10.0293265"><ele>602.5</ele><time>2026-04-25T14:34:17.321Z</time></trkpt><trkpt lat="45.7913877" lon="10.0293945"><ele>604.0</ele><time>2026-04-25T14:34:18.32Z</time></trkpt><trkpt lat="45.7914631" lon="10.0294817"><ele>604.0</ele><time>2026-04-25T14:34:19.32Z</time></trkpt><trkpt lat="45.7915246" lon="10.0295474"><ele>604.0</ele><time>2026-04-25T14:34:20.318Z</time></trkpt><trkpt lat="45.7915985" lon="10.0295866"><ele>604.0</ele><time>2026-04-25T14:34:21.32Z</time></trkpt><trkpt lat="45.7916762" lon="10.0296139"><ele>604.0</ele><time>2026-04-25T14:34:22.32Z</time></trkpt><trkpt lat="45.7917595" lon="10.0296219"><ele>604.0</ele><time>2026-04-25T14:34:23.32Z</time></trkpt><trkpt lat="45.7918474" lon="10.0296261"><ele>604.0</ele><time>2026-04-25T14:34:24.319Z</time></trkpt><trkpt lat="45.7919341" lon="10.0296159"><ele>604.5</ele><time>2026-04-25T14:34:25.32Z</time></trkpt><trkpt lat="45.7920385" lon="10.0296301"><ele>605.0</ele><time>2026-04-25T14:34:26.319Z</time></trkpt><trkpt lat="45.792119" lon="10.0295913"><ele>605.5</ele><time>2026-04-25T14:34:27.32Z</time></trkpt><trkpt lat="45.7921993" lon="10.0295521"><ele>606.0</ele><time>2026-04-25T14:34:28.321Z</time></trkpt><trkpt lat="45.7922702" lon="10.0295003"><ele>606.5</ele><time>2026-04-25T14:34:29.32Z</time></trkpt><trkpt lat="45.7923548" lon="10.0294561"><ele>607.0</ele><time>2026-04-25T14:34:30.32Z</time></trkpt><trkpt lat="45.7924224" lon="10.0293905"><ele>607.0</ele><time>2026-04-25T14:34:31.32Z</time></trkpt><trkpt lat="45.792491" lon="10.0293362"><ele>607.0</ele><time>2026-04-25T14:34:32.319Z</time></trkpt><trkpt lat="45.7925563" lon="10.0292769"><ele>607.0</ele><time>2026-04-25T14:34:33.318Z</time></trkpt><trkpt lat="45.7926244" lon="10.0292179"><ele>607.0</ele><time>2026-04-25T14:34:34.32Z</time></trkpt><trkpt lat="45.7927356" lon="10.0290783"><ele>607.0</ele><time>2026-04-25T14:34:36.32Z</time></trkpt><trkpt lat="45.7928006" lon="10.0289077"><ele>609.0</ele><time>2026-04-25T14:34:38.32Z</time></trkpt><trkpt lat="45.7928281" lon="10.0288164"><ele>611.0</ele><time>2026-04-25T14:34:39.32Z</time></trkpt><trkpt lat="45.7928679" lon="10.0287214"><ele>613.0</ele><time>2026-04-25T14:34:40.319Z</time></trkpt><trkpt lat="45.7929273" lon="10.0286173"><ele>615.0</ele><time>2026-04-25T14:34:41.32Z</time></trkpt><trkpt lat="45.7929771" lon="10.0285259"><ele>617.0</ele><time>2026-04-25T14:34:42.319Z</time></trkpt><trkpt lat="45.7930213" lon="10.0284227"><ele>619.0</ele><time>2026-04-25T14:34:43.32Z</time></trkpt><trkpt lat="45.7930592" lon="10.0283178"><ele>620.6666666666667</ele><time>2026-04-25T14:34:44.32Z</time></trkpt><trkpt lat="45.7931041" lon="10.0282184"><ele>622.3333333333334</ele><time>2026-04-25T14:34:45.319Z</time></trkpt><trkpt lat="45.7931507" lon="10.0281366"><ele>624.0</ele><time>2026-04-25T14:34:46.32Z</time></trkpt><trkpt lat="45.7932129" lon="10.0280885"><ele>625.6666666666666</ele><time>2026-04-25T14:34:47.32Z</time></trkpt><trkpt lat="45.7933024" lon="10.0280033"><ele>627.3333333333333</ele><time>2026-04-25T14:34:49.32Z</time></trkpt><trkpt lat="45.7933774" lon="10.027935"><ele>629.0</ele><time>2026-04-25T14:34:51.32Z</time></trkpt><trkpt lat="45.7934839" lon="10.0278824"><ele>632.1666666666666</ele><time>2026-04-25T14:34:53.321Z</time></trkpt><trkpt lat="45.7935867" lon="10.0278462"><ele>635.3333333333333</ele><time>2026-04-25T14:34:55.32Z</time></trkpt><trkpt lat="45.7936873" lon="10.0278379"><ele>638.5</ele><time>2026-04-25T14:34:57.32Z</time></trkpt><trkpt lat="45.7937645" lon="10.0278128"><ele>641.6666666666666</ele><time>2026-04-25T14:34:59.32Z</time></trkpt><trkpt lat="45.7938503" lon="10.027796"><ele>644.8333333333334</ele><time>2026-04-25T14:35:01.32Z</time></trkpt><trkpt lat="45.7939132" lon="10.0278421"><ele>648.0</ele><time>2026-04-25T14:35:02.32Z</time></trkpt><trkpt lat="45.7939805" lon="10.02789"><ele>648.0</ele><time>2026-04-25T14:35:03.32Z</time></trkpt><trkpt lat="45.7940394" lon="10.0279342"><ele>648.0</ele><time>2026-04-25T14:35:04.319Z</time></trkpt><trkpt lat="45.7941474" lon="10.0280342"><ele>648.0</ele><time>2026-04-25T14:35:06.32Z</time></trkpt><trkpt lat="45.7942035" lon="10.0281142"><ele>648.0</ele><time>2026-04-25T14:35:07.32Z</time></trkpt><trkpt lat="45.7942669" lon="10.0281915"><ele>648.0</ele><time>2026-04-25T14:35:08.32Z</time></trkpt><trkpt lat="45.7943438" lon="10.0282804"><ele>651.8</ele><time>2026-04-25T14:35:10.319Z</time></trkpt><trkpt lat="45.7944369" lon="10.02838"><ele>655.5999999999999</ele><time>2026-04-25T14:35:12.32Z</time></trkpt><trkpt lat="45.7945281" lon="10.0284936"><ele>659.4000000000001</ele><time>2026-04-25T14:35:14.32Z</time></trkpt><trkpt lat="45.7946026" lon="10.0285866"><ele>663.2</ele><time>2026-04-25T14:35:16.319Z</time></trkpt><trkpt lat="45.7946772" lon="10.0286957"><ele>667.0</ele><time>2026-04-25T14:35:18.319Z</time></trkpt><trkpt lat="45.7947539" lon="10.0287666"><ele>667.0</ele><time>2026-04-25T14:35:20.32Z</time></trkpt><trkpt lat="45.7948321" lon="10.0288821"><ele>667.0</ele><time>2026-04-25T14:35:22.319Z</time></trkpt><trkpt lat="45.7948909" lon="10.028949"><ele>667.0</ele><time>2026-04-25T14:35:23.32Z</time></trkpt><trkpt lat="45.794944" lon="10.0290427"><ele>667.0</ele><time>2026-04-25T14:35:25.32Z</time></trkpt><trkpt lat="45.7949876" lon="10.0291441"><ele>667.0</ele><time>2026-04-25T14:35:27.319Z</time></trkpt><trkpt lat="45.7950045" lon="10.029275"><ele>667.0</ele><time>2026-04-25T14:35:29.32Z</time></trkpt><trkpt lat="45.7950651" lon="10.0294479"><ele>668.5</ele><time>2026-04-25T14:35:31.32Z</time></trkpt><trkpt lat="45.795085" lon="10.0295379"><ele>670.0</ele><time>2026-04-25T14:35:32.318Z</time></trkpt><trkpt lat="45.7951411" lon="10.0296136"><ele>671.5</ele><time>2026-04-25T14:35:34.321Z</time></trkpt><trkpt lat="45.7952151" lon="10.0297011"><ele>673.0</ele><time>2026-04-25T14:35:36.319Z</time></trkpt><trkpt lat="45.7952886" lon="10.0297684"><ele>674.5</ele><time>2026-04-25T14:35:38.32Z</time></trkpt><trkpt lat="45.7953512" lon="10.0298061"><ele>676.0</ele><time>2026-04-25T14:35:40.32Z</time></trkpt><trkpt lat="45.7954094" lon="10.0298853"><ele>673.0</ele><time>2026-04-25T14:35:42.319Z</time></trkpt><trkpt lat="45.7954786" lon="10.0299781"><ele>670.0</ele><time>2026-04-25T14:35:44.32Z</time></trkpt><trkpt lat="45.7955546" lon="10.0301088"><ele>667.0</ele><time>2026-04-25T14:35:46.32Z</time></trkpt><trkpt lat="45.7956274" lon="10.0302481"><ele>664.0</ele><time>2026-04-25T14:35:48.32Z</time></trkpt><trkpt lat="45.7956589" lon="10.0303739"><ele>661.0</ele><time>2026-04-25T14:35:49.319Z</time></trkpt><trkpt lat="45.7956938" lon="10.0304977"><ele>661.0</ele><time>2026-04-25T14:35:50.32Z</time></trkpt><trkpt lat="45.7957285" lon="10.0305954"><ele>661.0</ele><time>2026-04-25T14:35:51.319Z</time></trkpt><trkpt lat="45.795767" lon="10.0306991"><ele>661.0</ele><time>2026-04-25T14:35:52.32Z</time></trkpt><trkpt lat="45.7957623" lon="10.0308302"><ele>661.0</ele><time>2026-04-25T14:35:54.32Z</time></trkpt><trkpt lat="45.7956971" lon="10.0309983"><ele>661.0</ele><time>2026-04-25T14:35:56.32Z</time></trkpt><trkpt lat="45.7956646" lon="10.03108"><ele>660.6666666666667</ele><time>2026-04-25T14:35:57.32Z</time></trkpt><trkpt lat="45.7956329" lon="10.0311809"><ele>660.3333333333334</ele><time>2026-04-25T14:35:58.321Z</time></trkpt><trkpt lat="45.7956115" lon="10.0312916"><ele>660.0</ele><time>2026-04-25T14:35:59.32Z</time></trkpt><trkpt lat="45.7955939" lon="10.0313874"><ele>659.6666666666666</ele><time>2026-04-25T14:36:00.32Z</time></trkpt><trkpt lat="45.7955671" lon="10.0314756"><ele>659.3333333333333</ele><time>2026-04-25T14:36:01.32Z</time></trkpt><trkpt lat="45.7956013" lon="10.0316119"><ele>659.0</ele><time>2026-04-25T14:36:03.319Z</time></trkpt><trkpt lat="45.7956261" lon="10.0317686"><ele>659.0</ele><time>2026-04-25T14:36:05.319Z</time></trkpt><trkpt lat="45.7956091" lon="10.0319548"><ele>659.0</ele><time>2026-04-25T14:36:07.318Z</time></trkpt><trkpt lat="45.7955626" lon="10.0321028"><ele>659.0</ele><time>2026-04-25T14:36:09.32Z</time></trkpt><trkpt lat="45.7956249" lon="10.0320664"><ele>659.0</ele><time>2026-04-25T14:36:13.32Z</time></trkpt><trkpt lat="45.7956642" lon="10.0319887"><ele>659.0</ele><time>2026-04-25T14:36:14.319Z</time></trkpt><trkpt lat="45.7957391" lon="10.0318952"><ele>659.0</ele><time>2026-04-25T14:36:15.32Z</time></trkpt><trkpt lat="45.7958161" lon="10.0317926"><ele>659.0</ele><time>2026-04-25T14:36:16.321Z</time></trkpt><trkpt lat="45.7959024" lon="10.0317272"><ele>659.0</ele><time>2026-04-25T14:36:17.32Z</time></trkpt><trkpt lat="45.7959682" lon="10.0316901"><ele>659.0</ele><time>2026-04-25T14:36:18.32Z</time></trkpt><trkpt lat="45.7960834" lon="10.0316671"><ele>659.0</ele><time>2026-04-25T14:36:20.32Z</time></trkpt><trkpt lat="45.7961635" lon="10.0317342"><ele>660.6666666666666</ele><time>2026-04-25T14:36:21.32Z</time></trkpt><trkpt lat="45.7962495" lon="10.03176"><ele>662.3333333333333</ele><time>2026-04-25T14:36:22.32Z</time></trkpt><trkpt lat="45.7963266" lon="10.0317705"><ele>664.0</ele><time>2026-04-25T14:36:23.32Z</time></trkpt><trkpt lat="45.7963926" lon="10.0317577"><ele>665.6666666666666</ele><time>2026-04-25T14:36:24.32Z</time></trkpt><trkpt lat="45.7964495" lon="10.0317027"><ele>667.3333333333334</ele><time>2026-04-25T14:36:25.32Z</time></trkpt><trkpt lat="45.7965184" lon="10.0316377"><ele>669.0</ele><time>2026-04-25T14:36:26.319Z</time></trkpt><trkpt lat="45.7965833" lon="10.031583"><ele>669.0</ele><time>2026-04-25T14:36:27.319Z</time></trkpt><trkpt lat="45.7966486" lon="10.0315184"><ele>669.0</ele><time>2026-04-25T14:36:28.319Z</time></trkpt><trkpt lat="45.7967057" lon="10.0314432"><ele>669.0</ele><time>2026-04-25T14:36:29.32Z</time></trkpt><trkpt lat="45.7967707" lon="10.0313699"><ele>669.0</ele><time>2026-04-25T14:36:30.32Z</time></trkpt><trkpt lat="45.7968387" lon="10.031314"><ele>669.0</ele><time>2026-04-25T14:36:31.32Z</time></trkpt><trkpt lat="45.796898" lon="10.0312669"><ele>669.0</ele><time>2026-04-25T14:36:32.32Z</time></trkpt><trkpt lat="45.7969996" lon="10.031181"><ele>670.2</ele><time>2026-04-25T14:36:34.32Z</time></trkpt><trkpt lat="45.7970982" lon="10.0311244"><ele>671.4000000000001</ele><time>2026-04-25T14:36:36.319Z</time></trkpt><trkpt lat="45.7971731" lon="10.0310535"><ele>672.6</ele><time>2026-04-25T14:36:38.319Z</time></trkpt><trkpt lat="45.7972351" lon="10.0309599"><ele>673.8</ele><time>2026-04-25T14:36:40.321Z</time></trkpt><trkpt lat="45.7973177" lon="10.0310259"><ele>675.0</ele><time>2026-04-25T14:36:42.32Z</time></trkpt><trkpt lat="45.7973742" lon="10.0311663"><ele>675.0</ele><time>2026-04-25T14:36:44.319Z</time></trkpt><trkpt lat="45.79744" lon="10.0312364"><ele>675.0</ele><time>2026-04-25T14:36:46.319Z</time></trkpt><trkpt lat="45.7975062" lon="10.0312825"><ele>675.0</ele><time>2026-04-25T14:36:47.32Z</time></trkpt><trkpt lat="45.7976448" lon="10.0313279"><ele>675.0</ele><time>2026-04-25T14:36:49.32Z</time></trkpt><trkpt lat="45.7977101" lon="10.0313546"><ele>675.0</ele><time>2026-04-25T14:36:50.318Z</time></trkpt><trkpt lat="45.797777" lon="10.0314292"><ele>673.8</ele><time>2026-04-25T14:36:51.32Z</time></trkpt><trkpt lat="45.7978401" lon="10.0315597"><ele>672.6</ele><time>2026-04-25T14:36:53.32Z</time></trkpt><trkpt lat="45.7978149" lon="10.0316936"><ele>671.4000000000001</ele><time>2026-04-25T14:36:55.32Z</time></trkpt><trkpt lat="45.7977491" lon="10.0318173"><ele>670.2</ele><time>2026-04-25T14:36:57.321Z</time></trkpt><trkpt lat="45.7977235" lon="10.0319812"><ele>669.0</ele><time>2026-04-25T14:36:59.32Z</time></trkpt><trkpt lat="45.7977166" lon="10.0320742"><ele>673.4000000000001</ele><time>2026-04-25T14:37:00.32Z</time></trkpt><trkpt lat="45.7976545" lon="10.0321893"><ele>677.8</ele><time>2026-04-25T14:37:02.319Z</time></trkpt><trkpt lat="45.7976192" lon="10.0322832"><ele>682.2</ele><time>2026-04-25T14:37:03.32Z</time></trkpt><trkpt lat="45.7975594" lon="10.032433"><ele>686.5999999999999</ele><time>2026-04-25T14:37:05.319Z</time></trkpt><trkpt lat="45.7974929" lon="10.0325051"><ele>691.0</ele><time>2026-04-25T14:37:06.319Z</time></trkpt><trkpt lat="45.7974503" lon="10.0325927"><ele>693.0</ele><time>2026-04-25T14:37:07.318Z</time></trkpt><trkpt lat="45.7974255" lon="10.0326788"><ele>695.0</ele><time>2026-04-25T14:37:08.318Z</time></trkpt><trkpt lat="45.7973906" lon="10.0328632"><ele>697.0</ele><time>2026-04-25T14:37:10.321Z</time></trkpt><trkpt lat="45.797365" lon="10.0329745"><ele>699.0</ele><time>2026-04-25T14:37:11.319Z</time></trkpt><trkpt lat="45.7973472" lon="10.0330729"><ele>701.0</ele><time>2026-04-25T14:37:12.32Z</time></trkpt><trkpt lat="45.7973248" lon="10.033176"><ele>703.0</ele><time>2026-04-25T14:37:13.32Z</time></trkpt><trkpt lat="45.7973207" lon="10.0332692"><ele>705.8</ele><time>2026-04-25T14:37:14.32Z</time></trkpt><trkpt lat="45.7973089" lon="10.0333872"><ele>708.5999999999999</ele><time>2026-04-25T14:37:15.32Z</time></trkpt><trkpt lat="45.7972939" lon="10.0335372"><ele>711.4000000000001</ele><time>2026-04-25T14:37:17.32Z</time></trkpt><trkpt lat="45.7972965" lon="10.0336421"><ele>714.2</ele><time>2026-04-25T14:37:19.32Z</time></trkpt><trkpt lat="45.7972365" lon="10.0337896"><ele>717.0</ele><time>2026-04-25T14:37:21.32Z</time></trkpt><trkpt lat="45.7971907" lon="10.0339018"><ele>717.0</ele><time>2026-04-25T14:37:23.32Z</time></trkpt><trkpt lat="45.7971321" lon="10.0339713"><ele>717.0</ele><time>2026-04-25T14:37:25.319Z</time></trkpt><trkpt lat="45.7970725" lon="10.034076"><ele>717.0</ele><time>2026-04-25T14:37:27.32Z</time></trkpt><trkpt lat="45.7970046" lon="10.0342257"><ele>717.0</ele><time>2026-04-25T14:37:29.319Z</time></trkpt><trkpt lat="45.7969823" lon="10.0343105"><ele>717.0</ele><time>2026-04-25T14:37:30.32Z</time></trkpt><trkpt lat="45.7969137" lon="10.0344344"><ele>716.1666666666666</ele><time>2026-04-25T14:37:32.32Z</time></trkpt><trkpt lat="45.7968705" lon="10.0345188"><ele>715.3333333333334</ele><time>2026-04-25T14:37:33.321Z</time></trkpt><trkpt lat="45.7968062" lon="10.0346628"><ele>714.5</ele><time>2026-04-25T14:37:35.32Z</time></trkpt><trkpt lat="45.7967371" lon="10.0347927"><ele>713.6666666666667</ele><time>2026-04-25T14:37:37.319Z</time></trkpt><trkpt lat="45.7967041" lon="10.0348697"><ele>712.8333333333334</ele><time>2026-04-25T14:37:38.32Z</time></trkpt><trkpt lat="45.7966829" lon="10.034958"><ele>712.0</ele><time>2026-04-25T14:37:39.32Z</time></trkpt><trkpt lat="45.7966597" lon="10.035138"><ele>712.0</ele><time>2026-04-25T14:37:41.32Z</time></trkpt><trkpt lat="45.7966743" lon="10.0353308"><ele>712.0</ele><time>2026-04-25T14:37:43.319Z</time></trkpt><trkpt lat="45.7966953" lon="10.0354249"><ele>712.0</ele><time>2026-04-25T14:37:44.319Z</time></trkpt><trkpt lat="45.7967169" lon="10.0355267"><ele>712.0</ele><time>2026-04-25T14:37:45.319Z</time></trkpt><trkpt lat="45.7967341" lon="10.0356173"><ele>712.0</ele><time>2026-04-25T14:37:46.32Z</time></trkpt><trkpt lat="45.7967488" lon="10.0357105"><ele>712.0</ele><time>2026-04-25T14:37:47.32Z</time></trkpt><trkpt lat="45.7967458" lon="10.0358101"><ele>712.6666666666667</ele><time>2026-04-25T14:37:48.319Z</time></trkpt><trkpt lat="45.7967311" lon="10.0359022"><ele>713.3333333333334</ele><time>2026-04-25T14:37:49.32Z</time></trkpt><trkpt lat="45.7967205" lon="10.0360018"><ele>714.0</ele><time>2026-04-25T14:37:50.32Z</time></trkpt><trkpt lat="45.7967155" lon="10.0361613"><ele>714.6666666666666</ele><time>2026-04-25T14:37:52.32Z</time></trkpt><trkpt lat="45.7967428" lon="10.0362497"><ele>715.3333333333333</ele><time>2026-04-25T14:37:53.32Z</time></trkpt><trkpt lat="45.7967833" lon="10.0363281"><ele>716.0</ele><time>2026-04-25T14:37:54.32Z</time></trkpt><trkpt lat="45.796853" lon="10.036399"><ele>721.1666666666666</ele><time>2026-04-25T14:37:55.319Z</time></trkpt><trkpt lat="45.7969058" lon="10.0364541"><ele>726.3333333333333</ele><time>2026-04-25T14:37:56.319Z</time></trkpt><trkpt lat="45.7969988" lon="10.036509"><ele>731.5</ele><time>2026-04-25T14:37:58.32Z</time></trkpt><trkpt lat="45.7971043" lon="10.0365815"><ele>736.6666666666666</ele><time>2026-04-25T14:38:01.32Z</time></trkpt><trkpt lat="45.7971522" lon="10.0366548"><ele>741.8333333333334</ele><time>2026-04-25T14:38:02.319Z</time></trkpt><trkpt lat="45.7971882" lon="10.0367434"><ele>747.0</ele><time>2026-04-25T14:38:03.321Z</time></trkpt><trkpt lat="45.7972161" lon="10.0368275"><ele>747.0</ele><time>2026-04-25T14:38:04.32Z</time></trkpt><trkpt lat="45.797265" lon="10.0368974"><ele>747.0</ele><time>2026-04-25T14:38:05.32Z</time></trkpt><trkpt lat="45.7973637" lon="10.0370045"><ele>747.0</ele><time>2026-04-25T14:38:07.319Z</time></trkpt><trkpt lat="45.7974271" lon="10.037034"><ele>747.0</ele><time>2026-04-25T14:38:08.319Z</time></trkpt><trkpt lat="45.7975284" lon="10.0369816"><ele>747.0</ele><time>2026-04-25T14:38:10.32Z</time></trkpt><trkpt lat="45.7976287" lon="10.0370115"><ele>749.5</ele><time>2026-04-25T14:38:12.32Z</time></trkpt><trkpt lat="45.7976889" lon="10.0370926"><ele>752.0</ele><time>2026-04-25T14:38:14.32Z</time></trkpt><trkpt lat="45.7977509" lon="10.0370703"><ele>754.5</ele><time>2026-04-25T14:38:16.32Z</time></trkpt><trkpt lat="45.79783" lon="10.0369787"><ele>757.0</ele><time>2026-04-25T14:38:18.319Z</time></trkpt><trkpt lat="45.7978933" lon="10.0369411"><ele>759.5</ele><time>2026-04-25T14:38:19.318Z</time></trkpt><trkpt lat="45.7979855" lon="10.0368542"><ele>762.0</ele><time>2026-04-25T14:38:21.32Z</time></trkpt><trkpt lat="45.7979785" lon="10.0367611"><ele>762.0</ele><time>2026-04-25T14:38:22.32Z</time></trkpt><trkpt lat="45.7979743" lon="10.0366684"><ele>762.0</ele><time>2026-04-25T14:38:23.318Z</time></trkpt><trkpt lat="45.7979734" lon="10.0365517"><ele>762.0</ele><time>2026-04-25T14:38:24.318Z</time></trkpt><trkpt lat="45.7979757" lon="10.0364577"><ele>762.0</ele><time>2026-04-25T14:38:25.319Z</time></trkpt><trkpt lat="45.7979863" lon="10.0363674"><ele>762.0</ele><time>2026-04-25T14:38:26.32Z</time></trkpt><trkpt lat="45.7979942" lon="10.0362209"><ele>762.0</ele><time>2026-04-25T14:38:27.32Z</time></trkpt><trkpt lat="45.7979772" lon="10.0361147"><ele>765.4000000000001</ele><time>2026-04-25T14:38:28.319Z</time></trkpt><trkpt lat="45.7980028" lon="10.0360163"><ele>768.8000000000001</ele><time>2026-04-25T14:38:30.319Z</time></trkpt><trkpt lat="45.7980492" lon="10.0358432"><ele>772.2</ele><time>2026-04-25T14:38:32.319Z</time></trkpt><trkpt lat="45.7980666" lon="10.0356965"><ele>775.6</ele><time>2026-04-25T14:38:33.319Z</time></trkpt><trkpt lat="45.7980835" lon="10.0355541"><ele>779.0</ele><time>2026-04-25T14:38:34.32Z</time></trkpt><trkpt lat="45.7980863" lon="10.0354431"><ele>779.6666666666667</ele><time>2026-04-25T14:38:35.319Z</time></trkpt><trkpt lat="45.7980954" lon="10.0353302"><ele>780.3333333333334</ele><time>2026-04-25T14:38:36.32Z</time></trkpt><trkpt lat="45.7981253" lon="10.0352256"><ele>781.0</ele><time>2026-04-25T14:38:38.318Z</time></trkpt><trkpt lat="45.7981517" lon="10.0351234"><ele>781.6666666666667</ele><time>2026-04-25T14:38:40.321Z</time></trkpt><trkpt lat="45.7981785" lon="10.0350314"><ele>782.3333333333334</ele><time>2026-04-25T14:38:41.318Z</time></trkpt><trkpt lat="45.7982364" lon="10.0348981"><ele>783.0</ele><time>2026-04-25T14:38:43.319Z</time></trkpt><trkpt lat="45.7982823" lon="10.0348018"><ele>783.5</ele><time>2026-04-25T14:38:44.32Z</time></trkpt><trkpt lat="45.7983319" lon="10.0347108"><ele>784.0</ele><time>2026-04-25T14:38:45.32Z</time></trkpt><trkpt lat="45.7983842" lon="10.0346521"><ele>784.5</ele><time>2026-04-25T14:38:46.32Z</time></trkpt><trkpt lat="45.7984682" lon="10.0345775"><ele>785.0</ele><time>2026-04-25T14:38:48.319Z</time></trkpt><trkpt lat="45.7985305" lon="10.0345131"><ele>785.5</ele><time>2026-04-25T14:38:50.32Z</time></trkpt><trkpt lat="45.7986057" lon="10.0344331"><ele>786.0</ele><time>2026-04-25T14:38:52.32Z</time></trkpt><trkpt lat="45.7986858" lon="10.0343628"><ele>786.0</ele><time>2026-04-25T14:38:54.319Z</time></trkpt><trkpt lat="45.7987829" lon="10.0343187"><ele>786.0</ele><time>2026-04-25T14:38:56.318Z</time></trkpt><trkpt lat="45.7988782" lon="10.0342802"><ele>786.0</ele><time>2026-04-25T14:38:58.318Z</time></trkpt><trkpt lat="45.7989499" lon="10.0342178"><ele>786.0</ele><time>2026-04-25T14:39:00.32Z</time></trkpt><trkpt lat="45.799021" lon="10.0341097"><ele>786.0</ele><time>2026-04-25T14:39:02.319Z</time></trkpt><trkpt lat="45.799107" lon="10.0340298"><ele>783.5714285714287</ele><time>2026-04-25T14:39:04.319Z</time></trkpt><trkpt lat="45.7991663" lon="10.033956"><ele>781.1428571428571</ele><time>2026-04-25T14:39:06.32Z</time></trkpt><trkpt lat="45.7992002" lon="10.0338694"><ele>778.7142857142858</ele><time>2026-04-25T14:39:08.319Z</time></trkpt><trkpt lat="45.7992423" lon="10.0337728"><ele>776.2857142857143</ele><time>2026-04-25T14:39:11.32Z</time></trkpt><trkpt lat="45.7992744" lon="10.0336784"><ele>773.8571428571429</ele><time>2026-04-25T14:39:53.32Z</time></trkpt><trkpt lat="45.7992097" lon="10.0336505"><ele>771.4285714285714</ele><time>2026-04-25T14:51:07.319Z</time></trkpt><trkpt lat="45.7992292" lon="10.0335627"><ele>769.0</ele><time>2026-04-25T14:51:41.319Z</time></trkpt><trkpt lat="45.7992655" lon="10.0336775"><ele>768.9999999999999</ele><time>2026-04-25T14:51:45.32Z</time></trkpt><trkpt lat="45.7992432" lon="10.0337817"><ele>769.0</ele><time>2026-04-25T14:51:48.319Z</time></trkpt><trkpt lat="45.7992082" lon="10.0339016"><ele>769.0</ele><time>2026-04-25T14:51:51.319Z</time></trkpt><trkpt lat="45.7991505" lon="10.0339895"><ele>769.0</ele><time>2026-04-25T14:51:54.319Z</time></trkpt><trkpt lat="45.7991038" lon="10.0340791"><ele>768.9999999999999</ele><time>2026-04-25T14:51:57.321Z</time></trkpt><trkpt lat="45.7990507" lon="10.0341812"><ele>769.0</ele><time>2026-04-25T14:52:00.319Z</time></trkpt><trkpt lat="45.7989845" lon="10.0342404"><ele>772.4000000000001</ele><time>2026-04-25T14:52:03.32Z</time></trkpt><trkpt lat="45.7988966" lon="10.0342971"><ele>775.8</ele><time>2026-04-25T14:52:06.32Z</time></trkpt><trkpt lat="45.7988365" lon="10.0343299"><ele>779.2</ele><time>2026-04-25T14:52:08.32Z</time></trkpt><trkpt lat="45.7986628" lon="10.0343973"><ele>782.5999999999999</ele><time>2026-04-25T14:52:10.319Z</time></trkpt><trkpt lat="45.7986107" lon="10.0344681"><ele>786.0</ele><time>2026-04-25T14:52:12.321Z</time></trkpt><trkpt lat="45.7985544" lon="10.0345193"><ele>785.5714285714287</ele><time>2026-04-25T14:52:15.319Z</time></trkpt><trkpt lat="45.7984881" lon="10.0345506"><ele>785.1428571428571</ele><time>2026-04-25T14:52:20.32Z</time></trkpt><trkpt lat="45.7984406" lon="10.0346222"><ele>784.7142857142858</ele><time>2026-04-25T14:52:31.32Z</time></trkpt><trkpt lat="45.7983874" lon="10.0346746"><ele>784.2857142857143</ele><time>2026-04-25T14:52:34.32Z</time></trkpt><trkpt lat="45.7983262" lon="10.0347383"><ele>783.8571428571429</ele><time>2026-04-25T14:52:37.32Z</time></trkpt><trkpt lat="45.79827" lon="10.0348117"><ele>783.4285714285714</ele><time>2026-04-25T14:52:39.319Z</time></trkpt><trkpt lat="45.798223" lon="10.0348915"><ele>783.0</ele><time>2026-04-25T14:52:41.318Z</time></trkpt><trkpt lat="45.798179" lon="10.0349779"><ele>783.0</ele><time>2026-04-25T14:52:43.319Z</time></trkpt><trkpt lat="45.79814" lon="10.0350522"><ele>783.0</ele><time>2026-04-25T14:52:45.318Z</time></trkpt><trkpt lat="45.7981192" lon="10.0351423"><ele>783.0</ele><time>2026-04-25T14:52:47.319Z</time></trkpt><trkpt lat="45.7980919" lon="10.0352398"><ele>783.0</ele><time>2026-04-25T14:52:49.32Z</time></trkpt><trkpt lat="45.798079" lon="10.0353285"><ele>783.0</ele><time>2026-04-25T14:52:51.318Z</time></trkpt><trkpt lat="45.7980824" lon="10.0354251"><ele>783.0</ele><time>2026-04-25T14:52:53.318Z</time></trkpt><trkpt lat="45.7980721" lon="10.0355193"><ele>783.0</ele><time>2026-04-25T14:52:55.318Z</time></trkpt><trkpt lat="45.7980585" lon="10.0356094"><ele>783.0</ele><time>2026-04-25T14:52:57.319Z</time></trkpt><trkpt lat="45.7980358" lon="10.0357049"><ele>783.0</ele><time>2026-04-25T14:52:59.319Z</time></trkpt><trkpt lat="45.7980201" lon="10.0358203"><ele>783.0</ele><time>2026-04-25T14:53:02.318Z</time></trkpt><trkpt lat="45.7979876" lon="10.0359105"><ele>783.0</ele><time>2026-04-25T14:53:05.32Z</time></trkpt><trkpt lat="45.7979868" lon="10.0360103"><ele>783.0</ele><time>2026-04-25T14:53:15.319Z</time></trkpt><trkpt lat="45.7979912" lon="10.036102"><ele>783.0</ele><time>2026-04-25T14:53:19.319Z</time></trkpt><trkpt lat="45.7980065" lon="10.0361909"><ele>783.0</ele><time>2026-04-25T14:53:22.319Z</time></trkpt><trkpt lat="45.7980221" lon="10.0363002"><ele>782.3333333333334</ele><time>2026-04-25T14:53:26.318Z</time></trkpt><trkpt lat="45.7980236" lon="10.0364253"><ele>781.6666666666667</ele><time>2026-04-25T14:53:29.319Z</time></trkpt><trkpt lat="45.7980146" lon="10.0365361"><ele>781.0</ele><time>2026-04-25T14:53:32.319Z</time></trkpt><trkpt lat="45.7980238" lon="10.0366499"><ele>780.3333333333334</ele><time>2026-04-25T14:53:35.319Z</time></trkpt><trkpt lat="45.7980445" lon="10.0367569"><ele>779.6666666666667</ele><time>2026-04-25T14:53:50.319Z</time></trkpt><trkpt lat="45.7980211" lon="10.0368532"><ele>779.0</ele><time>2026-04-25T14:54:02.32Z</time></trkpt><trkpt lat="45.7979664" lon="10.0369224"><ele>776.5714285714287</ele><time>2026-04-25T14:54:05.32Z</time></trkpt><trkpt lat="45.7979131" lon="10.0369885"><ele>774.1428571428571</ele><time>2026-04-25T14:54:08.319Z</time></trkpt><trkpt lat="45.7978493" lon="10.0370347"><ele>771.7142857142858</ele><time>2026-04-25T14:54:10.319Z</time></trkpt><trkpt lat="45.7977746" lon="10.0370907"><ele>769.2857142857143</ele><time>2026-04-25T14:54:13.319Z</time></trkpt><trkpt lat="45.7977055" lon="10.0370816"><ele>766.8571428571429</ele><time>2026-04-25T14:54:16.319Z</time></trkpt><trkpt lat="45.7976447" lon="10.0370188"><ele>764.4285714285714</ele><time>2026-04-25T14:54:19.317Z</time></trkpt><trkpt lat="45.797573" lon="10.0370498"><ele>762.0</ele><time>2026-04-25T14:54:22.319Z</time></trkpt><trkpt lat="45.7975021" lon="10.0371129"><ele>759.8571428571428</ele><time>2026-04-25T14:54:25.319Z</time></trkpt><trkpt lat="45.7974355" lon="10.0370993"><ele>757.7142857142858</ele><time>2026-04-25T14:54:27.318Z</time></trkpt><trkpt lat="45.7973484" lon="10.0370613"><ele>755.5714285714286</ele><time>2026-04-25T14:54:29.318Z</time></trkpt><trkpt lat="45.7972845" lon="10.037013"><ele>753.4285714285713</ele><time>2026-04-25T14:54:31.319Z</time></trkpt><trkpt lat="45.7972412" lon="10.0369317"><ele>751.2857142857142</ele><time>2026-04-25T14:54:33.318Z</time></trkpt><trkpt lat="45.7972205" lon="10.0368326"><ele>749.1428571428571</ele><time>2026-04-25T14:54:35.318Z</time></trkpt><trkpt lat="45.7972042" lon="10.0369349"><ele>747.0</ele><time>2026-04-25T14:54:43.319Z</time></trkpt><trkpt lat="45.797204" lon="10.0370335"><ele>747.0</ele><time>2026-04-25T14:54:45.318Z</time></trkpt><trkpt lat="45.7972251" lon="10.0371605"><ele>747.0</ele><time>2026-04-25T14:54:47.32Z</time></trkpt><trkpt lat="45.7972376" lon="10.0372968"><ele>747.0</ele><time>2026-04-25T14:54:49.32Z</time></trkpt><trkpt lat="45.7972622" lon="10.0374167"><ele>747.0</ele><time>2026-04-25T14:54:51.318Z</time></trkpt><trkpt lat="45.7973065" lon="10.0375087"><ele>747.0</ele><time>2026-04-25T14:54:53.319Z</time></trkpt><trkpt lat="45.7973751" lon="10.0375564"><ele>747.0</ele><time>2026-04-25T14:54:55.319Z</time></trkpt><trkpt lat="45.797475" lon="10.0375624"><ele>745.5</ele><time>2026-04-25T14:54:57.318Z</time></trkpt><trkpt lat="45.7975566" lon="10.0375952"><ele>744.0</ele><time>2026-04-25T14:54:59.318Z</time></trkpt><trkpt lat="45.7976342" lon="10.0376673"><ele>742.5</ele><time>2026-04-25T14:55:01.319Z</time></trkpt><trkpt lat="45.7976854" lon="10.0377259"><ele>741.0</ele><time>2026-04-25T14:55:02.318Z</time></trkpt><trkpt lat="45.7977616" lon="10.0378627"><ele>739.5</ele><time>2026-04-25T14:55:04.319Z</time></trkpt><trkpt lat="45.7978015" lon="10.0379438"><ele>738.0</ele><time>2026-04-25T14:55:05.319Z</time></trkpt><trkpt lat="45.7978789" lon="10.0380341"><ele>738.0</ele><time>2026-04-25T14:55:07.319Z</time></trkpt><trkpt lat="45.797954" lon="10.0380506"><ele>738.0</ele><time>2026-04-25T14:55:08.319Z</time></trkpt><trkpt lat="45.7980808" lon="10.0380953"><ele>738.0</ele><time>2026-04-25T14:55:10.32Z</time></trkpt><trkpt lat="45.7981684" lon="10.038132"><ele>738.0</ele><time>2026-04-25T14:55:11.319Z</time></trkpt><trkpt lat="45.79826" lon="10.0381495"><ele>738.0</ele><time>2026-04-25T14:55:12.319Z</time></trkpt><trkpt lat="45.7983413" lon="10.038166"><ele>738.0</ele><time>2026-04-25T14:55:13.319Z</time></trkpt><trkpt lat="45.7984233" lon="10.0381731"><ele>738.0</ele><time>2026-04-25T14:55:14.319Z</time></trkpt><trkpt lat="45.7985285" lon="10.0382396"><ele>738.0</ele><time>2026-04-25T14:55:16.318Z</time></trkpt><trkpt lat="45.79863" lon="10.0382497"><ele>738.0</ele><time>2026-04-25T14:55:18.319Z</time></trkpt><trkpt lat="45.7987363" lon="10.0382284"><ele>738.0</ele><time>2026-04-25T14:55:20.318Z</time></trkpt><trkpt lat="45.7988088" lon="10.0382056"><ele>735.0</ele><time>2026-04-25T14:55:21.318Z</time></trkpt><trkpt lat="45.7989008" lon="10.0381693"><ele>732.0</ele><time>2026-04-25T14:55:23.319Z</time></trkpt><trkpt lat="45.7989542" lon="10.0380891"><ele>729.0</ele><time>2026-04-25T14:55:25.319Z</time></trkpt><trkpt lat="45.7990058" lon="10.0379908"><ele>726.0</ele><time>2026-04-25T14:55:27.319Z</time></trkpt><trkpt lat="45.7990656" lon="10.0378817"><ele>723.0</ele><time>2026-04-25T14:55:29.319Z</time></trkpt><trkpt lat="45.7991073" lon="10.0377999"><ele>720.0</ele><time>2026-04-25T14:55:31.319Z</time></trkpt><trkpt lat="45.7991598" lon="10.0377089"><ele>720.0</ele><time>2026-04-25T14:55:34.319Z</time></trkpt><trkpt lat="45.7992138" lon="10.037789"><ele>720.0</ele><time>2026-04-25T14:55:36.318Z</time></trkpt><trkpt lat="45.7992248" lon="10.0379202"><ele>720.0</ele><time>2026-04-25T14:55:38.319Z</time></trkpt><trkpt lat="45.7992307" lon="10.0380621"><ele>720.0</ele><time>2026-04-25T14:55:40.319Z</time></trkpt><trkpt lat="45.7992607" lon="10.0381907"><ele>720.0</ele><time>2026-04-25T14:55:42.32Z</time></trkpt><trkpt lat="45.799285" lon="10.038325"><ele>717.2</ele><time>2026-04-25T14:55:44.319Z</time></trkpt><trkpt lat="45.7992968" lon="10.0384458"><ele>714.4</ele><time>2026-04-25T14:55:46.319Z</time></trkpt><trkpt lat="45.7992575" lon="10.038595"><ele>711.5999999999999</ele><time>2026-04-25T14:55:48.319Z</time></trkpt><trkpt lat="45.7991893" lon="10.0387237"><ele>708.8</ele><time>2026-04-25T14:55:50.318Z</time></trkpt><trkpt lat="45.7991169" lon="10.0388643"><ele>706.0</ele><time>2026-04-25T14:55:52.318Z</time></trkpt><trkpt lat="45.7990447" lon="10.0389926"><ele>706.0</ele><time>2026-04-25T14:55:54.32Z</time></trkpt><trkpt lat="45.7989622" lon="10.0390835"><ele>706.0</ele><time>2026-04-25T14:55:56.319Z</time></trkpt><trkpt lat="45.7988538" lon="10.0391375"><ele>706.0</ele><time>2026-04-25T14:55:58.319Z</time></trkpt><trkpt lat="45.7987421" lon="10.0392156"><ele>706.0</ele><time>2026-04-25T14:56:00.318Z</time></trkpt><trkpt lat="45.7986722" lon="10.0392577"><ele>706.0</ele><time>2026-04-25T14:56:01.319Z</time></trkpt><trkpt lat="45.7986166" lon="10.039314"><ele>704.3333333333334</ele><time>2026-04-25T14:56:02.319Z</time></trkpt><trkpt lat="45.7985625" lon="10.0393728"><ele>702.6666666666667</ele><time>2026-04-25T14:56:03.319Z</time></trkpt><trkpt lat="45.7985191" lon="10.0394413"><ele>701.0</ele><time>2026-04-25T14:56:04.319Z</time></trkpt><trkpt lat="45.7984688" lon="10.0396077"><ele>699.3333333333334</ele><time>2026-04-25T14:56:06.319Z</time></trkpt><trkpt lat="45.7984299" lon="10.0396942"><ele>697.6666666666666</ele><time>2026-04-25T14:56:07.319Z</time></trkpt><trkpt lat="45.7983937" lon="10.0397805"><ele>696.0</ele><time>2026-04-25T14:56:08.319Z</time></trkpt><trkpt lat="45.7983516" lon="10.039854"><ele>696.0</ele><time>2026-04-25T14:56:09.319Z</time></trkpt><trkpt lat="45.7983153" lon="10.039931"><ele>696.0</ele><time>2026-04-25T14:56:10.319Z</time></trkpt><trkpt lat="45.7982489" lon="10.0400678"><ele>696.0</ele><time>2026-04-25T14:56:12.319Z</time></trkpt><trkpt lat="45.7981634" lon="10.0401631"><ele>696.0</ele><time>2026-04-25T14:56:14.32Z</time></trkpt><trkpt lat="45.7981171" lon="10.0402333"><ele>696.0</ele><time>2026-04-25T14:56:15.319Z</time></trkpt><trkpt lat="45.7980095" lon="10.0403222"><ele>691.8</ele><time>2026-04-25T14:56:17.319Z</time></trkpt><trkpt lat="45.7978982" lon="10.0403889"><ele>687.5999999999999</ele><time>2026-04-25T14:56:19.319Z</time></trkpt><trkpt lat="45.7977614" lon="10.0404186"><ele>683.4</ele><time>2026-04-25T14:56:21.319Z</time></trkpt><trkpt lat="45.7976993" lon="10.0403832"><ele>679.2</ele><time>2026-04-25T14:56:22.319Z</time></trkpt><trkpt lat="45.7975858" lon="10.0403276"><ele>675.0</ele><time>2026-04-25T14:56:24.318Z</time></trkpt><trkpt lat="45.7975321" lon="10.0402721"><ele>673.8</ele><time>2026-04-25T14:56:25.318Z</time></trkpt><trkpt lat="45.7974131" lon="10.0401991"><ele>672.6</ele><time>2026-04-25T14:56:27.319Z</time></trkpt><trkpt lat="45.7973495" lon="10.04019"><ele>671.4000000000001</ele><time>2026-04-25T14:56:28.319Z</time></trkpt><trkpt lat="45.7972645" lon="10.0401741"><ele>670.2</ele><time>2026-04-25T14:56:29.319Z</time></trkpt><trkpt lat="45.7971944" lon="10.0401574"><ele>669.0</ele><time>2026-04-25T14:56:30.317Z</time></trkpt><trkpt lat="45.7970874" lon="10.0400816"><ele>666.6</ele><time>2026-04-25T14:56:32.318Z</time></trkpt><trkpt lat="45.79702" lon="10.0399632"><ele>664.2</ele><time>2026-04-25T14:56:34.319Z</time></trkpt><trkpt lat="45.7969616" lon="10.039855"><ele>661.8000000000001</ele><time>2026-04-25T14:56:36.319Z</time></trkpt><trkpt lat="45.7968786" lon="10.0397911"><ele>659.4000000000001</ele><time>2026-04-25T14:56:38.319Z</time></trkpt><trkpt lat="45.7968022" lon="10.0396863"><ele>657.0</ele><time>2026-04-25T14:56:40.318Z</time></trkpt><trkpt lat="45.7967556" lon="10.0395495"><ele>657.0</ele><time>2026-04-25T14:56:42.319Z</time></trkpt><trkpt lat="45.7966979" lon="10.0394531"><ele>657.0</ele><time>2026-04-25T14:56:43.319Z</time></trkpt><trkpt lat="45.7966507" lon="10.0393702"><ele>657.0</ele><time>2026-04-25T14:56:44.319Z</time></trkpt><trkpt lat="45.7966162" lon="10.0392774"><ele>657.0</ele><time>2026-04-25T14:56:45.319Z</time></trkpt><trkpt lat="45.7965718" lon="10.0392056"><ele>657.0</ele><time>2026-04-25T14:56:46.319Z</time></trkpt><trkpt lat="45.7964828" lon="10.0391002"><ele>657.0</ele><time>2026-04-25T14:56:48.319Z</time></trkpt><trkpt lat="45.7964398" lon="10.039026"><ele>660.0</ele><time>2026-04-25T14:56:49.319Z</time></trkpt><trkpt lat="45.7963898" lon="10.0389526"><ele>663.0</ele><time>2026-04-25T14:56:50.319Z</time></trkpt><trkpt lat="45.7963382" lon="10.0388999"><ele>666.0</ele><time>2026-04-25T14:56:51.319Z</time></trkpt><trkpt lat="45.7962656" lon="10.0387849"><ele>669.0</ele><time>2026-04-25T14:56:53.319Z</time></trkpt><trkpt lat="45.796189" lon="10.0386537"><ele>672.0</ele><time>2026-04-25T14:56:55.318Z</time></trkpt><trkpt lat="45.7961337" lon="10.0385936"><ele>675.0</ele><time>2026-04-25T14:56:56.319Z</time></trkpt><trkpt lat="45.796039" lon="10.0384867"><ele>671.6666666666666</ele><time>2026-04-25T14:56:58.319Z</time></trkpt><trkpt lat="45.7959577" lon="10.0383771"><ele>668.3333333333334</ele><time>2026-04-25T14:57:00.319Z</time></trkpt><trkpt lat="45.7959127" lon="10.0383029"><ele>665.0</ele><time>2026-04-25T14:57:01.318Z</time></trkpt><trkpt lat="45.795864" lon="10.0382251"><ele>661.6666666666667</ele><time>2026-04-25T14:57:02.319Z</time></trkpt><trkpt lat="45.7958081" lon="10.0381245"><ele>658.3333333333334</ele><time>2026-04-25T14:57:03.318Z</time></trkpt><trkpt lat="45.7957564" lon="10.0380145"><ele>655.0</ele><time>2026-04-25T14:57:04.319Z</time></trkpt><trkpt lat="45.7956986" lon="10.0379555"><ele>655.0</ele><time>2026-04-25T14:57:05.318Z</time></trkpt><trkpt lat="45.7956666" lon="10.0378421"><ele>655.0</ele><time>2026-04-25T14:57:06.319Z</time></trkpt><trkpt lat="45.7955753" lon="10.0377864"><ele>655.0</ele><time>2026-04-25T14:57:08.319Z</time></trkpt><trkpt lat="45.7955045" lon="10.0377036"><ele>655.0</ele><time>2026-04-25T14:57:10.319Z</time></trkpt><trkpt lat="45.7954491" lon="10.0376244"><ele>655.0</ele><time>2026-04-25T14:57:12.318Z</time></trkpt><trkpt lat="45.7953881" lon="10.0375444"><ele>655.0</ele><time>2026-04-25T14:57:15.318Z</time></trkpt><trkpt lat="45.7953206" lon="10.0375044"><ele>655.0</ele><time>2026-04-25T14:57:18.318Z</time></trkpt><trkpt lat="45.7952501" lon="10.0374864"><ele>655.0</ele><time>2026-04-25T14:57:21.317Z</time></trkpt><trkpt lat="45.7951731" lon="10.0375037"><ele>655.0</ele><time>2026-04-25T14:57:24.318Z</time></trkpt><trkpt lat="45.7950801" lon="10.0374666"><ele>655.0</ele><time>2026-04-25T14:57:26.32Z</time></trkpt><trkpt lat="45.7949904" lon="10.0374359"><ele>655.0</ele><time>2026-04-25T14:57:28.318Z</time></trkpt><trkpt lat="45.794921" lon="10.0373909"><ele>655.0</ele><time>2026-04-25T14:57:30.32Z</time></trkpt><trkpt lat="45.7948758" lon="10.0373114"><ele>651.0</ele><time>2026-04-25T14:57:32.319Z</time></trkpt><trkpt lat="45.7948837" lon="10.0372076"><ele>647.0</ele><time>2026-04-25T14:57:34.319Z</time></trkpt><trkpt lat="45.7949432" lon="10.0371232"><ele>643.0</ele><time>2026-04-25T14:57:36.318Z</time></trkpt><trkpt lat="45.7950053" lon="10.0370758"><ele>639.0</ele><time>2026-04-25T14:57:38.32Z</time></trkpt><trkpt lat="45.7950523" lon="10.0370119"><ele>635.0</ele><time>2026-04-25T14:57:40.318Z</time></trkpt><trkpt lat="45.7950456" lon="10.036872"><ele>631.0</ele><time>2026-04-25T14:57:43.318Z</time></trkpt><trkpt lat="45.7950133" lon="10.0367945"><ele>631.0</ele><time>2026-04-25T14:57:45.318Z</time></trkpt><trkpt lat="45.794974" lon="10.0367171"><ele>631.0</ele><time>2026-04-25T14:57:47.319Z</time></trkpt><trkpt lat="45.7949252" lon="10.0366531"><ele>631.0</ele><time>2026-04-25T14:57:49.319Z</time></trkpt><trkpt lat="45.7948659" lon="10.0366027"><ele>631.0</ele><time>2026-04-25T14:57:51.318Z</time></trkpt><trkpt lat="45.7948035" lon="10.0365492"><ele>631.0</ele><time>2026-04-25T14:57:53.464Z</time></trkpt><trkpt lat="45.7947459" lon="10.0364918"><ele>631.0</ele><time>2026-04-25T14:57:55.17Z</time></trkpt><trkpt lat="45.7946599" lon="10.0364238"><ele>631.0</ele><time>2026-04-25T14:57:57.318Z</time></trkpt><trkpt lat="45.7945715" lon="10.0364057"><ele>629.8</ele><time>2026-04-25T14:57:59.319Z</time></trkpt><trkpt lat="45.7944982" lon="10.0363314"><ele>628.6</ele><time>2026-04-25T14:58:01.318Z</time></trkpt><trkpt lat="45.7944353" lon="10.0361984"><ele>627.4</ele><time>2026-04-25T14:58:03.319Z</time></trkpt><trkpt lat="45.7943521" lon="10.0360664"><ele>626.2</ele><time>2026-04-25T14:58:05.319Z</time></trkpt><trkpt lat="45.7943029" lon="10.0359236"><ele>625.0</ele><time>2026-04-25T14:58:07.318Z</time></trkpt><trkpt lat="45.7942264" lon="10.0357903"><ele>625.0</ele><time>2026-04-25T14:58:09.319Z</time></trkpt><trkpt lat="45.7941759" lon="10.0357298"><ele>625.0</ele><time>2026-04-25T14:58:10.318Z</time></trkpt><trkpt lat="45.7941331" lon="10.035662"><ele>625.0</ele><time>2026-04-25T14:58:11.318Z</time></trkpt><trkpt lat="45.7940299" lon="10.0355362"><ele>625.0</ele><time>2026-04-25T14:58:13.319Z</time></trkpt><trkpt lat="45.7939823" lon="10.0354735"><ele>625.0</ele><time>2026-04-25T14:58:14.319Z</time></trkpt><trkpt lat="45.793937" lon="10.0354102"><ele>625.0</ele><time>2026-04-25T14:58:15.319Z</time></trkpt><trkpt lat="45.7938579" lon="10.0352656"><ele>625.0</ele><time>2026-04-25T14:58:17.318Z</time></trkpt><trkpt lat="45.7938268" lon="10.0351835"><ele>625.0</ele><time>2026-04-25T14:58:18.32Z</time></trkpt><trkpt lat="45.7937895" lon="10.0351086"><ele>625.0</ele><time>2026-04-25T14:58:19.318Z</time></trkpt><trkpt lat="45.7937448" lon="10.0350433"><ele>625.0</ele><time>2026-04-25T14:58:20.319Z</time></trkpt><trkpt lat="45.7936642" lon="10.0349209"><ele>625.0</ele><time>2026-04-25T14:58:22.319Z</time></trkpt><trkpt lat="45.7935637" lon="10.0348291"><ele>625.0</ele><time>2026-04-25T14:58:24.319Z</time></trkpt><trkpt lat="45.7934645" lon="10.0347366"><ele>623.6666666666667</ele><time>2026-04-25T14:58:26.319Z</time></trkpt><trkpt lat="45.7933992" lon="10.0346342"><ele>622.3333333333334</ele><time>2026-04-25T14:58:28.32Z</time></trkpt><trkpt lat="45.7933466" lon="10.0345175"><ele>621.0</ele><time>2026-04-25T14:58:30.319Z</time></trkpt><trkpt lat="45.7932954" lon="10.0344323"><ele>619.6666666666666</ele><time>2026-04-25T14:58:32.319Z</time></trkpt><trkpt lat="45.7932227" lon="10.0343685"><ele>618.3333333333333</ele><time>2026-04-25T14:58:34.319Z</time></trkpt><trkpt lat="45.7931441" lon="10.0343114"><ele>617.0</ele><time>2026-04-25T14:58:36.319Z</time></trkpt><trkpt lat="45.7930694" lon="10.0342509"><ele>617.0</ele><time>2026-04-25T14:58:38.319Z</time></trkpt><trkpt lat="45.792989" lon="10.0342024"><ele>617.0</ele><time>2026-04-25T14:58:40.318Z</time></trkpt><trkpt lat="45.7928979" lon="10.0341923"><ele>617.0</ele><time>2026-04-25T14:58:42.319Z</time></trkpt><trkpt lat="45.7928135" lon="10.0341796"><ele>617.0</ele><time>2026-04-25T14:58:44.319Z</time></trkpt><trkpt lat="45.7927244" lon="10.034172"><ele>617.0</ele><time>2026-04-25T14:58:46.319Z</time></trkpt><trkpt lat="45.7926439" lon="10.034173"><ele>617.0</ele><time>2026-04-25T14:58:48.319Z</time></trkpt><trkpt lat="45.7925805" lon="10.0341696"><ele>616.0</ele><time>2026-04-25T14:58:50.319Z</time></trkpt><trkpt lat="45.792517" lon="10.0341771"><ele>615.0</ele><time>2026-04-25T14:58:54.32Z</time></trkpt><trkpt lat="45.7924765" lon="10.03425"><ele>614.0</ele><time>2026-04-25T14:58:56.318Z</time></trkpt><trkpt lat="45.7924395" lon="10.0343584"><ele>613.0</ele><time>2026-04-25T14:58:58.318Z</time></trkpt><trkpt lat="45.7924144" lon="10.0344815"><ele>612.0</ele><time>2026-04-25T14:59:00.318Z</time></trkpt><trkpt lat="45.7924168" lon="10.0346098"><ele>611.0</ele><time>2026-04-25T14:59:02.318Z</time></trkpt><trkpt lat="45.7924058" lon="10.0347129"><ele>611.0</ele><time>2026-04-25T14:59:03.319Z</time></trkpt><trkpt lat="45.7923534" lon="10.0347791"><ele>611.0</ele><time>2026-04-25T14:59:05.318Z</time></trkpt><trkpt lat="45.7922772" lon="10.0347653"><ele>611.0</ele><time>2026-04-25T14:59:06.319Z</time></trkpt><trkpt lat="45.7921649" lon="10.0347937"><ele>611.0</ele><time>2026-04-25T14:59:08.318Z</time></trkpt><trkpt lat="45.7920421" lon="10.0347896"><ele>611.0</ele><time>2026-04-25T14:59:10.318Z</time></trkpt><trkpt lat="45.7919731" lon="10.0347945"><ele>611.0</ele><time>2026-04-25T14:59:11.319Z</time></trkpt><trkpt lat="45.7918685" lon="10.0347485"><ele>611.0</ele><time>2026-04-25T14:59:13.319Z</time></trkpt><trkpt lat="45.7917834" lon="10.0347199"><ele>611.0</ele><time>2026-04-25T14:59:15.32Z</time></trkpt><trkpt lat="45.7917164" lon="10.0347158"><ele>611.0</ele><time>2026-04-25T14:59:27.32Z</time></trkpt><trkpt lat="45.7916425" lon="10.0347133"><ele>611.0</ele><time>2026-04-25T14:59:29.319Z</time></trkpt><trkpt lat="45.7915696" lon="10.0346854"><ele>611.0</ele><time>2026-04-25T14:59:31.319Z</time></trkpt><trkpt lat="45.7914934" lon="10.0346311"><ele>611.8333333333333</ele><time>2026-04-25T14:59:33.319Z</time></trkpt><trkpt lat="45.7914215" lon="10.0345815"><ele>612.6666666666666</ele><time>2026-04-25T14:59:35.318Z</time></trkpt><trkpt lat="45.7913402" lon="10.0345228"><ele>613.5</ele><time>2026-04-25T14:59:37.318Z</time></trkpt><trkpt lat="45.7912765" lon="10.03448"><ele>614.3333333333334</ele><time>2026-04-25T14:59:39.318Z</time></trkpt><trkpt lat="45.7912008" lon="10.0344116"><ele>615.1666666666667</ele><time>2026-04-25T14:59:42.318Z</time></trkpt><trkpt lat="45.7911253" lon="10.03438"><ele>616.0</ele><time>2026-04-25T14:59:45.319Z</time></trkpt><trkpt lat="45.7910716" lon="10.0344299"><ele>616.0</ele><time>2026-04-25T15:03:01.319Z</time></trkpt><trkpt lat="45.791149" lon="10.0344374"><ele>616.0</ele><time>2026-04-25T15:03:09.32Z</time></trkpt><trkpt lat="45.7912462" lon="10.0344135"><ele>616.0</ele><time>2026-04-25T15:03:11.319Z</time></trkpt><trkpt lat="45.7913406" lon="10.0344149"><ele>616.0</ele><time>2026-04-25T15:03:13.319Z</time></trkpt><trkpt lat="45.7914359" lon="10.034446"><ele>616.0</ele><time>2026-04-25T15:03:15.318Z</time></trkpt><trkpt lat="45.7915279" lon="10.0344882"><ele>616.0</ele><time>2026-04-25T15:03:17.317Z</time></trkpt><trkpt lat="45.7915913" lon="10.0345362"><ele>616.0</ele><time>2026-04-25T15:03:19.319Z</time></trkpt><trkpt lat="45.7916673" lon="10.0346104"><ele>616.0</ele><time>2026-04-25T15:03:21.319Z</time></trkpt><trkpt lat="45.7917249" lon="10.0347212"><ele>616.0</ele><time>2026-04-25T15:03:23.317Z</time></trkpt><trkpt lat="45.7917901" lon="10.0347389"><ele>616.0</ele><time>2026-04-25T15:05:13.319Z</time></trkpt><trkpt lat="45.7918529" lon="10.0347285"><ele>616.0</ele><time>2026-04-25T15:05:16.318Z</time></trkpt><trkpt lat="45.7919271" lon="10.0347767"><ele>615.2857142857143</ele><time>2026-04-25T15:05:20.319Z</time></trkpt><trkpt lat="45.7920053" lon="10.0347977"><ele>614.5714285714286</ele><time>2026-04-25T15:05:23.319Z</time></trkpt><trkpt lat="45.7920739" lon="10.0347881"><ele>613.8571428571429</ele><time>2026-04-25T15:05:25.318Z</time></trkpt><trkpt lat="45.792142" lon="10.0347789"><ele>613.1428571428571</ele><time>2026-04-25T15:05:27.319Z</time></trkpt><trkpt lat="45.7922319" lon="10.0347623"><ele>612.4285714285714</ele><time>2026-04-25T15:05:30.318Z</time></trkpt><trkpt lat="45.792294" lon="10.0347385"><ele>611.7142857142858</ele><time>2026-04-25T15:05:33.319Z</time></trkpt><trkpt lat="45.7922964" lon="10.034632"><ele>611.0</ele><time>2026-04-25T15:05:35.319Z</time></trkpt><trkpt lat="45.7922995" lon="10.0345119"><ele>611.0</ele><time>2026-04-25T15:05:37.317Z</time></trkpt><trkpt lat="45.7923143" lon="10.0343932"><ele>611.0</ele><time>2026-04-25T15:05:40.318Z</time></trkpt><trkpt lat="45.7923643" lon="10.0342901"><ele>611.0</ele><time>2026-04-25T15:05:43.317Z</time></trkpt><trkpt lat="45.7924072" lon="10.0342166"><ele>611.0</ele><time>2026-04-25T15:05:46.319Z</time></trkpt><trkpt lat="45.7923808" lon="10.0340835"><ele>611.0</ele><time>2026-04-25T15:05:50.318Z</time></trkpt><trkpt lat="45.7923468" lon="10.0339936"><ele>611.0</ele><time>2026-04-25T15:05:51.318Z</time></trkpt><trkpt lat="45.7923033" lon="10.0339086"><ele>611.1666666666666</ele><time>2026-04-25T15:05:52.319Z</time></trkpt><trkpt lat="45.7922563" lon="10.0338089"><ele>611.3333333333333</ele><time>2026-04-25T15:05:53.319Z</time></trkpt><trkpt lat="45.7922127" lon="10.0337177"><ele>611.5</ele><time>2026-04-25T15:05:54.318Z</time></trkpt><trkpt lat="45.7921657" lon="10.0336255"><ele>611.6666666666666</ele><time>2026-04-25T15:05:55.319Z</time></trkpt><trkpt lat="45.7921159" lon="10.033537"><ele>611.8333333333334</ele><time>2026-04-25T15:05:56.318Z</time></trkpt><trkpt lat="45.7920635" lon="10.0334442"><ele>612.0</ele><time>2026-04-25T15:05:57.319Z</time></trkpt><trkpt lat="45.7920109" lon="10.0333438"><ele>612.3333333333334</ele><time>2026-04-25T15:05:58.319Z</time></trkpt><trkpt lat="45.7919618" lon="10.0332396"><ele>612.6666666666666</ele><time>2026-04-25T15:05:59.319Z</time></trkpt><trkpt lat="45.7919153" lon="10.0331392"><ele>613.0</ele><time>2026-04-25T15:06:00.318Z</time></trkpt><trkpt lat="45.7918701" lon="10.0330354"><ele>613.3333333333333</ele><time>2026-04-25T15:06:01.318Z</time></trkpt><trkpt lat="45.7918199" lon="10.0329302"><ele>613.6666666666666</ele><time>2026-04-25T15:06:02.319Z</time></trkpt><trkpt lat="45.791762" lon="10.0328261"><ele>614.0</ele><time>2026-04-25T15:06:03.319Z</time></trkpt><trkpt lat="45.7916979" lon="10.0327304"><ele>612.5</ele><time>2026-04-25T15:06:04.319Z</time></trkpt><trkpt lat="45.7916332" lon="10.0326431"><ele>611.0</ele><time>2026-04-25T15:06:05.319Z</time></trkpt><trkpt lat="45.7915569" lon="10.032576"><ele>609.5</ele><time>2026-04-25T15:06:06.32Z</time></trkpt><trkpt lat="45.7914873" lon="10.0325022"><ele>608.0</ele><time>2026-04-25T15:06:07.318Z</time></trkpt><trkpt lat="45.7914038" lon="10.0324387"><ele>606.5</ele><time>2026-04-25T15:06:08.319Z</time></trkpt><trkpt lat="45.7913329" lon="10.0323653"><ele>605.0</ele><time>2026-04-25T15:06:09.319Z</time></trkpt><trkpt lat="45.7912592" lon="10.0322741"><ele>604.5</ele><time>2026-04-25T15:06:10.319Z</time></trkpt><trkpt lat="45.7912044" lon="10.0321796"><ele>604.0</ele><time>2026-04-25T15:06:11.318Z</time></trkpt><trkpt lat="45.7911579" lon="10.0320732"><ele>603.5</ele><time>2026-04-25T15:06:12.319Z</time></trkpt><trkpt lat="45.7911282" lon="10.0319577"><ele>603.0</ele><time>2026-04-25T15:06:13.318Z</time></trkpt><trkpt lat="45.7910953" lon="10.031854"><ele>602.5</ele><time>2026-04-25T15:06:14.319Z</time></trkpt><trkpt lat="45.7910737" lon="10.0317294"><ele>602.0</ele><time>2026-04-25T15:06:15.318Z</time></trkpt><trkpt lat="45.7910708" lon="10.0316099"><ele>601.4</ele><time>2026-04-25T15:06:16.319Z</time></trkpt><trkpt lat="45.7910846" lon="10.0314905"><ele>600.8000000000001</ele><time>2026-04-25T15:06:17.318Z</time></trkpt><trkpt lat="45.7911059" lon="10.0313555"><ele>600.2</ele><time>2026-04-25T15:06:18.32Z</time></trkpt><trkpt lat="45.7911348" lon="10.0312234"><ele>599.6</ele><time>2026-04-25T15:06:19.317Z</time></trkpt><trkpt lat="45.7911608" lon="10.0310935"><ele>599.0</ele><time>2026-04-25T15:06:20.319Z</time></trkpt><trkpt lat="45.7911773" lon="10.030962"><ele>599.0</ele><time>2026-04-25T15:06:21.319Z</time></trkpt><trkpt lat="45.7911832" lon="10.0308255"><ele>599.0</ele><time>2026-04-25T15:06:22.318Z</time></trkpt><trkpt lat="45.7911831" lon="10.0306978"><ele>599.0</ele><time>2026-04-25T15:06:23.319Z</time></trkpt><trkpt lat="45.7911813" lon="10.0305705"><ele>599.0</ele><time>2026-04-25T15:06:24.319Z</time></trkpt><trkpt lat="45.7911703" lon="10.0304455"><ele>599.0</ele><time>2026-04-25T15:06:25.319Z</time></trkpt><trkpt lat="45.7911563" lon="10.0303196"><ele>599.3333333333333</ele><time>2026-04-25T15:06:26.319Z</time></trkpt><trkpt lat="45.7911436" lon="10.0301932"><ele>599.6666666666666</ele><time>2026-04-25T15:06:27.317Z</time></trkpt><trkpt lat="45.7911298" lon="10.0300637"><ele>600.0</ele><time>2026-04-25T15:06:28.319Z</time></trkpt><trkpt lat="45.7911166" lon="10.0299297"><ele>600.3333333333334</ele><time>2026-04-25T15:06:29.318Z</time></trkpt><trkpt lat="45.791104" lon="10.0298049"><ele>600.6666666666667</ele><time>2026-04-25T15:06:30.319Z</time></trkpt><trkpt lat="45.7910961" lon="10.0296858"><ele>601.0</ele><time>2026-04-25T15:06:31.319Z</time></trkpt><trkpt lat="45.7910863" lon="10.0295576"><ele>601.5</ele><time>2026-04-25T15:06:32.319Z</time></trkpt><trkpt lat="45.7910797" lon="10.0294388"><ele>602.0</ele><time>2026-04-25T15:06:33.318Z</time></trkpt><trkpt lat="45.791067" lon="10.0293331"><ele>602.5</ele><time>2026-04-25T15:06:34.32Z</time></trkpt><trkpt lat="45.7910362" lon="10.0292251"><ele>603.0</ele><time>2026-04-25T15:06:35.317Z</time></trkpt><trkpt lat="45.7909975" lon="10.0291269"><ele>603.5</ele><time>2026-04-25T15:06:36.318Z</time></trkpt><trkpt lat="45.7909489" lon="10.029032"><ele>604.0</ele><time>2026-04-25T15:06:37.318Z</time></trkpt><trkpt lat="45.7908978" lon="10.028941"><ele>602.5</ele><time>2026-04-25T15:06:38.318Z</time></trkpt><trkpt lat="45.7908406" lon="10.0288675"><ele>601.0</ele><time>2026-04-25T15:06:39.318Z</time></trkpt><trkpt lat="45.7907801" lon="10.0287852"><ele>599.5</ele><time>2026-04-25T15:06:40.319Z</time></trkpt><trkpt lat="45.7907246" lon="10.0286983"><ele>598.0</ele><time>2026-04-25T15:06:41.317Z</time></trkpt><trkpt lat="45.7906696" lon="10.0286173"><ele>596.5</ele><time>2026-04-25T15:06:42.318Z</time></trkpt><trkpt lat="45.7905971" lon="10.0285574"><ele>595.0</ele><time>2026-04-25T15:06:43.318Z</time></trkpt><trkpt lat="45.7905246" lon="10.0285153"><ele>595.0</ele><time>2026-04-25T15:06:44.319Z</time></trkpt><trkpt lat="45.7904534" lon="10.0284816"><ele>595.0</ele><time>2026-04-25T15:06:45.317Z</time></trkpt><trkpt lat="45.7903819" lon="10.028439"><ele>595.0</ele><time>2026-04-25T15:06:46.319Z</time></trkpt><trkpt lat="45.790318" lon="10.0283777"><ele>595.0</ele><time>2026-04-25T15:06:47.32Z</time></trkpt><trkpt lat="45.7902612" lon="10.0283073"><ele>595.0</ele><time>2026-04-25T15:06:48.319Z</time></trkpt><trkpt lat="45.7902212" lon="10.028221"><ele>595.0</ele><time>2026-04-25T15:06:49.318Z</time></trkpt><trkpt lat="45.7901918" lon="10.0281143"><ele>593.1666666666667</ele><time>2026-04-25T15:06:50.319Z</time></trkpt><trkpt lat="45.7901728" lon="10.0280042"><ele>591.3333333333334</ele><time>2026-04-25T15:06:51.318Z</time></trkpt><trkpt lat="45.7901502" lon="10.0279059"><ele>589.5</ele><time>2026-04-25T15:06:52.318Z</time></trkpt><trkpt lat="45.7901342" lon="10.0278006"><ele>587.6666666666666</ele><time>2026-04-25T15:06:53.318Z</time></trkpt><trkpt lat="45.790125" lon="10.0276953"><ele>585.8333333333333</ele><time>2026-04-25T15:06:54.318Z</time></trkpt><trkpt lat="45.7901171" lon="10.0275838"><ele>584.0</ele><time>2026-04-25T15:06:55.319Z</time></trkpt><trkpt lat="45.7901162" lon="10.0274806"><ele>583.7142857142857</ele><time>2026-04-25T15:06:56.319Z</time></trkpt><trkpt lat="45.7901149" lon="10.0273892"><ele>583.4285714285714</ele><time>2026-04-25T15:06:57.319Z</time></trkpt><trkpt lat="45.7901103" lon="10.0272866"><ele>583.1428571428571</ele><time>2026-04-25T15:06:58.319Z</time></trkpt><trkpt lat="45.7901071" lon="10.0271816"><ele>582.8571428571429</ele><time>2026-04-25T15:06:59.319Z</time></trkpt><trkpt lat="45.7900972" lon="10.0270848"><ele>582.5714285714286</ele><time>2026-04-25T15:07:00.318Z</time></trkpt><trkpt lat="45.7900928" lon="10.0269766"><ele>582.2857142857142</ele><time>2026-04-25T15:07:01.318Z</time></trkpt><trkpt lat="45.7900619" lon="10.026879"><ele>582.0</ele><time>2026-04-25T15:07:02.319Z</time></trkpt><trkpt lat="45.7900162" lon="10.0267176"><ele>582.1666666666666</ele><time>2026-04-25T15:07:04.319Z</time></trkpt><trkpt lat="45.7899954" lon="10.0266283"><ele>582.3333333333334</ele><time>2026-04-25T15:07:05.319Z</time></trkpt><trkpt lat="45.7899671" lon="10.0265353"><ele>582.5</ele><time>2026-04-25T15:07:06.318Z</time></trkpt><trkpt lat="45.7898746" lon="10.0263943"><ele>582.6666666666667</ele><time>2026-04-25T15:07:08.319Z</time></trkpt><trkpt lat="45.7898249" lon="10.0263381"><ele>582.8333333333334</ele><time>2026-04-25T15:07:09.319Z</time></trkpt><trkpt lat="45.789777" lon="10.0262655"><ele>583.0</ele><time>2026-04-25T15:07:10.319Z</time></trkpt><trkpt lat="45.7897316" lon="10.0261776"><ele>583.0000000000001</ele><time>2026-04-25T15:07:11.318Z</time></trkpt><trkpt lat="45.7896809" lon="10.0261115"><ele>583.0</ele><time>2026-04-25T15:07:12.318Z</time></trkpt><trkpt lat="45.7896322" lon="10.0260525"><ele>583.0</ele><time>2026-04-25T15:07:13.318Z</time></trkpt><trkpt lat="45.7895821" lon="10.0259961"><ele>583.0</ele><time>2026-04-25T15:07:14.317Z</time></trkpt><trkpt lat="45.7895242" lon="10.0259474"><ele>583.0</ele><time>2026-04-25T15:07:15.319Z</time></trkpt><trkpt lat="45.7894724" lon="10.0258775"><ele>583.0000000000001</ele><time>2026-04-25T15:07:16.317Z</time></trkpt><trkpt lat="45.7894391" lon="10.0257977"><ele>583.0</ele><time>2026-04-25T15:07:17.317Z</time></trkpt><trkpt lat="45.7894302" lon="10.025695"><ele>582.5</ele><time>2026-04-25T15:07:18.318Z</time></trkpt><trkpt lat="45.7894233" lon="10.0255881"><ele>582.0</ele><time>2026-04-25T15:07:19.318Z</time></trkpt><trkpt lat="45.7894208" lon="10.0254969"><ele>581.5</ele><time>2026-04-25T15:07:20.317Z</time></trkpt><trkpt lat="45.7894065" lon="10.0253523"><ele>581.0</ele><time>2026-04-25T15:07:22.319Z</time></trkpt><trkpt lat="45.7893327" lon="10.0253593"><ele>580.5</ele><time>2026-04-25T15:07:24.318Z</time></trkpt><trkpt lat="45.7892314" lon="10.0254142"><ele>580.0</ele><time>2026-04-25T15:07:26.319Z</time></trkpt><trkpt lat="45.7891737" lon="10.025461"><ele>579.2</ele><time>2026-04-25T15:07:27.319Z</time></trkpt><trkpt lat="45.7890522" lon="10.0255508"><ele>578.4</ele><time>2026-04-25T15:07:29.319Z</time></trkpt><trkpt lat="45.7889891" lon="10.0256052"><ele>577.6</ele><time>2026-04-25T15:07:30.318Z</time></trkpt><trkpt lat="45.788931" lon="10.025659"><ele>576.8</ele><time>2026-04-25T15:07:31.318Z</time></trkpt><trkpt lat="45.7888568" lon="10.0258194"><ele>576.0</ele><time>2026-04-25T15:07:33.318Z</time></trkpt><trkpt lat="45.7888307" lon="10.0259173"><ele>576.0</ele><time>2026-04-25T15:07:34.319Z</time></trkpt><trkpt lat="45.7888034" lon="10.0260252"><ele>576.0</ele><time>2026-04-25T15:07:35.318Z</time></trkpt><trkpt lat="45.788777" lon="10.0261371"><ele>576.0</ele><time>2026-04-25T15:07:36.318Z</time></trkpt><trkpt lat="45.7887679" lon="10.0262534"><ele>576.0</ele><time>2026-04-25T15:07:37.319Z</time></trkpt><trkpt lat="45.7887649" lon="10.0263719"><ele>576.0</ele><time>2026-04-25T15:07:38.317Z</time></trkpt><trkpt lat="45.7887625" lon="10.0264831"><ele>576.0</ele><time>2026-04-25T15:07:39.319Z</time></trkpt><trkpt lat="45.7887531" lon="10.0266005"><ele>575.0</ele><time>2026-04-25T15:07:40.318Z</time></trkpt><trkpt lat="45.7887436" lon="10.026717"><ele>574.0</ele><time>2026-04-25T15:07:41.319Z</time></trkpt><trkpt lat="45.7887314" lon="10.0268315"><ele>573.0</ele><time>2026-04-25T15:07:42.319Z</time></trkpt><trkpt lat="45.7887242" lon="10.0269525"><ele>572.0</ele><time>2026-04-25T15:07:43.319Z</time></trkpt><trkpt lat="45.7887123" lon="10.0270715"><ele>571.0</ele><time>2026-04-25T15:07:44.318Z</time></trkpt><trkpt lat="45.7886907" lon="10.0271957"><ele>570.0</ele><time>2026-04-25T15:07:45.318Z</time></trkpt><trkpt lat="45.7886602" lon="10.0273088"><ele>570.0</ele><time>2026-04-25T15:07:46.319Z</time></trkpt><trkpt lat="45.7886277" lon="10.0274193"><ele>570.0</ele><time>2026-04-25T15:07:47.318Z</time></trkpt><trkpt lat="45.788599" lon="10.0275249"><ele>570.0</ele><time>2026-04-25T15:07:48.319Z</time></trkpt><trkpt lat="45.7885652" lon="10.0276284"><ele>570.0</ele><time>2026-04-25T15:07:49.318Z</time></trkpt><trkpt lat="45.7885317" lon="10.0277316"><ele>570.0</ele><time>2026-04-25T15:07:50.319Z</time></trkpt><trkpt lat="45.788497" lon="10.02783"><ele>570.0</ele><time>2026-04-25T15:07:51.317Z</time></trkpt><trkpt lat="45.7884662" lon="10.0279348"><ele>566.6666666666666</ele><time>2026-04-25T15:07:52.318Z</time></trkpt><trkpt lat="45.7884328" lon="10.0280314"><ele>563.3333333333334</ele><time>2026-04-25T15:07:53.32Z</time></trkpt><trkpt lat="45.7883984" lon="10.028133"><ele>560.0</ele><time>2026-04-25T15:07:54.319Z</time></trkpt><trkpt lat="45.7883619" lon="10.0282314"><ele>556.6666666666667</ele><time>2026-04-25T15:07:55.318Z</time></trkpt><trkpt lat="45.7883295" lon="10.0283321"><ele>553.3333333333334</ele><time>2026-04-25T15:07:56.319Z</time></trkpt><trkpt lat="45.7883018" lon="10.0284292"><ele>550.0</ele><time>2026-04-25T15:07:57.318Z</time></trkpt><trkpt lat="45.7882733" lon="10.028532"><ele>549.6666666666667</ele><time>2026-04-25T15:07:58.318Z</time></trkpt><trkpt lat="45.7882448" lon="10.0286321"><ele>549.3333333333334</ele><time>2026-04-25T15:07:59.318Z</time></trkpt><trkpt lat="45.7882146" lon="10.0287194"><ele>549.0</ele><time>2026-04-25T15:08:00.32Z</time></trkpt><trkpt lat="45.788177" lon="10.0287926"><ele>548.6666666666666</ele><time>2026-04-25T15:08:01.319Z</time></trkpt><trkpt lat="45.7880739" lon="10.0288761"><ele>548.3333333333333</ele><time>2026-04-25T15:08:03.319Z</time></trkpt><trkpt lat="45.7880093" lon="10.0288518"><ele>548.0</ele><time>2026-04-25T15:08:04.318Z</time></trkpt><trkpt lat="45.7879474" lon="10.0288095"><ele>548.0</ele><time>2026-04-25T15:08:05.317Z</time></trkpt><trkpt lat="45.7878986" lon="10.028735"><ele>548.0</ele><time>2026-04-25T15:08:06.318Z</time></trkpt><trkpt lat="45.7878488" lon="10.0286364"><ele>548.0</ele><time>2026-04-25T15:08:07.319Z</time></trkpt><trkpt lat="45.7878022" lon="10.028545"><ele>548.0</ele><time>2026-04-25T15:08:08.317Z</time></trkpt><trkpt lat="45.7877505" lon="10.0284632"><ele>548.0</ele><time>2026-04-25T15:08:09.319Z</time></trkpt><trkpt lat="45.787696" lon="10.028381"><ele>548.0</ele><time>2026-04-25T15:08:10.318Z</time></trkpt><trkpt lat="45.7876414" lon="10.0283023"><ele>547.0</ele><time>2026-04-25T15:08:11.319Z</time></trkpt><trkpt lat="45.7875864" lon="10.0282202"><ele>546.0</ele><time>2026-04-25T15:08:12.319Z</time></trkpt><trkpt lat="45.7875304" lon="10.0281347"><ele>545.0</ele><time>2026-04-25T15:08:13.319Z</time></trkpt><trkpt lat="45.787471" lon="10.0280565"><ele>544.0</ele><time>2026-04-25T15:08:14.318Z</time></trkpt><trkpt lat="45.7874087" lon="10.0279838"><ele>543.0</ele><time>2026-04-25T15:08:15.318Z</time></trkpt><trkpt lat="45.7873477" lon="10.0279157"><ele>542.0</ele><time>2026-04-25T15:08:16.32Z</time></trkpt><trkpt lat="45.7872855" lon="10.0278478"><ele>542.0</ele><time>2026-04-25T15:08:17.318Z</time></trkpt><trkpt lat="45.7872274" lon="10.0277794"><ele>542.0</ele><time>2026-04-25T15:08:18.319Z</time></trkpt><trkpt lat="45.7871536" lon="10.0277247"><ele>542.0</ele><time>2026-04-25T15:08:19.319Z</time></trkpt><trkpt lat="45.7870913" lon="10.027654"><ele>542.0</ele><time>2026-04-25T15:08:20.318Z</time></trkpt><trkpt lat="45.7870282" lon="10.0275945"><ele>542.0</ele><time>2026-04-25T15:08:21.319Z</time></trkpt><trkpt lat="45.7869664" lon="10.02752"><ele>542.0</ele><time>2026-04-25T15:08:22.318Z</time></trkpt><trkpt lat="45.7869032" lon="10.0274436"><ele>540.1666666666666</ele><time>2026-04-25T15:08:23.318Z</time></trkpt><trkpt lat="45.7868367" lon="10.0273766"><ele>538.3333333333333</ele><time>2026-04-25T15:08:24.318Z</time></trkpt><trkpt lat="45.7867684" lon="10.0273081"><ele>536.5</ele><time>2026-04-25T15:08:25.319Z</time></trkpt><trkpt lat="45.7866984" lon="10.0272463"><ele>534.6666666666666</ele><time>2026-04-25T15:08:26.319Z</time></trkpt><trkpt lat="45.7866259" lon="10.0271865"><ele>532.8333333333334</ele><time>2026-04-25T15:08:27.318Z</time></trkpt><trkpt lat="45.7865533" lon="10.0271289"><ele>531.0</ele><time>2026-04-25T15:08:28.318Z</time></trkpt><trkpt lat="45.7864711" lon="10.0270869"><ele>531.0</ele><time>2026-04-25T15:08:29.318Z</time></trkpt><trkpt lat="45.7863904" lon="10.0270502"><ele>531.0</ele><time>2026-04-25T15:08:30.319Z</time></trkpt><trkpt lat="45.7863127" lon="10.0270205"><ele>531.0</ele><time>2026-04-25T15:08:31.319Z</time></trkpt><trkpt lat="45.7862306" lon="10.0269994"><ele>531.0</ele><time>2026-04-25T15:08:32.318Z</time></trkpt><trkpt lat="45.7861439" lon="10.0269833"><ele>531.0</ele><time>2026-04-25T15:08:33.319Z</time></trkpt><trkpt lat="45.7860577" lon="10.0269675"><ele>531.0</ele><time>2026-04-25T15:08:34.318Z</time></trkpt><trkpt lat="45.7859748" lon="10.0269572"><ele>528.0</ele><time>2026-04-25T15:08:35.317Z</time></trkpt><trkpt lat="45.7858905" lon="10.0269481"><ele>525.0</ele><time>2026-04-25T15:08:36.317Z</time></trkpt><trkpt lat="45.7858089" lon="10.0269412"><ele>522.0</ele><time>2026-04-25T15:08:37.317Z</time></trkpt><trkpt lat="45.785729" lon="10.0269255"><ele>519.0</ele><time>2026-04-25T15:08:38.319Z</time></trkpt><trkpt lat="45.7856543" lon="10.0268984"><ele>516.0</ele><time>2026-04-25T15:08:39.318Z</time></trkpt><trkpt lat="45.7855795" lon="10.026862"><ele>513.0</ele><time>2026-04-25T15:08:40.319Z</time></trkpt><trkpt lat="45.7855044" lon="10.026818"><ele>513.0</ele><time>2026-04-25T15:08:41.319Z</time></trkpt><trkpt lat="45.7854349" lon="10.0267725"><ele>513.0</ele><time>2026-04-25T15:08:42.318Z</time></trkpt><trkpt lat="45.7853689" lon="10.0267219"><ele>513.0</ele><time>2026-04-25T15:08:43.32Z</time></trkpt><trkpt lat="45.7853063" lon="10.0266549"><ele>513.0</ele><time>2026-04-25T15:08:44.318Z</time></trkpt><trkpt lat="45.7852474" lon="10.026588"><ele>513.0</ele><time>2026-04-25T15:08:45.317Z</time></trkpt><trkpt lat="45.7851889" lon="10.0265063"><ele>513.0</ele><time>2026-04-25T15:08:46.319Z</time></trkpt><trkpt lat="45.7851375" lon="10.0264296"><ele>512.5</ele><time>2026-04-25T15:08:47.318Z</time></trkpt><trkpt lat="45.7850845" lon="10.0263544"><ele>512.0</ele><time>2026-04-25T15:08:48.319Z</time></trkpt><trkpt lat="45.7850302" lon="10.0262803"><ele>511.5</ele><time>2026-04-25T15:08:49.319Z</time></trkpt><trkpt lat="45.7849759" lon="10.026209"><ele>511.0</ele><time>2026-04-25T15:08:50.319Z</time></trkpt><trkpt lat="45.7849211" lon="10.0261323"><ele>510.5</ele><time>2026-04-25T15:08:51.319Z</time></trkpt><trkpt lat="45.7848688" lon="10.026053"><ele>510.0</ele><time>2026-04-25T15:08:52.319Z</time></trkpt><trkpt lat="45.78481" lon="10.0259803"><ele>510.0</ele><time>2026-04-25T15:08:53.319Z</time></trkpt><trkpt lat="45.7847567" lon="10.0259065"><ele>510.0</ele><time>2026-04-25T15:08:54.318Z</time></trkpt><trkpt lat="45.784698" lon="10.0258258"><ele>510.0</ele><time>2026-04-25T15:08:55.319Z</time></trkpt><trkpt lat="45.7846456" lon="10.0257391"><ele>510.0</ele><time>2026-04-25T15:08:56.318Z</time></trkpt><trkpt lat="45.7845971" lon="10.0256496"><ele>510.0</ele><time>2026-04-25T15:08:57.318Z</time></trkpt><trkpt lat="45.7845397" lon="10.025566"><ele>510.0</ele><time>2026-04-25T15:08:58.318Z</time></trkpt><trkpt lat="45.7844843" lon="10.0254823"><ele>510.5</ele><time>2026-04-25T15:08:59.318Z</time></trkpt><trkpt lat="45.7844266" lon="10.0253981"><ele>511.0</ele><time>2026-04-25T15:09:00.319Z</time></trkpt><trkpt lat="45.7843732" lon="10.0253176"><ele>511.5</ele><time>2026-04-25T15:09:01.319Z</time></trkpt><trkpt lat="45.7843252" lon="10.0252209"><ele>512.0</ele><time>2026-04-25T15:09:02.318Z</time></trkpt><trkpt lat="45.7842808" lon="10.0251308"><ele>512.5</ele><time>2026-04-25T15:09:03.317Z</time></trkpt><trkpt lat="45.7842342" lon="10.0250318"><ele>513.0</ele><time>2026-04-25T15:09:04.318Z</time></trkpt><trkpt lat="45.7841927" lon="10.0249378"><ele>511.6666666666667</ele><time>2026-04-25T15:09:05.318Z</time></trkpt><trkpt lat="45.7841612" lon="10.0248305"><ele>510.33333333333337</ele><time>2026-04-25T15:09:06.318Z</time></trkpt><trkpt lat="45.784132" lon="10.0247243"><ele>509.0</ele><time>2026-04-25T15:09:07.319Z</time></trkpt><trkpt lat="45.7841019" lon="10.0246206"><ele>507.6666666666667</ele><time>2026-04-25T15:09:08.318Z</time></trkpt><trkpt lat="45.7840669" lon="10.0245178"><ele>506.33333333333337</ele><time>2026-04-25T15:09:09.317Z</time></trkpt><trkpt lat="45.7840317" lon="10.0244152"><ele>505.0</ele><time>2026-04-25T15:09:10.319Z</time></trkpt><trkpt lat="45.7839898" lon="10.0243244"><ele>505.00000000000006</ele><time>2026-04-25T15:09:11.318Z</time></trkpt><trkpt lat="45.7839524" lon="10.0242387"><ele>505.0</ele><time>2026-04-25T15:09:12.318Z</time></trkpt><trkpt lat="45.7839184" lon="10.0241413"><ele>505.0</ele><time>2026-04-25T15:09:13.318Z</time></trkpt><trkpt lat="45.7838828" lon="10.0240375"><ele>505.0</ele><time>2026-04-25T15:09:14.319Z</time></trkpt><trkpt lat="45.7838469" lon="10.0239368"><ele>505.00000000000006</ele><time>2026-04-25T15:09:15.318Z</time></trkpt><trkpt lat="45.7838144" lon="10.0238383"><ele>505.0</ele><time>2026-04-25T15:09:16.318Z</time></trkpt><trkpt lat="45.7837872" lon="10.0237303"><ele>505.4285714285714</ele><time>2026-04-25T15:09:17.318Z</time></trkpt><trkpt lat="45.7837623" lon="10.0236377"><ele>505.8571428571428</ele><time>2026-04-25T15:09:18.318Z</time></trkpt><trkpt lat="45.7837361" lon="10.02354"><ele>506.2857142857143</ele><time>2026-04-25T15:09:19.32Z</time></trkpt><trkpt lat="45.7837087" lon="10.0234412"><ele>506.71428571428567</ele><time>2026-04-25T15:09:20.318Z</time></trkpt><trkpt lat="45.783685" lon="10.0233413"><ele>507.1428571428571</ele><time>2026-04-25T15:09:21.318Z</time></trkpt><trkpt lat="45.7836601" lon="10.0232429"><ele>507.57142857142856</ele><time>2026-04-25T15:09:22.318Z</time></trkpt><trkpt lat="45.783639" lon="10.0231471"><ele>508.0</ele><time>2026-04-25T15:09:23.319Z</time></trkpt><trkpt lat="45.7836193" lon="10.0230472"><ele>508.50000000000006</ele><time>2026-04-25T15:09:24.32Z</time></trkpt><trkpt lat="45.7835982" lon="10.022939"><ele>509.0</ele><time>2026-04-25T15:09:25.318Z</time></trkpt><trkpt lat="45.7835749" lon="10.0228314"><ele>509.5</ele><time>2026-04-25T15:09:26.318Z</time></trkpt><trkpt lat="45.7835523" lon="10.0227197"><ele>510.0</ele><time>2026-04-25T15:09:27.319Z</time></trkpt><trkpt lat="45.783531" lon="10.0226157"><ele>510.50000000000006</ele><time>2026-04-25T15:09:28.318Z</time></trkpt><trkpt lat="45.7835096" lon="10.0225143"><ele>511.0</ele><time>2026-04-25T15:09:29.319Z</time></trkpt><trkpt lat="45.7834945" lon="10.0224061"><ele>506.6666666666667</ele><time>2026-04-25T15:09:30.318Z</time></trkpt><trkpt lat="45.7834823" lon="10.0222986"><ele>502.33333333333337</ele><time>2026-04-25T15:09:31.318Z</time></trkpt><trkpt lat="45.7834751" lon="10.0221867"><ele>498.0</ele><time>2026-04-25T15:09:32.317Z</time></trkpt><trkpt lat="45.7834669" lon="10.0220718"><ele>493.66666666666663</ele><time>2026-04-25T15:09:33.318Z</time></trkpt><trkpt lat="45.7834588" lon="10.0219532"><ele>489.3333333333333</ele><time>2026-04-25T15:09:34.317Z</time></trkpt><trkpt lat="45.7834581" lon="10.02184"><ele>485.0</ele><time>2026-04-25T15:09:35.319Z</time></trkpt><trkpt lat="45.7834603" lon="10.0217264"><ele>484.16666666666663</ele><time>2026-04-25T15:09:36.319Z</time></trkpt><trkpt lat="45.7834692" lon="10.0216079"><ele>483.3333333333333</ele><time>2026-04-25T15:09:37.319Z</time></trkpt><trkpt lat="45.7834846" lon="10.0214853"><ele>482.5</ele><time>2026-04-25T15:09:38.317Z</time></trkpt><trkpt lat="45.7834924" lon="10.0213602"><ele>481.66666666666663</ele><time>2026-04-25T15:09:39.318Z</time></trkpt><trkpt lat="45.7834976" lon="10.0212403"><ele>480.8333333333333</ele><time>2026-04-25T15:09:40.318Z</time></trkpt><trkpt lat="45.783486" lon="10.0211202"><ele>480.0</ele><time>2026-04-25T15:09:41.318Z</time></trkpt><trkpt lat="45.7834699" lon="10.0210053"><ele>480.0</ele><time>2026-04-25T15:09:42.318Z</time></trkpt><trkpt lat="45.7834509" lon="10.0208962"><ele>480.0</ele><time>2026-04-25T15:09:43.319Z</time></trkpt><trkpt lat="45.7834309" lon="10.0207806"><ele>480.0</ele><time>2026-04-25T15:09:44.318Z</time></trkpt><trkpt lat="45.7834134" lon="10.0206635"><ele>480.0</ele><time>2026-04-25T15:09:45.32Z</time></trkpt><trkpt lat="45.7834" lon="10.0205472"><ele>480.0</ele><time>2026-04-25T15:09:46.318Z</time></trkpt><trkpt lat="45.7833869" lon="10.0204363"><ele>480.0</ele><time>2026-04-25T15:09:47.318Z</time></trkpt><trkpt lat="45.783377" lon="10.0203297"><ele>480.0</ele><time>2026-04-25T15:09:48.318Z</time></trkpt><trkpt lat="45.7833568" lon="10.0202185"><ele>480.0</ele><time>2026-04-25T15:09:49.318Z</time></trkpt><trkpt lat="45.7833371" lon="10.0201079"><ele>480.0</ele><time>2026-04-25T15:09:50.318Z</time></trkpt><trkpt lat="45.7833204" lon="10.0200027"><ele>480.0</ele><time>2026-04-25T15:09:51.318Z</time></trkpt><trkpt lat="45.783317" lon="10.0199041"><ele>480.0</ele><time>2026-04-25T15:09:52.319Z</time></trkpt><trkpt lat="45.7833074" lon="10.0198066"><ele>480.0</ele><time>2026-04-25T15:09:53.318Z</time></trkpt><trkpt lat="45.78324" lon="10.0197037"><ele>480.0</ele><time>2026-04-25T15:09:55.318Z</time></trkpt><trkpt lat="45.7831644" lon="10.0197896"><ele>480.0</ele><time>2026-04-25T15:09:57.319Z</time></trkpt><trkpt lat="45.7831666" lon="10.0199431"><ele>480.0</ele><time>2026-04-25T15:09:59.319Z</time></trkpt><trkpt lat="45.7831569" lon="10.0201225"><ele>480.0</ele><time>2026-04-25T15:10:01.317Z</time></trkpt><trkpt lat="45.7831412" lon="10.0202217"><ele>480.0</ele><time>2026-04-25T15:10:02.318Z</time></trkpt><trkpt lat="45.7831163" lon="10.020317"><ele>480.0</ele><time>2026-04-25T15:10:03.319Z</time></trkpt><trkpt lat="45.7830812" lon="10.0204142"><ele>480.0</ele><time>2026-04-25T15:10:04.32Z</time></trkpt><trkpt lat="45.783038" lon="10.0205027"><ele>480.0</ele><time>2026-04-25T15:10:05.32Z</time></trkpt><trkpt lat="45.7829908" lon="10.0205879"><ele>480.0</ele><time>2026-04-25T15:10:06.318Z</time></trkpt><trkpt lat="45.7829268" lon="10.0206555"><ele>480.0</ele><time>2026-04-25T15:10:07.319Z</time></trkpt><trkpt lat="45.7828667" lon="10.0207258"><ele>480.0</ele><time>2026-04-25T15:10:08.318Z</time></trkpt><trkpt lat="45.7828063" lon="10.0207973"><ele>480.0</ele><time>2026-04-25T15:10:09.319Z</time></trkpt><trkpt lat="45.7827476" lon="10.0208703"><ele>480.0</ele><time>2026-04-25T15:10:10.318Z</time></trkpt><trkpt lat="45.7826952" lon="10.0209397"><ele>480.0</ele><time>2026-04-25T15:10:11.319Z</time></trkpt><trkpt lat="45.782652" lon="10.0210085"><ele>480.0</ele><time>2026-04-25T15:10:12.318Z</time></trkpt><trkpt lat="45.7826141" lon="10.0210829"><ele>480.0</ele><time>2026-04-25T15:10:13.318Z</time></trkpt><trkpt lat="45.7825836" lon="10.0212095"><ele>480.0</ele><time>2026-04-25T15:10:15.32Z</time></trkpt><trkpt lat="45.7824963" lon="10.0212242"><ele>476.7142857142857</ele><time>2026-04-25T15:10:18.317Z</time></trkpt><trkpt lat="45.782462" lon="10.0211485"><ele>473.42857142857144</ele><time>2026-04-25T15:10:19.319Z</time></trkpt><trkpt lat="45.7824423" lon="10.0210404"><ele>470.14285714285717</ele><time>2026-04-25T15:10:20.318Z</time></trkpt><trkpt lat="45.782414" lon="10.0209338"><ele>466.8571428571429</ele><time>2026-04-25T15:10:21.319Z</time></trkpt><trkpt lat="45.7823799" lon="10.0208379"><ele>463.57142857142856</ele><time>2026-04-25T15:10:22.319Z</time></trkpt><trkpt lat="45.7823387" lon="10.0207561"><ele>460.28571428571433</ele><time>2026-04-25T15:10:23.318Z</time></trkpt><trkpt lat="45.7823004" lon="10.020675"><ele>457.00000000000006</ele><time>2026-04-25T15:10:24.319Z</time></trkpt><trkpt lat="45.7822615" lon="10.0205904"><ele>456.4285714285715</ele><time>2026-04-25T15:10:25.319Z</time></trkpt><trkpt lat="45.7822233" lon="10.0205054"><ele>455.8571428571429</ele><time>2026-04-25T15:10:26.319Z</time></trkpt><trkpt lat="45.7821873" lon="10.0204242"><ele>455.2857142857143</ele><time>2026-04-25T15:10:27.318Z</time></trkpt><trkpt lat="45.7821355" lon="10.0203701"><ele>454.7142857142857</ele><time>2026-04-25T15:10:28.319Z</time></trkpt><trkpt lat="45.7820799" lon="10.0203108"><ele>454.1428571428571</ele><time>2026-04-25T15:10:29.319Z</time></trkpt><trkpt lat="45.7820237" lon="10.0202552"><ele>453.5714285714285</ele><time>2026-04-25T15:10:30.32Z</time></trkpt><trkpt lat="45.781963" lon="10.0201891"><ele>452.99999999999994</ele><time>2026-04-25T15:10:31.318Z</time></trkpt><trkpt lat="45.7818683" lon="10.020073"><ele>449.59999999999997</ele><time>2026-04-25T15:10:33.319Z</time></trkpt><trkpt lat="45.7817697" lon="10.0199759"><ele>446.19999999999993</ele><time>2026-04-25T15:10:35.317Z</time></trkpt><trkpt lat="45.7816969" lon="10.0199317"><ele>442.8</ele><time>2026-04-25T15:10:37.319Z</time></trkpt><trkpt lat="45.7816338" lon="10.0198671"><ele>439.4</ele><time>2026-04-25T15:10:40.319Z</time></trkpt><trkpt lat="45.7816563" lon="10.0197823"><ele>436.0</ele><time>2026-04-25T15:10:41.317Z</time></trkpt><trkpt lat="45.7816967" lon="10.0195954"><ele>436.00000000000006</ele><time>2026-04-25T15:10:43.318Z</time></trkpt><trkpt lat="45.7817197" lon="10.0194815"><ele>436.0</ele><time>2026-04-25T15:10:44.317Z</time></trkpt><trkpt lat="45.7817506" lon="10.0193762"><ele>436.0</ele><time>2026-04-25T15:10:45.317Z</time></trkpt><trkpt lat="45.7817777" lon="10.0192693"><ele>436.0</ele><time>2026-04-25T15:10:46.317Z</time></trkpt><trkpt lat="45.781812" lon="10.019147"><ele>436.00000000000006</ele><time>2026-04-25T15:10:47.318Z</time></trkpt><trkpt lat="45.781847" lon="10.0190386"><ele>436.0</ele><time>2026-04-25T15:10:48.318Z</time></trkpt><trkpt lat="45.7818887" lon="10.0189207"><ele>437.0</ele><time>2026-04-25T15:10:49.319Z</time></trkpt><trkpt lat="45.7819351" lon="10.018815"><ele>438.0</ele><time>2026-04-25T15:10:50.319Z</time></trkpt><trkpt lat="45.7819834" lon="10.0187071"><ele>439.0</ele><time>2026-04-25T15:10:51.318Z</time></trkpt><trkpt lat="45.7820349" lon="10.0185977"><ele>440.0</ele><time>2026-04-25T15:10:52.319Z</time></trkpt><trkpt lat="45.7820847" lon="10.0184851"><ele>441.0</ele><time>2026-04-25T15:10:53.319Z</time></trkpt><trkpt lat="45.7821344" lon="10.0183677"><ele>439.20000000000005</ele><time>2026-04-25T15:10:54.318Z</time></trkpt><trkpt lat="45.7821885" lon="10.0182535"><ele>437.40000000000003</ele><time>2026-04-25T15:10:55.318Z</time></trkpt><trkpt lat="45.7822401" lon="10.018136"><ele>435.6</ele><time>2026-04-25T15:10:56.318Z</time></trkpt><trkpt lat="45.78229" lon="10.0180252"><ele>433.8</ele><time>2026-04-25T15:10:57.318Z</time></trkpt><trkpt lat="45.782352" lon="10.0179183"><ele>432.0</ele><time>2026-04-25T15:10:58.319Z</time></trkpt><trkpt lat="45.7824101" lon="10.0178181"><ele>432.0</ele><time>2026-04-25T15:10:59.319Z</time></trkpt><trkpt lat="45.7824605" lon="10.017722"><ele>432.0</ele><time>2026-04-25T15:11:00.319Z</time></trkpt><trkpt lat="45.7824894" lon="10.0176117"><ele>432.0</ele><time>2026-04-25T15:11:01.319Z</time></trkpt><trkpt lat="45.7824907" lon="10.0175205"><ele>432.0</ele><time>2026-04-25T15:11:02.319Z</time></trkpt><trkpt lat="45.7824626" lon="10.0174051"><ele>432.0</ele><time>2026-04-25T15:11:03.319Z</time></trkpt><trkpt lat="45.7824325" lon="10.0173026"><ele>432.0</ele><time>2026-04-25T15:11:04.318Z</time></trkpt><trkpt lat="45.7824051" lon="10.0171862"><ele>431.5</ele><time>2026-04-25T15:11:05.319Z</time></trkpt><trkpt lat="45.7823722" lon="10.0170673"><ele>431.0</ele><time>2026-04-25T15:11:06.319Z</time></trkpt><trkpt lat="45.7823395" lon="10.0169484"><ele>430.5</ele><time>2026-04-25T15:11:07.317Z</time></trkpt><trkpt lat="45.7822794" lon="10.016864"><ele>430.0</ele><time>2026-04-25T15:11:08.32Z</time></trkpt><trkpt lat="45.7822208" lon="10.0167908"><ele>429.5</ele><time>2026-04-25T15:11:09.319Z</time></trkpt><trkpt lat="45.7821662" lon="10.0167383"><ele>429.0</ele><time>2026-04-25T15:11:10.32Z</time></trkpt><trkpt lat="45.7820586" lon="10.0166963"><ele>429.0</ele><time>2026-04-25T15:11:12.319Z</time></trkpt><trkpt lat="45.7819391" lon="10.0167374"><ele>429.0</ele><time>2026-04-25T15:11:14.319Z</time></trkpt><trkpt lat="45.781862" lon="10.0167631"><ele>429.0</ele><time>2026-04-25T15:11:15.319Z</time></trkpt><trkpt lat="45.7817908" lon="10.0167789"><ele>429.0</ele><time>2026-04-25T15:11:16.319Z</time></trkpt><trkpt lat="45.7817023" lon="10.0167908"><ele>429.0</ele><time>2026-04-25T15:11:17.318Z</time></trkpt><trkpt lat="45.7816112" lon="10.0167977"><ele>430.2</ele><time>2026-04-25T15:11:18.318Z</time></trkpt><trkpt lat="45.7815253" lon="10.016808"><ele>431.4</ele><time>2026-04-25T15:11:19.318Z</time></trkpt><trkpt lat="45.7814409" lon="10.0168212"><ele>432.6</ele><time>2026-04-25T15:11:20.319Z</time></trkpt><trkpt lat="45.7813624" lon="10.0168254"><ele>433.8</ele><time>2026-04-25T15:11:21.318Z</time></trkpt><trkpt lat="45.7812874" lon="10.016837"><ele>435.0</ele><time>2026-04-25T15:11:22.319Z</time></trkpt><trkpt lat="45.781148" lon="10.0168985"><ele>435.0</ele><time>2026-04-25T15:11:24.319Z</time></trkpt><trkpt lat="45.7810755" lon="10.016944"><ele>435.0</ele><time>2026-04-25T15:11:25.317Z</time></trkpt><trkpt lat="45.7809943" lon="10.0169768"><ele>435.0</ele><time>2026-04-25T15:11:26.318Z</time></trkpt><trkpt lat="45.7809216" lon="10.0170052"><ele>435.0</ele><time>2026-04-25T15:11:27.318Z</time></trkpt><trkpt lat="45.7808613" lon="10.0170586"><ele>435.0</ele><time>2026-04-25T15:11:28.317Z</time></trkpt><trkpt lat="45.780772" lon="10.0171388"><ele>435.0</ele><time>2026-04-25T15:11:30.317Z</time></trkpt><trkpt lat="45.780705" lon="10.0171161"><ele>436.2</ele><time>2026-04-25T15:11:31.317Z</time></trkpt><trkpt lat="45.7806177" lon="10.0170632"><ele>437.4</ele><time>2026-04-25T15:11:32.318Z</time></trkpt><trkpt lat="45.7805234" lon="10.0169794"><ele>438.6</ele><time>2026-04-25T15:11:33.318Z</time></trkpt><trkpt lat="45.7804492" lon="10.0168885"><ele>439.8</ele><time>2026-04-25T15:11:34.318Z</time></trkpt><trkpt lat="45.7803872" lon="10.0168116"><ele>441.0</ele><time>2026-04-25T15:11:35.319Z</time></trkpt><trkpt lat="45.7803339" lon="10.0167349"><ele>441.0</ele><time>2026-04-25T15:11:36.317Z</time></trkpt><trkpt lat="45.7802922" lon="10.0166653"><ele>441.0</ele><time>2026-04-25T15:11:37.319Z</time></trkpt><trkpt lat="45.7802175" lon="10.0165727"><ele>441.0</ele><time>2026-04-25T15:11:39.318Z</time></trkpt><trkpt lat="45.7801472" lon="10.0165514"><ele>441.0</ele><time>2026-04-25T15:11:42.319Z</time></trkpt><trkpt lat="45.7801086" lon="10.0166399"><ele>441.0</ele><time>2026-04-25T15:11:45.318Z</time></trkpt><trkpt lat="45.7801195" lon="10.0167538"><ele>441.0</ele><time>2026-04-25T15:12:07.318Z</time></trkpt><trkpt lat="45.7801278" lon="10.0168581"><ele>442.3333333333333</ele><time>2026-04-25T15:12:11.319Z</time></trkpt><trkpt lat="45.780088" lon="10.0169334"><ele>443.66666666666663</ele><time>2026-04-25T15:12:15.318Z</time></trkpt><trkpt lat="45.7800426" lon="10.0167979"><ele>445.0</ele><time>2026-04-25T15:12:18.318Z</time></trkpt><trkpt lat="45.7800096" lon="10.0166415"><ele>446.3333333333333</ele><time>2026-04-25T15:12:20.319Z</time></trkpt><trkpt lat="45.7799758" lon="10.0165652"><ele>447.66666666666663</ele><time>2026-04-25T15:12:21.319Z</time></trkpt><trkpt lat="45.7799263" lon="10.0164469"><ele>449.0</ele><time>2026-04-25T15:12:23.32Z</time></trkpt><trkpt lat="45.7798725" lon="10.016313"><ele>449.99999999999994</ele><time>2026-04-25T15:12:25.319Z</time></trkpt><trkpt lat="45.7798195" lon="10.0161551"><ele>451.0</ele><time>2026-04-25T15:12:28.32Z</time></trkpt><trkpt lat="45.7797974" lon="10.0160672"><ele>452.0</ele><time>2026-04-25T15:12:29.318Z</time></trkpt><trkpt lat="45.7797904" lon="10.0159656"><ele>453.0</ele><time>2026-04-25T15:12:30.318Z</time></trkpt><trkpt lat="45.7797861" lon="10.0158608"><ele>453.99999999999994</ele><time>2026-04-25T15:12:31.319Z</time></trkpt><trkpt lat="45.779774" lon="10.0157639"><ele>455.0</ele><time>2026-04-25T15:12:32.319Z</time></trkpt><trkpt lat="45.7797594" lon="10.0156707"><ele>456.0</ele><time>2026-04-25T15:12:33.318Z</time></trkpt><trkpt lat="45.7797477" lon="10.0154769"><ele>457.0</ele><time>2026-04-25T15:12:35.319Z</time></trkpt><trkpt lat="45.7797332" lon="10.0153392"><ele>458.0</ele><time>2026-04-25T15:12:36.319Z</time></trkpt><trkpt lat="45.77972" lon="10.0152129"><ele>459.0</ele><time>2026-04-25T15:12:37.318Z</time></trkpt><trkpt lat="45.7797054" lon="10.0150977"><ele>460.0</ele><time>2026-04-25T15:12:38.318Z</time></trkpt><trkpt lat="45.7796905" lon="10.0149623"><ele>461.1666666666667</ele><time>2026-04-25T15:12:39.318Z</time></trkpt><trkpt lat="45.7796956" lon="10.014836"><ele>462.33333333333337</ele><time>2026-04-25T15:12:40.318Z</time></trkpt><trkpt lat="45.7797108" lon="10.0147179"><ele>463.5</ele><time>2026-04-25T15:12:41.318Z</time></trkpt><trkpt lat="45.7797251" lon="10.0146118"><ele>464.66666666666663</ele><time>2026-04-25T15:12:42.319Z</time></trkpt><trkpt lat="45.7797376" lon="10.0145002"><ele>465.8333333333333</ele><time>2026-04-25T15:12:43.318Z</time></trkpt><trkpt lat="45.7797344" lon="10.0143958"><ele>467.0</ele><time>2026-04-25T15:12:44.317Z</time></trkpt><trkpt lat="45.7797367" lon="10.0142951"><ele>466.99999999999994</ele><time>2026-04-25T15:12:45.318Z</time></trkpt><trkpt lat="45.7797472" lon="10.0141996"><ele>467.0</ele><time>2026-04-25T15:12:46.318Z</time></trkpt><trkpt lat="45.779739" lon="10.0140715"><ele>467.0</ele><time>2026-04-25T15:12:47.318Z</time></trkpt><trkpt lat="45.7797419" lon="10.013921"><ele>467.0</ele><time>2026-04-25T15:12:48.318Z</time></trkpt><trkpt lat="45.7797239" lon="10.0137878"><ele>466.99999999999994</ele><time>2026-04-25T15:12:49.319Z</time></trkpt><trkpt lat="45.7797153" lon="10.0136585"><ele>467.0</ele><time>2026-04-25T15:12:50.319Z</time></trkpt><trkpt lat="45.7797143" lon="10.0135487"><ele>468.0</ele><time>2026-04-25T15:12:51.318Z</time></trkpt><trkpt lat="45.7796985" lon="10.0134592"><ele>469.00000000000006</ele><time>2026-04-25T15:12:52.318Z</time></trkpt><trkpt lat="45.7796375" lon="10.0132824"><ele>470.00000000000006</ele><time>2026-04-25T15:12:54.318Z</time></trkpt><trkpt lat="45.7795607" lon="10.0131409"><ele>471.0</ele><time>2026-04-25T15:12:56.318Z</time></trkpt><trkpt lat="45.7795192" lon="10.0130545"><ele>472.0</ele><time>2026-04-25T15:12:57.318Z</time></trkpt><trkpt lat="45.7794803" lon="10.0128792"><ele>472.33333333333337</ele><time>2026-04-25T15:12:59.319Z</time></trkpt><trkpt lat="45.7794753" lon="10.0127693"><ele>472.6666666666667</ele><time>2026-04-25T15:13:00.318Z</time></trkpt><trkpt lat="45.7794628" lon="10.0126651"><ele>473.0</ele><time>2026-04-25T15:13:01.317Z</time></trkpt><trkpt lat="45.7794429" lon="10.0125443"><ele>473.33333333333337</ele><time>2026-04-25T15:13:02.318Z</time></trkpt><trkpt lat="45.7794224" lon="10.012423"><ele>473.6666666666667</ele><time>2026-04-25T15:13:03.318Z</time></trkpt><trkpt lat="45.7793915" lon="10.0122996"><ele>474.0</ele><time>2026-04-25T15:13:04.318Z</time></trkpt><trkpt lat="45.7793709" lon="10.0121693"><ele>475.0</ele><time>2026-04-25T15:13:05.319Z</time></trkpt><trkpt lat="45.7793544" lon="10.012053"><ele>476.0</ele><time>2026-04-25T15:13:06.318Z</time></trkpt><trkpt lat="45.7793477" lon="10.0119396"><ele>477.0</ele><time>2026-04-25T15:13:07.318Z</time></trkpt><trkpt lat="45.779338" lon="10.0118247"><ele>478.0</ele><time>2026-04-25T15:13:08.318Z</time></trkpt><trkpt lat="45.7793265" lon="10.0117112"><ele>479.0</ele><time>2026-04-25T15:13:09.319Z</time></trkpt><trkpt lat="45.7792976" lon="10.011596"><ele>480.0</ele><time>2026-04-25T15:13:10.319Z</time></trkpt><trkpt lat="45.7792618" lon="10.0114809"><ele>481.5</ele><time>2026-04-25T15:13:11.32Z</time></trkpt><trkpt lat="45.779236" lon="10.0113627"><ele>483.0</ele><time>2026-04-25T15:13:12.319Z</time></trkpt><trkpt lat="45.7792056" lon="10.0112425"><ele>484.5</ele><time>2026-04-25T15:13:13.318Z</time></trkpt><trkpt lat="45.7791841" lon="10.0111258"><ele>486.0</ele><time>2026-04-25T15:13:14.318Z</time></trkpt><trkpt lat="45.7791679" lon="10.0110155"><ele>487.5</ele><time>2026-04-25T15:13:15.318Z</time></trkpt><trkpt lat="45.7791591" lon="10.0108892"><ele>489.0</ele><time>2026-04-25T15:13:16.319Z</time></trkpt><trkpt lat="45.7791682" lon="10.010769"><ele>489.4</ele><time>2026-04-25T15:13:17.318Z</time></trkpt><trkpt lat="45.7791755" lon="10.0106343"><ele>489.79999999999995</ele><time>2026-04-25T15:13:18.318Z</time></trkpt><trkpt lat="45.7791814" lon="10.010505"><ele>490.20000000000005</ele><time>2026-04-25T15:13:19.319Z</time></trkpt><trkpt lat="45.7791823" lon="10.0103991"><ele>490.6</ele><time>2026-04-25T15:13:20.319Z</time></trkpt><trkpt lat="45.7791854" lon="10.0102612"><ele>491.0</ele><time>2026-04-25T15:13:21.319Z</time></trkpt><trkpt lat="45.7791827" lon="10.0101186"><ele>490.8333333333333</ele><time>2026-04-25T15:13:22.318Z</time></trkpt><trkpt lat="45.7791712" lon="10.0099731"><ele>490.66666666666663</ele><time>2026-04-25T15:13:23.318Z</time></trkpt><trkpt lat="45.7791573" lon="10.009844"><ele>490.5</ele><time>2026-04-25T15:13:24.319Z</time></trkpt><trkpt lat="45.7791277" lon="10.0097324"><ele>490.33333333333337</ele><time>2026-04-25T15:13:25.319Z</time></trkpt><trkpt lat="45.779082" lon="10.0096437"><ele>490.1666666666667</ele><time>2026-04-25T15:13:26.318Z</time></trkpt><trkpt lat="45.7790322" lon="10.0095502"><ele>490.0</ele><time>2026-04-25T15:13:27.319Z</time></trkpt><trkpt lat="45.7789662" lon="10.0094715"><ele>490.00000000000006</ele><time>2026-04-25T15:13:28.318Z</time></trkpt><trkpt lat="45.7788853" lon="10.0093942"><ele>490.0</ele><time>2026-04-25T15:13:29.318Z</time></trkpt><trkpt lat="45.7788121" lon="10.009331"><ele>490.0</ele><time>2026-04-25T15:13:30.318Z</time></trkpt><trkpt lat="45.7787528" lon="10.0092917"><ele>490.0</ele><time>2026-04-25T15:13:31.319Z</time></trkpt><trkpt lat="45.7786985" lon="10.0092297"><ele>490.00000000000006</ele><time>2026-04-25T15:13:32.318Z</time></trkpt><trkpt lat="45.7786501" lon="10.009143"><ele>490.0</ele><time>2026-04-25T15:13:33.318Z</time></trkpt><trkpt lat="45.7786022" lon="10.0090674"><ele>488.83333333333337</ele><time>2026-04-25T15:13:34.318Z</time></trkpt><trkpt lat="45.7785609" lon="10.0089733"><ele>487.6666666666667</ele><time>2026-04-25T15:13:35.319Z</time></trkpt><trkpt lat="45.7785199" lon="10.0088737"><ele>486.5</ele><time>2026-04-25T15:13:36.319Z</time></trkpt><trkpt lat="45.7784914" lon="10.0087874"><ele>485.33333333333337</ele><time>2026-04-25T15:13:37.319Z</time></trkpt><trkpt lat="45.77845" lon="10.0086971"><ele>484.1666666666667</ele><time>2026-04-25T15:13:38.319Z</time></trkpt><trkpt lat="45.7783522" lon="10.0085814"><ele>483.0</ele><time>2026-04-25T15:13:40.318Z</time></trkpt><trkpt lat="45.7782664" lon="10.0084989"><ele>485.3333333333333</ele><time>2026-04-25T15:13:42.319Z</time></trkpt><trkpt lat="45.7781898" lon="10.0083959"><ele>487.66666666666663</ele><time>2026-04-25T15:13:44.318Z</time></trkpt><trkpt lat="45.7781864" lon="10.0083045"><ele>490.0</ele><time>2026-04-25T15:13:45.318Z</time></trkpt><trkpt lat="45.7782009" lon="10.0082057"><ele>492.3333333333333</ele><time>2026-04-25T15:13:46.318Z</time></trkpt><trkpt lat="45.7782111" lon="10.0081071"><ele>494.66666666666663</ele><time>2026-04-25T15:13:47.318Z</time></trkpt><trkpt lat="45.7782115" lon="10.0079484"><ele>497.0</ele><time>2026-04-25T15:13:49.318Z</time></trkpt><trkpt lat="45.7782556" lon="10.0078287"><ele>496.99999999999994</ele><time>2026-04-25T15:13:51.319Z</time></trkpt><trkpt lat="45.7783371" lon="10.007762"><ele>497.0</ele><time>2026-04-25T15:13:53.318Z</time></trkpt><trkpt lat="45.7784146" lon="10.0076856"><ele>497.0</ele><time>2026-04-25T15:13:55.317Z</time></trkpt><trkpt lat="45.7784783" lon="10.007632"><ele>497.0</ele><time>2026-04-25T15:13:57.318Z</time></trkpt><trkpt lat="45.778546" lon="10.0075605"><ele>496.99999999999994</ele><time>2026-04-25T15:14:00.318Z</time></trkpt><trkpt lat="45.7785945" lon="10.0074876"><ele>497.0</ele><time>2026-04-25T15:14:02.319Z</time></trkpt><trkpt lat="45.7786525" lon="10.0074361"><ele>496.99999999999994</ele><time>2026-04-25T15:14:04.318Z</time></trkpt><trkpt lat="45.7787081" lon="10.0073683"><ele>497.0</ele><time>2026-04-25T15:14:06.318Z</time></trkpt><trkpt lat="45.7787623" lon="10.0072923"><ele>497.0</ele><time>2026-04-25T15:14:08.317Z</time></trkpt><trkpt lat="45.7788213" lon="10.0072107"><ele>497.0</ele><time>2026-04-25T15:14:10.318Z</time></trkpt><trkpt lat="45.7788796" lon="10.0071366"><ele>496.99999999999994</ele><time>2026-04-25T15:14:12.318Z</time></trkpt><trkpt lat="45.7789503" lon="10.0070408"><ele>497.0</ele><time>2026-04-25T15:14:15.318Z</time></trkpt><trkpt lat="45.7789894" lon="10.0069512"><ele>497.0</ele><time>2026-04-25T15:14:17.319Z</time></trkpt><trkpt lat="45.7790354" lon="10.0068504"><ele>497.00000000000006</ele><time>2026-04-25T15:14:19.317Z</time></trkpt><trkpt lat="45.7790774" lon="10.0067579"><ele>497.00000000000006</ele><time>2026-04-25T15:14:21.318Z</time></trkpt><trkpt lat="45.779117" lon="10.0066269"><ele>497.0</ele><time>2026-04-25T15:14:23.318Z</time></trkpt><trkpt lat="45.7791548" lon="10.006505"><ele>497.0</ele><time>2026-04-25T15:14:24.318Z</time></trkpt><trkpt lat="45.7791809" lon="10.006335"><ele>497.8333333333333</ele><time>2026-04-25T15:14:26.317Z</time></trkpt><trkpt lat="45.7792101" lon="10.0061914"><ele>498.66666666666663</ele><time>2026-04-25T15:14:28.318Z</time></trkpt><trkpt lat="45.7792221" lon="10.0060529"><ele>499.5</ele><time>2026-04-25T15:14:30.319Z</time></trkpt><trkpt lat="45.779234" lon="10.0059637"><ele>500.33333333333337</ele><time>2026-04-25T15:14:31.318Z</time></trkpt><trkpt lat="45.7792403" lon="10.0058713"><ele>501.1666666666667</ele><time>2026-04-25T15:14:32.318Z</time></trkpt><trkpt lat="45.7792524" lon="10.0057804"><ele>502.0</ele><time>2026-04-25T15:14:33.318Z</time></trkpt><trkpt lat="45.7792621" lon="10.005668"><ele>503.40000000000003</ele><time>2026-04-25T15:14:35.318Z</time></trkpt><trkpt lat="45.7792875" lon="10.0055559"><ele>504.80000000000007</ele><time>2026-04-25T15:14:37.318Z</time></trkpt><trkpt lat="45.7793081" lon="10.0054666"><ele>506.2</ele><time>2026-04-25T15:14:38.32Z</time></trkpt><trkpt lat="45.7793437" lon="10.0053331"><ele>507.6</ele><time>2026-04-25T15:14:40.318Z</time></trkpt><trkpt lat="45.7793605" lon="10.0051578"><ele>509.0</ele><time>2026-04-25T15:14:42.319Z</time></trkpt><trkpt lat="45.7794026" lon="10.0050004"><ele>503.2</ele><time>2026-04-25T15:14:44.318Z</time></trkpt><trkpt lat="45.7794363" lon="10.0048297"><ele>497.4</ele><time>2026-04-25T15:14:46.319Z</time></trkpt><trkpt lat="45.7794502" lon="10.0046844"><ele>491.6</ele><time>2026-04-25T15:14:48.318Z</time></trkpt><trkpt lat="45.7794695" lon="10.0045308"><ele>485.8</ele><time>2026-04-25T15:14:50.317Z</time></trkpt><trkpt lat="45.7794757" lon="10.0043806"><ele>480.0</ele><time>2026-04-25T15:14:52.318Z</time></trkpt><trkpt lat="45.7794936" lon="10.0042259"><ele>480.8333333333333</ele><time>2026-04-25T15:14:54.318Z</time></trkpt><trkpt lat="45.7794907" lon="10.0041343"><ele>481.66666666666663</ele><time>2026-04-25T15:14:55.318Z</time></trkpt><trkpt lat="45.7794733" lon="10.0040342"><ele>482.5</ele><time>2026-04-25T15:14:56.317Z</time></trkpt><trkpt lat="45.7794679" lon="10.0039355"><ele>483.3333333333333</ele><time>2026-04-25T15:14:57.318Z</time></trkpt><trkpt lat="45.779467" lon="10.0038159"><ele>484.16666666666663</ele><time>2026-04-25T15:14:59.317Z</time></trkpt><trkpt lat="45.7794585" lon="10.0036539"><ele>485.0</ele><time>2026-04-25T15:15:01.318Z</time></trkpt><trkpt lat="45.7795043" lon="10.0034794"><ele>484.99999999999994</ele><time>2026-04-25T15:15:03.319Z</time></trkpt><trkpt lat="45.7795276" lon="10.0033936"><ele>485.0</ele><time>2026-04-25T15:15:04.319Z</time></trkpt><trkpt lat="45.7795675" lon="10.0032037"><ele>485.0</ele><time>2026-04-25T15:15:06.318Z</time></trkpt><trkpt lat="45.7795859" lon="10.0031142"><ele>485.0</ele><time>2026-04-25T15:15:07.319Z</time></trkpt><trkpt lat="45.7796031" lon="10.0030128"><ele>484.99999999999994</ele><time>2026-04-25T15:15:08.317Z</time></trkpt><trkpt lat="45.7796261" lon="10.0028639"><ele>485.0</ele><time>2026-04-25T15:15:10.319Z</time></trkpt><trkpt lat="45.7796304" lon="10.0027723"><ele>485.66666666666663</ele><time>2026-04-25T15:15:11.319Z</time></trkpt><trkpt lat="45.7796494" lon="10.0026098"><ele>486.3333333333333</ele><time>2026-04-25T15:15:13.318Z</time></trkpt><trkpt lat="45.7796674" lon="10.0024367"><ele>487.0</ele><time>2026-04-25T15:15:15.317Z</time></trkpt><trkpt lat="45.7796731" lon="10.0023404"><ele>487.66666666666663</ele><time>2026-04-25T15:15:16.317Z</time></trkpt><trkpt lat="45.7796856" lon="10.0022471"><ele>488.3333333333333</ele><time>2026-04-25T15:15:17.317Z</time></trkpt><trkpt lat="45.779683" lon="10.0021474"><ele>489.0</ele><time>2026-04-25T15:15:18.318Z</time></trkpt><trkpt lat="45.7796853" lon="10.0020562"><ele>489.0</ele><time>2026-04-25T15:15:19.318Z</time></trkpt><trkpt lat="45.7796521" lon="10.0019063"><ele>489.0</ele><time>2026-04-25T15:15:21.318Z</time></trkpt><trkpt lat="45.7796266" lon="10.0018229"><ele>489.0</ele><time>2026-04-25T15:15:22.319Z</time></trkpt><trkpt lat="45.7795736" lon="10.0016786"><ele>489.0</ele><time>2026-04-25T15:15:24.319Z</time></trkpt><trkpt lat="45.7795492" lon="10.0015077"><ele>489.0</ele><time>2026-04-25T15:15:26.318Z</time></trkpt><trkpt lat="45.7795376" lon="10.0014162"><ele>488.6666666666667</ele><time>2026-04-25T15:15:27.317Z</time></trkpt><trkpt lat="45.7795251" lon="10.001306"><ele>488.33333333333337</ele><time>2026-04-25T15:15:28.318Z</time></trkpt><trkpt lat="45.7795101" lon="10.0012028"><ele>488.0</ele><time>2026-04-25T15:15:29.319Z</time></trkpt><trkpt lat="45.7794792" lon="10.0010294"><ele>487.6666666666667</ele><time>2026-04-25T15:15:31.318Z</time></trkpt><trkpt lat="45.779455" lon="10.000933"><ele>487.33333333333337</ele><time>2026-04-25T15:15:32.318Z</time></trkpt><trkpt lat="45.7794273" lon="10.0008477"><ele>487.0</ele><time>2026-04-25T15:15:33.318Z</time></trkpt><trkpt lat="45.7793766" lon="10.0006797"><ele>485.6666666666667</ele><time>2026-04-25T15:15:35.318Z</time></trkpt><trkpt lat="45.7793598" lon="10.0005905"><ele>484.33333333333337</ele><time>2026-04-25T15:15:36.317Z</time></trkpt><trkpt lat="45.7793354" lon="10.0003888"><ele>483.0</ele><time>2026-04-25T15:15:38.319Z</time></trkpt><trkpt lat="45.779322" lon="10.0002969"><ele>481.66666666666663</ele><time>2026-04-25T15:15:39.319Z</time></trkpt><trkpt lat="45.7792974" lon="10.000205"><ele>480.3333333333333</ele><time>2026-04-25T15:15:40.318Z</time></trkpt><trkpt lat="45.7792695" lon="10.0001034"><ele>479.0</ele><time>2026-04-25T15:15:41.317Z</time></trkpt><trkpt lat="45.7792475" lon="10.0000114"><ele>483.4</ele><time>2026-04-25T15:15:42.318Z</time></trkpt><trkpt lat="45.7792081" lon="9.9999258"><ele>487.79999999999995</ele><time>2026-04-25T15:15:43.318Z</time></trkpt><trkpt lat="45.7791472" lon="9.9997749"><ele>492.20000000000005</ele><time>2026-04-25T15:15:45.318Z</time></trkpt><trkpt lat="45.7791002" lon="9.9996964"><ele>496.6</ele><time>2026-04-25T15:15:46.319Z</time></trkpt><trkpt lat="45.7790272" lon="9.9995981"><ele>501.0</ele><time>2026-04-25T15:15:48.319Z</time></trkpt><trkpt lat="45.7789368" lon="9.9995635"><ele>501.0</ele><time>2026-04-25T15:15:50.318Z</time></trkpt><trkpt lat="45.7788482" lon="9.9995542"><ele>501.0</ele><time>2026-04-25T15:15:52.319Z</time></trkpt><trkpt lat="45.7787689" lon="9.9995689"><ele>501.0</ele><time>2026-04-25T15:15:54.318Z</time></trkpt><trkpt lat="45.778686" lon="9.9995932"><ele>501.0</ele><time>2026-04-25T15:15:56.318Z</time></trkpt><trkpt lat="45.7786095" lon="9.9996215"><ele>501.0</ele><time>2026-04-25T15:15:58.318Z</time></trkpt><trkpt lat="45.7785513" lon="9.9996721"><ele>501.0</ele><time>2026-04-25T15:16:00.318Z</time></trkpt><trkpt lat="45.778465" lon="9.999639"><ele>501.8</ele><time>2026-04-25T15:16:02.318Z</time></trkpt><trkpt lat="45.7783961" lon="9.999544"><ele>502.6</ele><time>2026-04-25T15:16:04.319Z</time></trkpt><trkpt lat="45.7783486" lon="9.9993889"><ele>503.4</ele><time>2026-04-25T15:16:06.318Z</time></trkpt><trkpt lat="45.7783076" lon="9.9992393"><ele>504.2</ele><time>2026-04-25T15:16:08.317Z</time></trkpt><trkpt lat="45.7782637" lon="9.9990953"><ele>505.0</ele><time>2026-04-25T15:16:10.318Z</time></trkpt><trkpt lat="45.7782009" lon="9.9989943"><ele>505.0</ele><time>2026-04-25T15:16:12.319Z</time></trkpt><trkpt lat="45.778127" lon="9.998897"><ele>505.0</ele><time>2026-04-25T15:16:14.318Z</time></trkpt><trkpt lat="45.7780415" lon="9.9988354"><ele>505.0</ele><time>2026-04-25T15:16:16.317Z</time></trkpt><trkpt lat="45.7779287" lon="9.9987693"><ele>505.0</ele><time>2026-04-25T15:16:18.318Z</time></trkpt><trkpt lat="45.7778165" lon="9.9986844"><ele>505.0</ele><time>2026-04-25T15:16:20.317Z</time></trkpt><trkpt lat="45.7777544" lon="9.9986439"><ele>505.8</ele><time>2026-04-25T15:16:21.318Z</time></trkpt><trkpt lat="45.7776727" lon="9.9985456"><ele>506.6</ele><time>2026-04-25T15:16:23.318Z</time></trkpt><trkpt lat="45.7776444" lon="9.9984411"><ele>507.4</ele><time>2026-04-25T15:16:25.318Z</time></trkpt><trkpt lat="45.7776575" lon="9.9982849"><ele>508.2</ele><time>2026-04-25T15:16:27.318Z</time></trkpt><trkpt lat="45.7776399" lon="9.9981814"><ele>509.0</ele><time>2026-04-25T15:16:29.318Z</time></trkpt><trkpt lat="45.7775714" lon="9.9981045"><ele>508.99999999999994</ele><time>2026-04-25T15:16:31.318Z</time></trkpt><trkpt lat="45.7775376" lon="9.9980093"><ele>509.0</ele><time>2026-04-25T15:16:33.318Z</time></trkpt><trkpt lat="45.7774942" lon="9.9979391"><ele>509.0</ele><time>2026-04-25T15:16:35.317Z</time></trkpt><trkpt lat="45.7774559" lon="9.9978577"><ele>509.0</ele><time>2026-04-25T15:16:36.318Z</time></trkpt><trkpt lat="45.7773858" lon="9.9977343"><ele>508.99999999999994</ele><time>2026-04-25T15:16:38.318Z</time></trkpt><trkpt lat="45.7773467" lon="9.9975932"><ele>509.0</ele><time>2026-04-25T15:16:40.318Z</time></trkpt><trkpt lat="45.7773432" lon="9.9974409"><ele>508.2</ele><time>2026-04-25T15:16:42.318Z</time></trkpt><trkpt lat="45.7773794" lon="9.9973506"><ele>507.4</ele><time>2026-04-25T15:16:43.317Z</time></trkpt><trkpt lat="45.7774162" lon="9.9972527"><ele>506.6</ele><time>2026-04-25T15:16:44.317Z</time></trkpt><trkpt lat="45.7774565" lon="9.9970785"><ele>505.8</ele><time>2026-04-25T15:16:46.317Z</time></trkpt><trkpt lat="45.777479" lon="9.9969315"><ele>505.0</ele><time>2026-04-25T15:16:48.318Z</time></trkpt><trkpt lat="45.7774576" lon="9.9968381"><ele>505.0</ele><time>2026-04-25T15:16:50.319Z</time></trkpt><trkpt lat="45.7774093" lon="9.9967414"><ele>505.0</ele><time>2026-04-25T15:16:52.318Z</time></trkpt><trkpt lat="45.7773443" lon="9.9966296"><ele>505.0</ele><time>2026-04-25T15:16:54.318Z</time></trkpt><trkpt lat="45.7772576" lon="9.9965422"><ele>505.0</ele><time>2026-04-25T15:16:56.318Z</time></trkpt><trkpt lat="45.777151" lon="9.9964876"><ele>505.0</ele><time>2026-04-25T15:16:58.318Z</time></trkpt><trkpt lat="45.7770405" lon="9.9964322"><ele>504.0</ele><time>2026-04-25T15:17:00.318Z</time></trkpt><trkpt lat="45.7769497" lon="9.9963694"><ele>503.0</ele><time>2026-04-25T15:17:02.317Z</time></trkpt><trkpt lat="45.7769114" lon="9.9962504"><ele>502.0</ele><time>2026-04-25T15:17:04.319Z</time></trkpt><trkpt lat="45.7769184" lon="9.9961"><ele>501.0</ele><time>2026-04-25T15:17:06.319Z</time></trkpt><trkpt lat="45.7769484" lon="9.995988"><ele>500.0</ele><time>2026-04-25T15:17:07.318Z</time></trkpt><trkpt lat="45.7769864" lon="9.9958936"><ele>499.0</ele><time>2026-04-25T15:17:08.318Z</time></trkpt><trkpt lat="45.7770315" lon="9.9957499"><ele>498.0</ele><time>2026-04-25T15:17:10.319Z</time></trkpt><trkpt lat="45.7770435" lon="9.9956326"><ele>497.0</ele><time>2026-04-25T15:17:12.318Z</time></trkpt><trkpt lat="45.7770762" lon="9.9955004"><ele>496.0</ele><time>2026-04-25T15:17:14.318Z</time></trkpt><trkpt lat="45.7771508" lon="9.9954237"><ele>495.0</ele><time>2026-04-25T15:17:16.318Z</time></trkpt><trkpt lat="45.7772733" lon="9.995431"><ele>495.0</ele><time>2026-04-25T15:17:18.317Z</time></trkpt><trkpt lat="45.7773616" lon="9.995421"><ele>495.0</ele><time>2026-04-25T15:17:19.319Z</time></trkpt><trkpt lat="45.7774455" lon="9.9953563"><ele>495.0</ele><time>2026-04-25T15:17:20.318Z</time></trkpt><trkpt lat="45.7775392" lon="9.9953036"><ele>495.0</ele><time>2026-04-25T15:17:21.318Z</time></trkpt><trkpt lat="45.7776341" lon="9.9952462"><ele>495.0</ele><time>2026-04-25T15:17:22.319Z</time></trkpt><trkpt lat="45.777699" lon="9.9951543"><ele>494.1666666666667</ele><time>2026-04-25T15:17:23.319Z</time></trkpt><trkpt lat="45.7777688" lon="9.9950706"><ele>493.33333333333337</ele><time>2026-04-25T15:17:24.318Z</time></trkpt><trkpt lat="45.7778205" lon="9.9950173"><ele>492.5</ele><time>2026-04-25T15:17:25.318Z</time></trkpt><trkpt lat="45.777896" lon="9.9949332"><ele>491.6666666666667</ele><time>2026-04-25T15:17:27.317Z</time></trkpt><trkpt lat="45.777972" lon="9.9948781"><ele>490.83333333333337</ele><time>2026-04-25T15:17:29.319Z</time></trkpt><trkpt lat="45.7780704" lon="9.9948366"><ele>490.0</ele><time>2026-04-25T15:17:31.318Z</time></trkpt><trkpt lat="45.7781772" lon="9.994797"><ele>490.0</ele><time>2026-04-25T15:17:33.318Z</time></trkpt><trkpt lat="45.778294" lon="9.9947668"><ele>490.0</ele><time>2026-04-25T15:17:35.319Z</time></trkpt><trkpt lat="45.7783557" lon="9.9947095"><ele>490.0</ele><time>2026-04-25T15:17:36.318Z</time></trkpt><trkpt lat="45.7784032" lon="9.9946496"><ele>490.0</ele><time>2026-04-25T15:17:37.318Z</time></trkpt><trkpt lat="45.7785" lon="9.9945821"><ele>490.0</ele><time>2026-04-25T15:17:39.318Z</time></trkpt><trkpt lat="45.7785738" lon="9.9944988"><ele>487.33333333333337</ele><time>2026-04-25T15:17:41.318Z</time></trkpt><trkpt lat="45.7786764" lon="9.994441"><ele>484.6666666666667</ele><time>2026-04-25T15:17:43.319Z</time></trkpt><trkpt lat="45.7787883" lon="9.9944386"><ele>482.0</ele><time>2026-04-25T15:17:45.318Z</time></trkpt><trkpt lat="45.7788549" lon="9.9944372"><ele>479.33333333333337</ele><time>2026-04-25T15:17:46.318Z</time></trkpt><trkpt lat="45.7789215" lon="9.9944376"><ele>476.6666666666667</ele><time>2026-04-25T15:17:47.317Z</time></trkpt><trkpt lat="45.7789877" lon="9.9944287"><ele>474.0</ele><time>2026-04-25T15:17:48.318Z</time></trkpt><trkpt lat="45.7790521" lon="9.9944112"><ele>474.0</ele><time>2026-04-25T15:17:49.318Z</time></trkpt><trkpt lat="45.7791292" lon="9.9943911"><ele>474.0</ele><time>2026-04-25T15:17:50.319Z</time></trkpt><trkpt lat="45.7792102" lon="9.9943844"><ele>474.0</ele><time>2026-04-25T15:17:51.317Z</time></trkpt><trkpt lat="45.7793412" lon="9.9942967"><ele>474.0</ele><time>2026-04-25T15:17:53.318Z</time></trkpt><trkpt lat="45.7794065" lon="9.994228"><ele>474.0</ele><time>2026-04-25T15:17:54.319Z</time></trkpt><trkpt lat="45.7794547" lon="9.9941456"><ele>472.2857142857142</ele><time>2026-04-25T15:17:55.318Z</time></trkpt><trkpt lat="45.7795048" lon="9.9940824"><ele>470.57142857142856</ele><time>2026-04-25T15:17:56.318Z</time></trkpt><trkpt lat="45.7795613" lon="9.9940172"><ele>468.85714285714283</ele><time>2026-04-25T15:17:57.318Z</time></trkpt><trkpt lat="45.779629" lon="9.9939631"><ele>467.1428571428571</ele><time>2026-04-25T15:17:58.317Z</time></trkpt><trkpt lat="45.7796907" lon="9.9939024"><ele>465.42857142857144</ele><time>2026-04-25T15:17:59.318Z</time></trkpt><trkpt lat="45.7797521" lon="9.9938569"><ele>463.7142857142857</ele><time>2026-04-25T15:18:00.319Z</time></trkpt><trkpt lat="45.7798152" lon="9.9938378"><ele>462.0</ele><time>2026-04-25T15:18:01.318Z</time></trkpt><trkpt lat="45.7799259" lon="9.9938336"><ele>462.0</ele><time>2026-04-25T15:18:03.317Z</time></trkpt><trkpt lat="45.7799926" lon="9.9938433"><ele>462.0</ele><time>2026-04-25T15:18:04.318Z</time></trkpt><trkpt lat="45.7800656" lon="9.9938177"><ele>462.0</ele><time>2026-04-25T15:18:05.318Z</time></trkpt><trkpt lat="45.7801275" lon="9.9937918"><ele>462.0</ele><time>2026-04-25T15:18:06.318Z</time></trkpt><trkpt lat="45.780192" lon="9.9937348"><ele>462.0</ele><time>2026-04-25T15:18:07.32Z</time></trkpt><trkpt lat="45.7802469" lon="9.993658"><ele>462.0</ele><time>2026-04-25T15:18:08.318Z</time></trkpt><trkpt lat="45.7802941" lon="9.9935754"><ele>462.0</ele><time>2026-04-25T15:18:09.319Z</time></trkpt><trkpt lat="45.78034" lon="9.9935067"><ele>458.7142857142857</ele><time>2026-04-25T15:18:10.318Z</time></trkpt><trkpt lat="45.7803918" lon="9.9934294"><ele>455.42857142857144</ele><time>2026-04-25T15:18:11.318Z</time></trkpt><trkpt lat="45.7804395" lon="9.9933546"><ele>452.1428571428571</ele><time>2026-04-25T15:18:12.317Z</time></trkpt><trkpt lat="45.7804995" lon="9.9932794"><ele>448.8571428571429</ele><time>2026-04-25T15:18:13.318Z</time></trkpt><trkpt lat="45.7805452" lon="9.9931964"><ele>445.57142857142856</ele><time>2026-04-25T15:18:14.318Z</time></trkpt><trkpt lat="45.7805887" lon="9.9931058"><ele>442.2857142857143</ele><time>2026-04-25T15:18:15.318Z</time></trkpt><trkpt lat="45.7806331" lon="9.9930211"><ele>439.0</ele><time>2026-04-25T15:18:16.318Z</time></trkpt><trkpt lat="45.7806953" lon="9.9929512"><ele>439.00000000000006</ele><time>2026-04-25T15:18:17.318Z</time></trkpt><trkpt lat="45.7807542" lon="9.992882"><ele>439.0</ele><time>2026-04-25T15:18:18.317Z</time></trkpt><trkpt lat="45.7808125" lon="9.9928125"><ele>439.0</ele><time>2026-04-25T15:18:19.318Z</time></trkpt><trkpt lat="45.780861" lon="9.9927398"><ele>439.0</ele><time>2026-04-25T15:18:20.318Z</time></trkpt><trkpt lat="45.780905" lon="9.9926713"><ele>439.00000000000006</ele><time>2026-04-25T15:18:21.318Z</time></trkpt><trkpt lat="45.7809377" lon="9.9925784"><ele>439.0</ele><time>2026-04-25T15:18:22.318Z</time></trkpt><trkpt lat="45.7809865" lon="9.9924166"><ele>434.79999999999995</ele><time>2026-04-25T15:18:24.318Z</time></trkpt><trkpt lat="45.7810223" lon="9.9922595"><ele>430.59999999999997</ele><time>2026-04-25T15:18:26.317Z</time></trkpt><trkpt lat="45.7810716" lon="9.9921162"><ele>426.4</ele><time>2026-04-25T15:18:28.318Z</time></trkpt><trkpt lat="45.7811509" lon="9.9920396"><ele>422.2</ele><time>2026-04-25T15:18:30.318Z</time></trkpt><trkpt lat="45.7812391" lon="9.9919958"><ele>418.0</ele><time>2026-04-25T15:18:32.318Z</time></trkpt><trkpt lat="45.7813539" lon="9.9920443"><ele>418.00000000000006</ele><time>2026-04-25T15:18:34.319Z</time></trkpt><trkpt lat="45.7814393" lon="9.9921625"><ele>418.0</ele><time>2026-04-25T15:18:36.318Z</time></trkpt><trkpt lat="45.7814816" lon="9.9922796"><ele>418.0</ele><time>2026-04-25T15:18:38.318Z</time></trkpt><trkpt lat="45.7815076" lon="9.9923911"><ele>418.0</ele><time>2026-04-25T15:18:40.319Z</time></trkpt><trkpt lat="45.7815437" lon="9.992468"><ele>418.00000000000006</ele><time>2026-04-25T15:18:42.319Z</time></trkpt><trkpt lat="45.7816003" lon="9.9925138"><ele>418.0</ele><time>2026-04-25T15:18:44.317Z</time></trkpt><trkpt lat="45.781663" lon="9.9924588"><ele>418.0</ele><time>2026-04-25T15:18:46.318Z</time></trkpt><trkpt lat="45.7817405" lon="9.9924042"><ele>418.0</ele><time>2026-04-25T15:18:48.318Z</time></trkpt><trkpt lat="45.7817999" lon="9.9923566"><ele>418.0</ele><time>2026-04-25T15:18:49.319Z</time></trkpt><trkpt lat="45.7819049" lon="9.9922716"><ele>418.0</ele><time>2026-04-25T15:18:51.318Z</time></trkpt><trkpt lat="45.7820181" lon="9.9922533"><ele>418.0</ele><time>2026-04-25T15:18:53.319Z</time></trkpt><trkpt lat="45.7821208" lon="9.9923243"><ele>414.4</ele><time>2026-04-25T15:18:55.317Z</time></trkpt><trkpt lat="45.7822331" lon="9.9923487"><ele>410.79999999999995</ele><time>2026-04-25T15:18:57.318Z</time></trkpt><trkpt lat="45.7823369" lon="9.992335"><ele>407.2</ele><time>2026-04-25T15:18:59.318Z</time></trkpt><trkpt lat="45.7824492" lon="9.9923307"><ele>403.6</ele><time>2026-04-25T15:19:01.318Z</time></trkpt><trkpt lat="45.7825362" lon="9.9923795"><ele>400.0</ele><time>2026-04-25T15:19:03.319Z</time></trkpt><trkpt lat="45.7826309" lon="9.9924444"><ele>394.83333333333337</ele><time>2026-04-25T15:19:05.318Z</time></trkpt><trkpt lat="45.7827195" lon="9.9925587"><ele>389.6666666666667</ele><time>2026-04-25T15:19:07.318Z</time></trkpt><trkpt lat="45.7827551" lon="9.992637"><ele>384.5</ele><time>2026-04-25T15:19:08.318Z</time></trkpt><trkpt lat="45.7827668" lon="9.9927533"><ele>379.33333333333337</ele><time>2026-04-25T15:19:09.318Z</time></trkpt><trkpt lat="45.7827854" lon="9.9928552"><ele>374.1666666666667</ele><time>2026-04-25T15:19:10.318Z</time></trkpt><trkpt lat="45.7827977" lon="9.9929605"><ele>369.0</ele><time>2026-04-25T15:19:11.318Z</time></trkpt><trkpt lat="45.7827968" lon="9.9930801"><ele>369.0</ele><time>2026-04-25T15:19:12.317Z</time></trkpt><trkpt lat="45.7827883" lon="9.993207"><ele>369.0</ele><time>2026-04-25T15:19:13.319Z</time></trkpt><trkpt lat="45.7827726" lon="9.993319"><ele>369.0</ele><time>2026-04-25T15:19:14.318Z</time></trkpt><trkpt lat="45.7827493" lon="9.993442"><ele>369.0</ele><time>2026-04-25T15:19:15.319Z</time></trkpt><trkpt lat="45.7827261" lon="9.9935542"><ele>369.0</ele><time>2026-04-25T15:19:16.318Z</time></trkpt><trkpt lat="45.7827037" lon="9.993672"><ele>369.0</ele><time>2026-04-25T15:19:17.318Z</time></trkpt><trkpt lat="45.7826912" lon="9.993791"><ele>368.8333333333333</ele><time>2026-04-25T15:19:18.318Z</time></trkpt><trkpt lat="45.7826863" lon="9.99392"><ele>368.6666666666667</ele><time>2026-04-25T15:19:19.318Z</time></trkpt><trkpt lat="45.7826885" lon="9.9940345"><ele>368.5</ele><time>2026-04-25T15:19:20.317Z</time></trkpt><trkpt lat="45.7826885" lon="9.9941404"><ele>368.33333333333337</ele><time>2026-04-25T15:19:21.318Z</time></trkpt><trkpt lat="45.7826734" lon="9.9942416"><ele>368.1666666666667</ele><time>2026-04-25T15:19:22.318Z</time></trkpt><trkpt lat="45.7826609" lon="9.9943434"><ele>368.0</ele><time>2026-04-25T15:19:23.319Z</time></trkpt><trkpt lat="45.7826702" lon="9.994508"><ele>367.79999999999995</ele><time>2026-04-25T15:19:25.317Z</time></trkpt><trkpt lat="45.7826578" lon="9.994663"><ele>367.6</ele><time>2026-04-25T15:19:27.319Z</time></trkpt><trkpt lat="45.7826624" lon="9.9947797"><ele>367.4</ele><time>2026-04-25T15:19:29.318Z</time></trkpt><trkpt lat="45.7827072" lon="9.9948724"><ele>367.20000000000005</ele><time>2026-04-25T15:19:31.317Z</time></trkpt><trkpt lat="45.7827723" lon="9.9949266"><ele>367.0</ele><time>2026-04-25T15:19:33.318Z</time></trkpt><trkpt lat="45.7828693" lon="9.9949878"><ele>367.25</ele><time>2026-04-25T15:19:35.318Z</time></trkpt><trkpt lat="45.7829938" lon="9.9950492"><ele>367.5</ele><time>2026-04-25T15:19:37.319Z</time></trkpt><trkpt lat="45.7830785" lon="9.9950668"><ele>367.75</ele><time>2026-04-25T15:19:38.318Z</time></trkpt><trkpt lat="45.7831867" lon="9.9950828"><ele>368.0</ele><time>2026-04-25T15:19:39.318Z</time></trkpt><trkpt lat="45.7833124" lon="9.9951134"><ele>368.0</ele><time>2026-04-25T15:19:40.318Z</time></trkpt><trkpt lat="45.7834584" lon="9.9951321"><ele>368.0</ele><time>2026-04-25T15:19:41.317Z</time></trkpt><trkpt lat="45.7836103" lon="9.9951571"><ele>368.0</ele><time>2026-04-25T15:19:42.319Z</time></trkpt><trkpt lat="45.7837524" lon="9.9951642"><ele>368.0</ele><time>2026-04-25T15:19:43.317Z</time></trkpt><trkpt lat="45.7838873" lon="9.995167"><ele>366.4</ele><time>2026-04-25T15:19:44.318Z</time></trkpt><trkpt lat="45.7840012" lon="9.9951548"><ele>364.79999999999995</ele><time>2026-04-25T15:19:45.317Z</time></trkpt><trkpt lat="45.7841106" lon="9.995164"><ele>363.2</ele><time>2026-04-25T15:19:46.318Z</time></trkpt><trkpt lat="45.7842137" lon="9.9951773"><ele>361.6</ele><time>2026-04-25T15:19:47.318Z</time></trkpt><trkpt lat="45.7843049" lon="9.9952095"><ele>360.0</ele><time>2026-04-25T15:19:48.318Z</time></trkpt><trkpt lat="45.784386" lon="9.9952246"><ele>359.0</ele><time>2026-04-25T15:19:49.318Z</time></trkpt><trkpt lat="45.7844976" lon="9.995246"><ele>358.0</ele><time>2026-04-25T15:19:50.318Z</time></trkpt><trkpt lat="45.7845878" lon="9.9952097"><ele>357.0</ele><time>2026-04-25T15:19:51.318Z</time></trkpt><trkpt lat="45.7846781" lon="9.9951682"><ele>356.0</ele><time>2026-04-25T15:19:52.318Z</time></trkpt><trkpt lat="45.7847895" lon="9.9951633"><ele>355.0</ele><time>2026-04-25T15:19:53.317Z</time></trkpt><trkpt lat="45.7849209" lon="9.9951627"><ele>355.0</ele><time>2026-04-25T15:19:54.318Z</time></trkpt><trkpt lat="45.7850717" lon="9.9951705"><ele>355.0</ele><time>2026-04-25T15:19:55.318Z</time></trkpt><trkpt lat="45.7852068" lon="9.9951698"><ele>355.0</ele><time>2026-04-25T15:19:56.318Z</time></trkpt><trkpt lat="45.7853389" lon="9.9951692"><ele>355.0</ele><time>2026-04-25T15:19:57.318Z</time></trkpt><trkpt lat="45.7854262" lon="9.9951376"><ele>354.0</ele><time>2026-04-25T15:19:58.318Z</time></trkpt><trkpt lat="45.785517" lon="9.995093"><ele>353.0</ele><time>2026-04-25T15:19:59.317Z</time></trkpt><trkpt lat="45.7855873" lon="9.995035"><ele>352.0</ele><time>2026-04-25T15:20:00.319Z</time></trkpt><trkpt lat="45.7856578" lon="9.9949805"><ele>351.0</ele><time>2026-04-25T15:20:01.319Z</time></trkpt><trkpt lat="45.7857086" lon="9.9949172"><ele>350.0</ele><time>2026-04-25T15:20:02.318Z</time></trkpt><trkpt lat="45.7857553" lon="9.9947968"><ele>349.0</ele><time>2026-04-25T15:20:04.318Z</time></trkpt><trkpt lat="45.7857393" lon="9.9946536"><ele>349.0</ele><time>2026-04-25T15:20:06.317Z</time></trkpt><trkpt lat="45.7857416" lon="9.9945379"><ele>349.0</ele><time>2026-04-25T15:20:08.318Z</time></trkpt><trkpt lat="45.7858045" lon="9.9944085"><ele>349.0</ele><time>2026-04-25T15:20:10.317Z</time></trkpt><trkpt lat="45.7859169" lon="9.9942877"><ele>349.0</ele><time>2026-04-25T15:20:12.319Z</time></trkpt><trkpt lat="45.7860043" lon="9.9941863"><ele>349.0</ele><time>2026-04-25T15:20:13.319Z</time></trkpt><trkpt lat="45.786083" lon="9.9941081"><ele>348.4</ele><time>2026-04-25T15:20:14.318Z</time></trkpt><trkpt lat="45.786156" lon="9.99404"><ele>347.79999999999995</ele><time>2026-04-25T15:20:16.317Z</time></trkpt><trkpt lat="45.7862293" lon="9.9940399"><ele>347.20000000000005</ele><time>2026-04-25T15:20:21.319Z</time></trkpt><trkpt lat="45.7863257" lon="9.9941484"><ele>346.6</ele><time>2026-04-25T15:20:23.317Z</time></trkpt><trkpt lat="45.7863466" lon="9.9942679"><ele>346.0</ele><time>2026-04-25T15:20:24.319Z</time></trkpt><trkpt lat="45.7863729" lon="9.9943952"><ele>346.0</ele><time>2026-04-25T15:20:25.318Z</time></trkpt><trkpt lat="45.7863972" lon="9.9945319"><ele>346.0</ele><time>2026-04-25T15:20:26.318Z</time></trkpt><trkpt lat="45.7864219" lon="9.9946647"><ele>346.0</ele><time>2026-04-25T15:20:27.318Z</time></trkpt><trkpt lat="45.7864448" lon="9.9947921"><ele>346.0</ele><time>2026-04-25T15:20:28.318Z</time></trkpt><trkpt lat="45.7864687" lon="9.9949165"><ele>346.0</ele><time>2026-04-25T15:20:29.319Z</time></trkpt><trkpt lat="45.7864849" lon="9.9950433"><ele>346.16666666666663</ele><time>2026-04-25T15:20:30.318Z</time></trkpt><trkpt lat="45.7864997" lon="9.9951665"><ele>346.3333333333333</ele><time>2026-04-25T15:20:31.318Z</time></trkpt><trkpt lat="45.7864865" lon="9.9953034"><ele>346.5</ele><time>2026-04-25T15:20:32.317Z</time></trkpt><trkpt lat="45.7864779" lon="9.9954308"><ele>346.6666666666667</ele><time>2026-04-25T15:20:33.317Z</time></trkpt><trkpt lat="45.7864745" lon="9.9955497"><ele>346.83333333333337</ele><time>2026-04-25T15:20:34.317Z</time></trkpt><trkpt lat="45.7864796" lon="9.9956731"><ele>347.0</ele><time>2026-04-25T15:20:35.318Z</time></trkpt><trkpt lat="45.7864854" lon="9.9957969"><ele>347.0</ele><time>2026-04-25T15:20:36.319Z</time></trkpt><trkpt lat="45.7864877" lon="9.9959232"><ele>347.0</ele><time>2026-04-25T15:20:37.319Z</time></trkpt><trkpt lat="45.7864774" lon="9.9960681"><ele>347.0</ele><time>2026-04-25T15:20:38.318Z</time></trkpt><trkpt lat="45.7864804" lon="9.996184"><ele>347.0</ele><time>2026-04-25T15:20:39.318Z</time></trkpt><trkpt lat="45.7864862" lon="9.9963026"><ele>347.0</ele><time>2026-04-25T15:20:40.317Z</time></trkpt><trkpt lat="45.7864904" lon="9.996412"><ele>347.0</ele><time>2026-04-25T15:20:41.319Z</time></trkpt><trkpt lat="45.7864907" lon="9.9965218"><ele>347.0</ele><time>2026-04-25T15:20:42.318Z</time></trkpt><trkpt lat="45.7864959" lon="9.9966392"><ele>347.0</ele><time>2026-04-25T15:20:43.318Z</time></trkpt><trkpt lat="45.7865059" lon="9.9967558"><ele>347.0</ele><time>2026-04-25T15:20:44.318Z</time></trkpt><trkpt lat="45.7865002" lon="9.9968811"><ele>347.0</ele><time>2026-04-25T15:20:45.318Z</time></trkpt><trkpt lat="45.7864985" lon="9.9969955"><ele>347.0</ele><time>2026-04-25T15:20:46.318Z</time></trkpt><trkpt lat="45.7864925" lon="9.9971129"><ele>347.0</ele><time>2026-04-25T15:20:47.318Z</time></trkpt><trkpt lat="45.7864921" lon="9.997245"><ele>346.8</ele><time>2026-04-25T15:20:48.318Z</time></trkpt><trkpt lat="45.7864922" lon="9.9973721"><ele>346.6</ele><time>2026-04-25T15:20:49.318Z</time></trkpt><trkpt lat="45.7864996" lon="9.9974999"><ele>346.40000000000003</ele><time>2026-04-25T15:20:50.318Z</time></trkpt><trkpt lat="45.7865079" lon="9.997629"><ele>346.20000000000005</ele><time>2026-04-25T15:20:51.317Z</time></trkpt><trkpt lat="45.7865204" lon="9.9977652"><ele>346.0</ele><time>2026-04-25T15:20:52.317Z</time></trkpt><trkpt lat="45.786531" lon="9.9979074"><ele>345.8</ele><time>2026-04-25T15:20:53.317Z</time></trkpt><trkpt lat="45.7865555" lon="9.9980379"><ele>345.6</ele><time>2026-04-25T15:20:54.318Z</time></trkpt><trkpt lat="45.786579" lon="9.9981724"><ele>345.4</ele><time>2026-04-25T15:20:55.318Z</time></trkpt><trkpt lat="45.7866055" lon="9.9983112"><ele>345.2</ele><time>2026-04-25T15:20:56.318Z</time></trkpt><trkpt lat="45.7866294" lon="9.9984469"><ele>345.0</ele><time>2026-04-25T15:20:57.318Z</time></trkpt><trkpt lat="45.7866613" lon="9.9985874"><ele>345.4</ele><time>2026-04-25T15:20:58.318Z</time></trkpt><trkpt lat="45.7866893" lon="9.9987296"><ele>345.8</ele><time>2026-04-25T15:20:59.318Z</time></trkpt><trkpt lat="45.7867108" lon="9.9988765"><ele>346.20000000000005</ele><time>2026-04-25T15:21:00.318Z</time></trkpt><trkpt lat="45.7867317" lon="9.9990153"><ele>346.6</ele><time>2026-04-25T15:21:01.317Z</time></trkpt><trkpt lat="45.7867503" lon="9.9991561"><ele>347.0</ele><time>2026-04-25T15:21:02.318Z</time></trkpt><trkpt lat="45.7867655" lon="9.9993035"><ele>347.0</ele><time>2026-04-25T15:21:03.319Z</time></trkpt><trkpt lat="45.7867852" lon="9.9994375"><ele>347.0</ele><time>2026-04-25T15:21:04.318Z</time></trkpt><trkpt lat="45.7868076" lon="9.9995796"><ele>347.0</ele><time>2026-04-25T15:21:05.318Z</time></trkpt><trkpt lat="45.786825" lon="9.999707"><ele>347.0</ele><time>2026-04-25T15:21:06.317Z</time></trkpt><trkpt lat="45.7868406" lon="9.9998231"><ele>347.0</ele><time>2026-04-25T15:21:07.318Z</time></trkpt><trkpt lat="45.7868545" lon="9.9999309"><ele>347.0</ele><time>2026-04-25T15:21:08.319Z</time></trkpt><trkpt lat="45.7868721" lon="10.0000232"><ele>347.0</ele><time>2026-04-25T15:21:09.318Z</time></trkpt><trkpt lat="45.7869576" lon="10.0001089"><ele>347.0</ele><time>2026-04-25T15:21:11.318Z</time></trkpt><trkpt lat="45.7870378" lon="10.000153"><ele>347.0</ele><time>2026-04-25T15:21:13.319Z</time></trkpt><trkpt lat="45.7870839" lon="10.0002203"><ele>347.0</ele><time>2026-04-25T15:21:16.318Z</time></trkpt><trkpt lat="45.7870541" lon="10.0003389"><ele>347.0</ele><time>2026-04-25T15:21:19.319Z</time></trkpt><trkpt lat="45.7870163" lon="10.0004876"><ele>347.0</ele><time>2026-04-25T15:21:21.318Z</time></trkpt><trkpt lat="45.7869864" lon="10.0005816"><ele>347.0</ele><time>2026-04-25T15:21:22.317Z</time></trkpt><trkpt lat="45.7869622" lon="10.0006781"><ele>347.0</ele><time>2026-04-25T15:21:23.318Z</time></trkpt><trkpt lat="45.7869403" lon="10.0007775"><ele>347.0</ele><time>2026-04-25T15:21:24.319Z</time></trkpt><trkpt lat="45.7869172" lon="10.000884"><ele>347.0</ele><time>2026-04-25T15:21:25.318Z</time></trkpt><trkpt lat="45.7869012" lon="10.0009988"><ele>347.0</ele><time>2026-04-25T15:21:26.318Z</time></trkpt><trkpt lat="45.786879" lon="10.0011128"><ele>347.1666666666667</ele><time>2026-04-25T15:21:27.319Z</time></trkpt><trkpt lat="45.7868627" lon="10.0012296"><ele>347.33333333333337</ele><time>2026-04-25T15:21:28.317Z</time></trkpt><trkpt lat="45.7868499" lon="10.0013456"><ele>347.5</ele><time>2026-04-25T15:21:29.318Z</time></trkpt><trkpt lat="45.7868373" lon="10.0014639"><ele>347.6666666666667</ele><time>2026-04-25T15:21:30.318Z</time></trkpt><trkpt lat="45.7868212" lon="10.0015872"><ele>347.8333333333333</ele><time>2026-04-25T15:21:31.318Z</time></trkpt><trkpt lat="45.7868077" lon="10.0017086"><ele>348.0</ele><time>2026-04-25T15:21:32.318Z</time></trkpt><trkpt lat="45.7867943" lon="10.0018344"><ele>347.6666666666667</ele><time>2026-04-25T15:21:33.318Z</time></trkpt><trkpt lat="45.7867821" lon="10.001955"><ele>347.3333333333333</ele><time>2026-04-25T15:21:34.318Z</time></trkpt><trkpt lat="45.7867666" lon="10.0020752"><ele>347.0</ele><time>2026-04-25T15:21:35.319Z</time></trkpt><trkpt lat="45.7867596" lon="10.0021978"><ele>346.66666666666663</ele><time>2026-04-25T15:21:36.318Z</time></trkpt><trkpt lat="45.7867514" lon="10.002321"><ele>346.3333333333333</ele><time>2026-04-25T15:21:37.317Z</time></trkpt><trkpt lat="45.7867401" lon="10.0024418"><ele>346.0</ele><time>2026-04-25T15:21:38.317Z</time></trkpt><trkpt lat="45.7867308" lon="10.0025615"><ele>345.8333333333333</ele><time>2026-04-25T15:21:39.317Z</time></trkpt><trkpt lat="45.7867284" lon="10.0026855"><ele>345.66666666666663</ele><time>2026-04-25T15:21:40.318Z</time></trkpt><trkpt lat="45.7867335" lon="10.00281"><ele>345.5</ele><time>2026-04-25T15:21:41.318Z</time></trkpt><trkpt lat="45.786743" lon="10.0029296"><ele>345.3333333333333</ele><time>2026-04-25T15:21:42.319Z</time></trkpt><trkpt lat="45.7867568" lon="10.0030494"><ele>345.1666666666667</ele><time>2026-04-25T15:21:43.318Z</time></trkpt><trkpt lat="45.7867681" lon="10.0031642"><ele>345.0</ele><time>2026-04-25T15:21:44.318Z</time></trkpt><trkpt lat="45.7867806" lon="10.0032822"><ele>345.2</ele><time>2026-04-25T15:21:45.318Z</time></trkpt><trkpt lat="45.7867941" lon="10.0033973"><ele>345.4</ele><time>2026-04-25T15:21:46.318Z</time></trkpt><trkpt lat="45.7868003" lon="10.0035246"><ele>345.6</ele><time>2026-04-25T15:21:47.318Z</time></trkpt><trkpt lat="45.7868068" lon="10.0036711"><ele>345.8</ele><time>2026-04-25T15:21:48.319Z</time></trkpt><trkpt lat="45.7868095" lon="10.0038307"><ele>346.0</ele><time>2026-04-25T15:21:49.318Z</time></trkpt><trkpt lat="45.7868113" lon="10.0039857"><ele>346.0</ele><time>2026-04-25T15:21:50.318Z</time></trkpt><trkpt lat="45.7868089" lon="10.0041381"><ele>346.0</ele><time>2026-04-25T15:21:51.319Z</time></trkpt><trkpt lat="45.7868065" lon="10.004287"><ele>346.0</ele><time>2026-04-25T15:21:52.318Z</time></trkpt><trkpt lat="45.7867978" lon="10.0044413"><ele>346.0</ele><time>2026-04-25T15:21:53.318Z</time></trkpt><trkpt lat="45.7867902" lon="10.0045894"><ele>346.0</ele><time>2026-04-25T15:21:54.318Z</time></trkpt><trkpt lat="45.7867731" lon="10.004735"><ele>346.8</ele><time>2026-04-25T15:21:55.318Z</time></trkpt><trkpt lat="45.7867615" lon="10.0048771"><ele>347.6</ele><time>2026-04-25T15:21:56.319Z</time></trkpt><trkpt lat="45.7867544" lon="10.00501"><ele>348.4</ele><time>2026-04-25T15:21:57.318Z</time></trkpt><trkpt lat="45.7867484" lon="10.0051419"><ele>349.2</ele><time>2026-04-25T15:21:58.318Z</time></trkpt><trkpt lat="45.7867444" lon="10.0052769"><ele>350.0</ele><time>2026-04-25T15:21:59.318Z</time></trkpt><trkpt lat="45.7867404" lon="10.0054103"><ele>350.8</ele><time>2026-04-25T15:22:00.318Z</time></trkpt><trkpt lat="45.7867453" lon="10.0055419"><ele>351.6</ele><time>2026-04-25T15:22:01.317Z</time></trkpt><trkpt lat="45.7867514" lon="10.0056722"><ele>352.4</ele><time>2026-04-25T15:22:02.319Z</time></trkpt><trkpt lat="45.78676" lon="10.0058051"><ele>353.2</ele><time>2026-04-25T15:22:03.318Z</time></trkpt><trkpt lat="45.7867682" lon="10.0059374"><ele>354.0</ele><time>2026-04-25T15:22:04.318Z</time></trkpt><trkpt lat="45.7867791" lon="10.006071"><ele>355.0</ele><time>2026-04-25T15:22:05.318Z</time></trkpt><trkpt lat="45.7867936" lon="10.0062074"><ele>356.0</ele><time>2026-04-25T15:22:06.318Z</time></trkpt><trkpt lat="45.7868177" lon="10.0063283"><ele>357.0</ele><time>2026-04-25T15:22:07.318Z</time></trkpt><trkpt lat="45.7868433" lon="10.0064434"><ele>358.0</ele><time>2026-04-25T15:22:08.318Z</time></trkpt><trkpt lat="45.7868702" lon="10.0065487"><ele>359.0</ele><time>2026-04-25T15:22:09.318Z</time></trkpt><trkpt lat="45.7869016" lon="10.0066571"><ele>360.0</ele><time>2026-04-25T15:22:10.318Z</time></trkpt><trkpt lat="45.786924" lon="10.0067479"><ele>357.2</ele><time>2026-04-25T15:22:11.318Z</time></trkpt><trkpt lat="45.7868971" lon="10.0069203"><ele>354.4</ele><time>2026-04-25T15:22:13.318Z</time></trkpt><trkpt lat="45.7868742" lon="10.0070167"><ele>351.6</ele><time>2026-04-25T15:22:14.317Z</time></trkpt><trkpt lat="45.7868541" lon="10.007113"><ele>348.8</ele><time>2026-04-25T15:22:15.318Z</time></trkpt><trkpt lat="45.7868521" lon="10.0072892"><ele>346.0</ele><time>2026-04-25T15:22:17.318Z</time></trkpt><trkpt lat="45.7868512" lon="10.0073818"><ele>346.5</ele><time>2026-04-25T15:22:18.318Z</time></trkpt><trkpt lat="45.7868424" lon="10.0074861"><ele>347.0</ele><time>2026-04-25T15:22:19.319Z</time></trkpt><trkpt lat="45.7868476" lon="10.0076705"><ele>347.5</ele><time>2026-04-25T15:22:21.318Z</time></trkpt><trkpt lat="45.7868559" lon="10.007761"><ele>348.0</ele><time>2026-04-25T15:22:22.318Z</time></trkpt><trkpt lat="45.7868602" lon="10.0078552"><ele>348.5</ele><time>2026-04-25T15:22:23.318Z</time></trkpt><trkpt lat="45.7868562" lon="10.0079668"><ele>349.0</ele><time>2026-04-25T15:22:25.318Z</time></trkpt><trkpt lat="45.7868621" lon="10.0080794"><ele>352.0</ele><time>2026-04-25T15:22:27.318Z</time></trkpt><trkpt lat="45.7868372" lon="10.0082081"><ele>355.0</ele><time>2026-04-25T15:22:29.318Z</time></trkpt><trkpt lat="45.7867901" lon="10.0083598"><ele>358.0</ele><time>2026-04-25T15:22:31.318Z</time></trkpt><trkpt lat="45.7867537" lon="10.0084349"><ele>361.0</ele><time>2026-04-25T15:22:32.318Z</time></trkpt><trkpt lat="45.7867104" lon="10.0085063"><ele>364.0</ele><time>2026-04-25T15:22:33.318Z</time></trkpt><trkpt lat="45.7866474" lon="10.0086439"><ele>364.0</ele><time>2026-04-25T15:22:35.318Z</time></trkpt><trkpt lat="45.786587" lon="10.0087185"><ele>364.0</ele><time>2026-04-25T15:22:48.318Z</time></trkpt><trkpt lat="45.7865656" lon="10.0088116"><ele>364.0</ele><time>2026-04-25T15:23:24.318Z</time></trkpt><trkpt lat="45.7864856" lon="10.0088381"><ele>364.0</ele><time>2026-04-25T15:23:30.318Z</time></trkpt><trkpt lat="45.7864211" lon="10.0088641"><ele>364.0</ele><time>2026-04-25T15:23:50.313Z</time></trkpt><trkpt lat="45.7863517" lon="10.0088561"><ele>364.0</ele><time>2026-04-25T15:23:55.318Z</time></trkpt><trkpt lat="45.7863076" lon="10.0089388"><ele>364.0</ele><time>2026-04-25T15:24:00.319Z</time></trkpt><trkpt lat="45.7863728" lon="10.0089614"><ele>364.0</ele><time>2026-04-25T15:25:08.317Z</time></trkpt><trkpt lat="45.7863117" lon="10.0089107"><ele>364.0</ele><time>2026-04-25T15:25:14.318Z</time></trkpt><trkpt lat="45.7863805" lon="10.0087954"><ele>364.0</ele><time>2026-04-25T15:25:35.317Z</time></trkpt><trkpt lat="45.786431" lon="10.0086972"><ele>364.0</ele><time>2026-04-25T15:25:37.319Z</time></trkpt><trkpt lat="45.7864808" lon="10.0086314"><ele>364.0</ele><time>2026-04-25T15:26:49.318Z</time></trkpt><trkpt lat="45.7865383" lon="10.0085741"><ele>364.0</ele><time>2026-04-25T15:27:28.317Z</time></trkpt><trkpt lat="45.7865992" lon="10.0085233"><ele>364.0</ele><time>2026-04-25T15:27:31.319Z</time></trkpt><trkpt lat="45.7866595" lon="10.0084632"><ele>364.0</ele><time>2026-04-25T15:27:36.317Z</time></trkpt><trkpt lat="45.7867171" lon="10.0083697"><ele>364.0</ele><time>2026-04-25T15:28:03.317Z</time></trkpt><trkpt lat="45.7866757" lon="10.0084708"><ele>364.0</ele><time>2026-04-25T15:28:08.318Z</time></trkpt><trkpt lat="45.7866421" lon="10.0085748"><ele>364.0</ele><time>2026-04-25T15:28:10.317Z</time></trkpt><trkpt lat="45.7865919" lon="10.0086633"><ele>364.0</ele><time>2026-04-25T15:28:13.318Z</time></trkpt><trkpt lat="45.7866086" lon="10.0087652"><ele>364.0</ele><time>2026-04-25T15:28:21.318Z</time></trkpt><trkpt lat="45.7866472" lon="10.008839"><ele>364.0</ele><time>2026-04-25T15:29:34.318Z</time></trkpt><trkpt lat="45.7866578" lon="10.0089393"><ele>364.0</ele><time>2026-04-25T15:29:37.319Z</time></trkpt><trkpt lat="45.786604" lon="10.0089993"><ele>364.0</ele><time>2026-04-25T15:29:39.318Z</time></trkpt><trkpt lat="45.7865956" lon="10.0090893"><ele>364.0</ele><time>2026-04-25T15:29:49.318Z</time></trkpt><trkpt lat="45.7865627" lon="10.0092094"><ele>364.0</ele><time>2026-04-25T15:29:52.317Z</time></trkpt><trkpt lat="45.786541" lon="10.0093248"><ele>364.0</ele><time>2026-04-25T15:29:54.316Z</time></trkpt><trkpt lat="45.7865496" lon="10.0094226"><ele>363.79999999999995</ele><time>2026-04-25T15:29:58.318Z</time></trkpt><trkpt lat="45.7865863" lon="10.0095044"><ele>363.59999999999997</ele><time>2026-04-25T15:30:14.317Z</time></trkpt><trkpt lat="45.7866388" lon="10.0096727"><ele>363.4</ele><time>2026-04-25T15:31:40.258Z</time></trkpt><trkpt lat="45.7866149" lon="10.0098287"><ele>363.2</ele><time>2026-04-25T15:31:45.319Z</time></trkpt><trkpt lat="45.7865913" lon="10.0099851"><ele>363.0</ele><time>2026-04-25T15:31:47.318Z</time></trkpt><trkpt lat="45.7865682" lon="10.0100879"><ele>365.59999999999997</ele><time>2026-04-25T15:31:49.317Z</time></trkpt><trkpt lat="45.7865679" lon="10.0102016"><ele>368.2</ele><time>2026-04-25T15:31:54.317Z</time></trkpt><trkpt lat="45.7865683" lon="10.0103017"><ele>370.8</ele><time>2026-04-25T15:32:01.318Z</time></trkpt><trkpt lat="45.7864326" lon="10.0103673"><ele>373.4</ele><time>2026-04-25T15:32:04.318Z</time></trkpt><trkpt lat="45.786362" lon="10.0103875"><ele>376.0</ele><time>2026-04-25T15:32:05.318Z</time></trkpt><trkpt lat="45.7862674" lon="10.0104409"><ele>376.0</ele><time>2026-04-25T15:32:06.318Z</time></trkpt><trkpt lat="45.7861765" lon="10.0105091"><ele>376.0</ele><time>2026-04-25T15:32:07.317Z</time></trkpt><trkpt lat="45.786081" lon="10.010598"><ele>376.0</ele><time>2026-04-25T15:32:08.317Z</time></trkpt><trkpt lat="45.786011" lon="10.0107016"><ele>376.0</ele><time>2026-04-25T15:32:09.318Z</time></trkpt><trkpt lat="45.7859455" lon="10.0108075"><ele>376.0</ele><time>2026-04-25T15:32:10.317Z</time></trkpt><trkpt lat="45.7858877" lon="10.0109024"><ele>378.0</ele><time>2026-04-25T15:32:11.317Z</time></trkpt><trkpt lat="45.7858523" lon="10.0109837"><ele>380.0</ele><time>2026-04-25T15:32:12.319Z</time></trkpt><trkpt lat="45.7858155" lon="10.0110619"><ele>382.0</ele><time>2026-04-25T15:32:13.317Z</time></trkpt><trkpt lat="45.7857829" lon="10.0111738"><ele>384.0</ele><time>2026-04-25T15:32:15.317Z</time></trkpt><trkpt lat="45.78585" lon="10.0111794"><ele>386.00000000000006</ele><time>2026-04-25T15:32:27.318Z</time></trkpt><trkpt lat="45.7859347" lon="10.0110775"><ele>388.0</ele><time>2026-04-25T15:32:29.317Z</time></trkpt><trkpt lat="45.7860116" lon="10.0109841"><ele>388.00000000000006</ele><time>2026-04-25T15:32:31.319Z</time></trkpt><trkpt lat="45.7860783" lon="10.0110099"><ele>388.0</ele><time>2026-04-25T15:32:33.317Z</time></trkpt><trkpt lat="45.786091" lon="10.0111686"><ele>388.0</ele><time>2026-04-25T15:32:35.317Z</time></trkpt><trkpt lat="45.7860819" lon="10.0112633"><ele>388.0</ele><time>2026-04-25T15:32:36.318Z</time></trkpt><trkpt lat="45.7860932" lon="10.0113548"><ele>388.00000000000006</ele><time>2026-04-25T15:32:37.317Z</time></trkpt><trkpt lat="45.7861438" lon="10.0115221"><ele>388.0</ele><time>2026-04-25T15:32:39.319Z</time></trkpt><trkpt lat="45.7862271" lon="10.0116154"><ele>391.2</ele><time>2026-04-25T15:32:41.318Z</time></trkpt><trkpt lat="45.786335" lon="10.0116998"><ele>394.4</ele><time>2026-04-25T15:32:43.318Z</time></trkpt><trkpt lat="45.7864202" lon="10.0117973"><ele>397.59999999999997</ele><time>2026-04-25T15:32:45.317Z</time></trkpt><trkpt lat="45.7864436" lon="10.0119185"><ele>400.79999999999995</ele><time>2026-04-25T15:32:47.319Z</time></trkpt><trkpt lat="45.7863716" lon="10.0120294"><ele>404.0</ele><time>2026-04-25T15:32:49.316Z</time></trkpt><trkpt lat="45.7863288" lon="10.0121003"><ele>404.0</ele><time>2026-04-25T15:35:24.317Z</time></trkpt><trkpt lat="45.7864017" lon="10.0121005"><ele>404.0</ele><time>2026-04-25T15:39:07.316Z</time></trkpt><trkpt lat="45.7864815" lon="10.0121051"><ele>404.0</ele><time>2026-04-25T15:39:27.317Z</time></trkpt><trkpt lat="45.7865425" lon="10.0121291"><ele>404.0</ele><time>2026-04-25T15:39:30.317Z</time></trkpt><trkpt lat="45.786602" lon="10.0121627"><ele>404.0</ele><time>2026-04-25T15:39:33.316Z</time></trkpt><trkpt lat="45.7866669" lon="10.0122038"><ele>404.0</ele><time>2026-04-25T15:39:36.317Z</time></trkpt><trkpt lat="45.7867093" lon="10.0122876"><ele>404.0</ele><time>2026-04-25T15:39:41.316Z</time></trkpt><trkpt lat="45.7866964" lon="10.012399"><ele>407.66666666666663</ele><time>2026-04-25T15:39:46.317Z</time></trkpt><trkpt lat="45.786663" lon="10.0125032"><ele>411.3333333333333</ele><time>2026-04-25T15:39:51.317Z</time></trkpt><trkpt lat="45.7866383" lon="10.0126237"><ele>415.0</ele><time>2026-04-25T15:39:55.338Z</time></trkpt><trkpt lat="45.7866609" lon="10.0127288"><ele>418.66666666666663</ele><time>2026-04-25T15:40:02.219Z</time></trkpt><trkpt lat="45.7867032" lon="10.0127996"><ele>422.3333333333333</ele><time>2026-04-25T15:40:06.316Z</time></trkpt><trkpt lat="45.7866761" lon="10.0128927"><ele>426.0</ele><time>2026-04-25T15:40:10.316Z</time></trkpt><trkpt lat="45.7866771" lon="10.0129963"><ele>425.99999999999994</ele><time>2026-04-25T15:40:24.317Z</time></trkpt><trkpt lat="45.7866375" lon="10.013099"><ele>426.0</ele><time>2026-04-25T15:40:28.24Z</time></trkpt><trkpt lat="45.786577" lon="10.0131505"><ele>426.0</ele><time>2026-04-25T15:40:30.317Z</time></trkpt><trkpt lat="45.786508" lon="10.0131649"><ele>426.0</ele><time>2026-04-25T15:40:32.318Z</time></trkpt><trkpt lat="45.7864439" lon="10.0131824"><ele>426.0</ele><time>2026-04-25T15:40:34.299Z</time></trkpt><trkpt lat="45.7863731" lon="10.013223"><ele>425.99999999999994</ele><time>2026-04-25T15:40:36.316Z</time></trkpt><trkpt lat="45.786318" lon="10.0133053"><ele>426.0</ele><time>2026-04-25T15:40:38.239Z</time></trkpt><trkpt lat="45.7862765" lon="10.0134245"><ele>429.1666666666667</ele><time>2026-04-25T15:40:40.318Z</time></trkpt><trkpt lat="45.7862501" lon="10.0135349"><ele>432.33333333333337</ele><time>2026-04-25T15:40:42.316Z</time></trkpt><trkpt lat="45.7862435" lon="10.0136516"><ele>435.5</ele><time>2026-04-25T15:40:44.317Z</time></trkpt><trkpt lat="45.78626" lon="10.0137543"><ele>438.6666666666667</ele><time>2026-04-25T15:40:46.315Z</time></trkpt><trkpt lat="45.7862696" lon="10.0138487"><ele>441.83333333333337</ele><time>2026-04-25T15:40:48.318Z</time></trkpt><trkpt lat="45.7862789" lon="10.0139532"><ele>445.0</ele><time>2026-04-25T15:40:50.317Z</time></trkpt><trkpt lat="45.7862958" lon="10.0140568"><ele>448.1666666666667</ele><time>2026-04-25T15:40:52.318Z</time></trkpt><trkpt lat="45.7862901" lon="10.0141571"><ele>451.33333333333337</ele><time>2026-04-25T15:40:54.316Z</time></trkpt><trkpt lat="45.7862455" lon="10.0142669"><ele>454.5</ele><time>2026-04-25T15:40:57.351Z</time></trkpt><trkpt lat="45.7862045" lon="10.0143566"><ele>457.66666666666663</ele><time>2026-04-25T15:40:59.318Z</time></trkpt><trkpt lat="45.7861499" lon="10.014438"><ele>460.8333333333333</ele><time>2026-04-25T15:41:01.318Z</time></trkpt><trkpt lat="45.7861015" lon="10.0145243"><ele>464.0</ele><time>2026-04-25T15:41:03.317Z</time></trkpt><trkpt lat="45.7860405" lon="10.0146158"><ele>463.00000000000006</ele><time>2026-04-25T15:41:05.317Z</time></trkpt><trkpt lat="45.7859872" lon="10.0146935"><ele>462.0</ele><time>2026-04-25T15:41:07.318Z</time></trkpt><trkpt lat="45.7859441" lon="10.0147609"><ele>461.00000000000006</ele><time>2026-04-25T15:41:09.244Z</time></trkpt><trkpt lat="45.7858912" lon="10.0148188"><ele>460.00000000000006</ele><time>2026-04-25T15:41:11.298Z</time></trkpt><trkpt lat="45.7858594" lon="10.0149062"><ele>459.0</ele><time>2026-04-25T15:41:14.319Z</time></trkpt><trkpt lat="45.7859334" lon="10.0149309"><ele>458.00000000000006</ele><time>2026-04-25T15:41:19.317Z</time></trkpt><trkpt lat="45.7859761" lon="10.0150005"><ele>457.00000000000006</ele><time>2026-04-25T15:41:21.275Z</time></trkpt><trkpt lat="45.7859997" lon="10.0151187"><ele>461.33333333333337</ele><time>2026-04-25T15:41:23.242Z</time></trkpt><trkpt lat="45.7860398" lon="10.0152275"><ele>465.6666666666667</ele><time>2026-04-25T15:41:25.342Z</time></trkpt><trkpt lat="45.7860788" lon="10.0153392"><ele>470.0</ele><time>2026-04-25T15:41:27.295Z</time></trkpt><trkpt lat="45.7861188" lon="10.0154262"><ele>474.33333333333337</ele><time>2026-04-25T15:41:28.318Z</time></trkpt><trkpt lat="45.7862019" lon="10.0155131"><ele>478.6666666666667</ele><time>2026-04-25T15:41:30.317Z</time></trkpt><trkpt lat="45.7862559" lon="10.015577"><ele>483.0</ele><time>2026-04-25T15:41:32.316Z</time></trkpt><trkpt lat="45.7862537" lon="10.0157465"><ele>485.0</ele><time>2026-04-25T15:41:35.318Z</time></trkpt><trkpt lat="45.7862292" lon="10.0158374"><ele>487.0</ele><time>2026-04-25T15:41:36.317Z</time></trkpt><trkpt lat="45.7862285" lon="10.0160353"><ele>489.0</ele><time>2026-04-25T15:41:38.316Z</time></trkpt><trkpt lat="45.7862421" lon="10.016151"><ele>491.0</ele><time>2026-04-25T15:41:39.316Z</time></trkpt><trkpt lat="45.786226" lon="10.0162704"><ele>493.0</ele><time>2026-04-25T15:41:40.32Z</time></trkpt><trkpt lat="45.7862101" lon="10.0163764"><ele>495.0</ele><time>2026-04-25T15:41:41.317Z</time></trkpt><trkpt lat="45.7862195" lon="10.0165516"><ele>497.0</ele><time>2026-04-25T15:41:43.318Z</time></trkpt><trkpt lat="45.7862428" lon="10.0166792"><ele>499.0</ele><time>2026-04-25T15:41:45.318Z</time></trkpt><trkpt lat="45.7862345" lon="10.0167994"><ele>501.0</ele><time>2026-04-25T15:41:47.318Z</time></trkpt><trkpt lat="45.7862094" lon="10.016935"><ele>503.0</ele><time>2026-04-25T15:41:49.317Z</time></trkpt><trkpt lat="45.7861755" lon="10.0170204"><ele>505.0</ele><time>2026-04-25T15:41:51.317Z</time></trkpt><trkpt lat="45.7861497" lon="10.0171046"><ele>507.0</ele><time>2026-04-25T15:41:53.318Z</time></trkpt><trkpt lat="45.7860892" lon="10.0171581"><ele>503.3333333333333</ele><time>2026-04-25T15:41:55.318Z</time></trkpt><trkpt lat="45.7860076" lon="10.0171821"><ele>499.66666666666663</ele><time>2026-04-25T15:41:57.316Z</time></trkpt><trkpt lat="45.7859159" lon="10.0172013"><ele>496.0</ele><time>2026-04-25T15:41:59.317Z</time></trkpt><trkpt lat="45.7858419" lon="10.0172117"><ele>492.3333333333333</ele><time>2026-04-25T15:42:01.319Z</time></trkpt><trkpt lat="45.7857874" lon="10.017274"><ele>488.66666666666663</ele><time>2026-04-25T15:42:03.317Z</time></trkpt><trkpt lat="45.7857082" lon="10.0172425"><ele>485.0</ele><time>2026-04-25T15:42:04.318Z</time></trkpt><trkpt lat="45.7856151" lon="10.0171737"><ele>485.0</ele><time>2026-04-25T15:42:06.316Z</time></trkpt><trkpt lat="45.7855103" lon="10.017119"><ele>485.0</ele><time>2026-04-25T15:42:08.318Z</time></trkpt><trkpt lat="45.7854166" lon="10.0171626"><ele>485.0</ele><time>2026-04-25T15:42:10.317Z</time></trkpt><trkpt lat="45.7853068" lon="10.0171845"><ele>485.0</ele><time>2026-04-25T15:42:12.318Z</time></trkpt><trkpt lat="45.78525" lon="10.0172248"><ele>485.0</ele><time>2026-04-25T15:42:13.318Z</time></trkpt><trkpt lat="45.7851987" lon="10.0173064"><ele>484.3333333333333</ele><time>2026-04-25T15:42:14.317Z</time></trkpt><trkpt lat="45.7851427" lon="10.0173644"><ele>483.66666666666663</ele><time>2026-04-25T15:42:15.318Z</time></trkpt><trkpt lat="45.7850875" lon="10.0174336"><ele>483.0</ele><time>2026-04-25T15:42:16.318Z</time></trkpt><trkpt lat="45.7850601" lon="10.0175171"><ele>482.33333333333337</ele><time>2026-04-25T15:42:17.318Z</time></trkpt><trkpt lat="45.7850042" lon="10.0176482"><ele>481.6666666666667</ele><time>2026-04-25T15:42:19.316Z</time></trkpt><trkpt lat="45.7849822" lon="10.017735"><ele>481.0</ele><time>2026-04-25T15:42:20.318Z</time></trkpt><trkpt lat="45.7849426" lon="10.0178391"><ele>481.0</ele><time>2026-04-25T15:42:21.317Z</time></trkpt><trkpt lat="45.7849128" lon="10.0179924"><ele>481.0</ele><time>2026-04-25T15:42:23.318Z</time></trkpt><trkpt lat="45.7849039" lon="10.0181442"><ele>481.0</ele><time>2026-04-25T15:42:25.316Z</time></trkpt><trkpt lat="45.7849138" lon="10.0182915"><ele>481.0</ele><time>2026-04-25T15:42:27.317Z</time></trkpt><trkpt lat="45.7849245" lon="10.0184555"><ele>481.0</ele><time>2026-04-25T15:42:29.317Z</time></trkpt><trkpt lat="45.7849182" lon="10.0186096"><ele>482.8</ele><time>2026-04-25T15:42:31.317Z</time></trkpt><trkpt lat="45.7849109" lon="10.0187717"><ele>484.6</ele><time>2026-04-25T15:42:33.318Z</time></trkpt><trkpt lat="45.784902" lon="10.0189549"><ele>486.4</ele><time>2026-04-25T15:42:35.317Z</time></trkpt><trkpt lat="45.7848645" lon="10.0190994"><ele>488.2</ele><time>2026-04-25T15:42:37.318Z</time></trkpt><trkpt lat="45.7848414" lon="10.0191882"><ele>490.0</ele><time>2026-04-25T15:42:38.318Z</time></trkpt><trkpt lat="45.7847797" lon="10.0193135"><ele>490.00000000000006</ele><time>2026-04-25T15:42:40.317Z</time></trkpt><trkpt lat="45.7847017" lon="10.0193432"><ele>490.0</ele><time>2026-04-25T15:42:42.317Z</time></trkpt><trkpt lat="45.7846561" lon="10.0192114"><ele>490.0</ele><time>2026-04-25T15:42:44.318Z</time></trkpt><trkpt lat="45.784583" lon="10.0190766"><ele>490.0</ele><time>2026-04-25T15:42:46.317Z</time></trkpt><trkpt lat="45.7845184" lon="10.0190546"><ele>490.00000000000006</ele><time>2026-04-25T15:42:47.318Z</time></trkpt><trkpt lat="45.7844433" lon="10.0190464"><ele>490.0</ele><time>2026-04-25T15:42:48.316Z</time></trkpt><trkpt lat="45.7843824" lon="10.0190041"><ele>486.75</ele><time>2026-04-25T15:42:50.318Z</time></trkpt><trkpt lat="45.7842694" lon="10.0189411"><ele>483.5</ele><time>2026-04-25T15:42:52.318Z</time></trkpt><trkpt lat="45.7841638" lon="10.0188556"><ele>480.25</ele><time>2026-04-25T15:42:54.318Z</time></trkpt><trkpt lat="45.7840276" lon="10.0187817"><ele>477.0</ele><time>2026-04-25T15:42:56.317Z</time></trkpt><trkpt lat="45.7839574" lon="10.018776"><ele>477.0</ele><time>2026-04-25T15:42:57.317Z</time></trkpt><trkpt lat="45.7838681" lon="10.0187773"><ele>477.0</ele><time>2026-04-25T15:42:59.319Z</time></trkpt><trkpt lat="45.7837861" lon="10.0188901"><ele>477.0</ele><time>2026-04-25T15:43:01.317Z</time></trkpt><trkpt lat="45.7837325" lon="10.0190107"><ele>477.0</ele><time>2026-04-25T15:43:02.316Z</time></trkpt><trkpt lat="45.7836867" lon="10.0190773"><ele>477.0</ele><time>2026-04-25T15:43:03.317Z</time></trkpt><trkpt lat="45.7836403" lon="10.0191406"><ele>477.0</ele><time>2026-04-25T15:43:04.316Z</time></trkpt><trkpt lat="45.7835595" lon="10.0192246"><ele>477.0</ele><time>2026-04-25T15:43:06.318Z</time></trkpt><trkpt lat="45.7834908" lon="10.0193342"><ele>477.00000000000006</ele><time>2026-04-25T15:43:08.317Z</time></trkpt><trkpt lat="45.7834758" lon="10.0194233"><ele>477.00000000000006</ele><time>2026-04-25T15:43:09.317Z</time></trkpt><trkpt lat="45.7834362" lon="10.0195808"><ele>477.0</ele><time>2026-04-25T15:43:11.317Z</time></trkpt><trkpt lat="45.783436" lon="10.0196721"><ele>477.0</ele><time>2026-04-25T15:43:12.317Z</time></trkpt><trkpt lat="45.7834165" lon="10.0198448"><ele>477.0</ele><time>2026-04-25T15:43:14.317Z</time></trkpt><trkpt lat="45.7834249" lon="10.0200191"><ele>477.0</ele><time>2026-04-25T15:43:16.318Z</time></trkpt><trkpt lat="45.7834333" lon="10.0201123"><ele>477.0</ele><time>2026-04-25T15:43:18.318Z</time></trkpt><trkpt lat="45.7833693" lon="10.0201028"><ele>477.0</ele><time>2026-04-25T15:43:27.318Z</time></trkpt><trkpt lat="45.7833638" lon="10.0199864"><ele>477.0</ele><time>2026-04-25T15:43:29.318Z</time></trkpt><trkpt lat="45.7833562" lon="10.0198405"><ele>477.0</ele><time>2026-04-25T15:43:31.317Z</time></trkpt><trkpt lat="45.7833282" lon="10.0197055"><ele>477.0</ele><time>2026-04-25T15:43:33.317Z</time></trkpt><trkpt lat="45.7832442" lon="10.0196684"><ele>477.00000000000006</ele><time>2026-04-25T15:43:35.316Z</time></trkpt><trkpt lat="45.7831914" lon="10.0197854"><ele>477.00000000000006</ele><time>2026-04-25T15:43:37.318Z</time></trkpt><trkpt lat="45.7831881" lon="10.0199542"><ele>477.0</ele><time>2026-04-25T15:43:39.317Z</time></trkpt><trkpt lat="45.7831823" lon="10.020123"><ele>477.0</ele><time>2026-04-25T15:43:41.317Z</time></trkpt><trkpt lat="45.7831701" lon="10.0202135"><ele>477.5</ele><time>2026-04-25T15:43:42.318Z</time></trkpt><trkpt lat="45.7831507" lon="10.0203011"><ele>478.0</ele><time>2026-04-25T15:43:43.316Z</time></trkpt><trkpt lat="45.7830893" lon="10.0204548"><ele>478.5</ele><time>2026-04-25T15:43:45.317Z</time></trkpt><trkpt lat="45.7830454" lon="10.0205268"><ele>479.0</ele><time>2026-04-25T15:43:46.318Z</time></trkpt><trkpt lat="45.782996" lon="10.0205858"><ele>479.5</ele><time>2026-04-25T15:43:47.318Z</time></trkpt><trkpt lat="45.7829469" lon="10.0206473"><ele>480.0</ele><time>2026-04-25T15:43:48.317Z</time></trkpt><trkpt lat="45.782852" lon="10.0207644"><ele>480.0</ele><time>2026-04-25T15:43:50.319Z</time></trkpt><trkpt lat="45.7828048" lon="10.0208249"><ele>480.0</ele><time>2026-04-25T15:43:51.317Z</time></trkpt><trkpt lat="45.7827561" lon="10.0208889"><ele>480.0</ele><time>2026-04-25T15:43:52.318Z</time></trkpt><trkpt lat="45.782712" lon="10.0209565"><ele>480.0</ele><time>2026-04-25T15:43:53.319Z</time></trkpt><trkpt lat="45.78267" lon="10.0210302"><ele>480.0</ele><time>2026-04-25T15:43:54.316Z</time></trkpt><trkpt lat="45.7826166" lon="10.0211853"><ele>480.0</ele><time>2026-04-25T15:43:56.318Z</time></trkpt><trkpt lat="45.7825798" lon="10.0213561"><ele>476.6666666666667</ele><time>2026-04-25T15:43:58.318Z</time></trkpt><trkpt lat="45.7825669" lon="10.0214448"><ele>473.33333333333337</ele><time>2026-04-25T15:43:59.317Z</time></trkpt><trkpt lat="45.7825571" lon="10.0215385"><ele>470.0</ele><time>2026-04-25T15:44:00.318Z</time></trkpt><trkpt lat="45.7825431" lon="10.02163"><ele>466.6666666666667</ele><time>2026-04-25T15:44:01.316Z</time></trkpt><trkpt lat="45.7825188" lon="10.0218133"><ele>463.33333333333337</ele><time>2026-04-25T15:44:03.318Z</time></trkpt><trkpt lat="45.7824793" lon="10.0219705"><ele>460.0</ele><time>2026-04-25T15:44:05.317Z</time></trkpt><trkpt lat="45.7824016" lon="10.0220102"><ele>460.00000000000006</ele><time>2026-04-25T15:44:06.317Z</time></trkpt><trkpt lat="45.7823459" lon="10.0220566"><ele>460.0</ele><time>2026-04-25T15:44:07.318Z</time></trkpt><trkpt lat="45.7822778" lon="10.0220874"><ele>460.0</ele><time>2026-04-25T15:44:08.318Z</time></trkpt><trkpt lat="45.7822155" lon="10.0221181"><ele>460.0</ele><time>2026-04-25T15:44:09.317Z</time></trkpt><trkpt lat="45.7821459" lon="10.0221508"><ele>460.00000000000006</ele><time>2026-04-25T15:44:10.318Z</time></trkpt><trkpt lat="45.7820804" lon="10.0221707"><ele>460.0</ele><time>2026-04-25T15:44:11.317Z</time></trkpt><trkpt lat="45.7819653" lon="10.0221859"><ele>460.00000000000006</ele><time>2026-04-25T15:44:13.317Z</time></trkpt><trkpt lat="45.7818833" lon="10.0221396"><ele>460.0</ele><time>2026-04-25T15:44:15.317Z</time></trkpt><trkpt lat="45.7818384" lon="10.0220064"><ele>460.0</ele><time>2026-04-25T15:44:17.319Z</time></trkpt><trkpt lat="45.7818855" lon="10.0219163"><ele>460.0</ele><time>2026-04-25T15:44:19.318Z</time></trkpt><trkpt lat="45.7819264" lon="10.0220066"><ele>460.00000000000006</ele><time>2026-04-25T15:44:22.316Z</time></trkpt><trkpt lat="45.7818909" lon="10.022083"><ele>460.0</ele><time>2026-04-25T15:46:36.318Z</time></trkpt><trkpt lat="45.7818142" lon="10.0220774"><ele>458.00000000000006</ele><time>2026-04-25T15:46:38.317Z</time></trkpt><trkpt lat="45.7817098" lon="10.0220431"><ele>456.0</ele><time>2026-04-25T15:46:40.318Z</time></trkpt><trkpt lat="45.7816522" lon="10.022003"><ele>454.0</ele><time>2026-04-25T15:46:41.318Z</time></trkpt><trkpt lat="45.7815951" lon="10.0219453"><ele>452.0</ele><time>2026-04-25T15:46:42.317Z</time></trkpt><trkpt lat="45.781567" lon="10.0218255"><ele>450.00000000000006</ele><time>2026-04-25T15:46:43.316Z</time></trkpt><trkpt lat="45.7815479" lon="10.0217147"><ele>448.0</ele><time>2026-04-25T15:46:44.317Z</time></trkpt><trkpt lat="45.7815339" lon="10.0216054"><ele>447.57142857142856</ele><time>2026-04-25T15:46:45.316Z</time></trkpt><trkpt lat="45.7815316" lon="10.0215091"><ele>447.1428571428571</ele><time>2026-04-25T15:46:46.318Z</time></trkpt><trkpt lat="45.7815273" lon="10.0214069"><ele>446.7142857142857</ele><time>2026-04-25T15:46:47.317Z</time></trkpt><trkpt lat="45.7815222" lon="10.0213059"><ele>446.2857142857143</ele><time>2026-04-25T15:46:48.318Z</time></trkpt><trkpt lat="45.7815166" lon="10.0212155"><ele>445.85714285714283</ele><time>2026-04-25T15:46:49.317Z</time></trkpt><trkpt lat="45.781515" lon="10.0211183"><ele>445.42857142857144</ele><time>2026-04-25T15:46:50.317Z</time></trkpt><trkpt lat="45.7815128" lon="10.0210234"><ele>445.0</ele><time>2026-04-25T15:46:51.317Z</time></trkpt><trkpt lat="45.7815062" lon="10.0209316"><ele>445.00000000000006</ele><time>2026-04-25T15:46:52.316Z</time></trkpt><trkpt lat="45.7815064" lon="10.0208343"><ele>445.0</ele><time>2026-04-25T15:46:53.317Z</time></trkpt><trkpt lat="45.7814983" lon="10.0206692"><ele>445.0</ele><time>2026-04-25T15:46:55.317Z</time></trkpt><trkpt lat="45.7814302" lon="10.0205358"><ele>445.0</ele><time>2026-04-25T15:46:57.317Z</time></trkpt><trkpt lat="45.7813803" lon="10.02048"><ele>445.00000000000006</ele><time>2026-04-25T15:46:58.317Z</time></trkpt><trkpt lat="45.7813278" lon="10.0204237"><ele>445.0</ele><time>2026-04-25T15:46:59.317Z</time></trkpt><trkpt lat="45.7812774" lon="10.0203642"><ele>444.1666666666667</ele><time>2026-04-25T15:47:00.318Z</time></trkpt><trkpt lat="45.7812202" lon="10.0203035"><ele>443.33333333333337</ele><time>2026-04-25T15:47:01.317Z</time></trkpt><trkpt lat="45.7811582" lon="10.0202455"><ele>442.5</ele><time>2026-04-25T15:47:02.317Z</time></trkpt><trkpt lat="45.7810909" lon="10.0201807"><ele>441.66666666666663</ele><time>2026-04-25T15:47:03.317Z</time></trkpt><trkpt lat="45.7810209" lon="10.0201122"><ele>440.8333333333333</ele><time>2026-04-25T15:47:04.317Z</time></trkpt><trkpt lat="45.7809505" lon="10.0200495"><ele>440.0</ele><time>2026-04-25T15:47:05.317Z</time></trkpt><trkpt lat="45.7808853" lon="10.0199798"><ele>438.8</ele><time>2026-04-25T15:47:06.318Z</time></trkpt><trkpt lat="45.7808124" lon="10.0199132"><ele>437.6</ele><time>2026-04-25T15:47:07.316Z</time></trkpt><trkpt lat="45.7807354" lon="10.0198389"><ele>436.4</ele><time>2026-04-25T15:47:08.318Z</time></trkpt><trkpt lat="45.7806571" lon="10.0197624"><ele>435.2</ele><time>2026-04-25T15:47:09.318Z</time></trkpt><trkpt lat="45.7805809" lon="10.0196804"><ele>434.0</ele><time>2026-04-25T15:47:10.317Z</time></trkpt><trkpt lat="45.7805087" lon="10.0196013"><ele>434.0</ele><time>2026-04-25T15:47:11.317Z</time></trkpt><trkpt lat="45.7804344" lon="10.0195173"><ele>434.0</ele><time>2026-04-25T15:47:12.317Z</time></trkpt><trkpt lat="45.7803593" lon="10.019442"><ele>434.0</ele><time>2026-04-25T15:47:13.318Z</time></trkpt><trkpt lat="45.780282" lon="10.0193711"><ele>434.0</ele><time>2026-04-25T15:47:14.317Z</time></trkpt><trkpt lat="45.7802105" lon="10.0192985"><ele>434.0</ele><time>2026-04-25T15:47:15.318Z</time></trkpt><trkpt lat="45.7801395" lon="10.0192262"><ele>435.16666666666663</ele><time>2026-04-25T15:47:16.317Z</time></trkpt><trkpt lat="45.7800835" lon="10.0191414"><ele>436.3333333333333</ele><time>2026-04-25T15:47:17.317Z</time></trkpt><trkpt lat="45.780039" lon="10.0190439"><ele>437.5</ele><time>2026-04-25T15:47:18.316Z</time></trkpt><trkpt lat="45.7800107" lon="10.0189286"><ele>438.66666666666663</ele><time>2026-04-25T15:47:19.317Z</time></trkpt><trkpt lat="45.7800009" lon="10.018784"><ele>439.8333333333333</ele><time>2026-04-25T15:47:20.317Z</time></trkpt><trkpt lat="45.7799743" lon="10.0186548"><ele>441.0</ele><time>2026-04-25T15:47:21.317Z</time></trkpt><trkpt lat="45.7799541" lon="10.0185219"><ele>441.0</ele><time>2026-04-25T15:47:22.318Z</time></trkpt><trkpt lat="45.7799438" lon="10.0183769"><ele>441.0</ele><time>2026-04-25T15:47:23.317Z</time></trkpt><trkpt lat="45.7799423" lon="10.0182389"><ele>441.0</ele><time>2026-04-25T15:47:24.317Z</time></trkpt><trkpt lat="45.7799425" lon="10.0181046"><ele>441.0</ele><time>2026-04-25T15:47:25.318Z</time></trkpt><trkpt lat="45.7799484" lon="10.0179852"><ele>441.0</ele><time>2026-04-25T15:47:26.317Z</time></trkpt><trkpt lat="45.7799632" lon="10.0178543"><ele>441.8</ele><time>2026-04-25T15:47:27.319Z</time></trkpt><trkpt lat="45.7799766" lon="10.0177226"><ele>442.6</ele><time>2026-04-25T15:47:28.317Z</time></trkpt><trkpt lat="45.7800046" lon="10.017587"><ele>443.4</ele><time>2026-04-25T15:47:29.317Z</time></trkpt><trkpt lat="45.780029" lon="10.0174588"><ele>444.2</ele><time>2026-04-25T15:47:30.317Z</time></trkpt><trkpt lat="45.7800407" lon="10.0173209"><ele>445.0</ele><time>2026-04-25T15:47:31.317Z</time></trkpt><trkpt lat="45.7800528" lon="10.0171802"><ele>445.8</ele><time>2026-04-25T15:47:32.317Z</time></trkpt><trkpt lat="45.7800524" lon="10.0170336"><ele>446.6</ele><time>2026-04-25T15:47:33.317Z</time></trkpt><trkpt lat="45.7800503" lon="10.0168958"><ele>447.4</ele><time>2026-04-25T15:47:34.316Z</time></trkpt><trkpt lat="45.7800381" lon="10.016764"><ele>448.2</ele><time>2026-04-25T15:47:35.318Z</time></trkpt><trkpt lat="45.7800089" lon="10.0166464"><ele>449.0</ele><time>2026-04-25T15:47:36.316Z</time></trkpt><trkpt lat="45.77998" lon="10.0165253"><ele>449.99999999999994</ele><time>2026-04-25T15:47:37.316Z</time></trkpt><trkpt lat="45.7799263" lon="10.0164152"><ele>451.0</ele><time>2026-04-25T15:47:38.316Z</time></trkpt><trkpt lat="45.77988" lon="10.0163037"><ele>452.0</ele><time>2026-04-25T15:47:39.317Z</time></trkpt><trkpt lat="45.7798393" lon="10.0161826"><ele>453.0</ele><time>2026-04-25T15:47:40.316Z</time></trkpt><trkpt lat="45.7798064" lon="10.0160595"><ele>453.99999999999994</ele><time>2026-04-25T15:47:41.318Z</time></trkpt><trkpt lat="45.7797828" lon="10.0159584"><ele>455.0</ele><time>2026-04-25T15:47:42.317Z</time></trkpt><trkpt lat="45.779765" lon="10.0158369"><ele>456.0</ele><time>2026-04-25T15:47:43.317Z</time></trkpt><trkpt lat="45.7797543" lon="10.0157136"><ele>457.0</ele><time>2026-04-25T15:47:44.317Z</time></trkpt><trkpt lat="45.7797477" lon="10.0155869"><ele>458.0</ele><time>2026-04-25T15:47:45.317Z</time></trkpt><trkpt lat="45.7797456" lon="10.0154521"><ele>459.0</ele><time>2026-04-25T15:47:46.318Z</time></trkpt><trkpt lat="45.7797328" lon="10.0153077"><ele>460.0</ele><time>2026-04-25T15:47:47.318Z</time></trkpt><trkpt lat="45.7797218" lon="10.015167"><ele>460.0</ele><time>2026-04-25T15:47:48.316Z</time></trkpt><trkpt lat="45.7797078" lon="10.0150495"><ele>460.0</ele><time>2026-04-25T15:47:49.318Z</time></trkpt><trkpt lat="45.7796975" lon="10.0149234"><ele>460.0</ele><time>2026-04-25T15:47:50.317Z</time></trkpt><trkpt lat="45.7797079" lon="10.0147792"><ele>460.0</ele><time>2026-04-25T15:47:51.316Z</time></trkpt><trkpt lat="45.7797188" lon="10.0146265"><ele>460.0</ele><time>2026-04-25T15:47:52.318Z</time></trkpt><trkpt lat="45.7797212" lon="10.0144672"><ele>461.4</ele><time>2026-04-25T15:47:53.316Z</time></trkpt><trkpt lat="45.7797305" lon="10.0143277"><ele>462.8</ele><time>2026-04-25T15:47:54.317Z</time></trkpt><trkpt lat="45.7797434" lon="10.0141817"><ele>464.20000000000005</ele><time>2026-04-25T15:47:55.317Z</time></trkpt><trkpt lat="45.7797472" lon="10.0140222"><ele>465.6</ele><time>2026-04-25T15:47:56.317Z</time></trkpt><trkpt lat="45.7797479" lon="10.0138551"><ele>467.0</ele><time>2026-04-25T15:47:57.317Z</time></trkpt><trkpt lat="45.7797388" lon="10.0136796"><ele>467.8333333333333</ele><time>2026-04-25T15:47:58.316Z</time></trkpt><trkpt lat="45.7797257" lon="10.0135479"><ele>468.66666666666663</ele><time>2026-04-25T15:47:59.317Z</time></trkpt><trkpt lat="45.7797204" lon="10.0134301"><ele>469.5</ele><time>2026-04-25T15:48:00.318Z</time></trkpt><trkpt lat="45.7796955" lon="10.0133443"><ele>470.33333333333337</ele><time>2026-04-25T15:48:01.317Z</time></trkpt><trkpt lat="45.7796216" lon="10.0131979"><ele>471.1666666666667</ele><time>2026-04-25T15:48:03.317Z</time></trkpt><trkpt lat="45.7795749" lon="10.0131348"><ele>472.0</ele><time>2026-04-25T15:48:04.318Z</time></trkpt><trkpt lat="45.779504" lon="10.012959"><ele>472.33333333333337</ele><time>2026-04-25T15:48:06.317Z</time></trkpt><trkpt lat="45.779483" lon="10.0128545"><ele>472.6666666666667</ele><time>2026-04-25T15:48:07.317Z</time></trkpt><trkpt lat="45.7794686" lon="10.0127481"><ele>473.0</ele><time>2026-04-25T15:48:08.317Z</time></trkpt><trkpt lat="45.7794634" lon="10.0126485"><ele>473.33333333333337</ele><time>2026-04-25T15:48:09.317Z</time></trkpt><trkpt lat="45.7794463" lon="10.0125427"><ele>473.6666666666667</ele><time>2026-04-25T15:48:10.317Z</time></trkpt><trkpt lat="45.7794187" lon="10.0124359"><ele>474.0</ele><time>2026-04-25T15:48:11.318Z</time></trkpt><trkpt lat="45.7793967" lon="10.012329"><ele>475.0</ele><time>2026-04-25T15:48:12.318Z</time></trkpt><trkpt lat="45.7793624" lon="10.0122321"><ele>476.0</ele><time>2026-04-25T15:48:13.316Z</time></trkpt><trkpt lat="45.7793428" lon="10.012127"><ele>477.0</ele><time>2026-04-25T15:48:14.316Z</time></trkpt><trkpt lat="45.7793321" lon="10.0120154"><ele>478.0</ele><time>2026-04-25T15:48:15.317Z</time></trkpt><trkpt lat="45.7793292" lon="10.0119048"><ele>479.0</ele><time>2026-04-25T15:48:16.319Z</time></trkpt><trkpt lat="45.7793235" lon="10.0117979"><ele>480.0</ele><time>2026-04-25T15:48:17.317Z</time></trkpt><trkpt lat="45.7793067" lon="10.011678"><ele>481.5</ele><time>2026-04-25T15:48:18.317Z</time></trkpt><trkpt lat="45.7792881" lon="10.0115656"><ele>483.0</ele><time>2026-04-25T15:48:19.317Z</time></trkpt><trkpt lat="45.7792534" lon="10.0114581"><ele>484.5</ele><time>2026-04-25T15:48:20.317Z</time></trkpt><trkpt lat="45.779225" lon="10.0113404"><ele>486.0</ele><time>2026-04-25T15:48:21.317Z</time></trkpt><trkpt lat="45.779194" lon="10.0112216"><ele>487.5</ele><time>2026-04-25T15:48:22.317Z</time></trkpt><trkpt lat="45.7791728" lon="10.0111025"><ele>489.0</ele><time>2026-04-25T15:48:23.317Z</time></trkpt><trkpt lat="45.7791611" lon="10.0109833"><ele>489.0</ele><time>2026-04-25T15:48:24.318Z</time></trkpt><trkpt lat="45.7791543" lon="10.0108658"><ele>489.0</ele><time>2026-04-25T15:48:25.316Z</time></trkpt><trkpt lat="45.7791568" lon="10.0107399"><ele>489.0</ele><time>2026-04-25T15:48:26.317Z</time></trkpt><trkpt lat="45.7791655" lon="10.010617"><ele>489.0</ele><time>2026-04-25T15:48:27.317Z</time></trkpt><trkpt lat="45.7791715" lon="10.0105054"><ele>489.0</ele><time>2026-04-25T15:48:28.316Z</time></trkpt><trkpt lat="45.7791804" lon="10.0103829"><ele>489.0</ele><time>2026-04-25T15:48:29.316Z</time></trkpt><trkpt lat="45.7791792" lon="10.0102651"><ele>489.1666666666667</ele><time>2026-04-25T15:48:30.318Z</time></trkpt><trkpt lat="45.779168" lon="10.0101557"><ele>489.33333333333337</ele><time>2026-04-25T15:48:31.316Z</time></trkpt><trkpt lat="45.7791551" lon="10.0100467"><ele>489.5</ele><time>2026-04-25T15:48:32.318Z</time></trkpt><trkpt lat="45.7791385" lon="10.0099345"><ele>489.6666666666667</ele><time>2026-04-25T15:48:33.318Z</time></trkpt><trkpt lat="45.7791225" lon="10.0098191"><ele>489.83333333333337</ele><time>2026-04-25T15:48:34.317Z</time></trkpt><trkpt lat="45.779086" lon="10.0097176"><ele>490.0</ele><time>2026-04-25T15:48:35.318Z</time></trkpt><trkpt lat="45.7790301" lon="10.0096254"><ele>490.00000000000006</ele><time>2026-04-25T15:48:36.318Z</time></trkpt><trkpt lat="45.7789719" lon="10.0095618"><ele>490.0</ele><time>2026-04-25T15:48:37.316Z</time></trkpt><trkpt lat="45.7789106" lon="10.0094835"><ele>490.0</ele><time>2026-04-25T15:48:38.316Z</time></trkpt><trkpt lat="45.7788457" lon="10.0094171"><ele>490.0</ele><time>2026-04-25T15:48:39.317Z</time></trkpt><trkpt lat="45.778787" lon="10.0093515"><ele>490.00000000000006</ele><time>2026-04-25T15:48:40.317Z</time></trkpt><trkpt lat="45.7787232" lon="10.0092775"><ele>490.0</ele><time>2026-04-25T15:48:41.317Z</time></trkpt><trkpt lat="45.7786688" lon="10.0092095"><ele>488.83333333333337</ele><time>2026-04-25T15:48:42.317Z</time></trkpt><trkpt lat="45.7786212" lon="10.0091154"><ele>487.6666666666667</ele><time>2026-04-25T15:48:43.317Z</time></trkpt><trkpt lat="45.7785769" lon="10.0090073"><ele>486.5</ele><time>2026-04-25T15:48:44.316Z</time></trkpt><trkpt lat="45.7785362" lon="10.0089013"><ele>485.33333333333337</ele><time>2026-04-25T15:48:45.317Z</time></trkpt><trkpt lat="45.7785014" lon="10.0087947"><ele>484.1666666666667</ele><time>2026-04-25T15:48:46.317Z</time></trkpt><trkpt lat="45.7784592" lon="10.0086857"><ele>483.0</ele><time>2026-04-25T15:48:47.317Z</time></trkpt><trkpt lat="45.7784092" lon="10.0086134"><ele>485.79999999999995</ele><time>2026-04-25T15:48:48.318Z</time></trkpt><trkpt lat="45.7783588" lon="10.008554"><ele>488.59999999999997</ele><time>2026-04-25T15:48:49.316Z</time></trkpt><trkpt lat="45.778275" lon="10.0084719"><ele>491.40000000000003</ele><time>2026-04-25T15:48:51.317Z</time></trkpt><trkpt lat="45.7782177" lon="10.0083416"><ele>494.20000000000005</ele><time>2026-04-25T15:48:53.318Z</time></trkpt><trkpt lat="45.7782026" lon="10.0081724"><ele>497.0</ele><time>2026-04-25T15:48:55.318Z</time></trkpt><trkpt lat="45.7782168" lon="10.007977"><ele>498.8333333333333</ele><time>2026-04-25T15:48:57.317Z</time></trkpt><trkpt lat="45.7782418" lon="10.0078924"><ele>500.66666666666663</ele><time>2026-04-25T15:48:58.317Z</time></trkpt><trkpt lat="45.7783395" lon="10.0077995"><ele>502.5</ele><time>2026-04-25T15:49:00.317Z</time></trkpt><trkpt lat="45.7784154" lon="10.0076702"><ele>504.33333333333337</ele><time>2026-04-25T15:49:02.317Z</time></trkpt><trkpt lat="45.7784205" lon="10.0075754"><ele>506.1666666666667</ele><time>2026-04-25T15:49:03.317Z</time></trkpt><trkpt lat="45.7784215" lon="10.0074604"><ele>508.0</ele><time>2026-04-25T15:49:04.317Z</time></trkpt><trkpt lat="45.7784239" lon="10.0073528"><ele>506.1666666666667</ele><time>2026-04-25T15:49:05.317Z</time></trkpt><trkpt lat="45.7784455" lon="10.0072346"><ele>504.33333333333337</ele><time>2026-04-25T15:49:06.317Z</time></trkpt><trkpt lat="45.7784704" lon="10.0071077"><ele>502.5</ele><time>2026-04-25T15:49:07.317Z</time></trkpt><trkpt lat="45.7784944" lon="10.0070049"><ele>500.66666666666663</ele><time>2026-04-25T15:49:08.316Z</time></trkpt><trkpt lat="45.7785149" lon="10.0069035"><ele>498.8333333333333</ele><time>2026-04-25T15:49:09.316Z</time></trkpt><trkpt lat="45.7785428" lon="10.006799"><ele>497.0</ele><time>2026-04-25T15:49:10.318Z</time></trkpt><trkpt lat="45.7785605" lon="10.0066958"><ele>497.8333333333333</ele><time>2026-04-25T15:49:11.316Z</time></trkpt><trkpt lat="45.7785777" lon="10.0065801"><ele>498.66666666666663</ele><time>2026-04-25T15:49:12.317Z</time></trkpt><trkpt lat="45.7785885" lon="10.0064632"><ele>499.5</ele><time>2026-04-25T15:49:13.318Z</time></trkpt><trkpt lat="45.7785787" lon="10.0063559"><ele>500.33333333333337</ele><time>2026-04-25T15:49:14.318Z</time></trkpt><trkpt lat="45.7785818" lon="10.0062592"><ele>501.1666666666667</ele><time>2026-04-25T15:49:15.318Z</time></trkpt><trkpt lat="45.7785791" lon="10.0061561"><ele>502.0</ele><time>2026-04-25T15:49:16.316Z</time></trkpt><trkpt lat="45.7785908" lon="10.0059705"><ele>503.40000000000003</ele><time>2026-04-25T15:49:18.318Z</time></trkpt><trkpt lat="45.7786167" lon="10.0058041"><ele>504.80000000000007</ele><time>2026-04-25T15:49:20.317Z</time></trkpt><trkpt lat="45.7786575" lon="10.0056503"><ele>506.2</ele><time>2026-04-25T15:49:22.317Z</time></trkpt><trkpt lat="45.7786941" lon="10.0054874"><ele>507.6</ele><time>2026-04-25T15:49:24.316Z</time></trkpt><trkpt lat="45.778713" lon="10.0053946"><ele>509.0</ele><time>2026-04-25T15:49:25.317Z</time></trkpt><trkpt lat="45.778729" lon="10.0053026"><ele>508.99999999999994</ele><time>2026-04-25T15:49:26.317Z</time></trkpt><trkpt lat="45.7787507" lon="10.0052124"><ele>509.0</ele><time>2026-04-25T15:49:27.317Z</time></trkpt><trkpt lat="45.7787776" lon="10.00513"><ele>509.0</ele><time>2026-04-25T15:49:28.318Z</time></trkpt><trkpt lat="45.7788211" lon="10.0049337"><ele>509.0</ele><time>2026-04-25T15:49:30.319Z</time></trkpt><trkpt lat="45.7788359" lon="10.0048378"><ele>508.99999999999994</ele><time>2026-04-25T15:49:31.317Z</time></trkpt><trkpt lat="45.7788522" lon="10.0047413"><ele>509.0</ele><time>2026-04-25T15:49:32.317Z</time></trkpt><trkpt lat="45.778867" lon="10.0046435"><ele>510.0</ele><time>2026-04-25T15:49:33.317Z</time></trkpt><trkpt lat="45.7788677" lon="10.0044758"><ele>511.0</ele><time>2026-04-25T15:49:35.317Z</time></trkpt><trkpt lat="45.7788625" lon="10.0042851"><ele>512.0</ele><time>2026-04-25T15:49:37.319Z</time></trkpt><trkpt lat="45.7788473" lon="10.0041797"><ele>513.0</ele><time>2026-04-25T15:49:38.317Z</time></trkpt><trkpt lat="45.7788415" lon="10.0040877"><ele>514.0</ele><time>2026-04-25T15:49:39.318Z</time></trkpt><trkpt lat="45.7788385" lon="10.0039757"><ele>514.4285714285714</ele><time>2026-04-25T15:49:40.317Z</time></trkpt><trkpt lat="45.7788299" lon="10.0038592"><ele>514.8571428571429</ele><time>2026-04-25T15:49:41.317Z</time></trkpt><trkpt lat="45.7788261" lon="10.003751"><ele>515.2857142857143</ele><time>2026-04-25T15:49:42.317Z</time></trkpt><trkpt lat="45.7788215" lon="10.0036527"><ele>515.7142857142858</ele><time>2026-04-25T15:49:43.317Z</time></trkpt><trkpt lat="45.7788063" lon="10.0035504"><ele>516.1428571428572</ele><time>2026-04-25T15:49:44.317Z</time></trkpt><trkpt lat="45.7787891" lon="10.0034489"><ele>516.5714285714286</ele><time>2026-04-25T15:49:45.317Z</time></trkpt><trkpt lat="45.7787715" lon="10.0033424"><ele>517.0</ele><time>2026-04-25T15:49:46.317Z</time></trkpt><trkpt lat="45.7787451" lon="10.0032455"><ele>517.2857142857143</ele><time>2026-04-25T15:49:47.317Z</time></trkpt><trkpt lat="45.778717" lon="10.0031598"><ele>517.5714285714287</ele><time>2026-04-25T15:49:48.316Z</time></trkpt><trkpt lat="45.7786289" lon="10.0030814"><ele>517.8571428571429</ele><time>2026-04-25T15:49:50.317Z</time></trkpt><trkpt lat="45.7785733" lon="10.0030369"><ele>518.1428571428571</ele><time>2026-04-25T15:49:51.317Z</time></trkpt><trkpt lat="45.7785084" lon="10.0030499"><ele>518.4285714285713</ele><time>2026-04-25T15:49:52.317Z</time></trkpt><trkpt lat="45.778455" lon="10.0030982"><ele>518.7142857142857</ele><time>2026-04-25T15:49:53.317Z</time></trkpt><trkpt lat="45.7784063" lon="10.0031572"><ele>519.0</ele><time>2026-04-25T15:49:54.317Z</time></trkpt><trkpt lat="45.7783615" lon="10.0032253"><ele>522.4</ele><time>2026-04-25T15:49:55.317Z</time></trkpt><trkpt lat="45.7782494" lon="10.0033218"><ele>525.8</ele><time>2026-04-25T15:49:57.318Z</time></trkpt><trkpt lat="45.7781858" lon="10.0033458"><ele>529.2</ele><time>2026-04-25T15:49:58.317Z</time></trkpt><trkpt lat="45.7780688" lon="10.003355"><ele>532.6</ele><time>2026-04-25T15:50:00.316Z</time></trkpt><trkpt lat="45.777962" lon="10.0032989"><ele>536.0</ele><time>2026-04-25T15:50:02.318Z</time></trkpt><trkpt lat="45.7779019" lon="10.0032528"><ele>536.0</ele><time>2026-04-25T15:50:03.318Z</time></trkpt><trkpt lat="45.7778311" lon="10.0030924"><ele>536.0</ele><time>2026-04-25T15:50:05.317Z</time></trkpt><trkpt lat="45.7777983" lon="10.0030035"><ele>536.0</ele><time>2026-04-25T15:50:06.317Z</time></trkpt><trkpt lat="45.7777419" lon="10.0028462"><ele>536.0</ele><time>2026-04-25T15:50:08.316Z</time></trkpt><trkpt lat="45.7777195" lon="10.0027471"><ele>536.0</ele><time>2026-04-25T15:50:09.317Z</time></trkpt><trkpt lat="45.7776922" lon="10.0026591"><ele>537.8</ele><time>2026-04-25T15:50:10.316Z</time></trkpt><trkpt lat="45.7776615" lon="10.0025679"><ele>539.6</ele><time>2026-04-25T15:50:11.317Z</time></trkpt><trkpt lat="45.777618" lon="10.0024058"><ele>541.4</ele><time>2026-04-25T15:50:13.317Z</time></trkpt><trkpt lat="45.7775813" lon="10.0023219"><ele>543.2</ele><time>2026-04-25T15:50:14.316Z</time></trkpt><trkpt lat="45.7775084" lon="10.0021659"><ele>545.0</ele><time>2026-04-25T15:50:16.317Z</time></trkpt><trkpt lat="45.7774622" lon="10.0020969"><ele>545.0</ele><time>2026-04-25T15:50:17.317Z</time></trkpt><trkpt lat="45.7773746" lon="10.0020323"><ele>545.0</ele><time>2026-04-25T15:50:19.317Z</time></trkpt><trkpt lat="45.777248" lon="10.0020294"><ele>545.0</ele><time>2026-04-25T15:50:21.317Z</time></trkpt><trkpt lat="45.7771529" lon="10.0020246"><ele>545.0</ele><time>2026-04-25T15:50:23.317Z</time></trkpt><trkpt lat="45.7770634" lon="10.0019805"><ele>545.0</ele><time>2026-04-25T15:50:25.317Z</time></trkpt><trkpt lat="45.7770059" lon="10.0019401"><ele>545.0</ele><time>2026-04-25T15:50:26.317Z</time></trkpt><trkpt lat="45.7769012" lon="10.0018239"><ele>545.0</ele><time>2026-04-25T15:50:28.318Z</time></trkpt><trkpt lat="45.7768437" lon="10.0017533"><ele>545.0</ele><time>2026-04-25T15:50:29.317Z</time></trkpt><trkpt lat="45.776787" lon="10.0017055"><ele>545.0</ele><time>2026-04-25T15:50:30.317Z</time></trkpt><trkpt lat="45.7766752" lon="10.0016449"><ele>545.0</ele><time>2026-04-25T15:50:32.317Z</time></trkpt><trkpt lat="45.7766129" lon="10.0016153"><ele>548.0</ele><time>2026-04-25T15:50:33.317Z</time></trkpt><trkpt lat="45.7765147" lon="10.0014932"><ele>551.0</ele><time>2026-04-25T15:50:35.316Z</time></trkpt><trkpt lat="45.7764308" lon="10.0013677"><ele>554.0</ele><time>2026-04-25T15:50:37.317Z</time></trkpt><trkpt lat="45.7763488" lon="10.0012347"><ele>557.0</ele><time>2026-04-25T15:50:39.317Z</time></trkpt><trkpt lat="45.7762276" lon="10.0012219"><ele>557.0</ele><time>2026-04-25T15:50:41.317Z</time></trkpt><trkpt lat="45.7761291" lon="10.001275"><ele>557.0</ele><time>2026-04-25T15:50:43.317Z</time></trkpt><trkpt lat="45.7760567" lon="10.0014065"><ele>557.0</ele><time>2026-04-25T15:50:45.317Z</time></trkpt><trkpt lat="45.7759675" lon="10.0015298"><ele>557.0</ele><time>2026-04-25T15:50:47.316Z</time></trkpt><trkpt lat="45.7758637" lon="10.0015319"><ele>560.4</ele><time>2026-04-25T15:50:49.316Z</time></trkpt><trkpt lat="45.7757558" lon="10.0014974"><ele>563.8000000000001</ele><time>2026-04-25T15:50:51.317Z</time></trkpt><trkpt lat="45.7756319" lon="10.0014707"><ele>567.2</ele><time>2026-04-25T15:50:53.317Z</time></trkpt><trkpt lat="45.7755646" lon="10.0014428"><ele>570.6</ele><time>2026-04-25T15:50:55.317Z</time></trkpt><trkpt lat="45.7754753" lon="10.0013606"><ele>574.0</ele><time>2026-04-25T15:50:58.317Z</time></trkpt><trkpt lat="45.7754046" lon="10.0012362"><ele>574.0</ele><time>2026-04-25T15:51:00.318Z</time></trkpt><trkpt lat="45.775322" lon="10.001103"><ele>574.0</ele><time>2026-04-25T15:51:02.316Z</time></trkpt><trkpt lat="45.7752741" lon="10.0010141"><ele>574.0</ele><time>2026-04-25T15:51:03.317Z</time></trkpt><trkpt lat="45.7752391" lon="10.0009292"><ele>574.0</ele><time>2026-04-25T15:51:04.317Z</time></trkpt><trkpt lat="45.7752054" lon="10.0008325"><ele>574.0</ele><time>2026-04-25T15:51:05.316Z</time></trkpt><trkpt lat="45.7751705" lon="10.0007363"><ele>574.0</ele><time>2026-04-25T15:51:06.317Z</time></trkpt><trkpt lat="45.7751334" lon="10.0006449"><ele>577.5</ele><time>2026-04-25T15:51:07.317Z</time></trkpt><trkpt lat="45.7750932" lon="10.0005676"><ele>581.0</ele><time>2026-04-25T15:51:08.317Z</time></trkpt><trkpt lat="45.7750412" lon="10.0004969"><ele>584.5</ele><time>2026-04-25T15:51:09.317Z</time></trkpt><trkpt lat="45.7749512" lon="10.0004167"><ele>588.0</ele><time>2026-04-25T15:51:11.316Z</time></trkpt><trkpt lat="45.7748908" lon="10.0003801"><ele>591.5</ele><time>2026-04-25T15:51:12.317Z</time></trkpt><trkpt lat="45.7748232" lon="10.000347"><ele>595.0</ele><time>2026-04-25T15:51:14.317Z</time></trkpt><trkpt lat="45.7747426" lon="10.0003157"><ele>595.0</ele><time>2026-04-25T15:51:24.317Z</time></trkpt><trkpt lat="45.7748183" lon="10.0003207"><ele>595.0</ele><time>2026-04-25T15:51:50.317Z</time></trkpt><trkpt lat="45.7748837" lon="10.0003588"><ele>595.0</ele><time>2026-04-25T15:51:52.317Z</time></trkpt><trkpt lat="45.7749535" lon="10.0004292"><ele>595.0</ele><time>2026-04-25T15:51:55.317Z</time></trkpt><trkpt lat="45.7750127" lon="10.0005033"><ele>595.0</ele><time>2026-04-25T15:51:58.317Z</time></trkpt><trkpt lat="45.7750787" lon="10.000584"><ele>595.0</ele><time>2026-04-25T15:52:01.318Z</time></trkpt><trkpt lat="45.7751446" lon="10.0006789"><ele>590.8</ele><time>2026-04-25T15:52:03.317Z</time></trkpt><trkpt lat="45.7752109" lon="10.0008066"><ele>586.6</ele><time>2026-04-25T15:52:05.317Z</time></trkpt><trkpt lat="45.7752725" lon="10.0009219"><ele>582.4</ele><time>2026-04-25T15:52:07.316Z</time></trkpt><trkpt lat="45.7753476" lon="10.0010643"><ele>578.2</ele><time>2026-04-25T15:52:09.316Z</time></trkpt><trkpt lat="45.7754154" lon="10.0011685"><ele>574.0</ele><time>2026-04-25T15:52:11.317Z</time></trkpt><trkpt lat="45.7754772" lon="10.0012466"><ele>574.0</ele><time>2026-04-25T15:52:13.317Z</time></trkpt><trkpt lat="45.7755492" lon="10.0012665"><ele>574.0</ele><time>2026-04-25T15:52:43.316Z</time></trkpt><trkpt lat="45.7756152" lon="10.0012764"><ele>574.0</ele><time>2026-04-25T15:52:49.316Z</time></trkpt><trkpt lat="45.7756704" lon="10.0013465"><ele>574.0</ele><time>2026-04-25T15:53:56.316Z</time></trkpt><trkpt lat="45.7757456" lon="10.0013577"><ele>574.0</ele><time>2026-04-25T15:55:13.316Z</time></trkpt><trkpt lat="45.7758199" lon="10.0013798"><ele>574.0</ele><time>2026-04-25T15:55:16.317Z</time></trkpt><trkpt lat="45.775753" lon="10.0013681"><ele>574.0</ele><time>2026-04-25T15:55:36.317Z</time></trkpt><trkpt lat="45.7756706" lon="10.0013285"><ele>574.0</ele><time>2026-04-25T15:55:38.317Z</time></trkpt><trkpt lat="45.7756046" lon="10.0012907"><ele>574.0</ele><time>2026-04-25T15:55:40.316Z</time></trkpt><trkpt lat="45.7755252" lon="10.0013246"><ele>574.0</ele><time>2026-04-25T15:55:43.317Z</time></trkpt><trkpt lat="45.7755093" lon="10.0014678"><ele>574.0</ele><time>2026-04-25T15:55:46.316Z</time></trkpt><trkpt lat="45.7754874" lon="10.0015715"><ele>574.0</ele><time>2026-04-25T15:55:48.316Z</time></trkpt><trkpt lat="45.7754662" lon="10.0016611"><ele>574.0</ele><time>2026-04-25T15:55:50.315Z</time></trkpt><trkpt lat="45.7754683" lon="10.0017905"><ele>576.6666666666667</ele><time>2026-04-25T15:55:53.316Z</time></trkpt><trkpt lat="45.7755231" lon="10.0019096"><ele>579.3333333333334</ele><time>2026-04-25T15:55:55.317Z</time></trkpt><trkpt lat="45.7755491" lon="10.0020398"><ele>582.0</ele><time>2026-04-25T15:55:57.315Z</time></trkpt><trkpt lat="45.7755511" lon="10.0021342"><ele>584.6666666666666</ele><time>2026-04-25T15:55:59.317Z</time></trkpt><trkpt lat="45.7755476" lon="10.0022272"><ele>587.3333333333333</ele><time>2026-04-25T15:56:01.316Z</time></trkpt><trkpt lat="45.7755334" lon="10.0023154"><ele>590.0</ele><time>2026-04-25T15:56:03.317Z</time></trkpt><trkpt lat="45.7755345" lon="10.002421"><ele>592.1666666666666</ele><time>2026-04-25T15:56:04.317Z</time></trkpt><trkpt lat="45.7755417" lon="10.002526"><ele>594.3333333333333</ele><time>2026-04-25T15:56:05.317Z</time></trkpt><trkpt lat="45.7755312" lon="10.0026283"><ele>596.5</ele><time>2026-04-25T15:56:07.316Z</time></trkpt><trkpt lat="45.775541" lon="10.0027639"><ele>598.6666666666666</ele><time>2026-04-25T15:56:09.316Z</time></trkpt><trkpt lat="45.7755547" lon="10.0028676"><ele>600.8333333333334</ele><time>2026-04-25T15:56:11.317Z</time></trkpt><trkpt lat="45.7755611" lon="10.0029949"><ele>603.0</ele><time>2026-04-25T15:56:13.317Z</time></trkpt><trkpt lat="45.7755639" lon="10.0031014"><ele>603.0</ele><time>2026-04-25T15:56:15.316Z</time></trkpt><trkpt lat="45.775549" lon="10.0032281"><ele>603.0</ele><time>2026-04-25T15:56:17.316Z</time></trkpt><trkpt lat="45.7755323" lon="10.0033673"><ele>603.0</ele><time>2026-04-25T15:56:19.316Z</time></trkpt><trkpt lat="45.775504" lon="10.0035172"><ele>603.0</ele><time>2026-04-25T15:56:21.317Z</time></trkpt><trkpt lat="45.7754972" lon="10.0036184"><ele>603.0</ele><time>2026-04-25T15:56:22.315Z</time></trkpt><trkpt lat="45.7755173" lon="10.0037392"><ele>603.1666666666666</ele><time>2026-04-25T15:56:23.316Z</time></trkpt><trkpt lat="45.7755072" lon="10.0038331"><ele>603.3333333333334</ele><time>2026-04-25T15:56:24.317Z</time></trkpt><trkpt lat="45.7754943" lon="10.0039796"><ele>603.5</ele><time>2026-04-25T15:56:26.317Z</time></trkpt><trkpt lat="45.7754816" lon="10.0040796"><ele>603.6666666666667</ele><time>2026-04-25T15:56:28.315Z</time></trkpt><trkpt lat="45.7754808" lon="10.0041739"><ele>603.8333333333334</ele><time>2026-04-25T15:56:29.317Z</time></trkpt><trkpt lat="45.7754145" lon="10.0042835"><ele>604.0</ele><time>2026-04-25T15:56:31.317Z</time></trkpt><trkpt lat="45.7753678" lon="10.0044091"><ele>604.0</ele><time>2026-04-25T15:56:33.317Z</time></trkpt><trkpt lat="45.7753688" lon="10.0046003"><ele>604.0</ele><time>2026-04-25T15:56:35.316Z</time></trkpt><trkpt lat="45.7753636" lon="10.0047534"><ele>604.0</ele><time>2026-04-25T15:56:37.317Z</time></trkpt><trkpt lat="45.7753115" lon="10.0048717"><ele>604.0</ele><time>2026-04-25T15:56:39.317Z</time></trkpt><trkpt lat="45.7752853" lon="10.0049827"><ele>604.0</ele><time>2026-04-25T15:56:40.317Z</time></trkpt><trkpt lat="45.7752547" lon="10.0051211"><ele>603.6</ele><time>2026-04-25T15:56:42.317Z</time></trkpt><trkpt lat="45.775228" lon="10.0052325"><ele>603.2</ele><time>2026-04-25T15:56:44.317Z</time></trkpt><trkpt lat="45.7751818" lon="10.0053013"><ele>602.8000000000001</ele><time>2026-04-25T15:56:45.316Z</time></trkpt><trkpt lat="45.7750903" lon="10.0053765"><ele>602.4</ele><time>2026-04-25T15:56:47.317Z</time></trkpt><trkpt lat="45.7749696" lon="10.0054355"><ele>602.0</ele><time>2026-04-25T15:56:49.317Z</time></trkpt><trkpt lat="45.7748685" lon="10.0055211"><ele>607.8000000000001</ele><time>2026-04-25T15:56:51.317Z</time></trkpt><trkpt lat="45.7748435" lon="10.0056047"><ele>613.6</ele><time>2026-04-25T15:56:52.316Z</time></trkpt><trkpt lat="45.7748055" lon="10.005726"><ele>619.4000000000001</ele><time>2026-04-25T15:56:54.318Z</time></trkpt><trkpt lat="45.7747293" lon="10.0058361"><ele>625.2</ele><time>2026-04-25T15:56:56.317Z</time></trkpt><trkpt lat="45.7746826" lon="10.0059469"><ele>631.0</ele><time>2026-04-25T15:56:58.315Z</time></trkpt><trkpt lat="45.7746075" lon="10.006095"><ele>631.0</ele><time>2026-04-25T15:57:00.316Z</time></trkpt><trkpt lat="45.7745087" lon="10.0061985"><ele>631.0</ele><time>2026-04-25T15:57:02.316Z</time></trkpt><trkpt lat="45.7744232" lon="10.0063176"><ele>631.0</ele><time>2026-04-25T15:57:04.316Z</time></trkpt><trkpt lat="45.7743505" lon="10.0063579"><ele>631.0</ele><time>2026-04-25T15:57:05.316Z</time></trkpt><trkpt lat="45.7742595" lon="10.006431"><ele>631.0</ele><time>2026-04-25T15:57:07.318Z</time></trkpt><trkpt lat="45.7741929" lon="10.0064789"><ele>635.8</ele><time>2026-04-25T15:57:08.316Z</time></trkpt><trkpt lat="45.774125" lon="10.0065774"><ele>640.6</ele><time>2026-04-25T15:57:10.317Z</time></trkpt><trkpt lat="45.7740648" lon="10.0066559"><ele>645.4</ele><time>2026-04-25T15:57:12.317Z</time></trkpt><trkpt lat="45.7739737" lon="10.0067231"><ele>650.2</ele><time>2026-04-25T15:57:14.316Z</time></trkpt><trkpt lat="45.7739091" lon="10.0067976"><ele>655.0</ele><time>2026-04-25T15:57:16.317Z</time></trkpt><trkpt lat="45.7738066" lon="10.0069135"><ele>655.0</ele><time>2026-04-25T15:57:19.316Z</time></trkpt><trkpt lat="45.7737041" lon="10.0069745"><ele>655.0</ele><time>2026-04-25T15:57:21.317Z</time></trkpt><trkpt lat="45.773669" lon="10.0070528"><ele>655.0</ele><time>2026-04-25T15:57:23.316Z</time></trkpt><trkpt lat="45.7736313" lon="10.007159"><ele>655.0</ele><time>2026-04-25T15:57:25.318Z</time></trkpt><trkpt lat="45.7736512" lon="10.0072493"><ele>655.0</ele><time>2026-04-25T15:57:27.316Z</time></trkpt><trkpt lat="45.7736463" lon="10.0074056"><ele>655.0</ele><time>2026-04-25T15:57:29.317Z</time></trkpt><trkpt lat="45.7736213" lon="10.0074965"><ele>656.5</ele><time>2026-04-25T15:57:30.315Z</time></trkpt><trkpt lat="45.7735989" lon="10.0075809"><ele>658.0</ele><time>2026-04-25T15:57:31.317Z</time></trkpt><trkpt lat="45.7735602" lon="10.0076833"><ele>659.5</ele><time>2026-04-25T15:57:33.316Z</time></trkpt><trkpt lat="45.7735168" lon="10.0078044"><ele>661.0</ele><time>2026-04-25T15:57:35.317Z</time></trkpt><trkpt lat="45.7734673" lon="10.007879"><ele>662.5</ele><time>2026-04-25T15:57:39.316Z</time></trkpt><trkpt lat="45.773392" lon="10.0078769"><ele>664.0</ele><time>2026-04-25T15:57:42.317Z</time></trkpt><trkpt lat="45.7733312" lon="10.0078453"><ele>664.0</ele><time>2026-04-25T15:57:45.317Z</time></trkpt><trkpt lat="45.7732629" lon="10.0077797"><ele>664.0</ele><time>2026-04-25T15:57:48.316Z</time></trkpt><trkpt lat="45.7731989" lon="10.0078053"><ele>664.0</ele><time>2026-04-25T15:57:51.316Z</time></trkpt><trkpt lat="45.7731732" lon="10.0078892"><ele>664.0</ele><time>2026-04-25T15:57:53.316Z</time></trkpt><trkpt lat="45.773182" lon="10.0079953"><ele>664.0</ele><time>2026-04-25T15:57:55.317Z</time></trkpt><trkpt lat="45.7731935" lon="10.0080981"><ele>664.0</ele><time>2026-04-25T15:57:57.316Z</time></trkpt><trkpt lat="45.7731844" lon="10.0082153"><ele>664.0</ele><time>2026-04-25T15:57:59.315Z</time></trkpt><trkpt lat="45.7731958" lon="10.0083516"><ele>662.5</ele><time>2026-04-25T15:58:01.317Z</time></trkpt><trkpt lat="45.773261" lon="10.0084523"><ele>661.0</ele><time>2026-04-25T15:58:03.316Z</time></trkpt><trkpt lat="45.7733203" lon="10.0085443"><ele>659.5</ele><time>2026-04-25T15:58:05.316Z</time></trkpt><trkpt lat="45.7733785" lon="10.0086419"><ele>658.0</ele><time>2026-04-25T15:58:07.317Z</time></trkpt><trkpt lat="45.773439" lon="10.0087138"><ele>656.5</ele><time>2026-04-25T15:58:09.315Z</time></trkpt><trkpt lat="45.7734888" lon="10.008798"><ele>655.0</ele><time>2026-04-25T15:58:11.317Z</time></trkpt><trkpt lat="45.7735357" lon="10.0088983"><ele>651.6666666666667</ele><time>2026-04-25T15:58:13.316Z</time></trkpt><trkpt lat="45.7735803" lon="10.0089914"><ele>648.3333333333334</ele><time>2026-04-25T15:58:15.316Z</time></trkpt><trkpt lat="45.7736273" lon="10.0090933"><ele>645.0</ele><time>2026-04-25T15:58:18.316Z</time></trkpt><trkpt lat="45.773664" lon="10.0092559"><ele>641.6666666666666</ele><time>2026-04-25T15:59:47.316Z</time></trkpt><trkpt lat="45.7736858" lon="10.0093422"><ele>638.3333333333333</ele><time>2026-04-25T15:59:49.316Z</time></trkpt><trkpt lat="45.773706" lon="10.0094551"><ele>635.0</ele><time>2026-04-25T15:59:51.315Z</time></trkpt><trkpt lat="45.7737402" lon="10.0095831"><ele>634.3333333333333</ele><time>2026-04-25T15:59:53.316Z</time></trkpt><trkpt lat="45.7737615" lon="10.0097096"><ele>633.6666666666666</ele><time>2026-04-25T15:59:55.315Z</time></trkpt><trkpt lat="45.7737913" lon="10.0098142"><ele>633.0</ele><time>2026-04-25T15:59:57.316Z</time></trkpt><trkpt lat="45.7738527" lon="10.0098831"><ele>632.3333333333334</ele><time>2026-04-25T16:00:01.317Z</time></trkpt><trkpt lat="45.7738919" lon="10.0099934"><ele>631.6666666666667</ele><time>2026-04-25T16:00:04.316Z</time></trkpt><trkpt lat="45.7739131" lon="10.0100991"><ele>631.0</ele><time>2026-04-25T16:00:06.316Z</time></trkpt><trkpt lat="45.7739388" lon="10.0102175"><ele>631.0</ele><time>2026-04-25T16:00:08.329Z</time></trkpt><trkpt lat="45.7739821" lon="10.0103604"><ele>631.0</ele><time>2026-04-25T16:00:10.316Z</time></trkpt><trkpt lat="45.7740094" lon="10.0104445"><ele>631.0</ele><time>2026-04-25T16:00:11.316Z</time></trkpt><trkpt lat="45.7740216" lon="10.0105646"><ele>631.0</ele><time>2026-04-25T16:00:13.316Z</time></trkpt><trkpt lat="45.7740202" lon="10.0107002"><ele>631.0</ele><time>2026-04-25T16:00:15.316Z</time></trkpt><trkpt lat="45.7740282" lon="10.0108211"><ele>631.0</ele><time>2026-04-25T16:00:17.316Z</time></trkpt><trkpt lat="45.774018" lon="10.0109183"><ele>630.4</ele><time>2026-04-25T16:00:21.317Z</time></trkpt><trkpt lat="45.7740034" lon="10.0110357"><ele>629.8</ele><time>2026-04-25T16:00:25.316Z</time></trkpt><trkpt lat="45.7739812" lon="10.0111622"><ele>629.1999999999999</ele><time>2026-04-25T16:00:28.316Z</time></trkpt><trkpt lat="45.7739695" lon="10.0112843"><ele>628.6</ele><time>2026-04-25T16:00:31.316Z</time></trkpt><trkpt lat="45.7739742" lon="10.011423"><ele>628.0</ele><time>2026-04-25T16:00:33.315Z</time></trkpt><trkpt lat="45.7739864" lon="10.0115664"><ele>628.0</ele><time>2026-04-25T16:00:34.317Z</time></trkpt><trkpt lat="45.7740053" lon="10.0117237"><ele>628.0</ele><time>2026-04-25T16:00:36.316Z</time></trkpt><trkpt lat="45.7739877" lon="10.0118131"><ele>628.0</ele><time>2026-04-25T16:00:39.317Z</time></trkpt><trkpt lat="45.773921" lon="10.0117569"><ele>628.0</ele><time>2026-04-25T16:00:41.317Z</time></trkpt><trkpt lat="45.7738351" lon="10.0116617"><ele>628.0</ele><time>2026-04-25T16:00:43.316Z</time></trkpt><trkpt lat="45.7737607" lon="10.0115534"><ele>628.0</ele><time>2026-04-25T16:00:45.316Z</time></trkpt><trkpt lat="45.7736784" lon="10.0114545"><ele>628.0</ele><time>2026-04-25T16:00:47.316Z</time></trkpt><trkpt lat="45.7736083" lon="10.0113609"><ele>628.0</ele><time>2026-04-25T16:00:49.315Z</time></trkpt><trkpt lat="45.7735735" lon="10.011198"><ele>628.0</ele><time>2026-04-25T16:00:51.317Z</time></trkpt><trkpt lat="45.7735816" lon="10.0111008"><ele>628.0</ele><time>2026-04-25T16:00:52.317Z</time></trkpt><trkpt lat="45.7735883" lon="10.010997"><ele>628.0</ele><time>2026-04-25T16:00:53.318Z</time></trkpt><trkpt lat="45.7735886" lon="10.0108908"><ele>628.0</ele><time>2026-04-25T16:00:54.316Z</time></trkpt><trkpt lat="45.7735921" lon="10.0107973"><ele>628.0</ele><time>2026-04-25T16:00:55.316Z</time></trkpt><trkpt lat="45.7736026" lon="10.0106947"><ele>628.0</ele><time>2026-04-25T16:00:56.317Z</time></trkpt><trkpt lat="45.773605" lon="10.0105929"><ele>628.0</ele><time>2026-04-25T16:00:57.315Z</time></trkpt><trkpt lat="45.7736115" lon="10.0104907"><ele>628.0</ele><time>2026-04-25T16:00:58.317Z</time></trkpt><trkpt lat="45.7735903" lon="10.0103169"><ele>632.8</ele><time>2026-04-25T16:01:00.316Z</time></trkpt><trkpt lat="45.7735084" lon="10.0102327"><ele>637.5999999999999</ele><time>2026-04-25T16:01:02.316Z</time></trkpt><trkpt lat="45.7734063" lon="10.0102841"><ele>642.4000000000001</ele><time>2026-04-25T16:01:04.315Z</time></trkpt><trkpt lat="45.7733368" lon="10.010426"><ele>647.2</ele><time>2026-04-25T16:01:06.316Z</time></trkpt><trkpt lat="45.7733062" lon="10.0105117"><ele>652.0</ele><time>2026-04-25T16:01:07.317Z</time></trkpt><trkpt lat="45.7732737" lon="10.0105961"><ele>652.0</ele><time>2026-04-25T16:01:08.316Z</time></trkpt><trkpt lat="45.7732438" lon="10.0106822"><ele>652.0</ele><time>2026-04-25T16:01:09.316Z</time></trkpt><trkpt lat="45.7731827" lon="10.0108435"><ele>652.0</ele><time>2026-04-25T16:01:11.317Z</time></trkpt><trkpt lat="45.7731501" lon="10.0109269"><ele>652.0</ele><time>2026-04-25T16:01:12.316Z</time></trkpt><trkpt lat="45.7731186" lon="10.01101"><ele>652.0</ele><time>2026-04-25T16:01:13.317Z</time></trkpt><trkpt lat="45.7730879" lon="10.0111041"><ele>652.0</ele><time>2026-04-25T16:01:14.317Z</time></trkpt><trkpt lat="45.7730605" lon="10.0111865"><ele>651.6666666666667</ele><time>2026-04-25T16:01:15.318Z</time></trkpt><trkpt lat="45.773035" lon="10.0112752"><ele>651.3333333333334</ele><time>2026-04-25T16:01:16.315Z</time></trkpt><trkpt lat="45.7730112" lon="10.0113647"><ele>651.0</ele><time>2026-04-25T16:01:17.317Z</time></trkpt><trkpt lat="45.7729866" lon="10.0114576"><ele>650.6666666666666</ele><time>2026-04-25T16:01:18.316Z</time></trkpt><trkpt lat="45.772944" lon="10.011628"><ele>650.3333333333333</ele><time>2026-04-25T16:01:20.316Z</time></trkpt><trkpt lat="45.7729229" lon="10.0117184"><ele>650.0</ele><time>2026-04-25T16:01:21.316Z</time></trkpt><trkpt lat="45.7729076" lon="10.0118112"><ele>650.0</ele><time>2026-04-25T16:01:22.315Z</time></trkpt><trkpt lat="45.7728987" lon="10.0119122"><ele>650.0</ele><time>2026-04-25T16:01:23.317Z</time></trkpt><trkpt lat="45.7729011" lon="10.0120102"><ele>650.0</ele><time>2026-04-25T16:01:24.316Z</time></trkpt><trkpt lat="45.7729108" lon="10.0121066"><ele>650.0</ele><time>2026-04-25T16:01:25.316Z</time></trkpt><trkpt lat="45.7729383" lon="10.012196"><ele>650.0</ele><time>2026-04-25T16:01:26.316Z</time></trkpt><trkpt lat="45.7729945" lon="10.0122769"><ele>650.0</ele><time>2026-04-25T16:01:27.316Z</time></trkpt><trkpt lat="45.7730306" lon="10.0123514"><ele>650.0</ele><time>2026-04-25T16:01:28.316Z</time></trkpt><trkpt lat="45.7730413" lon="10.0125855"><ele>651.8</ele><time>2026-04-25T16:01:31.315Z</time></trkpt><trkpt lat="45.7729603" lon="10.0127093"><ele>653.6</ele><time>2026-04-25T16:01:33.316Z</time></trkpt><trkpt lat="45.7728855" lon="10.0128631"><ele>655.4000000000001</ele><time>2026-04-25T16:01:35.316Z</time></trkpt><trkpt lat="45.7728514" lon="10.0129498"><ele>657.2</ele><time>2026-04-25T16:01:36.316Z</time></trkpt><trkpt lat="45.7728221" lon="10.0130361"><ele>659.0</ele><time>2026-04-25T16:01:37.317Z</time></trkpt><trkpt lat="45.7727934" lon="10.0131241"><ele>659.0</ele><time>2026-04-25T16:01:38.316Z</time></trkpt><trkpt lat="45.7727699" lon="10.0132123"><ele>659.0</ele><time>2026-04-25T16:01:39.316Z</time></trkpt><trkpt lat="45.7727419" lon="10.0133047"><ele>659.0</ele><time>2026-04-25T16:01:40.316Z</time></trkpt><trkpt lat="45.7727169" lon="10.0133956"><ele>659.0</ele><time>2026-04-25T16:01:41.316Z</time></trkpt><trkpt lat="45.7726905" lon="10.0134838"><ele>659.0</ele><time>2026-04-25T16:01:42.315Z</time></trkpt><trkpt lat="45.7726607" lon="10.0135675"><ele>659.0</ele><time>2026-04-25T16:01:43.316Z</time></trkpt><trkpt lat="45.7726267" lon="10.0136541"><ele>659.0</ele><time>2026-04-25T16:01:44.316Z</time></trkpt><trkpt lat="45.7725873" lon="10.0137552"><ele>664.0</ele><time>2026-04-25T16:01:45.316Z</time></trkpt><trkpt lat="45.7725492" lon="10.0138351"><ele>669.0</ele><time>2026-04-25T16:01:46.316Z</time></trkpt><trkpt lat="45.772509" lon="10.0139116"><ele>674.0</ele><time>2026-04-25T16:01:47.316Z</time></trkpt><trkpt lat="45.7724658" lon="10.0139895"><ele>679.0</ele><time>2026-04-25T16:01:48.315Z</time></trkpt><trkpt lat="45.7724212" lon="10.0140596"><ele>684.0</ele><time>2026-04-25T16:01:49.316Z</time></trkpt><trkpt lat="45.7723441" lon="10.0142169"><ele>689.0</ele><time>2026-04-25T16:01:51.317Z</time></trkpt><trkpt lat="45.7723224" lon="10.0143063"><ele>689.0</ele><time>2026-04-25T16:01:52.316Z</time></trkpt><trkpt lat="45.77229" lon="10.0143948"><ele>689.0</ele><time>2026-04-25T16:01:53.316Z</time></trkpt><trkpt lat="45.7722141" lon="10.014549"><ele>689.0</ele><time>2026-04-25T16:01:55.316Z</time></trkpt><trkpt lat="45.7721046" lon="10.0146374"><ele>689.0</ele><time>2026-04-25T16:01:57.317Z</time></trkpt><trkpt lat="45.7719861" lon="10.014656"><ele>689.0</ele><time>2026-04-25T16:01:59.317Z</time></trkpt><trkpt lat="45.7719012" lon="10.0146548"><ele>694.6</ele><time>2026-04-25T16:02:01.316Z</time></trkpt><trkpt lat="45.7718307" lon="10.0146678"><ele>700.2</ele><time>2026-04-25T16:03:26.315Z</time></trkpt><trkpt lat="45.7718213" lon="10.014514"><ele>705.8000000000001</ele><time>2026-04-25T16:03:29.315Z</time></trkpt><trkpt lat="45.7718162" lon="10.0143379"><ele>711.4000000000001</ele><time>2026-04-25T16:03:31.316Z</time></trkpt><trkpt lat="45.7718208" lon="10.0141872"><ele>717.0</ele><time>2026-04-25T16:03:33.316Z</time></trkpt><trkpt lat="45.7717713" lon="10.0140626"><ele>719.0</ele><time>2026-04-25T16:03:35.316Z</time></trkpt><trkpt lat="45.771699" lon="10.0139621"><ele>721.0</ele><time>2026-04-25T16:03:37.316Z</time></trkpt><trkpt lat="45.7716513" lon="10.0138087"><ele>723.0</ele><time>2026-04-25T16:03:39.316Z</time></trkpt><trkpt lat="45.7716178" lon="10.0136543"><ele>725.0</ele><time>2026-04-25T16:03:41.316Z</time></trkpt><trkpt lat="45.7715853" lon="10.0134889"><ele>726.5</ele><time>2026-04-25T16:03:43.317Z</time></trkpt><trkpt lat="45.7715603" lon="10.0133201"><ele>728.0</ele><time>2026-04-25T16:03:45.316Z</time></trkpt><trkpt lat="45.7715375" lon="10.0131673"><ele>729.5</ele><time>2026-04-25T16:03:47.316Z</time></trkpt><trkpt lat="45.7714978" lon="10.0130117"><ele>731.0</ele><time>2026-04-25T16:03:49.316Z</time></trkpt><trkpt lat="45.7714369" lon="10.0128485"><ele>731.0</ele><time>2026-04-25T16:03:51.316Z</time></trkpt><trkpt lat="45.7714018" lon="10.0126978"><ele>731.0</ele><time>2026-04-25T16:03:53.316Z</time></trkpt><trkpt lat="45.7713348" lon="10.0126554"><ele>731.0</ele><time>2026-04-25T16:03:56.316Z</time></trkpt><trkpt lat="45.7712922" lon="10.0127399"><ele>731.0</ele><time>2026-04-25T16:03:58.317Z</time></trkpt><trkpt lat="45.7712446" lon="10.0128187"><ele>731.0</ele><time>2026-04-25T16:05:57.316Z</time></trkpt><trkpt lat="45.7712039" lon="10.0129017"><ele>731.0</ele><time>2026-04-25T16:06:00.316Z</time></trkpt><trkpt lat="45.7711208" lon="10.0130049"><ele>731.0</ele><time>2026-04-25T16:06:02.316Z</time></trkpt><trkpt lat="45.7710298" lon="10.0131063"><ele>731.0</ele><time>2026-04-25T16:06:04.316Z</time></trkpt><trkpt lat="45.7709321" lon="10.0132094"><ele>731.0</ele><time>2026-04-25T16:06:06.316Z</time></trkpt><trkpt lat="45.7708613" lon="10.0133131"><ele>731.0</ele><time>2026-04-25T16:06:08.316Z</time></trkpt><trkpt lat="45.7707824" lon="10.0134084"><ele>731.0</ele><time>2026-04-25T16:06:10.316Z</time></trkpt><trkpt lat="45.7707226" lon="10.0134974"><ele>737.3333333333333</ele><time>2026-04-25T16:06:12.316Z</time></trkpt><trkpt lat="45.7706612" lon="10.013573"><ele>743.6666666666666</ele><time>2026-04-25T16:06:15.315Z</time></trkpt><trkpt lat="45.7706075" lon="10.0136334"><ele>750.0</ele><time>2026-04-25T16:06:21.316Z</time></trkpt><trkpt lat="45.7705649" lon="10.0137531"><ele>756.3333333333333</ele><time>2026-04-25T16:06:23.315Z</time></trkpt><trkpt lat="45.770512" lon="10.0138059"><ele>762.6666666666666</ele><time>2026-04-25T16:06:24.316Z</time></trkpt><trkpt lat="45.7704451" lon="10.013938"><ele>769.0</ele><time>2026-04-25T16:06:26.316Z</time></trkpt><trkpt lat="45.7703782" lon="10.0140569"><ele>766.6</ele><time>2026-04-25T16:06:28.317Z</time></trkpt><trkpt lat="45.7703327" lon="10.0141994"><ele>764.2</ele><time>2026-04-25T16:06:30.315Z</time></trkpt><trkpt lat="45.7702877" lon="10.0143382"><ele>761.8000000000001</ele><time>2026-04-25T16:06:32.316Z</time></trkpt><trkpt lat="45.7702408" lon="10.0144806"><ele>759.4000000000001</ele><time>2026-04-25T16:06:34.315Z</time></trkpt><trkpt lat="45.770172" lon="10.0146129"><ele>757.0</ele><time>2026-04-25T16:06:36.315Z</time></trkpt><trkpt lat="45.7701148" lon="10.0146834"><ele>757.0</ele><time>2026-04-25T16:06:38.316Z</time></trkpt><trkpt lat="45.7700793" lon="10.0147876"><ele>757.0</ele><time>2026-04-25T16:06:41.316Z</time></trkpt><trkpt lat="45.7700555" lon="10.0148775"><ele>757.0</ele><time>2026-04-25T16:06:43.316Z</time></trkpt><trkpt lat="45.7701179" lon="10.0148199"><ele>757.0</ele><time>2026-04-25T16:08:00.316Z</time></trkpt><trkpt lat="45.7701956" lon="10.0147661"><ele>757.0</ele><time>2026-04-25T16:08:03.316Z</time></trkpt><trkpt lat="45.7702792" lon="10.0147331"><ele>757.0</ele><time>2026-04-25T16:08:06.316Z</time></trkpt><trkpt lat="45.770331" lon="10.0146662"><ele>757.0</ele><time>2026-04-25T16:08:08.315Z</time></trkpt><trkpt lat="45.7703717" lon="10.0145551"><ele>757.0</ele><time>2026-04-25T16:08:10.316Z</time></trkpt><trkpt lat="45.7704035" lon="10.0144139"><ele>757.0</ele><time>2026-04-25T16:08:12.316Z</time></trkpt><trkpt lat="45.7704423" lon="10.0142721"><ele>757.0</ele><time>2026-04-25T16:08:14.315Z</time></trkpt><trkpt lat="45.7704781" lon="10.0141696"><ele>757.0</ele><time>2026-04-25T16:08:16.316Z</time></trkpt><trkpt lat="45.7705241" lon="10.0140601"><ele>759.4000000000001</ele><time>2026-04-25T16:08:18.315Z</time></trkpt><trkpt lat="45.7705752" lon="10.0139829"><ele>761.8000000000001</ele><time>2026-04-25T16:08:19.315Z</time></trkpt><trkpt lat="45.7706545" lon="10.0138534"><ele>764.2</ele><time>2026-04-25T16:08:21.316Z</time></trkpt><trkpt lat="45.770725" lon="10.013749"><ele>766.6</ele><time>2026-04-25T16:08:23.316Z</time></trkpt><trkpt lat="45.7708028" lon="10.013621"><ele>769.0</ele><time>2026-04-25T16:08:25.316Z</time></trkpt><trkpt lat="45.7708876" lon="10.0135342"><ele>769.0</ele><time>2026-04-25T16:08:27.316Z</time></trkpt><trkpt lat="45.7709878" lon="10.0134452"><ele>769.0</ele><time>2026-04-25T16:08:29.315Z</time></trkpt><trkpt lat="45.7710577" lon="10.0133292"><ele>769.0</ele><time>2026-04-25T16:08:31.316Z</time></trkpt><trkpt lat="45.7711181" lon="10.0132352"><ele>769.0</ele><time>2026-04-25T16:08:33.315Z</time></trkpt><trkpt lat="45.7711759" lon="10.013143"><ele>769.0</ele><time>2026-04-25T16:08:35.316Z</time></trkpt><trkpt lat="45.7712147" lon="10.0130375"><ele>764.2857142857142</ele><time>2026-04-25T16:08:37.316Z</time></trkpt><trkpt lat="45.7712721" lon="10.0129475"><ele>759.5714285714287</ele><time>2026-04-25T16:08:44.315Z</time></trkpt><trkpt lat="45.7713144" lon="10.0128721"><ele>754.8571428571429</ele><time>2026-04-25T16:10:05.316Z</time></trkpt><trkpt lat="45.7712862" lon="10.0127683"><ele>750.1428571428571</ele><time>2026-04-25T16:11:08.315Z</time></trkpt><trkpt lat="45.7713366" lon="10.0127009"><ele>745.4285714285713</ele><time>2026-04-25T16:11:25.316Z</time></trkpt><trkpt lat="45.7713812" lon="10.0126107"><ele>740.7142857142858</ele><time>2026-04-25T16:11:28.316Z</time></trkpt><trkpt lat="45.7714138" lon="10.0125228"><ele>736.0</ele><time>2026-04-25T16:11:30.316Z</time></trkpt><trkpt lat="45.7714319" lon="10.0123989"><ele>736.0</ele><time>2026-04-25T16:11:34.315Z</time></trkpt><trkpt lat="45.7714539" lon="10.0122781"><ele>736.0</ele><time>2026-04-25T16:11:37.315Z</time></trkpt><trkpt lat="45.7714523" lon="10.0121867"><ele>736.0</ele><time>2026-04-25T16:11:39.315Z</time></trkpt><trkpt lat="45.7714572" lon="10.0120669"><ele>736.0</ele><time>2026-04-25T16:11:42.316Z</time></trkpt><trkpt lat="45.7714481" lon="10.0119701"><ele>736.0</ele><time>2026-04-25T16:11:45.315Z</time></trkpt><trkpt lat="45.7714354" lon="10.0118749"><ele>736.0</ele><time>2026-04-25T16:11:49.317Z</time></trkpt><trkpt lat="45.7713943" lon="10.0118031"><ele>736.0</ele><time>2026-04-25T16:11:52.315Z</time></trkpt><trkpt lat="45.7713514" lon="10.0117149"><ele>736.2857142857143</ele><time>2026-04-25T16:11:56.314Z</time></trkpt><trkpt lat="45.7713056" lon="10.0116314"><ele>736.5714285714286</ele><time>2026-04-25T16:11:59.316Z</time></trkpt><trkpt lat="45.7712694" lon="10.0115515"><ele>736.8571428571429</ele><time>2026-04-25T16:12:02.314Z</time></trkpt><trkpt lat="45.7712798" lon="10.0114419"><ele>737.1428571428571</ele><time>2026-04-25T16:12:05.316Z</time></trkpt><trkpt lat="45.7712965" lon="10.0113523"><ele>737.4285714285713</ele><time>2026-04-25T16:12:22.316Z</time></trkpt><trkpt lat="45.7712754" lon="10.0112271"><ele>737.7142857142857</ele><time>2026-04-25T16:12:28.315Z</time></trkpt><trkpt lat="45.7712697" lon="10.0111215"><ele>738.0</ele><time>2026-04-25T16:12:32.316Z</time></trkpt><trkpt lat="45.7712533" lon="10.0110071"><ele>738.0</ele><time>2026-04-25T16:12:36.317Z</time></trkpt><trkpt lat="45.7712302" lon="10.0109025"><ele>738.0</ele><time>2026-04-25T16:12:39.316Z</time></trkpt><trkpt lat="45.771182" lon="10.0108066"><ele>738.0</ele><time>2026-04-25T16:12:42.315Z</time></trkpt><trkpt lat="45.7711517" lon="10.010716"><ele>738.0</ele><time>2026-04-25T16:12:55.315Z</time></trkpt><trkpt lat="45.7711216" lon="10.0106258"><ele>738.0</ele><time>2026-04-25T16:12:59.317Z</time></trkpt><trkpt lat="45.7710785" lon="10.0105265"><ele>738.0</ele><time>2026-04-25T16:13:02.314Z</time></trkpt><trkpt lat="45.7710399" lon="10.0104484"><ele>738.0</ele><time>2026-04-25T16:13:04.314Z</time></trkpt><trkpt lat="45.770991" lon="10.0103546"><ele>738.4285714285714</ele><time>2026-04-25T16:13:07.315Z</time></trkpt><trkpt lat="45.77094" lon="10.0102791"><ele>738.8571428571429</ele><time>2026-04-25T16:13:10.316Z</time></trkpt><trkpt lat="45.7709927" lon="10.0103377"><ele>739.2857142857142</ele><time>2026-04-25T16:13:47.316Z</time></trkpt><trkpt lat="45.7710169" lon="10.0104274"><ele>739.7142857142858</ele><time>2026-04-25T16:13:50.314Z</time></trkpt><trkpt lat="45.7710402" lon="10.0105288"><ele>740.1428571428572</ele><time>2026-04-25T16:13:54.315Z</time></trkpt><trkpt lat="45.7710622" lon="10.0106421"><ele>740.5714285714286</ele><time>2026-04-25T16:13:58.315Z</time></trkpt><trkpt lat="45.7711152" lon="10.0107148"><ele>741.0</ele><time>2026-04-25T16:14:01.315Z</time></trkpt><trkpt lat="45.7711589" lon="10.0107802"><ele>740.5714285714286</ele><time>2026-04-25T16:14:05.315Z</time></trkpt><trkpt lat="45.7711697" lon="10.0108886"><ele>740.1428571428572</ele><time>2026-04-25T16:14:10.315Z</time></trkpt><trkpt lat="45.7711877" lon="10.010982"><ele>739.7142857142858</ele><time>2026-04-25T16:14:13.316Z</time></trkpt><trkpt lat="45.7712235" lon="10.0110736"><ele>739.2857142857142</ele><time>2026-04-25T16:14:17.316Z</time></trkpt><trkpt lat="45.7712366" lon="10.0111655"><ele>738.8571428571429</ele><time>2026-04-25T16:14:23.315Z</time></trkpt><trkpt lat="45.7712399" lon="10.0112689"><ele>738.4285714285714</ele><time>2026-04-25T16:14:28.316Z</time></trkpt><trkpt lat="45.7712303" lon="10.0113755"><ele>738.0</ele><time>2026-04-25T16:14:32.316Z</time></trkpt><trkpt lat="45.7712816" lon="10.0114821"><ele>738.0</ele><time>2026-04-25T16:14:35.316Z</time></trkpt><trkpt lat="45.7713292" lon="10.0115746"><ele>738.0</ele><time>2026-04-25T16:14:38.315Z</time></trkpt><trkpt lat="45.7713697" lon="10.0116593"><ele>738.0</ele><time>2026-04-25T16:14:42.315Z</time></trkpt><trkpt lat="45.7713749" lon="10.0117527"><ele>738.0</ele><time>2026-04-25T16:14:47.315Z</time></trkpt><trkpt lat="45.7713738" lon="10.0118498"><ele>738.0</ele><time>2026-04-25T16:14:50.316Z</time></trkpt><trkpt lat="45.771387" lon="10.011957"><ele>738.0</ele><time>2026-04-25T16:14:53.317Z</time></trkpt><trkpt lat="45.7713986" lon="10.0120658"><ele>738.0</ele><time>2026-04-25T16:14:58.315Z</time></trkpt><trkpt lat="45.7713844" lon="10.0121874"><ele>737.5999999999999</ele><time>2026-04-25T16:15:01.315Z</time></trkpt><trkpt lat="45.771363" lon="10.0122879"><ele>737.1999999999999</ele><time>2026-04-25T16:15:03.316Z</time></trkpt><trkpt lat="45.7713417" lon="10.0123951"><ele>736.8</ele><time>2026-04-25T16:15:05.315Z</time></trkpt><trkpt lat="45.7713634" lon="10.0125592"><ele>736.4</ele><time>2026-04-25T16:15:07.316Z</time></trkpt><trkpt lat="45.7713925" lon="10.0127072"><ele>736.0</ele><time>2026-04-25T16:15:09.315Z</time></trkpt><trkpt lat="45.7714367" lon="10.0128543"><ele>735.1666666666667</ele><time>2026-04-25T16:15:11.315Z</time></trkpt><trkpt lat="45.7714765" lon="10.0129851"><ele>734.3333333333334</ele><time>2026-04-25T16:15:13.316Z</time></trkpt><trkpt lat="45.7714982" lon="10.0131196"><ele>733.5</ele><time>2026-04-25T16:15:15.315Z</time></trkpt><trkpt lat="45.7714984" lon="10.0132697"><ele>732.6666666666666</ele><time>2026-04-25T16:15:17.314Z</time></trkpt><trkpt lat="45.7715207" lon="10.0133576"><ele>731.8333333333333</ele><time>2026-04-25T16:15:18.316Z</time></trkpt><trkpt lat="45.7715358" lon="10.0134464"><ele>731.0</ele><time>2026-04-25T16:15:19.314Z</time></trkpt><trkpt lat="45.7715525" lon="10.0136054"><ele>730.0</ele><time>2026-04-25T16:15:21.315Z</time></trkpt><trkpt lat="45.7715808" lon="10.0136984"><ele>729.0</ele><time>2026-04-25T16:15:22.316Z</time></trkpt><trkpt lat="45.7716129" lon="10.0137852"><ele>728.0</ele><time>2026-04-25T16:15:23.315Z</time></trkpt><trkpt lat="45.7716666" lon="10.0138905"><ele>727.0</ele><time>2026-04-25T16:15:25.315Z</time></trkpt><trkpt lat="45.7717296" lon="10.0140047"><ele>726.0</ele><time>2026-04-25T16:15:27.315Z</time></trkpt><trkpt lat="45.7717506" lon="10.0141091"><ele>725.0</ele><time>2026-04-25T16:15:29.316Z</time></trkpt><trkpt lat="45.771738" lon="10.0142273"><ele>723.6666666666666</ele><time>2026-04-25T16:15:31.315Z</time></trkpt><trkpt lat="45.7717273" lon="10.0143341"><ele>722.3333333333333</ele><time>2026-04-25T16:15:33.316Z</time></trkpt><trkpt lat="45.771734" lon="10.014437"><ele>721.0</ele><time>2026-04-25T16:15:35.315Z</time></trkpt><trkpt lat="45.7718164" lon="10.0145312"><ele>719.6666666666666</ele><time>2026-04-25T16:15:37.315Z</time></trkpt><trkpt lat="45.7718952" lon="10.0145369"><ele>718.3333333333334</ele><time>2026-04-25T16:15:39.315Z</time></trkpt><trkpt lat="45.7720035" lon="10.0145766"><ele>717.0</ele><time>2026-04-25T16:15:41.315Z</time></trkpt><trkpt lat="45.7721155" lon="10.0146153"><ele>712.5</ele><time>2026-04-25T16:15:43.315Z</time></trkpt><trkpt lat="45.7721902" lon="10.0145413"><ele>708.0</ele><time>2026-04-25T16:15:45.315Z</time></trkpt><trkpt lat="45.7722763" lon="10.014464"><ele>703.5</ele><time>2026-04-25T16:15:48.315Z</time></trkpt><trkpt lat="45.7723174" lon="10.0143943"><ele>699.0</ele><time>2026-04-25T16:15:50.316Z</time></trkpt><trkpt lat="45.7723791" lon="10.0142954"><ele>694.5</ele><time>2026-04-25T16:15:52.315Z</time></trkpt><trkpt lat="45.7724252" lon="10.014186"><ele>690.0</ele><time>2026-04-25T16:15:54.315Z</time></trkpt><trkpt lat="45.7724611" lon="10.0141037"><ele>690.0</ele><time>2026-04-25T16:15:55.314Z</time></trkpt><trkpt lat="45.7725142" lon="10.013999"><ele>690.0</ele><time>2026-04-25T16:15:57.315Z</time></trkpt><trkpt lat="45.7725645" lon="10.0138627"><ele>690.0</ele><time>2026-04-25T16:15:59.316Z</time></trkpt><trkpt lat="45.7726003" lon="10.0137705"><ele>690.0</ele><time>2026-04-25T16:16:00.315Z</time></trkpt><trkpt lat="45.7726351" lon="10.0136856"><ele>690.0</ele><time>2026-04-25T16:16:01.315Z</time></trkpt><trkpt lat="45.7726856" lon="10.013537"><ele>684.8333333333334</ele><time>2026-04-25T16:16:03.316Z</time></trkpt><trkpt lat="45.7727164" lon="10.0134211"><ele>679.6666666666666</ele><time>2026-04-25T16:16:05.316Z</time></trkpt><trkpt lat="45.7727662" lon="10.0132743"><ele>674.5</ele><time>2026-04-25T16:16:07.315Z</time></trkpt><trkpt lat="45.7728106" lon="10.0131349"><ele>669.3333333333333</ele><time>2026-04-25T16:16:09.314Z</time></trkpt><trkpt lat="45.7728437" lon="10.0130545"><ele>664.1666666666666</ele><time>2026-04-25T16:16:10.316Z</time></trkpt><trkpt lat="45.772878" lon="10.0129634"><ele>659.0</ele><time>2026-04-25T16:16:11.316Z</time></trkpt><trkpt lat="45.772942" lon="10.0128226"><ele>659.0</ele><time>2026-04-25T16:16:13.314Z</time></trkpt><trkpt lat="45.7730015" lon="10.0126924"><ele>659.0</ele><time>2026-04-25T16:16:15.315Z</time></trkpt><trkpt lat="45.7730465" lon="10.0125171"><ele>659.0</ele><time>2026-04-25T16:16:17.316Z</time></trkpt><trkpt lat="45.7730262" lon="10.012396"><ele>659.0</ele><time>2026-04-25T16:16:19.316Z</time></trkpt><trkpt lat="45.7729789" lon="10.0122916"><ele>659.0</ele><time>2026-04-25T16:17:23.315Z</time></trkpt><trkpt lat="45.7729372" lon="10.0122041"><ele>657.2</ele><time>2026-04-25T16:17:25.315Z</time></trkpt><trkpt lat="45.772908" lon="10.0120883"><ele>655.4000000000001</ele><time>2026-04-25T16:17:27.315Z</time></trkpt><trkpt lat="45.7729129" lon="10.0119562"><ele>653.6</ele><time>2026-04-25T16:17:29.315Z</time></trkpt><trkpt lat="45.7729325" lon="10.0118234"><ele>651.8</ele><time>2026-04-25T16:17:31.316Z</time></trkpt><trkpt lat="45.7729626" lon="10.0116741"><ele>650.0</ele><time>2026-04-25T16:17:33.315Z</time></trkpt><trkpt lat="45.7729941" lon="10.0115202"><ele>649.6</ele><time>2026-04-25T16:17:35.314Z</time></trkpt><trkpt lat="45.7730234" lon="10.0113839"><ele>649.2</ele><time>2026-04-25T16:17:37.315Z</time></trkpt><trkpt lat="45.7730505" lon="10.0112965"><ele>648.8</ele><time>2026-04-25T16:17:38.315Z</time></trkpt><trkpt lat="45.7730895" lon="10.0112077"><ele>648.4</ele><time>2026-04-25T16:17:39.315Z</time></trkpt><trkpt lat="45.7731259" lon="10.0110612"><ele>648.0</ele><time>2026-04-25T16:17:41.316Z</time></trkpt><trkpt lat="45.7731784" lon="10.0109111"><ele>648.8</ele><time>2026-04-25T16:17:43.315Z</time></trkpt><trkpt lat="45.7732342" lon="10.0107612"><ele>649.5999999999999</ele><time>2026-04-25T16:17:45.316Z</time></trkpt><trkpt lat="45.7732863" lon="10.0106241"><ele>650.4000000000001</ele><time>2026-04-25T16:17:47.316Z</time></trkpt><trkpt lat="45.7733248" lon="10.0104757"><ele>651.2</ele><time>2026-04-25T16:17:49.316Z</time></trkpt><trkpt lat="45.7733784" lon="10.0103496"><ele>652.0</ele><time>2026-04-25T16:17:51.314Z</time></trkpt><trkpt lat="45.7734468" lon="10.0102533"><ele>648.5</ele><time>2026-04-25T16:17:53.316Z</time></trkpt><trkpt lat="45.7735237" lon="10.0102427"><ele>645.0</ele><time>2026-04-25T16:17:55.316Z</time></trkpt><trkpt lat="45.7735805" lon="10.0103254"><ele>641.5</ele><time>2026-04-25T16:17:57.314Z</time></trkpt><trkpt lat="45.7735932" lon="10.0104615"><ele>638.0</ele><time>2026-04-25T16:17:59.314Z</time></trkpt><trkpt lat="45.7735859" lon="10.0105934"><ele>634.5</ele><time>2026-04-25T16:18:01.315Z</time></trkpt><trkpt lat="45.7735846" lon="10.0107292"><ele>631.0</ele><time>2026-04-25T16:18:03.315Z</time></trkpt><trkpt lat="45.7735839" lon="10.0108627"><ele>630.5</ele><time>2026-04-25T16:18:05.315Z</time></trkpt><trkpt lat="45.773589" lon="10.0109984"><ele>630.0</ele><time>2026-04-25T16:18:07.317Z</time></trkpt><trkpt lat="45.7735905" lon="10.0111283"><ele>629.5</ele><time>2026-04-25T16:18:09.316Z</time></trkpt><trkpt lat="45.7735892" lon="10.0112579"><ele>629.0</ele><time>2026-04-25T16:18:11.314Z</time></trkpt><trkpt lat="45.7736304" lon="10.0113705"><ele>628.5</ele><time>2026-04-25T16:18:13.315Z</time></trkpt><trkpt lat="45.7736779" lon="10.0114525"><ele>628.0</ele><time>2026-04-25T16:18:15.315Z</time></trkpt><trkpt lat="45.7737417" lon="10.0115379"><ele>628.0</ele><time>2026-04-25T16:18:17.315Z</time></trkpt><trkpt lat="45.7738027" lon="10.0116196"><ele>628.0</ele><time>2026-04-25T16:18:19.315Z</time></trkpt><trkpt lat="45.7738862" lon="10.0117391"><ele>628.0</ele><time>2026-04-25T16:18:21.314Z</time></trkpt><trkpt lat="45.7739537" lon="10.0118135"><ele>628.0</ele><time>2026-04-25T16:18:23.315Z</time></trkpt><trkpt lat="45.7740228" lon="10.0118756"><ele>628.0</ele><time>2026-04-25T16:18:26.315Z</time></trkpt><trkpt lat="45.7740365" lon="10.0117552"><ele>628.0</ele><time>2026-04-25T16:18:30.315Z</time></trkpt><trkpt lat="45.7740039" lon="10.0116287"><ele>628.0</ele><time>2026-04-25T16:18:32.315Z</time></trkpt><trkpt lat="45.7740023" lon="10.0115157"><ele>628.0</ele><time>2026-04-25T16:18:34.316Z</time></trkpt><trkpt lat="45.7740156" lon="10.0113929"><ele>628.0</ele><time>2026-04-25T16:18:36.315Z</time></trkpt><trkpt lat="45.774044" lon="10.0112812"><ele>628.0</ele><time>2026-04-25T16:18:38.314Z</time></trkpt><trkpt lat="45.7740583" lon="10.0111558"><ele>628.0</ele><time>2026-04-25T16:18:40.315Z</time></trkpt><trkpt lat="45.774077" lon="10.011007"><ele>628.0</ele><time>2026-04-25T16:18:41.316Z</time></trkpt><trkpt lat="45.7740789" lon="10.0108873"><ele>628.0</ele><time>2026-04-25T16:18:42.314Z</time></trkpt><trkpt lat="45.7740755" lon="10.0107545"><ele>628.0</ele><time>2026-04-25T16:18:43.314Z</time></trkpt><trkpt lat="45.7740545" lon="10.01064"><ele>628.0</ele><time>2026-04-25T16:18:44.316Z</time></trkpt><trkpt lat="45.7740282" lon="10.010522"><ele>628.0</ele><time>2026-04-25T16:18:45.315Z</time></trkpt><trkpt lat="45.774002" lon="10.0103942"><ele>628.0</ele><time>2026-04-25T16:18:46.316Z</time></trkpt><trkpt lat="45.773984" lon="10.0102875"><ele>628.6</ele><time>2026-04-25T16:18:47.315Z</time></trkpt><trkpt lat="45.773959" lon="10.0101767"><ele>629.1999999999999</ele><time>2026-04-25T16:18:48.315Z</time></trkpt><trkpt lat="45.77392" lon="10.0100783"><ele>629.8</ele><time>2026-04-25T16:18:49.316Z</time></trkpt><trkpt lat="45.7738494" lon="10.0099419"><ele>630.4</ele><time>2026-04-25T16:18:51.314Z</time></trkpt><trkpt lat="45.7737968" lon="10.0097467"><ele>631.0</ele><time>2026-04-25T16:18:53.315Z</time></trkpt><trkpt lat="45.7737746" lon="10.0096533"><ele>631.0</ele><time>2026-04-25T16:18:54.317Z</time></trkpt><trkpt lat="45.7737527" lon="10.0095521"><ele>631.0</ele><time>2026-04-25T16:18:55.316Z</time></trkpt><trkpt lat="45.7737354" lon="10.0094525"><ele>631.0</ele><time>2026-04-25T16:18:56.315Z</time></trkpt><trkpt lat="45.7737313" lon="10.009361"><ele>631.0</ele><time>2026-04-25T16:18:57.314Z</time></trkpt><trkpt lat="45.7737076" lon="10.0092584"><ele>631.0</ele><time>2026-04-25T16:18:58.315Z</time></trkpt><trkpt lat="45.7736822" lon="10.0091749"><ele>631.0</ele><time>2026-04-25T16:18:59.315Z</time></trkpt><trkpt lat="45.7736155" lon="10.0090455"><ele>631.6666666666667</ele><time>2026-04-25T16:19:01.315Z</time></trkpt><trkpt lat="45.7735696" lon="10.0089824"><ele>632.3333333333334</ele><time>2026-04-25T16:19:02.315Z</time></trkpt><trkpt lat="45.7735111" lon="10.008902"><ele>633.0</ele><time>2026-04-25T16:19:03.316Z</time></trkpt><trkpt lat="45.7734206" lon="10.0087582"><ele>633.6666666666666</ele><time>2026-04-25T16:19:05.315Z</time></trkpt><trkpt lat="45.7733774" lon="10.0086902"><ele>634.3333333333333</ele><time>2026-04-25T16:19:06.316Z</time></trkpt><trkpt lat="45.7733425" lon="10.0086128"><ele>635.0</ele><time>2026-04-25T16:19:07.314Z</time></trkpt><trkpt lat="45.7733029" lon="10.0085293"><ele>639.0</ele><time>2026-04-25T16:19:08.315Z</time></trkpt><trkpt lat="45.7732336" lon="10.0083896"><ele>643.0</ele><time>2026-04-25T16:19:10.315Z</time></trkpt><trkpt lat="45.7732335" lon="10.0082266"><ele>647.0</ele><time>2026-04-25T16:19:12.315Z</time></trkpt><trkpt lat="45.7732186" lon="10.0081222"><ele>651.0</ele><time>2026-04-25T16:19:14.315Z</time></trkpt><trkpt lat="45.7731923" lon="10.0080055"><ele>655.0</ele><time>2026-04-25T16:19:18.315Z</time></trkpt><trkpt lat="45.7732759" lon="10.007973"><ele>656.8</ele><time>2026-04-25T16:19:24.314Z</time></trkpt><trkpt lat="45.7733613" lon="10.0080683"><ele>658.6</ele><time>2026-04-25T16:19:26.314Z</time></trkpt><trkpt lat="45.7734427" lon="10.0080583"><ele>660.4000000000001</ele><time>2026-04-25T16:19:28.315Z</time></trkpt><trkpt lat="45.773518" lon="10.0079561"><ele>662.2</ele><time>2026-04-25T16:19:31.315Z</time></trkpt><trkpt lat="45.7735523" lon="10.0078735"><ele>664.0</ele><time>2026-04-25T16:19:32.315Z</time></trkpt><trkpt lat="45.7735937" lon="10.0077263"><ele>662.2</ele><time>2026-04-25T16:19:34.315Z</time></trkpt><trkpt lat="45.7736428" lon="10.0076014"><ele>660.4000000000001</ele><time>2026-04-25T16:19:36.314Z</time></trkpt><trkpt lat="45.7736148" lon="10.0074105"><ele>658.6</ele><time>2026-04-25T16:19:39.315Z</time></trkpt><trkpt lat="45.7735896" lon="10.0072988"><ele>656.8</ele><time>2026-04-25T16:19:41.314Z</time></trkpt><trkpt lat="45.7736476" lon="10.0072462"><ele>655.0</ele><time>2026-04-25T16:19:56.315Z</time></trkpt><trkpt lat="45.7737286" lon="10.0071716"><ele>655.0</ele><time>2026-04-25T16:19:58.315Z</time></trkpt><trkpt lat="45.7738196" lon="10.0070957"><ele>655.0</ele><time>2026-04-25T16:20:00.315Z</time></trkpt><trkpt lat="45.7739147" lon="10.0070258"><ele>655.0</ele><time>2026-04-25T16:20:02.315Z</time></trkpt><trkpt lat="45.774004" lon="10.006975"><ele>655.0</ele><time>2026-04-25T16:20:04.314Z</time></trkpt><trkpt lat="45.7740876" lon="10.0069342"><ele>655.0</ele><time>2026-04-25T16:20:06.314Z</time></trkpt><trkpt lat="45.7741685" lon="10.0068881"><ele>655.0</ele><time>2026-04-25T16:20:08.315Z</time></trkpt><trkpt lat="45.7742443" lon="10.0068001"><ele>655.0</ele><time>2026-04-25T16:20:10.315Z</time></trkpt><trkpt lat="45.7743203" lon="10.0067249"><ele>655.0</ele><time>2026-04-25T16:20:12.315Z</time></trkpt><trkpt lat="45.7743905" lon="10.0066216"><ele>655.0</ele><time>2026-04-25T16:20:14.315Z</time></trkpt><trkpt lat="45.774467" lon="10.0065212"><ele>655.0</ele><time>2026-04-25T16:20:16.315Z</time></trkpt><trkpt lat="45.7745282" lon="10.0064492"><ele>650.2</ele><time>2026-04-25T16:20:18.316Z</time></trkpt><trkpt lat="45.7745878" lon="10.0063162"><ele>645.4</ele><time>2026-04-25T16:20:20.314Z</time></trkpt><trkpt lat="45.7746485" lon="10.0062166"><ele>640.6</ele><time>2026-04-25T16:20:22.315Z</time></trkpt><trkpt lat="45.7747051" lon="10.0061"><ele>635.8</ele><time>2026-04-25T16:20:24.316Z</time></trkpt><trkpt lat="45.7747752" lon="10.0060189"><ele>631.0</ele><time>2026-04-25T16:20:26.316Z</time></trkpt><trkpt lat="45.7748027" lon="10.0058941"><ele>631.8333333333334</ele><time>2026-04-25T16:20:28.315Z</time></trkpt><trkpt lat="45.7748329" lon="10.0057418"><ele>632.6666666666667</ele><time>2026-04-25T16:20:30.315Z</time></trkpt><trkpt lat="45.774877" lon="10.0056676"><ele>633.5</ele><time>2026-04-25T16:20:31.316Z</time></trkpt><trkpt lat="45.7749337" lon="10.005618"><ele>634.3333333333334</ele><time>2026-04-25T16:20:32.314Z</time></trkpt><trkpt lat="45.774986" lon="10.005563"><ele>635.1666666666666</ele><time>2026-04-25T16:20:33.314Z</time></trkpt><trkpt lat="45.7750476" lon="10.0055213"><ele>636.0</ele><time>2026-04-25T16:20:34.315Z</time></trkpt><trkpt lat="45.7751287" lon="10.0054693"><ele>630.6666666666666</ele><time>2026-04-25T16:20:36.314Z</time></trkpt><trkpt lat="45.7751936" lon="10.0053625"><ele>625.3333333333334</ele><time>2026-04-25T16:20:38.315Z</time></trkpt><trkpt lat="45.7752387" lon="10.0052613"><ele>620.0</ele><time>2026-04-25T16:20:40.314Z</time></trkpt><trkpt lat="45.7752836" lon="10.0051473"><ele>614.6666666666667</ele><time>2026-04-25T16:20:42.315Z</time></trkpt><trkpt lat="45.7753214" lon="10.005041"><ele>609.3333333333334</ele><time>2026-04-25T16:20:44.314Z</time></trkpt><trkpt lat="45.7753447" lon="10.0049495"><ele>604.0</ele><time>2026-04-25T16:20:45.314Z</time></trkpt><trkpt lat="45.7753749" lon="10.0048693"><ele>604.0</ele><time>2026-04-25T16:20:46.314Z</time></trkpt><trkpt lat="45.7754044" lon="10.0047855"><ele>604.0</ele><time>2026-04-25T16:20:47.316Z</time></trkpt><trkpt lat="45.7754273" lon="10.004642"><ele>604.0</ele><time>2026-04-25T16:20:49.315Z</time></trkpt><trkpt lat="45.7754478" lon="10.0044822"><ele>604.0</ele><time>2026-04-25T16:20:51.315Z</time></trkpt><trkpt lat="45.7754569" lon="10.0043902"><ele>604.0</ele><time>2026-04-25T16:20:52.315Z</time></trkpt><trkpt lat="45.775482" lon="10.0042978"><ele>604.0</ele><time>2026-04-25T16:20:53.315Z</time></trkpt><trkpt lat="45.7754983" lon="10.0041464"><ele>604.4</ele><time>2026-04-25T16:20:55.314Z</time></trkpt><trkpt lat="45.7755057" lon="10.0040072"><ele>604.8</ele><time>2026-04-25T16:20:57.316Z</time></trkpt><trkpt lat="45.7754933" lon="10.0039091"><ele>605.2</ele><time>2026-04-25T16:20:58.314Z</time></trkpt><trkpt lat="45.7754758" lon="10.0037845"><ele>605.6</ele><time>2026-04-25T16:21:00.315Z</time></trkpt><trkpt lat="45.7755069" lon="10.0036496"><ele>606.0</ele><time>2026-04-25T16:21:02.314Z</time></trkpt><trkpt lat="45.7755318" lon="10.003511"><ele>606.0</ele><time>2026-04-25T16:21:04.315Z</time></trkpt><trkpt lat="45.775541" lon="10.0033849"><ele>606.0</ele><time>2026-04-25T16:21:06.315Z</time></trkpt><trkpt lat="45.7755433" lon="10.0032202"><ele>606.0</ele><time>2026-04-25T16:21:08.315Z</time></trkpt><trkpt lat="45.7755589" lon="10.0030464"><ele>606.0</ele><time>2026-04-25T16:21:10.315Z</time></trkpt><trkpt lat="45.7755725" lon="10.0029095"><ele>606.0</ele><time>2026-04-25T16:21:12.316Z</time></trkpt><trkpt lat="45.7755669" lon="10.0027763"><ele>605.4</ele><time>2026-04-25T16:21:14.315Z</time></trkpt><trkpt lat="45.775582" lon="10.0026405"><ele>604.8</ele><time>2026-04-25T16:21:16.315Z</time></trkpt><trkpt lat="45.7755993" lon="10.0025196"><ele>604.1999999999999</ele><time>2026-04-25T16:21:18.314Z</time></trkpt><trkpt lat="45.7755955" lon="10.0023792"><ele>603.6</ele><time>2026-04-25T16:21:20.316Z</time></trkpt><trkpt lat="45.7755871" lon="10.0022645"><ele>603.0</ele><time>2026-04-25T16:21:22.316Z</time></trkpt><trkpt lat="45.7755847" lon="10.0021346"><ele>600.8333333333334</ele><time>2026-04-25T16:21:24.314Z</time></trkpt><trkpt lat="45.7755297" lon="10.0020222"><ele>598.6666666666666</ele><time>2026-04-25T16:21:26.314Z</time></trkpt><trkpt lat="45.7754781" lon="10.0019362"><ele>596.5</ele><time>2026-04-25T16:21:28.315Z</time></trkpt><trkpt lat="45.7754804" lon="10.0018392"><ele>594.3333333333333</ele><time>2026-04-25T16:21:30.315Z</time></trkpt><trkpt lat="45.7755081" lon="10.0017497"><ele>592.1666666666666</ele><time>2026-04-25T16:21:32.314Z</time></trkpt><trkpt lat="45.7755342" lon="10.0016377"><ele>590.0</ele><time>2026-04-25T16:21:34.314Z</time></trkpt><trkpt lat="45.7755437" lon="10.0015405"><ele>587.3333333333333</ele><time>2026-04-25T16:21:36.315Z</time></trkpt><trkpt lat="45.7756077" lon="10.0015002"><ele>584.6666666666666</ele><time>2026-04-25T16:21:38.315Z</time></trkpt><trkpt lat="45.7757018" lon="10.001498"><ele>582.0</ele><time>2026-04-25T16:21:40.315Z</time></trkpt><trkpt lat="45.7757863" lon="10.0015114"><ele>579.3333333333334</ele><time>2026-04-25T16:21:42.314Z</time></trkpt><trkpt lat="45.7758563" lon="10.0014992"><ele>576.6666666666667</ele><time>2026-04-25T16:21:44.315Z</time></trkpt><trkpt lat="45.7759326" lon="10.0014428"><ele>574.0</ele><time>2026-04-25T16:21:46.315Z</time></trkpt><trkpt lat="45.7759965" lon="10.0013671"><ele>571.1666666666667</ele><time>2026-04-25T16:21:48.315Z</time></trkpt><trkpt lat="45.7760635" lon="10.0012663"><ele>568.3333333333334</ele><time>2026-04-25T16:21:50.315Z</time></trkpt><trkpt lat="45.77614" lon="10.0012025"><ele>565.5</ele><time>2026-04-25T16:21:51.317Z</time></trkpt><trkpt lat="45.7762389" lon="10.0011697"><ele>562.6666666666666</ele><time>2026-04-25T16:21:53.316Z</time></trkpt><trkpt lat="45.7763104" lon="10.0011838"><ele>559.8333333333333</ele><time>2026-04-25T16:21:55.316Z</time></trkpt><trkpt lat="45.7763765" lon="10.0012646"><ele>557.0</ele><time>2026-04-25T16:21:57.314Z</time></trkpt><trkpt lat="45.7764243" lon="10.0013434"><ele>557.0</ele><time>2026-04-25T16:21:59.315Z</time></trkpt><trkpt lat="45.7765007" lon="10.0014044"><ele>557.0</ele><time>2026-04-25T16:22:01.316Z</time></trkpt><trkpt lat="45.7766046" lon="10.0014453"><ele>557.0</ele><time>2026-04-25T16:22:03.315Z</time></trkpt><trkpt lat="45.7766772" lon="10.0014762"><ele>557.0</ele><time>2026-04-25T16:22:04.316Z</time></trkpt><trkpt lat="45.7767786" lon="10.0015464"><ele>557.0</ele><time>2026-04-25T16:22:06.315Z</time></trkpt><trkpt lat="45.7768658" lon="10.0016499"><ele>554.6</ele><time>2026-04-25T16:22:08.315Z</time></trkpt><trkpt lat="45.7769571" lon="10.001753"><ele>552.2</ele><time>2026-04-25T16:22:10.314Z</time></trkpt><trkpt lat="45.7770708" lon="10.0018273"><ele>549.8</ele><time>2026-04-25T16:22:12.315Z</time></trkpt><trkpt lat="45.7771293" lon="10.0018631"><ele>547.4</ele><time>2026-04-25T16:22:13.315Z</time></trkpt><trkpt lat="45.7772087" lon="10.0018955"><ele>545.0</ele><time>2026-04-25T16:22:15.315Z</time></trkpt><trkpt lat="45.7773035" lon="10.001945"><ele>545.0</ele><time>2026-04-25T16:22:17.315Z</time></trkpt><trkpt lat="45.7773899" lon="10.0020058"><ele>545.0</ele><time>2026-04-25T16:22:19.315Z</time></trkpt><trkpt lat="45.7774544" lon="10.002091"><ele>545.0</ele><time>2026-04-25T16:22:21.314Z</time></trkpt><trkpt lat="45.7775179" lon="10.002173"><ele>545.0</ele><time>2026-04-25T16:22:23.315Z</time></trkpt><trkpt lat="45.7775743" lon="10.0022658"><ele>545.0</ele><time>2026-04-25T16:22:25.315Z</time></trkpt><trkpt lat="45.7775992" lon="10.0023515"><ele>545.0</ele><time>2026-04-25T16:22:26.315Z</time></trkpt><trkpt lat="45.7776557" lon="10.002481"><ele>543.2</ele><time>2026-04-25T16:22:28.315Z</time></trkpt><trkpt lat="45.7776946" lon="10.0026191"><ele>541.4</ele><time>2026-04-25T16:22:30.316Z</time></trkpt><trkpt lat="45.7777334" lon="10.0027882"><ele>539.6</ele><time>2026-04-25T16:22:32.315Z</time></trkpt><trkpt lat="45.777789" lon="10.0029597"><ele>537.8</ele><time>2026-04-25T16:22:34.315Z</time></trkpt><trkpt lat="45.7778261" lon="10.0030614"><ele>536.0</ele><time>2026-04-25T16:22:35.315Z</time></trkpt><trkpt lat="45.7778943" lon="10.0031907"><ele>536.0</ele><time>2026-04-25T16:22:37.316Z</time></trkpt><trkpt lat="45.7779396" lon="10.0032579"><ele>536.0</ele><time>2026-04-25T16:22:38.315Z</time></trkpt><trkpt lat="45.778041" lon="10.0033326"><ele>536.0</ele><time>2026-04-25T16:22:40.315Z</time></trkpt><trkpt lat="45.7781084" lon="10.0033501"><ele>536.0</ele><time>2026-04-25T16:22:41.315Z</time></trkpt><trkpt lat="45.7782082" lon="10.0033548"><ele>536.0</ele><time>2026-04-25T16:22:43.316Z</time></trkpt><trkpt lat="45.7782906" lon="10.0032985"><ele>536.0</ele><time>2026-04-25T16:22:45.316Z</time></trkpt><trkpt lat="45.7783693" lon="10.0032439"><ele>536.0</ele><time>2026-04-25T16:22:47.314Z</time></trkpt><trkpt lat="45.7784371" lon="10.0031649"><ele>536.0</ele><time>2026-04-25T16:22:49.314Z</time></trkpt><trkpt lat="45.7785045" lon="10.0030703"><ele>536.0</ele><time>2026-04-25T16:22:51.316Z</time></trkpt><trkpt lat="45.7786117" lon="10.0030521"><ele>536.0</ele><time>2026-04-25T16:22:53.316Z</time></trkpt><trkpt lat="45.7786926" lon="10.0031053"><ele>536.0</ele><time>2026-04-25T16:22:55.316Z</time></trkpt><trkpt lat="45.7787387" lon="10.0032017"><ele>532.2</ele><time>2026-04-25T16:22:57.315Z</time></trkpt><trkpt lat="45.7787794" lon="10.0033402"><ele>528.4000000000001</ele><time>2026-04-25T16:22:59.315Z</time></trkpt><trkpt lat="45.7788017" lon="10.0034659"><ele>524.6</ele><time>2026-04-25T16:23:01.315Z</time></trkpt><trkpt lat="45.7788092" lon="10.0035921"><ele>520.8000000000001</ele><time>2026-04-25T16:23:03.316Z</time></trkpt><trkpt lat="45.7788269" lon="10.003739"><ele>517.0</ele><time>2026-04-25T16:23:05.315Z</time></trkpt><trkpt lat="45.7788334" lon="10.0039184"><ele>517.0</ele><time>2026-04-25T16:23:07.315Z</time></trkpt><trkpt lat="45.778841" lon="10.0040645"><ele>517.0</ele><time>2026-04-25T16:23:09.315Z</time></trkpt><trkpt lat="45.7788557" lon="10.0042178"><ele>517.0</ele><time>2026-04-25T16:23:11.314Z</time></trkpt><trkpt lat="45.7788649" lon="10.0043581"><ele>517.0</ele><time>2026-04-25T16:23:13.315Z</time></trkpt><trkpt lat="45.7788791" lon="10.0044962"><ele>517.0</ele><time>2026-04-25T16:23:15.315Z</time></trkpt><trkpt lat="45.7788633" lon="10.0046273"><ele>516.4</ele><time>2026-04-25T16:23:17.314Z</time></trkpt><trkpt lat="45.7788399" lon="10.0048066"><ele>515.8000000000001</ele><time>2026-04-25T16:23:19.316Z</time></trkpt><trkpt lat="45.7788048" lon="10.0049718"><ele>515.2</ele><time>2026-04-25T16:23:21.315Z</time></trkpt><trkpt lat="45.7787841" lon="10.0050641"><ele>514.6</ele><time>2026-04-25T16:23:22.316Z</time></trkpt><trkpt lat="45.7787743" lon="10.0051579"><ele>514.0</ele><time>2026-04-25T16:23:23.315Z</time></trkpt><trkpt lat="45.778739" lon="10.0053073"><ele>513.0</ele><time>2026-04-25T16:23:25.316Z</time></trkpt><trkpt lat="45.7787079" lon="10.005479"><ele>512.0</ele><time>2026-04-25T16:23:27.314Z</time></trkpt><trkpt lat="45.7786635" lon="10.0056229"><ele>511.0</ele><time>2026-04-25T16:23:29.316Z</time></trkpt><trkpt lat="45.7786152" lon="10.0057393"><ele>510.0</ele><time>2026-04-25T16:23:31.316Z</time></trkpt><trkpt lat="45.7786186" lon="10.0058347"><ele>509.0</ele><time>2026-04-25T16:23:32.315Z</time></trkpt><trkpt lat="45.7786009" lon="10.0059649"><ele>507.8333333333333</ele><time>2026-04-25T16:23:34.315Z</time></trkpt><trkpt lat="45.7785908" lon="10.0060807"><ele>506.66666666666663</ele><time>2026-04-25T16:23:36.315Z</time></trkpt><trkpt lat="45.7785847" lon="10.0062474"><ele>505.5</ele><time>2026-04-25T16:23:38.315Z</time></trkpt><trkpt lat="45.7785734" lon="10.0063895"><ele>504.33333333333337</ele><time>2026-04-25T16:23:40.315Z</time></trkpt><trkpt lat="45.7785559" lon="10.0064778"><ele>503.1666666666667</ele><time>2026-04-25T16:23:41.314Z</time></trkpt><trkpt lat="45.7785585" lon="10.0065841"><ele>502.0</ele><time>2026-04-25T16:23:42.315Z</time></trkpt><trkpt lat="45.7785321" lon="10.006726"><ele>506.0</ele><time>2026-04-25T16:23:44.316Z</time></trkpt><trkpt lat="45.7784943" lon="10.0068716"><ele>510.00000000000006</ele><time>2026-04-25T16:23:46.315Z</time></trkpt><trkpt lat="45.7785037" lon="10.0070414"><ele>514.0</ele><time>2026-04-25T16:23:47.315Z</time></trkpt><trkpt lat="45.7784758" lon="10.007191"><ele>518.0</ele><time>2026-04-25T16:23:49.315Z</time></trkpt><trkpt lat="45.7784734" lon="10.0073423"><ele>522.0</ele><time>2026-04-25T16:23:51.315Z</time></trkpt><trkpt lat="45.7784223" lon="10.0074008"><ele>522.0</ele><time>2026-04-25T16:23:53.316Z</time></trkpt><trkpt lat="45.7784484" lon="10.0075161"><ele>522.0</ele><time>2026-04-25T16:23:56.315Z</time></trkpt><trkpt lat="45.7785076" lon="10.0074708"><ele>522.0</ele><time>2026-04-25T16:23:58.316Z</time></trkpt><trkpt lat="45.7785821" lon="10.0074947"><ele>522.0</ele><time>2026-04-25T16:23:59.315Z</time></trkpt><trkpt lat="45.778641" lon="10.0074365"><ele>522.0</ele><time>2026-04-25T16:24:00.315Z</time></trkpt><trkpt lat="45.7786963" lon="10.0073777"><ele>522.0</ele><time>2026-04-25T16:24:01.315Z</time></trkpt><trkpt lat="45.7787555" lon="10.0073294"><ele>522.0</ele><time>2026-04-25T16:24:02.315Z</time></trkpt><trkpt lat="45.7788626" lon="10.007197"><ele>518.0</ele><time>2026-04-25T16:24:04.315Z</time></trkpt><trkpt lat="45.77896" lon="10.0070728"><ele>514.0</ele><time>2026-04-25T16:24:06.315Z</time></trkpt><trkpt lat="45.7790321" lon="10.0069568"><ele>510.00000000000006</ele><time>2026-04-25T16:24:08.315Z</time></trkpt><trkpt lat="45.7790923" lon="10.0068253"><ele>506.0</ele><time>2026-04-25T16:24:10.315Z</time></trkpt><trkpt lat="45.7791296" lon="10.0067089"><ele>502.0</ele><time>2026-04-25T16:24:12.314Z</time></trkpt><trkpt lat="45.779161" lon="10.0066261"><ele>502.0</ele><time>2026-04-25T16:24:13.316Z</time></trkpt><trkpt lat="45.7792022" lon="10.0064905"><ele>502.00000000000006</ele><time>2026-04-25T16:24:15.316Z</time></trkpt><trkpt lat="45.7792135" lon="10.0062895"><ele>502.00000000000006</ele><time>2026-04-25T16:24:17.315Z</time></trkpt><trkpt lat="45.7792221" lon="10.0061658"><ele>502.0</ele><time>2026-04-25T16:24:18.315Z</time></trkpt><trkpt lat="45.7792329" lon="10.0060557"><ele>502.0</ele><time>2026-04-25T16:24:19.315Z</time></trkpt><trkpt lat="45.7792383" lon="10.0059567"><ele>502.00000000000006</ele><time>2026-04-25T16:24:20.316Z</time></trkpt><trkpt lat="45.7792544" lon="10.0058303"><ele>502.0</ele><time>2026-04-25T16:24:21.315Z</time></trkpt><trkpt lat="45.7792742" lon="10.0057308"><ele>502.0</ele><time>2026-04-25T16:24:22.314Z</time></trkpt><trkpt lat="45.7792973" lon="10.0056324"><ele>502.0</ele><time>2026-04-25T16:24:23.316Z</time></trkpt><trkpt lat="45.7793192" lon="10.0054535"><ele>502.00000000000006</ele><time>2026-04-25T16:24:25.315Z</time></trkpt><trkpt lat="45.7793293" lon="10.0053484"><ele>502.0</ele><time>2026-04-25T16:24:26.315Z</time></trkpt><trkpt lat="45.7793754" lon="10.0052303"><ele>498.33333333333337</ele><time>2026-04-25T16:24:27.315Z</time></trkpt><trkpt lat="45.779391" lon="10.0051187"><ele>494.6666666666667</ele><time>2026-04-25T16:24:28.316Z</time></trkpt><trkpt lat="45.7794129" lon="10.0050081"><ele>491.0</ele><time>2026-04-25T16:24:29.316Z</time></trkpt><trkpt lat="45.7794361" lon="10.0049213"><ele>487.33333333333337</ele><time>2026-04-25T16:24:30.314Z</time></trkpt><trkpt lat="45.7794528" lon="10.0048032"><ele>483.6666666666667</ele><time>2026-04-25T16:24:31.315Z</time></trkpt><trkpt lat="45.7794782" lon="10.0047145"><ele>480.0</ele><time>2026-04-25T16:24:32.314Z</time></trkpt><trkpt lat="45.7794874" lon="10.004591"><ele>480.0</ele><time>2026-04-25T16:24:33.315Z</time></trkpt><trkpt lat="45.7794894" lon="10.0044867"><ele>480.0</ele><time>2026-04-25T16:24:34.316Z</time></trkpt><trkpt lat="45.779502" lon="10.0043688"><ele>480.0</ele><time>2026-04-25T16:24:35.314Z</time></trkpt><trkpt lat="45.7794978" lon="10.0042433"><ele>480.0</ele><time>2026-04-25T16:24:36.315Z</time></trkpt><trkpt lat="45.7795074" lon="10.0041388"><ele>480.0</ele><time>2026-04-25T16:24:37.315Z</time></trkpt><trkpt lat="45.7795081" lon="10.0040141"><ele>480.0</ele><time>2026-04-25T16:24:38.315Z</time></trkpt><trkpt lat="45.779509" lon="10.0039075"><ele>480.8333333333333</ele><time>2026-04-25T16:24:39.316Z</time></trkpt><trkpt lat="45.7795024" lon="10.0038151"><ele>481.66666666666663</ele><time>2026-04-25T16:24:40.315Z</time></trkpt><trkpt lat="45.7795048" lon="10.0037145"><ele>482.5</ele><time>2026-04-25T16:24:41.315Z</time></trkpt><trkpt lat="45.7794524" lon="10.003563"><ele>483.3333333333333</ele><time>2026-04-25T16:24:42.315Z</time></trkpt><trkpt lat="45.7794614" lon="10.0034499"><ele>484.16666666666663</ele><time>2026-04-25T16:24:43.315Z</time></trkpt><trkpt lat="45.7794932" lon="10.0033511"><ele>485.0</ele><time>2026-04-25T16:24:44.315Z</time></trkpt><trkpt lat="45.7795295" lon="10.0032499"><ele>485.8333333333333</ele><time>2026-04-25T16:24:45.315Z</time></trkpt><trkpt lat="45.7795699" lon="10.0031346"><ele>486.66666666666663</ele><time>2026-04-25T16:24:46.315Z</time></trkpt><trkpt lat="45.7795829" lon="10.003004"><ele>487.5</ele><time>2026-04-25T16:24:47.315Z</time></trkpt><trkpt lat="45.7796132" lon="10.0028914"><ele>488.33333333333337</ele><time>2026-04-25T16:24:48.316Z</time></trkpt><trkpt lat="45.7796479" lon="10.0027805"><ele>489.1666666666667</ele><time>2026-04-25T16:24:49.314Z</time></trkpt><trkpt lat="45.779662" lon="10.0026546"><ele>490.0</ele><time>2026-04-25T16:24:50.316Z</time></trkpt><trkpt lat="45.7796773" lon="10.0025018"><ele>489.83333333333337</ele><time>2026-04-25T16:24:51.317Z</time></trkpt><trkpt lat="45.7796977" lon="10.0023695"><ele>489.6666666666667</ele><time>2026-04-25T16:24:52.315Z</time></trkpt><trkpt lat="45.7796992" lon="10.0022495"><ele>489.5</ele><time>2026-04-25T16:24:53.315Z</time></trkpt><trkpt lat="45.7797124" lon="10.0021447"><ele>489.33333333333337</ele><time>2026-04-25T16:24:54.314Z</time></trkpt><trkpt lat="45.7797089" lon="10.0020397"><ele>489.1666666666667</ele><time>2026-04-25T16:24:55.315Z</time></trkpt><trkpt lat="45.7796748" lon="10.0019343"><ele>489.0</ele><time>2026-04-25T16:24:56.314Z</time></trkpt><trkpt lat="45.779659" lon="10.001825"><ele>489.0</ele><time>2026-04-25T16:24:57.315Z</time></trkpt><trkpt lat="45.7796261" lon="10.0017105"><ele>489.0</ele><time>2026-04-25T16:24:58.315Z</time></trkpt><trkpt lat="45.7796034" lon="10.001581"><ele>489.0</ele><time>2026-04-25T16:24:59.316Z</time></trkpt><trkpt lat="45.7795856" lon="10.0014309"><ele>489.0</ele><time>2026-04-25T16:25:00.315Z</time></trkpt><trkpt lat="45.7795591" lon="10.0012955"><ele>489.0</ele><time>2026-04-25T16:25:01.315Z</time></trkpt><trkpt lat="45.7795402" lon="10.001169"><ele>488.6</ele><time>2026-04-25T16:25:02.316Z</time></trkpt><trkpt lat="45.7795285" lon="10.0010329"><ele>488.2</ele><time>2026-04-25T16:25:03.315Z</time></trkpt><trkpt lat="45.7794999" lon="10.0009063"><ele>487.80000000000007</ele><time>2026-04-25T16:25:04.316Z</time></trkpt><trkpt lat="45.7794656" lon="10.0007961"><ele>487.40000000000003</ele><time>2026-04-25T16:25:05.315Z</time></trkpt><trkpt lat="45.7794269" lon="10.0006747"><ele>487.0</ele><time>2026-04-25T16:25:06.316Z</time></trkpt><trkpt lat="45.7794131" lon="10.0005445"><ele>485.40000000000003</ele><time>2026-04-25T16:25:07.315Z</time></trkpt><trkpt lat="45.7793871" lon="10.0003996"><ele>483.80000000000007</ele><time>2026-04-25T16:25:08.314Z</time></trkpt><trkpt lat="45.7793669" lon="10.000279"><ele>482.2</ele><time>2026-04-25T16:25:09.314Z</time></trkpt><trkpt lat="45.7793394" lon="10.0001582"><ele>480.6</ele><time>2026-04-25T16:25:10.315Z</time></trkpt><trkpt lat="45.7793105" lon="10.0000328"><ele>479.0</ele><time>2026-04-25T16:25:11.315Z</time></trkpt><trkpt lat="45.7792638" lon="9.9999062"><ele>482.66666666666663</ele><time>2026-04-25T16:25:12.315Z</time></trkpt><trkpt lat="45.7792285" lon="9.9997946"><ele>486.3333333333333</ele><time>2026-04-25T16:25:13.315Z</time></trkpt><trkpt lat="45.779171" lon="9.9997097"><ele>490.0</ele><time>2026-04-25T16:25:14.314Z</time></trkpt><trkpt lat="45.7791114" lon="9.9996391"><ele>493.66666666666663</ele><time>2026-04-25T16:25:15.315Z</time></trkpt><trkpt lat="45.7790563" lon="9.9995803"><ele>497.3333333333333</ele><time>2026-04-25T16:25:16.316Z</time></trkpt><trkpt lat="45.7789567" lon="9.9995314"><ele>501.0</ele><time>2026-04-25T16:25:18.315Z</time></trkpt><trkpt lat="45.7788602" lon="9.9995135"><ele>501.0</ele><time>2026-04-25T16:25:20.315Z</time></trkpt><trkpt lat="45.7787782" lon="9.9995343"><ele>501.0</ele><time>2026-04-25T16:25:22.315Z</time></trkpt><trkpt lat="45.7786536" lon="9.9995751"><ele>501.0</ele><time>2026-04-25T16:25:24.315Z</time></trkpt><trkpt lat="45.7785792" lon="9.9996004"><ele>501.0</ele><time>2026-04-25T16:25:26.315Z</time></trkpt><trkpt lat="45.7784987" lon="9.9995887"><ele>501.0</ele><time>2026-04-25T16:25:28.315Z</time></trkpt><trkpt lat="45.7784142" lon="9.9994457"><ele>501.6666666666667</ele><time>2026-04-25T16:25:30.315Z</time></trkpt><trkpt lat="45.7783908" lon="9.9993585"><ele>502.33333333333337</ele><time>2026-04-25T16:25:31.315Z</time></trkpt><trkpt lat="45.7783686" lon="9.9992625"><ele>503.0</ele><time>2026-04-25T16:25:32.315Z</time></trkpt><trkpt lat="45.7783417" lon="9.9991797"><ele>503.6666666666667</ele><time>2026-04-25T16:25:33.316Z</time></trkpt><trkpt lat="45.7782948" lon="9.9990232"><ele>504.33333333333337</ele><time>2026-04-25T16:25:35.315Z</time></trkpt><trkpt lat="45.7782214" lon="9.9989028"><ele>505.0</ele><time>2026-04-25T16:25:37.314Z</time></trkpt><trkpt lat="45.778113" lon="9.9988133"><ele>505.00000000000006</ele><time>2026-04-25T16:25:39.315Z</time></trkpt><trkpt lat="45.7780181" lon="9.9987449"><ele>505.0</ele><time>2026-04-25T16:25:41.315Z</time></trkpt><trkpt lat="45.7779516" lon="9.9987197"><ele>505.0</ele><time>2026-04-25T16:25:42.315Z</time></trkpt><trkpt lat="45.7778693" lon="9.9986394"><ele>505.0</ele><time>2026-04-25T16:25:44.315Z</time></trkpt><trkpt lat="45.7777933" lon="9.9985744"><ele>505.00000000000006</ele><time>2026-04-25T16:25:46.316Z</time></trkpt><trkpt lat="45.7777346" lon="9.9984994"><ele>505.0</ele><time>2026-04-25T16:25:48.317Z</time></trkpt><trkpt lat="45.777704" lon="9.9984153"><ele>505.6666666666667</ele><time>2026-04-25T16:25:49.315Z</time></trkpt><trkpt lat="45.777711" lon="9.9983251"><ele>506.33333333333337</ele><time>2026-04-25T16:25:50.315Z</time></trkpt><trkpt lat="45.7776987" lon="9.9982343"><ele>507.0</ele><time>2026-04-25T16:25:51.315Z</time></trkpt><trkpt lat="45.7776418" lon="9.9980788"><ele>507.66666666666663</ele><time>2026-04-25T16:25:53.315Z</time></trkpt><trkpt lat="45.7775981" lon="9.9979989"><ele>508.3333333333333</ele><time>2026-04-25T16:25:54.315Z</time></trkpt><trkpt lat="45.7775544" lon="9.997924"><ele>509.0</ele><time>2026-04-25T16:25:55.315Z</time></trkpt><trkpt lat="45.7774931" lon="9.9977908"><ele>508.99999999999994</ele><time>2026-04-25T16:25:57.314Z</time></trkpt><trkpt lat="45.7774347" lon="9.9977163"><ele>509.0</ele><time>2026-04-25T16:25:58.314Z</time></trkpt><trkpt lat="45.7773891" lon="9.9975702"><ele>509.0</ele><time>2026-04-25T16:26:00.315Z</time></trkpt><trkpt lat="45.7773819" lon="9.9974738"><ele>509.0</ele><time>2026-04-25T16:26:01.316Z</time></trkpt><trkpt lat="45.7774065" lon="9.9973777"><ele>508.99999999999994</ele><time>2026-04-25T16:26:02.315Z</time></trkpt><trkpt lat="45.7774302" lon="9.9972862"><ele>509.0</ele><time>2026-04-25T16:26:03.315Z</time></trkpt><trkpt lat="45.7774782" lon="9.9971633"><ele>508.3333333333333</ele><time>2026-04-25T16:26:04.315Z</time></trkpt><trkpt lat="45.7774963" lon="9.9970451"><ele>507.66666666666663</ele><time>2026-04-25T16:26:05.315Z</time></trkpt><trkpt lat="45.7775149" lon="9.9969471"><ele>507.0</ele><time>2026-04-25T16:26:06.316Z</time></trkpt><trkpt lat="45.7775149" lon="9.9968352"><ele>506.33333333333337</ele><time>2026-04-25T16:26:08.315Z</time></trkpt><trkpt lat="45.7774813" lon="9.9967121"><ele>505.6666666666667</ele><time>2026-04-25T16:26:10.316Z</time></trkpt><trkpt lat="45.7774303" lon="9.9966524"><ele>505.0</ele><time>2026-04-25T16:26:11.315Z</time></trkpt><trkpt lat="45.7773477" lon="9.9965579"><ele>504.1666666666667</ele><time>2026-04-25T16:26:13.314Z</time></trkpt><trkpt lat="45.7772896" lon="9.9965077"><ele>503.33333333333337</ele><time>2026-04-25T16:26:14.314Z</time></trkpt><trkpt lat="45.7772282" lon="9.9964672"><ele>502.5</ele><time>2026-04-25T16:26:15.315Z</time></trkpt><trkpt lat="45.7771574" lon="9.9964426"><ele>501.66666666666663</ele><time>2026-04-25T16:26:16.314Z</time></trkpt><trkpt lat="45.7770924" lon="9.9964214"><ele>500.8333333333333</ele><time>2026-04-25T16:26:17.315Z</time></trkpt><trkpt lat="45.7770145" lon="9.9963875"><ele>500.0</ele><time>2026-04-25T16:26:18.316Z</time></trkpt><trkpt lat="45.7769173" lon="9.9962996"><ele>499.99999999999994</ele><time>2026-04-25T16:26:20.315Z</time></trkpt><trkpt lat="45.7769232" lon="9.9961444"><ele>500.0</ele><time>2026-04-25T16:26:22.315Z</time></trkpt><trkpt lat="45.776965" lon="9.9960212"><ele>500.0</ele><time>2026-04-25T16:26:23.316Z</time></trkpt><trkpt lat="45.7769984" lon="9.9959076"><ele>500.0</ele><time>2026-04-25T16:26:24.315Z</time></trkpt><trkpt lat="45.777035" lon="9.9958112"><ele>499.99999999999994</ele><time>2026-04-25T16:26:25.315Z</time></trkpt><trkpt lat="45.777066" lon="9.9957138"><ele>500.0</ele><time>2026-04-25T16:26:26.315Z</time></trkpt><trkpt lat="45.7770741" lon="9.9955611"><ele>499.0</ele><time>2026-04-25T16:26:28.315Z</time></trkpt><trkpt lat="45.7771266" lon="9.9954446"><ele>498.0</ele><time>2026-04-25T16:26:30.317Z</time></trkpt><trkpt lat="45.7771935" lon="9.9954077"><ele>497.0</ele><time>2026-04-25T16:26:31.315Z</time></trkpt><trkpt lat="45.7773263" lon="9.9954254"><ele>496.0</ele><time>2026-04-25T16:26:33.315Z</time></trkpt><trkpt lat="45.7773971" lon="9.9954131"><ele>495.0</ele><time>2026-04-25T16:26:34.314Z</time></trkpt><trkpt lat="45.777489" lon="9.9953574"><ele>495.0</ele><time>2026-04-25T16:26:35.315Z</time></trkpt><trkpt lat="45.7775826" lon="9.995308"><ele>495.0</ele><time>2026-04-25T16:26:36.314Z</time></trkpt><trkpt lat="45.7776714" lon="9.995238"><ele>495.0</ele><time>2026-04-25T16:26:37.314Z</time></trkpt><trkpt lat="45.7777335" lon="9.9951709"><ele>495.0</ele><time>2026-04-25T16:26:38.314Z</time></trkpt><trkpt lat="45.7778026" lon="9.9950799"><ele>495.0</ele><time>2026-04-25T16:26:39.315Z</time></trkpt><trkpt lat="45.7778565" lon="9.9950151"><ele>495.0</ele><time>2026-04-25T16:26:40.314Z</time></trkpt><trkpt lat="45.7779164" lon="9.9949603"><ele>494.1666666666667</ele><time>2026-04-25T16:26:41.315Z</time></trkpt><trkpt lat="45.7779699" lon="9.9948863"><ele>493.33333333333337</ele><time>2026-04-25T16:26:42.315Z</time></trkpt><trkpt lat="45.7780699" lon="9.9948342"><ele>492.5</ele><time>2026-04-25T16:26:44.315Z</time></trkpt><trkpt lat="45.7781347" lon="9.9948054"><ele>491.6666666666667</ele><time>2026-04-25T16:26:45.315Z</time></trkpt><trkpt lat="45.7781988" lon="9.9947761"><ele>490.83333333333337</ele><time>2026-04-25T16:26:46.315Z</time></trkpt><trkpt lat="45.7782705" lon="9.9947506"><ele>490.0</ele><time>2026-04-25T16:26:47.314Z</time></trkpt><trkpt lat="45.7783374" lon="9.9946927"><ele>490.0</ele><time>2026-04-25T16:26:48.315Z</time></trkpt><trkpt lat="45.7783942" lon="9.9946402"><ele>490.0</ele><time>2026-04-25T16:26:49.315Z</time></trkpt><trkpt lat="45.7784545" lon="9.9945781"><ele>490.0</ele><time>2026-04-25T16:26:50.315Z</time></trkpt><trkpt lat="45.7785587" lon="9.9944975"><ele>490.0</ele><time>2026-04-25T16:26:52.315Z</time></trkpt><trkpt lat="45.7786476" lon="9.9944204"><ele>490.0</ele><time>2026-04-25T16:26:54.315Z</time></trkpt><trkpt lat="45.7787642" lon="9.9944077"><ele>487.7142857142857</ele><time>2026-04-25T16:26:56.316Z</time></trkpt><trkpt lat="45.7788278" lon="9.9944257"><ele>485.42857142857144</ele><time>2026-04-25T16:26:57.315Z</time></trkpt><trkpt lat="45.7789058" lon="9.9944227"><ele>483.1428571428571</ele><time>2026-04-25T16:26:58.315Z</time></trkpt><trkpt lat="45.7789718" lon="9.9944196"><ele>480.85714285714283</ele><time>2026-04-25T16:26:59.315Z</time></trkpt><trkpt lat="45.7790505" lon="9.9943998"><ele>478.57142857142856</ele><time>2026-04-25T16:27:00.315Z</time></trkpt><trkpt lat="45.7791218" lon="9.9943796"><ele>476.2857142857142</ele><time>2026-04-25T16:27:01.314Z</time></trkpt><trkpt lat="45.7792065" lon="9.994365"><ele>473.99999999999994</ele><time>2026-04-25T16:27:02.315Z</time></trkpt><trkpt lat="45.7792748" lon="9.9943276"><ele>474.0</ele><time>2026-04-25T16:27:03.314Z</time></trkpt><trkpt lat="45.7793439" lon="9.9942757"><ele>474.0</ele><time>2026-04-25T16:27:04.315Z</time></trkpt><trkpt lat="45.7793976" lon="9.9941994"><ele>474.0</ele><time>2026-04-25T16:27:05.314Z</time></trkpt><trkpt lat="45.7795162" lon="9.9940653"><ele>474.0</ele><time>2026-04-25T16:27:07.315Z</time></trkpt><trkpt lat="45.7795832" lon="9.9940208"><ele>474.0</ele><time>2026-04-25T16:27:08.315Z</time></trkpt><trkpt lat="45.7796564" lon="9.9939761"><ele>472.0</ele><time>2026-04-25T16:27:09.315Z</time></trkpt><trkpt lat="45.7797406" lon="9.9939271"><ele>470.0</ele><time>2026-04-25T16:27:10.314Z</time></trkpt><trkpt lat="45.7798142" lon="9.9939047"><ele>468.0</ele><time>2026-04-25T16:27:11.315Z</time></trkpt><trkpt lat="45.77989" lon="9.9938965"><ele>466.0</ele><time>2026-04-25T16:27:12.315Z</time></trkpt><trkpt lat="45.7799666" lon="9.9938929"><ele>464.0</ele><time>2026-04-25T16:27:13.315Z</time></trkpt><trkpt lat="45.7800491" lon="9.993878"><ele>462.0</ele><time>2026-04-25T16:27:14.314Z</time></trkpt><trkpt lat="45.7801098" lon="9.9938503"><ele>458.1666666666667</ele><time>2026-04-25T16:27:15.317Z</time></trkpt><trkpt lat="45.7802246" lon="9.9937576"><ele>454.33333333333337</ele><time>2026-04-25T16:27:17.315Z</time></trkpt><trkpt lat="45.7802646" lon="9.993678"><ele>450.5</ele><time>2026-04-25T16:27:18.315Z</time></trkpt><trkpt lat="45.7803133" lon="9.9935884"><ele>446.6666666666667</ele><time>2026-04-25T16:27:19.315Z</time></trkpt><trkpt lat="45.7803702" lon="9.9935078"><ele>442.83333333333337</ele><time>2026-04-25T16:27:20.315Z</time></trkpt><trkpt lat="45.7804238" lon="9.9934204"><ele>439.0</ele><time>2026-04-25T16:27:21.315Z</time></trkpt><trkpt lat="45.7804797" lon="9.993338"><ele>439.00000000000006</ele><time>2026-04-25T16:27:22.314Z</time></trkpt><trkpt lat="45.7805339" lon="9.99326"><ele>439.0</ele><time>2026-04-25T16:27:23.315Z</time></trkpt><trkpt lat="45.7805809" lon="9.9931658"><ele>439.0</ele><time>2026-04-25T16:27:24.315Z</time></trkpt><trkpt lat="45.7806215" lon="9.9930729"><ele>439.0</ele><time>2026-04-25T16:27:25.314Z</time></trkpt><trkpt lat="45.7806711" lon="9.9929911"><ele>439.00000000000006</ele><time>2026-04-25T16:27:26.315Z</time></trkpt><trkpt lat="45.7807313" lon="9.9929215"><ele>439.0</ele><time>2026-04-25T16:27:27.314Z</time></trkpt><trkpt lat="45.7807951" lon="9.9928587"><ele>439.0</ele><time>2026-04-25T16:27:28.315Z</time></trkpt><trkpt lat="45.7808474" lon="9.9927932"><ele>439.0</ele><time>2026-04-25T16:27:29.315Z</time></trkpt><trkpt lat="45.7808889" lon="9.9927174"><ele>439.0</ele><time>2026-04-25T16:27:30.314Z</time></trkpt><trkpt lat="45.7809352" lon="9.9926332"><ele>439.0</ele><time>2026-04-25T16:27:31.314Z</time></trkpt><trkpt lat="45.7809666" lon="9.9925519"><ele>439.0</ele><time>2026-04-25T16:27:32.315Z</time></trkpt><trkpt lat="45.7809825" lon="9.9924506"><ele>439.0</ele><time>2026-04-25T16:27:33.315Z</time></trkpt><trkpt lat="45.781001" lon="9.9923468"><ele>439.0</ele><time>2026-04-25T16:27:34.315Z</time></trkpt><trkpt lat="45.7810247" lon="9.9922601"><ele>434.79999999999995</ele><time>2026-04-25T16:27:35.315Z</time></trkpt><trkpt lat="45.7810562" lon="9.9921573"><ele>430.59999999999997</ele><time>2026-04-25T16:27:36.316Z</time></trkpt><trkpt lat="45.7810885" lon="9.9920777"><ele>426.4</ele><time>2026-04-25T16:27:37.315Z</time></trkpt><trkpt lat="45.7811892" lon="9.9920012"><ele>422.2</ele><time>2026-04-25T16:27:39.315Z</time></trkpt><trkpt lat="45.7812819" lon="9.9919826"><ele>418.0</ele><time>2026-04-25T16:27:41.314Z</time></trkpt><trkpt lat="45.7813926" lon="9.9920352"><ele>418.00000000000006</ele><time>2026-04-25T16:27:43.315Z</time></trkpt><trkpt lat="45.7814587" lon="9.9921118"><ele>418.0</ele><time>2026-04-25T16:27:45.315Z</time></trkpt><trkpt lat="45.781486" lon="9.9922012"><ele>418.0</ele><time>2026-04-25T16:27:47.314Z</time></trkpt><trkpt lat="45.7815037" lon="9.9923101"><ele>418.0</ele><time>2026-04-25T16:27:49.316Z</time></trkpt><trkpt lat="45.7815503" lon="9.9924027"><ele>418.00000000000006</ele><time>2026-04-25T16:27:51.315Z</time></trkpt><trkpt lat="45.7816327" lon="9.9924033"><ele>418.0</ele><time>2026-04-25T16:27:54.315Z</time></trkpt><trkpt lat="45.781704" lon="9.9923689"><ele>418.00000000000006</ele><time>2026-04-25T16:27:56.316Z</time></trkpt><trkpt lat="45.7818293" lon="9.9922886"><ele>418.0</ele><time>2026-04-25T16:27:58.315Z</time></trkpt><trkpt lat="45.781892" lon="9.992247"><ele>418.0</ele><time>2026-04-25T16:27:59.314Z</time></trkpt><trkpt lat="45.7819644" lon="9.9922351"><ele>418.0</ele><time>2026-04-25T16:28:00.314Z</time></trkpt><trkpt lat="45.7820653" lon="9.9922468"><ele>418.00000000000006</ele><time>2026-04-25T16:28:02.315Z</time></trkpt><trkpt lat="45.782123" lon="9.9922839"><ele>418.0</ele><time>2026-04-25T16:28:03.315Z</time></trkpt><trkpt lat="45.7822383" lon="9.9923016"><ele>414.4</ele><time>2026-04-25T16:28:05.315Z</time></trkpt><trkpt lat="45.78231" lon="9.9922808"><ele>410.79999999999995</ele><time>2026-04-25T16:28:06.315Z</time></trkpt><trkpt lat="45.7824164" lon="9.9922757"><ele>407.2</ele><time>2026-04-25T16:28:08.315Z</time></trkpt><trkpt lat="45.7825076" lon="9.9923472"><ele>403.6</ele><time>2026-04-25T16:28:10.315Z</time></trkpt><trkpt lat="45.7826015" lon="9.992405"><ele>400.0</ele><time>2026-04-25T16:28:12.315Z</time></trkpt><trkpt lat="45.7826986" lon="9.9924491"><ele>394.83333333333337</ele><time>2026-04-25T16:28:14.315Z</time></trkpt><trkpt lat="45.7827174" lon="9.9925382"><ele>389.6666666666667</ele><time>2026-04-25T16:28:15.315Z</time></trkpt><trkpt lat="45.7827548" lon="9.9927163"><ele>384.5</ele><time>2026-04-25T16:28:17.314Z</time></trkpt><trkpt lat="45.7827629" lon="9.9928164"><ele>379.33333333333337</ele><time>2026-04-25T16:28:18.316Z</time></trkpt><trkpt lat="45.7827644" lon="9.9929286"><ele>374.1666666666667</ele><time>2026-04-25T16:28:19.315Z</time></trkpt><trkpt lat="45.7827583" lon="9.9930243"><ele>369.0</ele><time>2026-04-25T16:28:20.315Z</time></trkpt><trkpt lat="45.7827304" lon="9.9931202"><ele>369.0</ele><time>2026-04-25T16:28:21.315Z</time></trkpt><trkpt lat="45.7827018" lon="9.9932648"><ele>369.0</ele><time>2026-04-25T16:28:23.315Z</time></trkpt><trkpt lat="45.782683" lon="9.9933535"><ele>369.0</ele><time>2026-04-25T16:28:24.315Z</time></trkpt><trkpt lat="45.782664" lon="9.9934527"><ele>369.0</ele><time>2026-04-25T16:28:25.315Z</time></trkpt><trkpt lat="45.7826513" lon="9.9935736"><ele>369.0</ele><time>2026-04-25T16:28:26.314Z</time></trkpt><trkpt lat="45.7826416" lon="9.9936692"><ele>369.0</ele><time>2026-04-25T16:28:27.314Z</time></trkpt><trkpt lat="45.7826207" lon="9.9937917"><ele>371.1666666666667</ele><time>2026-04-25T16:28:28.314Z</time></trkpt><trkpt lat="45.7826184" lon="9.9939042"><ele>373.3333333333333</ele><time>2026-04-25T16:28:29.315Z</time></trkpt><trkpt lat="45.7826134" lon="9.9940154"><ele>375.5</ele><time>2026-04-25T16:28:30.315Z</time></trkpt><trkpt lat="45.7826033" lon="9.9941332"><ele>377.66666666666663</ele><time>2026-04-25T16:28:31.315Z</time></trkpt><trkpt lat="45.7826034" lon="9.9942487"><ele>379.8333333333333</ele><time>2026-04-25T16:28:32.316Z</time></trkpt><trkpt lat="45.7825964" lon="9.9943971"><ele>382.0</ele><time>2026-04-25T16:28:34.315Z</time></trkpt><trkpt lat="45.7825907" lon="9.9945498"><ele>382.0</ele><time>2026-04-25T16:28:36.315Z</time></trkpt><trkpt lat="45.7826551" lon="9.9947253"><ele>382.0</ele><time>2026-04-25T16:28:38.315Z</time></trkpt><trkpt lat="45.7827086" lon="9.9948025"><ele>382.0</ele><time>2026-04-25T16:28:39.315Z</time></trkpt><trkpt lat="45.7828003" lon="9.994887"><ele>382.0</ele><time>2026-04-25T16:28:40.315Z</time></trkpt><trkpt lat="45.7828882" lon="9.9949621"><ele>382.0</ele><time>2026-04-25T16:28:41.315Z</time></trkpt><trkpt lat="45.7829908" lon="9.9950208"><ele>378.5</ele><time>2026-04-25T16:28:42.315Z</time></trkpt><trkpt lat="45.7831224" lon="9.9950649"><ele>375.0</ele><time>2026-04-25T16:28:43.315Z</time></trkpt><trkpt lat="45.7832626" lon="9.9950942"><ele>371.5</ele><time>2026-04-25T16:28:44.315Z</time></trkpt><trkpt lat="45.7834052" lon="9.9951273"><ele>368.0</ele><time>2026-04-25T16:28:45.314Z</time></trkpt><trkpt lat="45.783534" lon="9.9951604"><ele>366.0</ele><time>2026-04-25T16:28:46.314Z</time></trkpt><trkpt lat="45.7836623" lon="9.9951884"><ele>364.0</ele><time>2026-04-25T16:28:47.315Z</time></trkpt><trkpt lat="45.7837745" lon="9.9951986"><ele>362.0</ele><time>2026-04-25T16:28:48.314Z</time></trkpt><trkpt lat="45.7838809" lon="9.9951903"><ele>360.0</ele><time>2026-04-25T16:28:49.314Z</time></trkpt><trkpt lat="45.7839956" lon="9.9951749"><ele>360.0</ele><time>2026-04-25T16:28:50.315Z</time></trkpt><trkpt lat="45.7841253" lon="9.9952007"><ele>360.0</ele><time>2026-04-25T16:28:51.315Z</time></trkpt><trkpt lat="45.7842358" lon="9.9952358"><ele>360.0</ele><time>2026-04-25T16:28:52.315Z</time></trkpt><trkpt lat="45.7843262" lon="9.9952511"><ele>360.0</ele><time>2026-04-25T16:28:53.314Z</time></trkpt><trkpt lat="45.784414" lon="9.9952629"><ele>360.0</ele><time>2026-04-25T16:28:54.315Z</time></trkpt><trkpt lat="45.7845139" lon="9.9952508"><ele>358.75</ele><time>2026-04-25T16:28:55.314Z</time></trkpt><trkpt lat="45.7846248" lon="9.9952231"><ele>357.5</ele><time>2026-04-25T16:28:56.316Z</time></trkpt><trkpt lat="45.7847547" lon="9.9952042"><ele>356.25</ele><time>2026-04-25T16:28:57.314Z</time></trkpt><trkpt lat="45.7849031" lon="9.9952109"><ele>355.0</ele><time>2026-04-25T16:28:58.315Z</time></trkpt><trkpt lat="45.7850541" lon="9.9952153"><ele>353.5</ele><time>2026-04-25T16:28:59.315Z</time></trkpt><trkpt lat="45.7851897" lon="9.9952197"><ele>352.0</ele><time>2026-04-25T16:29:00.315Z</time></trkpt><trkpt lat="45.7853076" lon="9.9952053"><ele>350.5</ele><time>2026-04-25T16:29:01.315Z</time></trkpt><trkpt lat="45.7854272" lon="9.9951751"><ele>349.0</ele><time>2026-04-25T16:29:02.315Z</time></trkpt><trkpt lat="45.7855314" lon="9.9951163"><ele>349.0</ele><time>2026-04-25T16:29:03.316Z</time></trkpt><trkpt lat="45.785623" lon="9.9950274"><ele>349.0</ele><time>2026-04-25T16:29:04.315Z</time></trkpt><trkpt lat="45.7857065" lon="9.9949356"><ele>349.0</ele><time>2026-04-25T16:29:05.315Z</time></trkpt><trkpt lat="45.7857604" lon="9.9947998"><ele>349.0</ele><time>2026-04-25T16:29:07.314Z</time></trkpt><trkpt lat="45.7857558" lon="9.9946354"><ele>349.0</ele><time>2026-04-25T16:29:09.315Z</time></trkpt><trkpt lat="45.785763" lon="9.9945011"><ele>349.0</ele><time>2026-04-25T16:29:11.315Z</time></trkpt><trkpt lat="45.7858506" lon="9.9943575"><ele>349.0</ele><time>2026-04-25T16:29:13.315Z</time></trkpt><trkpt lat="45.7859527" lon="9.9942633"><ele>349.0</ele><time>2026-04-25T16:29:14.315Z</time></trkpt><trkpt lat="45.7860383" lon="9.9941667"><ele>349.0</ele><time>2026-04-25T16:29:15.315Z</time></trkpt><trkpt lat="45.7861174" lon="9.9940891"><ele>348.4</ele><time>2026-04-25T16:29:16.315Z</time></trkpt><trkpt lat="45.7862085" lon="9.9940254"><ele>347.79999999999995</ele><time>2026-04-25T16:29:18.316Z</time></trkpt><trkpt lat="45.7862669" lon="9.9939227"><ele>347.20000000000005</ele><time>2026-04-25T16:29:21.315Z</time></trkpt><trkpt lat="45.786255" lon="9.9937188"><ele>346.6</ele><time>2026-04-25T16:29:23.316Z</time></trkpt><trkpt lat="45.7862285" lon="9.9936133"><ele>346.0</ele><time>2026-04-25T16:29:24.315Z</time></trkpt><trkpt lat="45.7861992" lon="9.9934996"><ele>346.0</ele><time>2026-04-25T16:29:25.314Z</time></trkpt><trkpt lat="45.7861615" lon="9.9933765"><ele>346.0</ele><time>2026-04-25T16:29:26.315Z</time></trkpt><trkpt lat="45.7861082" lon="9.9932598"><ele>346.0</ele><time>2026-04-25T16:29:27.315Z</time></trkpt><trkpt lat="45.7860406" lon="9.9931389"><ele>346.0</ele><time>2026-04-25T16:29:28.315Z</time></trkpt><trkpt lat="45.7859742" lon="9.9930303"><ele>346.0</ele><time>2026-04-25T16:29:29.315Z</time></trkpt><trkpt lat="45.7859105" lon="9.99293"><ele>346.16666666666663</ele><time>2026-04-25T16:29:30.316Z</time></trkpt><trkpt lat="45.7858505" lon="9.9928309"><ele>346.3333333333333</ele><time>2026-04-25T16:29:31.316Z</time></trkpt><trkpt lat="45.7857895" lon="9.9927383"><ele>346.5</ele><time>2026-04-25T16:29:32.315Z</time></trkpt><trkpt lat="45.7857451" lon="9.9926443"><ele>346.6666666666667</ele><time>2026-04-25T16:29:33.314Z</time></trkpt><trkpt lat="45.7857031" lon="9.9925545"><ele>346.83333333333337</ele><time>2026-04-25T16:29:34.315Z</time></trkpt><trkpt lat="45.785672" lon="9.9924673"><ele>347.0</ele><time>2026-04-25T16:29:35.315Z</time></trkpt><trkpt lat="45.7856253" lon="9.9922905"><ele>346.5714285714286</ele><time>2026-04-25T16:29:37.315Z</time></trkpt><trkpt lat="45.7855981" lon="9.992199"><ele>346.1428571428571</ele><time>2026-04-25T16:29:38.315Z</time></trkpt><trkpt lat="45.7855695" lon="9.9921022"><ele>345.7142857142857</ele><time>2026-04-25T16:29:39.314Z</time></trkpt><trkpt lat="45.7855377" lon="9.992018"><ele>345.28571428571433</ele><time>2026-04-25T16:29:40.315Z</time></trkpt><trkpt lat="45.7855058" lon="9.9919249"><ele>344.8571428571429</ele><time>2026-04-25T16:29:41.315Z</time></trkpt><trkpt lat="45.7854687" lon="9.9918288"><ele>344.42857142857144</ele><time>2026-04-25T16:29:42.314Z</time></trkpt><trkpt lat="45.7854259" lon="9.9917247"><ele>344.0</ele><time>2026-04-25T16:29:43.315Z</time></trkpt><trkpt lat="45.7853744" lon="9.9916066"><ele>343.83333333333337</ele><time>2026-04-25T16:29:44.314Z</time></trkpt><trkpt lat="45.7853323" lon="9.9915005"><ele>343.6666666666667</ele><time>2026-04-25T16:29:45.314Z</time></trkpt><trkpt lat="45.78529" lon="9.9913938"><ele>343.5</ele><time>2026-04-25T16:29:46.315Z</time></trkpt><trkpt lat="45.7852462" lon="9.9912919"><ele>343.3333333333333</ele><time>2026-04-25T16:29:47.315Z</time></trkpt><trkpt lat="45.7851993" lon="9.9911836"><ele>343.16666666666663</ele><time>2026-04-25T16:29:48.315Z</time></trkpt><trkpt lat="45.7851453" lon="9.9910821"><ele>343.0</ele><time>2026-04-25T16:29:49.315Z</time></trkpt><trkpt lat="45.7850867" lon="9.9909699"><ele>343.16666666666663</ele><time>2026-04-25T16:29:50.316Z</time></trkpt><trkpt lat="45.785041" lon="9.9908652"><ele>343.3333333333333</ele><time>2026-04-25T16:29:51.316Z</time></trkpt><trkpt lat="45.784992" lon="9.9907658"><ele>343.5</ele><time>2026-04-25T16:29:52.314Z</time></trkpt><trkpt lat="45.784945" lon="9.9906662"><ele>343.6666666666667</ele><time>2026-04-25T16:29:53.315Z</time></trkpt><trkpt lat="45.7849078" lon="9.9905718"><ele>343.83333333333337</ele><time>2026-04-25T16:29:54.314Z</time></trkpt><trkpt lat="45.78487" lon="9.9904646"><ele>344.0</ele><time>2026-04-25T16:29:55.314Z</time></trkpt><trkpt lat="45.7848321" lon="9.9903573"><ele>344.0</ele><time>2026-04-25T16:29:56.316Z</time></trkpt><trkpt lat="45.784797" lon="9.9902438"><ele>344.0</ele><time>2026-04-25T16:29:57.315Z</time></trkpt><trkpt lat="45.7847608" lon="9.9901244"><ele>344.0</ele><time>2026-04-25T16:29:58.314Z</time></trkpt><trkpt lat="45.7847234" lon="9.9900079"><ele>344.0</ele><time>2026-04-25T16:29:59.315Z</time></trkpt><trkpt lat="45.7846801" lon="9.9898802"><ele>344.0</ele><time>2026-04-25T16:30:00.316Z</time></trkpt><trkpt lat="45.784644" lon="9.989753"><ele>343.2</ele><time>2026-04-25T16:30:01.315Z</time></trkpt><trkpt lat="45.7846129" lon="9.9896239"><ele>342.4</ele><time>2026-04-25T16:30:02.315Z</time></trkpt><trkpt lat="45.7845855" lon="9.9894907"><ele>341.6</ele><time>2026-04-25T16:30:03.316Z</time></trkpt><trkpt lat="45.7845618" lon="9.9893522"><ele>340.8</ele><time>2026-04-25T16:30:04.315Z</time></trkpt><trkpt lat="45.7845462" lon="9.989231"><ele>340.0</ele><time>2026-04-25T16:30:05.315Z</time></trkpt><trkpt lat="45.7845282" lon="9.9890944"><ele>339.5</ele><time>2026-04-25T16:30:06.315Z</time></trkpt><trkpt lat="45.784493" lon="9.9889151"><ele>339.0</ele><time>2026-04-25T16:30:07.315Z</time></trkpt><trkpt lat="45.7844761" lon="9.9887036"><ele>338.5</ele><time>2026-04-25T16:30:08.315Z</time></trkpt><trkpt lat="45.7844739" lon="9.9884805"><ele>338.0</ele><time>2026-04-25T16:30:09.314Z</time></trkpt><trkpt lat="45.7844471" lon="9.9882885"><ele>338.0</ele><time>2026-04-25T16:30:10.315Z</time></trkpt><trkpt lat="45.7844008" lon="9.9880982"><ele>338.0</ele><time>2026-04-25T16:30:11.314Z</time></trkpt><trkpt lat="45.7843151" lon="9.9879106"><ele>338.0</ele><time>2026-04-25T16:30:12.315Z</time></trkpt><trkpt lat="45.7842126" lon="9.9877241"><ele>339.6666666666667</ele><time>2026-04-25T16:30:13.315Z</time></trkpt><trkpt lat="45.7841141" lon="9.9875395"><ele>341.3333333333333</ele><time>2026-04-25T16:30:14.315Z</time></trkpt><trkpt lat="45.7840211" lon="9.9873306"><ele>343.0</ele><time>2026-04-25T16:30:15.314Z</time></trkpt><trkpt lat="45.7839459" lon="9.987112"><ele>343.0</ele><time>2026-04-25T16:30:16.315Z</time></trkpt><trkpt lat="45.7838805" lon="9.9868624"><ele>343.0</ele><time>2026-04-25T16:30:17.315Z</time></trkpt><trkpt lat="45.7838058" lon="9.9866163"><ele>343.0</ele><time>2026-04-25T16:30:18.315Z</time></trkpt><trkpt lat="45.7837325" lon="9.9863859"><ele>343.0</ele><time>2026-04-25T16:30:19.314Z</time></trkpt><trkpt lat="45.7836678" lon="9.9861579"><ele>343.0</ele><time>2026-04-25T16:30:20.315Z</time></trkpt><trkpt lat="45.7836136" lon="9.9859239"><ele>343.0</ele><time>2026-04-25T16:30:21.315Z</time></trkpt><trkpt lat="45.7835855" lon="9.9857021"><ele>344.3333333333333</ele><time>2026-04-25T16:30:22.315Z</time></trkpt><trkpt lat="45.7835804" lon="9.9854736"><ele>345.6666666666667</ele><time>2026-04-25T16:30:23.315Z</time></trkpt><trkpt lat="45.783574" lon="9.9852488"><ele>347.0</ele><time>2026-04-25T16:30:24.315Z</time></trkpt><trkpt lat="45.7835433" lon="9.9850477"><ele>348.8</ele><time>2026-04-25T16:30:25.314Z</time></trkpt><trkpt lat="45.7835015" lon="9.9848932"><ele>350.6</ele><time>2026-04-25T16:30:26.315Z</time></trkpt><trkpt lat="45.7834578" lon="9.9847782"><ele>352.40000000000003</ele><time>2026-04-25T16:30:27.315Z</time></trkpt><trkpt lat="45.7834282" lon="9.9846961"><ele>354.20000000000005</ele><time>2026-04-25T16:30:28.316Z</time></trkpt><trkpt lat="45.7833724" lon="9.9845461"><ele>356.0</ele><time>2026-04-25T16:30:30.315Z</time></trkpt><trkpt lat="45.7833183" lon="9.9844239"><ele>356.0</ele><time>2026-04-25T16:30:31.315Z</time></trkpt><trkpt lat="45.7832655" lon="9.9842898"><ele>356.0</ele><time>2026-04-25T16:30:32.314Z</time></trkpt><trkpt lat="45.7832189" lon="9.9841498"><ele>356.0</ele><time>2026-04-25T16:30:33.315Z</time></trkpt><trkpt lat="45.7831784" lon="9.9840188"><ele>356.0</ele><time>2026-04-25T16:30:34.315Z</time></trkpt><trkpt lat="45.7831473" lon="9.9839022"><ele>356.0</ele><time>2026-04-25T16:30:35.315Z</time></trkpt><trkpt lat="45.7831199" lon="9.9837816"><ele>356.6666666666667</ele><time>2026-04-25T16:30:36.314Z</time></trkpt><trkpt lat="45.7830968" lon="9.9836599"><ele>357.33333333333337</ele><time>2026-04-25T16:30:37.316Z</time></trkpt><trkpt lat="45.7830771" lon="9.9835512"><ele>358.0</ele><time>2026-04-25T16:30:38.315Z</time></trkpt><trkpt lat="45.7830504" lon="9.9834441"><ele>358.6666666666667</ele><time>2026-04-25T16:30:39.315Z</time></trkpt><trkpt lat="45.7830284" lon="9.9833403"><ele>359.3333333333333</ele><time>2026-04-25T16:30:40.315Z</time></trkpt><trkpt lat="45.7830211" lon="9.9832335"><ele>360.0</ele><time>2026-04-25T16:30:41.315Z</time></trkpt><trkpt lat="45.7830197" lon="9.9831366"><ele>361.0</ele><time>2026-04-25T16:30:42.32Z</time></trkpt><trkpt lat="45.7830373" lon="9.9829983"><ele>362.0</ele><time>2026-04-25T16:30:44.315Z</time></trkpt><trkpt lat="45.7831516" lon="9.9829041"><ele>363.0</ele><time>2026-04-25T16:30:46.314Z</time></trkpt><trkpt lat="45.7832163" lon="9.9828984"><ele>364.0</ele><time>2026-04-25T16:30:47.314Z</time></trkpt><trkpt lat="45.7832827" lon="9.9828892"><ele>365.0</ele><time>2026-04-25T16:30:48.314Z</time></trkpt><trkpt lat="45.7834085" lon="9.9829038"><ele>365.0</ele><time>2026-04-25T16:30:49.314Z</time></trkpt><trkpt lat="45.7834941" lon="9.9828857"><ele>365.0</ele><time>2026-04-25T16:30:50.315Z</time></trkpt><trkpt lat="45.7835935" lon="9.9828716"><ele>365.0</ele><time>2026-04-25T16:30:51.315Z</time></trkpt><trkpt lat="45.7836952" lon="9.9828567"><ele>365.0</ele><time>2026-04-25T16:30:52.314Z</time></trkpt><trkpt lat="45.7837996" lon="9.9828425"><ele>365.0</ele><time>2026-04-25T16:30:53.315Z</time></trkpt><trkpt lat="45.7838996" lon="9.9828268"><ele>363.0</ele><time>2026-04-25T16:30:54.316Z</time></trkpt><trkpt lat="45.7839996" lon="9.9828077"><ele>361.0</ele><time>2026-04-25T16:30:55.314Z</time></trkpt><trkpt lat="45.784098" lon="9.9828088"><ele>359.0</ele><time>2026-04-25T16:30:56.314Z</time></trkpt><trkpt lat="45.7841943" lon="9.9828065"><ele>357.0</ele><time>2026-04-25T16:30:57.314Z</time></trkpt><trkpt lat="45.7842938" lon="9.9828036"><ele>355.0</ele><time>2026-04-25T16:30:58.315Z</time></trkpt><trkpt lat="45.7843965" lon="9.9827929"><ele>353.6</ele><time>2026-04-25T16:30:59.315Z</time></trkpt><trkpt lat="45.7844954" lon="9.982796"><ele>352.2</ele><time>2026-04-25T16:31:00.315Z</time></trkpt><trkpt lat="45.7845929" lon="9.9827947"><ele>350.79999999999995</ele><time>2026-04-25T16:31:01.315Z</time></trkpt><trkpt lat="45.7846912" lon="9.9827966"><ele>349.4</ele><time>2026-04-25T16:31:02.315Z</time></trkpt><trkpt lat="45.7847916" lon="9.9828144"><ele>348.0</ele><time>2026-04-25T16:31:03.315Z</time></trkpt><trkpt lat="45.784888" lon="9.9828402"><ele>348.0</ele><time>2026-04-25T16:31:04.316Z</time></trkpt><trkpt lat="45.7849846" lon="9.9828594"><ele>348.0</ele><time>2026-04-25T16:31:05.315Z</time></trkpt><trkpt lat="45.7850936" lon="9.9828797"><ele>348.0</ele><time>2026-04-25T16:31:06.315Z</time></trkpt><trkpt lat="45.785188" lon="9.9829105"><ele>348.0</ele><time>2026-04-25T16:31:07.315Z</time></trkpt><trkpt lat="45.7852843" lon="9.9829435"><ele>348.0</ele><time>2026-04-25T16:31:08.316Z</time></trkpt><trkpt lat="45.7853773" lon="9.9829317"><ele>347.0</ele><time>2026-04-25T16:31:09.315Z</time></trkpt><trkpt lat="45.7854688" lon="9.9829175"><ele>346.0</ele><time>2026-04-25T16:31:10.315Z</time></trkpt><trkpt lat="45.7855586" lon="9.9829045"><ele>345.0</ele><time>2026-04-25T16:31:11.315Z</time></trkpt><trkpt lat="45.7856493" lon="9.9828888"><ele>344.0</ele><time>2026-04-25T16:31:12.315Z</time></trkpt><trkpt lat="45.7857419" lon="9.9828519"><ele>343.0</ele><time>2026-04-25T16:31:13.315Z</time></trkpt><trkpt lat="45.785828" lon="9.9828037"><ele>343.0</ele><time>2026-04-25T16:31:14.314Z</time></trkpt><trkpt lat="45.7859173" lon="9.9827507"><ele>343.0</ele><time>2026-04-25T16:31:15.316Z</time></trkpt><trkpt lat="45.7860085" lon="9.9826968"><ele>343.0</ele><time>2026-04-25T16:31:16.314Z</time></trkpt><trkpt lat="45.7861016" lon="9.9826326"><ele>343.0</ele><time>2026-04-25T16:31:17.315Z</time></trkpt><trkpt lat="45.786191" lon="9.9825558"><ele>343.0</ele><time>2026-04-25T16:31:18.315Z</time></trkpt><trkpt lat="45.7862868" lon="9.9824871"><ele>342.25</ele><time>2026-04-25T16:31:19.315Z</time></trkpt><trkpt lat="45.7863878" lon="9.9824183"><ele>341.5</ele><time>2026-04-25T16:31:20.315Z</time></trkpt><trkpt lat="45.7864971" lon="9.9823545"><ele>340.75</ele><time>2026-04-25T16:31:21.315Z</time></trkpt><trkpt lat="45.786608" lon="9.982298"><ele>340.0</ele><time>2026-04-25T16:31:22.315Z</time></trkpt><trkpt lat="45.7867207" lon="9.9822426"><ele>340.0</ele><time>2026-04-25T16:31:23.315Z</time></trkpt><trkpt lat="45.7868293" lon="9.9821828"><ele>340.0</ele><time>2026-04-25T16:31:24.315Z</time></trkpt><trkpt lat="45.7869411" lon="9.9821193"><ele>340.0</ele><time>2026-04-25T16:31:25.314Z</time></trkpt><trkpt lat="45.7870515" lon="9.982058"><ele>340.0</ele><time>2026-04-25T16:31:26.315Z</time></trkpt><trkpt lat="45.7871638" lon="9.9820005"><ele>339.75</ele><time>2026-04-25T16:31:27.315Z</time></trkpt><trkpt lat="45.7872709" lon="9.9819432"><ele>339.5</ele><time>2026-04-25T16:31:28.314Z</time></trkpt><trkpt lat="45.7873805" lon="9.9818927"><ele>339.25</ele><time>2026-04-25T16:31:29.315Z</time></trkpt><trkpt lat="45.7874871" lon="9.9818396"><ele>339.0</ele><time>2026-04-25T16:31:30.315Z</time></trkpt><trkpt lat="45.7875907" lon="9.9817946"><ele>339.0</ele><time>2026-04-25T16:31:31.315Z</time></trkpt><trkpt lat="45.7876896" lon="9.9817421"><ele>339.0</ele><time>2026-04-25T16:31:32.315Z</time></trkpt><trkpt lat="45.787778" lon="9.9816976"><ele>339.0</ele><time>2026-04-25T16:31:33.315Z</time></trkpt><trkpt lat="45.787867" lon="9.9816531"><ele>339.0</ele><time>2026-04-25T16:31:34.314Z</time></trkpt><trkpt lat="45.7879448" lon="9.9816107"><ele>339.0</ele><time>2026-04-25T16:31:35.315Z</time></trkpt><trkpt lat="45.7880159" lon="9.9815808"><ele>339.1666666666667</ele><time>2026-04-25T16:31:36.316Z</time></trkpt><trkpt lat="45.7880776" lon="9.9815529"><ele>339.3333333333333</ele><time>2026-04-25T16:31:37.315Z</time></trkpt><trkpt lat="45.7881574" lon="9.9815171"><ele>339.5</ele><time>2026-04-25T16:31:39.314Z</time></trkpt><trkpt lat="45.7881971" lon="9.9814117"><ele>339.66666666666663</ele><time>2026-04-25T16:31:42.314Z</time></trkpt><trkpt lat="45.7880973" lon="9.9812925"><ele>339.8333333333333</ele><time>2026-04-25T16:31:44.315Z</time></trkpt><trkpt lat="45.7880337" lon="9.9812329"><ele>340.0</ele><time>2026-04-25T16:31:45.315Z</time></trkpt><trkpt lat="45.7879636" lon="9.9811455"><ele>340.0</ele><time>2026-04-25T16:31:46.314Z</time></trkpt><trkpt lat="45.7878975" lon="9.9810422"><ele>340.0</ele><time>2026-04-25T16:31:47.316Z</time></trkpt><trkpt lat="45.7878303" lon="9.9809188"><ele>340.0</ele><time>2026-04-25T16:31:48.314Z</time></trkpt><trkpt lat="45.7877667" lon="9.9807764"><ele>340.0</ele><time>2026-04-25T16:31:49.315Z</time></trkpt><trkpt lat="45.7877239" lon="9.9806202"><ele>340.0</ele><time>2026-04-25T16:31:50.315Z</time></trkpt><trkpt lat="45.7876918" lon="9.9804648"><ele>339.8333333333333</ele><time>2026-04-25T16:31:51.315Z</time></trkpt><trkpt lat="45.7876668" lon="9.9803253"><ele>339.66666666666663</ele><time>2026-04-25T16:31:52.315Z</time></trkpt><trkpt lat="45.7876379" lon="9.9801998"><ele>339.5</ele><time>2026-04-25T16:31:53.315Z</time></trkpt><trkpt lat="45.7876197" lon="9.9800886"><ele>339.3333333333333</ele><time>2026-04-25T16:31:54.315Z</time></trkpt><trkpt lat="45.7876005" lon="9.9799795"><ele>339.1666666666667</ele><time>2026-04-25T16:31:55.315Z</time></trkpt><trkpt lat="45.7875799" lon="9.9798888"><ele>339.0</ele><time>2026-04-25T16:31:56.315Z</time></trkpt><trkpt lat="45.7875479" lon="9.9797458"><ele>338.85714285714283</ele><time>2026-04-25T16:31:58.315Z</time></trkpt><trkpt lat="45.7875769" lon="9.9796563"><ele>338.7142857142857</ele><time>2026-04-25T16:32:01.315Z</time></trkpt><trkpt lat="45.7876206" lon="9.9797524"><ele>338.57142857142856</ele><time>2026-04-25T16:33:21.316Z</time></trkpt><trkpt lat="45.7876892" lon="9.9797388"><ele>338.42857142857144</ele><time>2026-04-25T16:33:23.315Z</time></trkpt><trkpt lat="45.7877643" lon="9.9797064"><ele>338.2857142857143</ele><time>2026-04-25T16:33:25.315Z</time></trkpt><trkpt lat="45.7877599" lon="9.9798038"><ele>338.14285714285717</ele><time>2026-04-25T16:34:15.315Z</time></trkpt><trkpt lat="45.7878054" lon="9.9797396"><ele>338.0</ele><time>2026-04-25T16:34:31.315Z</time></trkpt><trkpt lat="45.7877328" lon="9.9797832"><ele>338.0</ele><time>2026-04-25T16:34:52.315Z</time></trkpt><trkpt lat="45.7878049" lon="9.9797662"><ele>338.0</ele><time>2026-04-25T16:35:25.316Z</time></trkpt><trkpt lat="45.7877338" lon="9.9797791"><ele>338.0</ele><time>2026-04-25T16:35:58.315Z</time></trkpt><trkpt lat="45.7876645" lon="9.9798025"><ele>338.0</ele><time>2026-04-25T16:36:10.315Z</time></trkpt><trkpt lat="45.7876312" lon="9.9797125"><ele>338.0</ele><time>2026-04-25T16:36:18.316Z</time></trkpt><trkpt lat="45.7876076" lon="9.9796283"><ele>338.0</ele><time>2026-04-25T16:36:28.315Z</time></trkpt><trkpt lat="45.7876692" lon="9.9795821"><ele>338.0</ele><time>2026-04-25T16:36:59.236Z</time></trkpt><trkpt lat="45.7877087" lon="9.9796608"><ele>336.0</ele><time>2026-04-25T16:37:06.314Z</time></trkpt></trkseg></trk></gpx>